<?xml version="1.0" encoding="utf-8"?>
<gpx xmlns:xsi="http://www.w3.org/2001/XMLSchema-instance" xmlns:xsd="http://www.w3.org/2001/XMLSchema" version="1.1" creator="Shapelink.com" xmlns="http://www.topografix.com/GPX/1/1" xmlns:gpxtpx="http://www.garmin.com/xmlschemas/TrackPointExtension/v1">
  <metadata>
    <name>Löpning 23.20 km, 2018-04-30</name>
    <desc></desc>
    <author><name>Bengt-Åke Forslund</name></author> 
    <time>2018-04-30T08:41:57Z</time>
  </metadata>
  <trk>
    <name>Löpning 23.20 km, 2018-04-30</name>
    <trkseg>
      <trkpt lat="62.636711841297" lon="17.915622090182">
        <ele>34.6</ele>
        <time>2018-04-30T08:41:57Z</time>
      </trkpt>
      <trkpt lat="62.636781913981" lon="17.916020984803">
        <ele>34</ele>
        <time>2018-04-30T08:42:18Z</time>
      </trkpt>
      <trkpt lat="62.6367903797" lon="17.916095080799">
        <ele>34</ele>
        <time>2018-04-30T08:42:19Z</time>
      </trkpt>
      <trkpt lat="62.636798593962" lon="17.916171607546">
        <ele>33.8</ele>
        <time>2018-04-30T08:42:20Z</time>
      </trkpt>
      <trkpt lat="62.63680546712" lon="17.916240925859">
        <ele>33.6</ele>
        <time>2018-04-30T08:42:21Z</time>
      </trkpt>
      <trkpt lat="62.636813597563" lon="17.916329857818">
        <ele>33.4</ele>
        <time>2018-04-30T08:42:22Z</time>
      </trkpt>
      <trkpt lat="62.636819883988" lon="17.916405714013">
        <ele>33.2</ele>
        <time>2018-04-30T08:42:23Z</time>
      </trkpt>
      <trkpt lat="62.636825835137" lon="17.916485006787">
        <ele>32.8</ele>
        <time>2018-04-30T08:42:24Z</time>
      </trkpt>
      <trkpt lat="62.636831534829" lon="17.916552564901">
        <ele>32.8</ele>
        <time>2018-04-30T08:42:25Z</time>
      </trkpt>
      <trkpt lat="62.636835306684" lon="17.916614339504">
        <ele>32.6</ele>
        <time>2018-04-30T08:42:26Z</time>
      </trkpt>
      <trkpt lat="62.636838324168" lon="17.916679718324">
        <ele>32.6</ele>
        <time>2018-04-30T08:42:27Z</time>
      </trkpt>
      <trkpt lat="62.636842012204" lon="17.916744761868">
        <ele>32.4</ele>
        <time>2018-04-30T08:42:28Z</time>
      </trkpt>
      <trkpt lat="62.636847963353" lon="17.916797567838">
        <ele>32.4</ele>
        <time>2018-04-30T08:42:29Z</time>
      </trkpt>
      <trkpt lat="62.636854501235" lon="17.916845093211">
        <ele>32.4</ele>
        <time>2018-04-30T08:42:30Z</time>
      </trkpt>
      <trkpt lat="62.636858440728" lon="17.916889098186">
        <ele>32.4</ele>
        <time>2018-04-30T08:42:31Z</time>
      </trkpt>
      <trkpt lat="62.636860871479" lon="17.91693905431">
        <ele>32.4</ele>
        <time>2018-04-30T08:42:32Z</time>
      </trkpt>
      <trkpt lat="62.636861290574" lon="17.916984987122">
        <ele>32.6</ele>
        <time>2018-04-30T08:42:33Z</time>
      </trkpt>
      <trkpt lat="62.636862631678" lon="17.917030333201">
        <ele>32.6</ele>
        <time>2018-04-30T08:42:34Z</time>
      </trkpt>
      <trkpt lat="62.636865146248" lon="17.917066375371">
        <ele>32.6</ele>
        <time>2018-04-30T08:42:35Z</time>
      </trkpt>
      <trkpt lat="62.636867744637" lon="17.917100908799">
        <ele>32.6</ele>
        <time>2018-04-30T08:42:36Z</time>
      </trkpt>
      <trkpt lat="62.63687084594" lon="17.917145416688">
        <ele>32.6</ele>
        <time>2018-04-30T08:42:37Z</time>
      </trkpt>
      <trkpt lat="62.636876042718" lon="17.91718967312">
        <ele>32.6</ele>
        <time>2018-04-30T08:42:38Z</time>
      </trkpt>
      <trkpt lat="62.636890878681" lon="17.91723158262">
        <ele>32.6</ele>
        <time>2018-04-30T08:42:39Z</time>
      </trkpt>
      <trkpt lat="62.636916443476" lon="17.917254465207">
        <ele>32.4</ele>
        <time>2018-04-30T08:42:40Z</time>
      </trkpt>
      <trkpt lat="62.63694376847" lon="17.917266870419">
        <ele>32.4</ele>
        <time>2018-04-30T08:42:41Z</time>
      </trkpt>
      <trkpt lat="62.636976122604" lon="17.917276761061">
        <ele>32.4</ele>
        <time>2018-04-30T08:42:42Z</time>
      </trkpt>
      <trkpt lat="62.63700747091" lon="17.917273324482">
        <ele>32.4</ele>
        <time>2018-04-30T08:42:43Z</time>
      </trkpt>
      <trkpt lat="62.637037981026" lon="17.917263350021">
        <ele>32.4</ele>
        <time>2018-04-30T08:42:44Z</time>
      </trkpt>
      <trkpt lat="62.637066395667" lon="17.917253207922">
        <ele>32.6</ele>
        <time>2018-04-30T08:42:45Z</time>
      </trkpt>
      <trkpt lat="62.637096821964" lon="17.917241808538">
        <ele>32.8</ele>
        <time>2018-04-30T08:42:46Z</time>
      </trkpt>
      <trkpt lat="62.637127834994" lon="17.91723242081">
        <ele>33</ele>
        <time>2018-04-30T08:42:47Z</time>
      </trkpt>
      <trkpt lat="62.637154573255" lon="17.917226302023">
        <ele>33</ele>
        <time>2018-04-30T08:42:48Z</time>
      </trkpt>
      <trkpt lat="62.637182568801" lon="17.917218758313">
        <ele>33.2</ele>
        <time>2018-04-30T08:42:49Z</time>
      </trkpt>
      <trkpt lat="62.63721115108" lon="17.917212471888">
        <ele>33.4</ele>
        <time>2018-04-30T08:42:50Z</time>
      </trkpt>
      <trkpt lat="62.637240236273" lon="17.917207861843">
        <ele>33.6</ele>
        <time>2018-04-30T08:42:51Z</time>
      </trkpt>
      <trkpt lat="62.637261107204" lon="17.917191433319">
        <ele>33.8</ele>
        <time>2018-04-30T08:42:52Z</time>
      </trkpt>
      <trkpt lat="62.637291449682" lon="17.917179279564">
        <ele>34</ele>
        <time>2018-04-30T08:42:53Z</time>
      </trkpt>
      <trkpt lat="62.637320199599" lon="17.917169640379">
        <ele>34</ele>
        <time>2018-04-30T08:42:54Z</time>
      </trkpt>
      <trkpt lat="62.637346770222" lon="17.917161929031">
        <ele>34.2</ele>
        <time>2018-04-30T08:42:55Z</time>
      </trkpt>
      <trkpt lat="62.63737124537" lon="17.917153798588">
        <ele>34.4</ele>
        <time>2018-04-30T08:42:56Z</time>
      </trkpt>
      <trkpt lat="62.637397396898" lon="17.917143907946">
        <ele>34.6</ele>
        <time>2018-04-30T08:42:57Z</time>
      </trkpt>
      <trkpt lat="62.637424302797" lon="17.917134101123">
        <ele>34.8</ele>
        <time>2018-04-30T08:42:58Z</time>
      </trkpt>
      <trkpt lat="62.637450454325" lon="17.917122953196">
        <ele>35</ele>
        <time>2018-04-30T08:42:59Z</time>
      </trkpt>
      <trkpt lat="62.637476270577" lon="17.917111972907">
        <ele>35.4</ele>
        <time>2018-04-30T08:43:00Z</time>
      </trkpt>
      <trkpt lat="62.637500075173" lon="17.917103423369">
        <ele>35.6</ele>
        <time>2018-04-30T08:43:01Z</time>
      </trkpt>
      <trkpt lat="62.637526561977" lon="17.917096298754">
        <ele>36</ele>
        <time>2018-04-30T08:43:02Z</time>
      </trkpt>
      <trkpt lat="62.637551959134" lon="17.917091521071">
        <ele>36.2</ele>
        <time>2018-04-30T08:43:03Z</time>
      </trkpt>
      <trkpt lat="62.637572662427" lon="17.91708070842">
        <ele>36.2</ele>
        <time>2018-04-30T08:43:04Z</time>
      </trkpt>
      <trkpt lat="62.637599987421" lon="17.917073667624">
        <ele>36.4</ele>
        <time>2018-04-30T08:43:05Z</time>
      </trkpt>
      <trkpt lat="62.637624546388" lon="17.917065872457">
        <ele>36.6</ele>
        <time>2018-04-30T08:43:06Z</time>
      </trkpt>
      <trkpt lat="62.637651787563" lon="17.917057071462">
        <ele>36.8</ele>
        <time>2018-04-30T08:43:07Z</time>
      </trkpt>
      <trkpt lat="62.637676430349" lon="17.917047097001">
        <ele>37</ele>
        <time>2018-04-30T08:43:08Z</time>
      </trkpt>
      <trkpt lat="62.637702665696" lon="17.917034440332">
        <ele>37.2</ele>
        <time>2018-04-30T08:43:09Z</time>
      </trkpt>
      <trkpt lat="62.63773166707" lon="17.917021280749">
        <ele>37.4</ele>
        <time>2018-04-30T08:43:10Z</time>
      </trkpt>
      <trkpt lat="62.63775848915" lon="17.917009378451">
        <ele>37.6</ele>
        <time>2018-04-30T08:43:11Z</time>
      </trkpt>
      <trkpt lat="62.637788915447" lon="17.916992111737">
        <ele>37.8</ele>
        <time>2018-04-30T08:43:12Z</time>
      </trkpt>
      <trkpt lat="62.63781883883" lon="17.916979538887">
        <ele>37.8</ele>
        <time>2018-04-30T08:43:13Z</time>
      </trkpt>
      <trkpt lat="62.63784901367" lon="17.916968055684">
        <ele>38</ele>
        <time>2018-04-30T08:43:14Z</time>
      </trkpt>
      <trkpt lat="62.637877260673" lon="17.916957578309">
        <ele>38</ele>
        <time>2018-04-30T08:43:15Z</time>
      </trkpt>
      <trkpt lat="62.637909028074" lon="17.916943412898">
        <ele>38.2</ele>
        <time>2018-04-30T08:43:16Z</time>
      </trkpt>
      <trkpt lat="62.637941968941" lon="17.916926565279">
        <ele>38.2</ele>
        <time>2018-04-30T08:43:17Z</time>
      </trkpt>
      <trkpt lat="62.637974155437" lon="17.916909214746">
        <ele>38.2</ele>
        <time>2018-04-30T08:43:18Z</time>
      </trkpt>
      <trkpt lat="62.638006090476" lon="17.9168896011">
        <ele>38.4</ele>
        <time>2018-04-30T08:43:19Z</time>
      </trkpt>
      <trkpt lat="62.638038696067" lon="17.916869987454">
        <ele>38.6</ele>
        <time>2018-04-30T08:43:20Z</time>
      </trkpt>
      <trkpt lat="62.638068535631" lon="17.916853642749">
        <ele>38.6</ele>
        <time>2018-04-30T08:43:21Z</time>
      </trkpt>
      <trkpt lat="62.63810717619" lon="17.916833945284">
        <ele>38.8</ele>
        <time>2018-04-30T08:43:22Z</time>
      </trkpt>
      <trkpt lat="62.638141709618" lon="17.916814918371">
        <ele>38.8</ele>
        <time>2018-04-30T08:43:23Z</time>
      </trkpt>
      <trkpt lat="62.6381817751" lon="17.916794969449">
        <ele>39</ele>
        <time>2018-04-30T08:43:24Z</time>
      </trkpt>
      <trkpt lat="62.638221505306" lon="17.916775188165">
        <ele>39</ele>
        <time>2018-04-30T08:43:25Z</time>
      </trkpt>
      <trkpt lat="62.638260062046" lon="17.916756580347">
        <ele>39</ele>
        <time>2018-04-30T08:43:26Z</time>
      </trkpt>
      <trkpt lat="62.638300378985" lon="17.916735625597">
        <ele>38.8</ele>
        <time>2018-04-30T08:43:27Z</time>
      </trkpt>
      <trkpt lat="62.638342875218" lon="17.916715089942">
        <ele>38.8</ele>
        <time>2018-04-30T08:43:28Z</time>
      </trkpt>
      <trkpt lat="62.63838042613" lon="17.916693632278">
        <ele>38.6</ele>
        <time>2018-04-30T08:43:29Z</time>
      </trkpt>
      <trkpt lat="62.638416552119" lon="17.916672258433">
        <ele>38.6</ele>
        <time>2018-04-30T08:43:30Z</time>
      </trkpt>
      <trkpt lat="62.638451169366" lon="17.916655578452">
        <ele>38.6</ele>
        <time>2018-04-30T08:43:31Z</time>
      </trkpt>
      <trkpt lat="62.638492827409" lon="17.916637473548">
        <ele>38.6</ele>
        <time>2018-04-30T08:43:32Z</time>
      </trkpt>
      <trkpt lat="62.638528282846" lon="17.916620458291">
        <ele>38.8</ele>
        <time>2018-04-30T08:43:33Z</time>
      </trkpt>
      <trkpt lat="62.638569437975" lon="17.916600341731">
        <ele>38.8</ele>
        <time>2018-04-30T08:43:34Z</time>
      </trkpt>
      <trkpt lat="62.638609084362" lon="17.916580141352">
        <ele>39</ele>
        <time>2018-04-30T08:43:35Z</time>
      </trkpt>
      <trkpt lat="62.638646383817" lon="17.916559857154">
        <ele>39</ele>
        <time>2018-04-30T08:43:36Z</time>
      </trkpt>
      <trkpt lat="62.638688460955" lon="17.916536304015">
        <ele>39.4</ele>
        <time>2018-04-30T08:43:37Z</time>
      </trkpt>
      <trkpt lat="62.63872743679" lon="17.91651325379">
        <ele>39.4</ele>
        <time>2018-04-30T08:43:38Z</time>
      </trkpt>
      <trkpt lat="62.638770016842" lon="17.916488024271">
        <ele>39.8</ele>
        <time>2018-04-30T08:43:39Z</time>
      </trkpt>
      <trkpt lat="62.638814357093" lon="17.91646128601">
        <ele>39.8</ele>
        <time>2018-04-30T08:43:40Z</time>
      </trkpt>
      <trkpt lat="62.638854925489" lon="17.916436727043">
        <ele>39.8</ele>
        <time>2018-04-30T08:43:41Z</time>
      </trkpt>
      <trkpt lat="62.638900020111" lon="17.916408228583">
        <ele>39.8</ele>
        <time>2018-04-30T08:43:42Z</time>
      </trkpt>
      <trkpt lat="62.638943941267" lon="17.91638417253">
        <ele>39.8</ele>
        <time>2018-04-30T08:43:43Z</time>
      </trkpt>
      <trkpt lat="62.638987191871" lon="17.916361038486">
        <ele>39.6</ele>
        <time>2018-04-30T08:43:44Z</time>
      </trkpt>
      <trkpt lat="62.639030274837" lon="17.916338742632">
        <ele>39.6</ele>
        <time>2018-04-30T08:43:45Z</time>
      </trkpt>
      <trkpt lat="62.639070591776" lon="17.916308232516">
        <ele>39.4</ele>
        <time>2018-04-30T08:43:46Z</time>
      </trkpt>
      <trkpt lat="62.639115183484" lon="17.916276297477">
        <ele>39.4</ele>
        <time>2018-04-30T08:43:47Z</time>
      </trkpt>
      <trkpt lat="62.639157009165" lon="17.916244362438">
        <ele>39.4</ele>
        <time>2018-04-30T08:43:48Z</time>
      </trkpt>
      <trkpt lat="62.63919933776" lon="17.916210834838">
        <ele>39.6</ele>
        <time>2018-04-30T08:43:49Z</time>
      </trkpt>
      <trkpt lat="62.639242336907" lon="17.916176552867">
        <ele>39.6</ele>
        <time>2018-04-30T08:43:50Z</time>
      </trkpt>
      <trkpt lat="62.639280893647" lon="17.916147383855">
        <ele>39.6</ele>
        <time>2018-04-30T08:43:51Z</time>
      </trkpt>
      <trkpt lat="62.639331520323" lon="17.916107234554">
        <ele>39.8</ele>
        <time>2018-04-30T08:43:52Z</time>
      </trkpt>
      <trkpt lat="62.639373765099" lon="17.916075299515">
        <ele>39.8</ele>
        <time>2018-04-30T08:43:53Z</time>
      </trkpt>
      <trkpt lat="62.639422966852" lon="17.916038754431">
        <ele>39.8</ele>
        <time>2018-04-30T08:43:54Z</time>
      </trkpt>
      <trkpt lat="62.639469737854" lon="17.915999108044">
        <ele>39.8</ele>
        <time>2018-04-30T08:43:55Z</time>
      </trkpt>
      <trkpt lat="62.639514413381" lon="17.915957869096">
        <ele>39.8</ele>
        <time>2018-04-30T08:43:56Z</time>
      </trkpt>
      <trkpt lat="62.639559843279" lon="17.915911768646">
        <ele>40</ele>
        <time>2018-04-30T08:43:57Z</time>
      </trkpt>
      <trkpt lat="62.63960837448" lon="17.915859381771">
        <ele>39.8</ele>
        <time>2018-04-30T08:43:58Z</time>
      </trkpt>
      <trkpt lat="62.639653301464" lon="17.915808503638">
        <ele>39.8</ele>
        <time>2018-04-30T08:43:59Z</time>
      </trkpt>
      <trkpt lat="62.63969806081" lon="17.915759804799">
        <ele>39.8</ele>
        <time>2018-04-30T08:44:00Z</time>
      </trkpt>
      <trkpt lat="62.639738545387" lon="17.915717476204">
        <ele>39.8</ele>
        <time>2018-04-30T08:44:01Z</time>
      </trkpt>
      <trkpt lat="62.639783472371" lon="17.915673555048">
        <ele>40</ele>
        <time>2018-04-30T08:44:02Z</time>
      </trkpt>
      <trkpt lat="62.639825130414" lon="17.91563483067">
        <ele>40</ele>
        <time>2018-04-30T08:44:03Z</time>
      </trkpt>
      <trkpt lat="62.639863435697" lon="17.915586131831">
        <ele>40.2</ele>
        <time>2018-04-30T08:44:04Z</time>
      </trkpt>
      <trkpt lat="62.639903836455" lon="17.915536594802">
        <ele>40.4</ele>
        <time>2018-04-30T08:44:05Z</time>
      </trkpt>
      <trkpt lat="62.639942560833" lon="17.915489991438">
        <ele>40.6</ele>
        <time>2018-04-30T08:44:06Z</time>
      </trkpt>
      <trkpt lat="62.639984302695" lon="17.915437101649">
        <ele>40.6</ele>
        <time>2018-04-30T08:44:07Z</time>
      </trkpt>
      <trkpt lat="62.640022021245" lon="17.915388570448">
        <ele>41</ele>
        <time>2018-04-30T08:44:08Z</time>
      </trkpt>
      <trkpt lat="62.640063260193" lon="17.915337776134">
        <ele>41</ele>
        <time>2018-04-30T08:44:09Z</time>
      </trkpt>
      <trkpt lat="62.64010542115" lon="17.915282120318">
        <ele>41.2</ele>
        <time>2018-04-30T08:44:10Z</time>
      </trkpt>
      <trkpt lat="62.640142552967" lon="17.915230068719">
        <ele>41.2</ele>
        <time>2018-04-30T08:44:11Z</time>
      </trkpt>
      <trkpt lat="62.640182869906" lon="17.915169383763">
        <ele>41.2</ele>
        <time>2018-04-30T08:44:12Z</time>
      </trkpt>
      <trkpt lat="62.6402185768" lon="17.915107357703">
        <ele>41.2</ele>
        <time>2018-04-30T08:44:13Z</time>
      </trkpt>
      <trkpt lat="62.640249506011" lon="17.915036949743">
        <ele>41</ele>
        <time>2018-04-30T08:44:14Z</time>
      </trkpt>
      <trkpt lat="62.64027389734" lon="17.914959752444">
        <ele>40.8</ele>
        <time>2018-04-30T08:44:15Z</time>
      </trkpt>
      <trkpt lat="62.640294097719" lon="17.914869730838">
        <ele>40.8</ele>
        <time>2018-04-30T08:44:16Z</time>
      </trkpt>
      <trkpt lat="62.640307508759" lon="17.914766968744">
        <ele>40.6</ele>
        <time>2018-04-30T08:44:17Z</time>
      </trkpt>
      <trkpt lat="62.640313459908" lon="17.914666553582">
        <ele>40.6</ele>
        <time>2018-04-30T08:44:18Z</time>
      </trkpt>
      <trkpt lat="62.640316225935" lon="17.91457452032">
        <ele>40.8</ele>
        <time>2018-04-30T08:44:19Z</time>
      </trkpt>
      <trkpt lat="62.640321087437" lon="17.914493299709">
        <ele>41</ele>
        <time>2018-04-30T08:44:20Z</time>
      </trkpt>
      <trkpt lat="62.640328547328" lon="17.914432950029">
        <ele>41</ele>
        <time>2018-04-30T08:44:21Z</time>
      </trkpt>
      <trkpt lat="62.640341120178" lon="17.914369834322">
        <ele>40.8</ele>
        <time>2018-04-30T08:44:22Z</time>
      </trkpt>
      <trkpt lat="62.640352854838" lon="17.914322644225">
        <ele>41</ele>
        <time>2018-04-30T08:44:23Z</time>
      </trkpt>
      <trkpt lat="62.640369618638" lon="17.914272017549">
        <ele>41.2</ele>
        <time>2018-04-30T08:44:24Z</time>
      </trkpt>
      <trkpt lat="62.640390824845" lon="17.914228180212">
        <ele>41.4</ele>
        <time>2018-04-30T08:44:25Z</time>
      </trkpt>
      <trkpt lat="62.640413791251" lon="17.91419230568">
        <ele>41.6</ele>
        <time>2018-04-30T08:44:26Z</time>
      </trkpt>
      <trkpt lat="62.640440110417" lon="17.914157436976">
        <ele>41.8</ele>
        <time>2018-04-30T08:44:27Z</time>
      </trkpt>
      <trkpt lat="62.640470704352" lon="17.914123406462">
        <ele>41.8</ele>
        <time>2018-04-30T08:44:28Z</time>
      </trkpt>
      <trkpt lat="62.640499957183" lon="17.914089878862">
        <ele>41.8</ele>
        <time>2018-04-30T08:44:29Z</time>
      </trkpt>
      <trkpt lat="62.6405287071" lon="17.914057105633">
        <ele>41.6</ele>
        <time>2018-04-30T08:44:30Z</time>
      </trkpt>
      <trkpt lat="62.640556954103" lon="17.914024416223">
        <ele>41.6</ele>
        <time>2018-04-30T08:44:31Z</time>
      </trkpt>
      <trkpt lat="62.640587631857" lon="17.91398862551">
        <ele>41.4</ele>
        <time>2018-04-30T08:44:32Z</time>
      </trkpt>
      <trkpt lat="62.640615459765" lon="17.913954930272">
        <ele>41.4</ele>
        <time>2018-04-30T08:44:33Z</time>
      </trkpt>
      <trkpt lat="62.640648484451" lon="17.913916876446">
        <ele>41.2</ele>
        <time>2018-04-30T08:44:34Z</time>
      </trkpt>
      <trkpt lat="62.640679246024" lon="17.913874547851">
        <ele>41.2</ele>
        <time>2018-04-30T08:44:35Z</time>
      </trkpt>
      <trkpt lat="62.640706822475" lon="17.913830710514">
        <ele>41</ele>
        <time>2018-04-30T08:44:36Z</time>
      </trkpt>
      <trkpt lat="62.640738925152" lon="17.913784777702">
        <ele>41</ele>
        <time>2018-04-30T08:44:37Z</time>
      </trkpt>
      <trkpt lat="62.640766920698" lon="17.913745718048">
        <ele>41</ele>
        <time>2018-04-30T08:44:38Z</time>
      </trkpt>
      <trkpt lat="62.640794245692" lon="17.913703221815">
        <ele>41</ele>
        <time>2018-04-30T08:44:39Z</time>
      </trkpt>
      <trkpt lat="62.640819726668" lon="17.913658713926">
        <ele>41.2</ele>
        <time>2018-04-30T08:44:40Z</time>
      </trkpt>
      <trkpt lat="62.640838585943" lon="17.913619570453">
        <ele>41.4</ele>
        <time>2018-04-30T08:44:41Z</time>
      </trkpt>
      <trkpt lat="62.640857948132" lon="17.913577158039">
        <ele>41.6</ele>
        <time>2018-04-30T08:44:42Z</time>
      </trkpt>
      <trkpt lat="62.640875885398" lon="17.913538014566">
        <ele>42</ele>
        <time>2018-04-30T08:44:43Z</time>
      </trkpt>
      <trkpt lat="62.640896169596" lon="17.913497278532">
        <ele>42.4</ele>
        <time>2018-04-30T08:44:44Z</time>
      </trkpt>
      <trkpt lat="62.640917291984" lon="17.913457296869">
        <ele>42.4</ele>
        <time>2018-04-30T08:44:45Z</time>
      </trkpt>
      <trkpt lat="62.640927601721" lon="17.9134027307">
        <ele>42.6</ele>
        <time>2018-04-30T08:44:46Z</time>
      </trkpt>
      <trkpt lat="62.64093858201" lon="17.913340872278">
        <ele>43</ele>
        <time>2018-04-30T08:44:47Z</time>
      </trkpt>
      <trkpt lat="62.640947215367" lon="17.913278510942">
        <ele>43</ele>
        <time>2018-04-30T08:44:48Z</time>
      </trkpt>
      <trkpt lat="62.640955681086" lon="17.913218161262">
        <ele>43</ele>
        <time>2018-04-30T08:44:49Z</time>
      </trkpt>
      <trkpt lat="62.640963476253" lon="17.913160409971">
        <ele>43</ele>
        <time>2018-04-30T08:44:50Z</time>
      </trkpt>
      <trkpt lat="62.640966326099" lon="17.913111208218">
        <ele>43.2</ele>
        <time>2018-04-30T08:44:51Z</time>
      </trkpt>
      <trkpt lat="62.640961548416" lon="17.913054798031">
        <ele>43.2</ele>
        <time>2018-04-30T08:44:52Z</time>
      </trkpt>
      <trkpt lat="62.640949143204" lon="17.913017247119">
        <ele>43.4</ele>
        <time>2018-04-30T08:44:53Z</time>
      </trkpt>
      <trkpt lat="62.640933971965" lon="17.912981037311">
        <ele>43.6</ele>
        <time>2018-04-30T08:44:54Z</time>
      </trkpt>
      <trkpt lat="62.640904383858" lon="17.912964692606">
        <ele>43.8</ele>
        <time>2018-04-30T08:44:55Z</time>
      </trkpt>
      <trkpt lat="62.640878651425" lon="17.912944743684">
        <ele>44.2</ele>
        <time>2018-04-30T08:44:56Z</time>
      </trkpt>
      <trkpt lat="62.64085141025" lon="17.912932087015">
        <ele>44.4</ele>
        <time>2018-04-30T08:44:57Z</time>
      </trkpt>
      <trkpt lat="62.640820145763" lon="17.91292328602">
        <ele>44.6</ele>
        <time>2018-04-30T08:44:58Z</time>
      </trkpt>
      <trkpt lat="62.640790138561" lon="17.912914485025">
        <ele>44.8</ele>
        <time>2018-04-30T08:44:59Z</time>
      </trkpt>
      <trkpt lat="62.640760466635" lon="17.912907276591">
        <ele>44.8</ele>
        <time>2018-04-30T08:45:00Z</time>
      </trkpt>
      <trkpt lat="62.640733728374" lon="17.912898894691">
        <ele>45</ele>
        <time>2018-04-30T08:45:01Z</time>
      </trkpt>
      <trkpt lat="62.640704727" lon="17.912889590782">
        <ele>45</ele>
        <time>2018-04-30T08:45:02Z</time>
      </trkpt>
      <trkpt lat="62.640680587128" lon="17.912882885262">
        <ele>45.2</ele>
        <time>2018-04-30T08:45:03Z</time>
      </trkpt>
      <trkpt lat="62.640652423944" lon="17.912881041244">
        <ele>45.2</ele>
        <time>2018-04-30T08:45:04Z</time>
      </trkpt>
      <trkpt lat="62.640624931312" lon="17.912878359036">
        <ele>45.2</ele>
        <time>2018-04-30T08:45:05Z</time>
      </trkpt>
      <trkpt lat="62.640600875259" lon="17.912866205281">
        <ele>45.2</ele>
        <time>2018-04-30T08:45:06Z</time>
      </trkpt>
      <trkpt lat="62.640573885541" lon="17.912849106205">
        <ele>45.2</ele>
        <time>2018-04-30T08:45:07Z</time>
      </trkpt>
      <trkpt lat="62.640549242755" lon="17.912844160884">
        <ele>45.2</ele>
        <time>2018-04-30T08:45:08Z</time>
      </trkpt>
      <trkpt lat="62.640520492838" lon="17.912854219164">
        <ele>45.2</ele>
        <time>2018-04-30T08:45:09Z</time>
      </trkpt>
      <trkpt lat="62.640488809256" lon="17.912873413715">
        <ele>45.4</ele>
        <time>2018-04-30T08:45:10Z</time>
      </trkpt>
      <trkpt lat="62.640460981348" lon="17.912890848067">
        <ele>45.2</ele>
        <time>2018-04-30T08:45:11Z</time>
      </trkpt>
      <trkpt lat="62.640431644698" lon="17.912909288247">
        <ele>45.2</ele>
        <time>2018-04-30T08:45:12Z</time>
      </trkpt>
      <trkpt lat="62.640407085731" lon="17.912936277965">
        <ele>45.2</ele>
        <time>2018-04-30T08:45:13Z</time>
      </trkpt>
      <trkpt lat="62.640383281135" lon="17.912972320135">
        <ele>45.2</ele>
        <time>2018-04-30T08:45:14Z</time>
      </trkpt>
      <trkpt lat="62.640360817643" lon="17.913003919898">
        <ele>45.2</ele>
        <time>2018-04-30T08:45:15Z</time>
      </trkpt>
      <trkpt lat="62.640334163201" lon="17.913038369507">
        <ele>45.2</ele>
        <time>2018-04-30T08:45:16Z</time>
      </trkpt>
      <trkpt lat="62.640308849863" lon="17.913069466356">
        <ele>45.2</ele>
        <time>2018-04-30T08:45:17Z</time>
      </trkpt>
      <trkpt lat="62.640285632" lon="17.91309511497">
        <ele>45.2</ele>
        <time>2018-04-30T08:45:18Z</time>
      </trkpt>
      <trkpt lat="62.640264090517" lon="17.913115147711">
        <ele>45.2</ele>
        <time>2018-04-30T08:45:19Z</time>
      </trkpt>
      <trkpt lat="62.640242968129" lon="17.913132498244">
        <ele>45.4</ele>
        <time>2018-04-30T08:45:20Z</time>
      </trkpt>
      <trkpt lat="62.640224025035" lon="17.913140461049">
        <ele>45.4</ele>
        <time>2018-04-30T08:45:21Z</time>
      </trkpt>
      <trkpt lat="62.640200639534" lon="17.913136605375">
        <ele>45.4</ele>
        <time>2018-04-30T08:45:22Z</time>
      </trkpt>
      <trkpt lat="62.640182199354" lon="17.91311523153">
        <ele>45.6</ele>
        <time>2018-04-30T08:45:23Z</time>
      </trkpt>
      <trkpt lat="62.640165519373" lon="17.913074495496">
        <ele>45.6</ele>
        <time>2018-04-30T08:45:24Z</time>
      </trkpt>
      <trkpt lat="62.640153700894" lon="17.913024623191">
        <ele>45.8</ele>
        <time>2018-04-30T08:45:25Z</time>
      </trkpt>
      <trkpt lat="62.640148085021" lon="17.912970643755">
        <ele>45.8</ele>
        <time>2018-04-30T08:45:26Z</time>
      </trkpt>
      <trkpt lat="62.640145067537" lon="17.912910210256">
        <ele>46</ele>
        <time>2018-04-30T08:45:27Z</time>
      </trkpt>
      <trkpt lat="62.640142804424" lon="17.912842233047">
        <ele>46</ele>
        <time>2018-04-30T08:45:28Z</time>
      </trkpt>
      <trkpt lat="62.640140960406" lon="17.91277492639">
        <ele>46.2</ele>
        <time>2018-04-30T08:45:29Z</time>
      </trkpt>
      <trkpt lat="62.640139870759" lon="17.912705608077">
        <ele>46.2</ele>
        <time>2018-04-30T08:45:30Z</time>
      </trkpt>
      <trkpt lat="62.640139451664" lon="17.912639223429">
        <ele>46.4</ele>
        <time>2018-04-30T08:45:31Z</time>
      </trkpt>
      <trkpt lat="62.640139367845" lon="17.912563870148">
        <ele>46.6</ele>
        <time>2018-04-30T08:45:32Z</time>
      </trkpt>
      <trkpt lat="62.640139703121" lon="17.912495892939">
        <ele>46.8</ele>
        <time>2018-04-30T08:45:33Z</time>
      </trkpt>
      <trkpt lat="62.64014146332" lon="17.912419366192">
        <ele>46.8</ele>
        <time>2018-04-30T08:45:34Z</time>
      </trkpt>
      <trkpt lat="62.640147079193" lon="17.912349544965">
        <ele>47</ele>
        <time>2018-04-30T08:45:35Z</time>
      </trkpt>
      <trkpt lat="62.640153281799" lon="17.91228458524">
        <ele>47.2</ele>
        <time>2018-04-30T08:45:36Z</time>
      </trkpt>
      <trkpt lat="62.640160406414" lon="17.912213422909">
        <ele>47.2</ele>
        <time>2018-04-30T08:45:37Z</time>
      </trkpt>
      <trkpt lat="62.640164345907" lon="17.91215215122">
        <ele>47.2</ele>
        <time>2018-04-30T08:45:38Z</time>
      </trkpt>
      <trkpt lat="62.640166106106" lon="17.91208341964">
        <ele>47.4</ele>
        <time>2018-04-30T08:45:39Z</time>
      </trkpt>
      <trkpt lat="62.640171135246" lon="17.912010664748">
        <ele>47.4</ele>
        <time>2018-04-30T08:45:40Z</time>
      </trkpt>
      <trkpt lat="62.640177924585" lon="17.911948387231">
        <ele>47.4</ele>
        <time>2018-04-30T08:45:41Z</time>
      </trkpt>
      <trkpt lat="62.640187815227" lon="17.911881583488">
        <ele>47.6</ele>
        <time>2018-04-30T08:45:42Z</time>
      </trkpt>
      <trkpt lat="62.640197454412" lon="17.911816959039">
        <ele>47.8</ele>
        <time>2018-04-30T08:45:43Z</time>
      </trkpt>
      <trkpt lat="62.640207512692" lon="17.911753340418">
        <ele>47.8</ele>
        <time>2018-04-30T08:45:44Z</time>
      </trkpt>
      <trkpt lat="62.640216313687" lon="17.911693493652">
        <ele>48</ele>
        <time>2018-04-30T08:45:45Z</time>
      </trkpt>
      <trkpt lat="62.64022863508" lon="17.911632724877">
        <ele>48.2</ele>
        <time>2018-04-30T08:45:46Z</time>
      </trkpt>
      <trkpt lat="62.640243554862" lon="17.911573883939">
        <ele>48.4</ele>
        <time>2018-04-30T08:45:47Z</time>
      </trkpt>
      <trkpt lat="62.640259145196" lon="17.911521329426">
        <ele>48.6</ele>
        <time>2018-04-30T08:45:48Z</time>
      </trkpt>
      <trkpt lat="62.640275154625" lon="17.911471205664">
        <ele>48.8</ele>
        <time>2018-04-30T08:45:49Z</time>
      </trkpt>
      <trkpt lat="62.640290912597" lon="17.9114246023">
        <ele>49</ele>
        <time>2018-04-30T08:45:50Z</time>
      </trkpt>
      <trkpt lat="62.640305580922" lon="17.911381184058">
        <ele>49.4</ele>
        <time>2018-04-30T08:45:51Z</time>
      </trkpt>
      <trkpt lat="62.640325362206" lon="17.911332485219">
        <ele>49.8</ele>
        <time>2018-04-30T08:45:52Z</time>
      </trkpt>
      <trkpt lat="62.640342042187" lon="17.91128965371">
        <ele>50.2</ele>
        <time>2018-04-30T08:45:53Z</time>
      </trkpt>
      <trkpt lat="62.640361823471" lon="17.911243720898">
        <ele>50.4</ele>
        <time>2018-04-30T08:45:54Z</time>
      </trkpt>
      <trkpt lat="62.640381353298" lon="17.911199799742">
        <ele>50.8</ele>
        <time>2018-04-30T08:45:55Z</time>
      </trkpt>
      <trkpt lat="62.640400966944" lon="17.911159985717">
        <ele>51</ele>
        <time>2018-04-30T08:45:56Z</time>
      </trkpt>
      <trkpt lat="62.640421670237" lon="17.911120087873">
        <ele>51.2</ele>
        <time>2018-04-30T08:45:57Z</time>
      </trkpt>
      <trkpt lat="62.640443127901" lon="17.911079687115">
        <ele>51.4</ele>
        <time>2018-04-30T08:45:58Z</time>
      </trkpt>
      <trkpt lat="62.640464417927" lon="17.911044315497">
        <ele>51.8</ele>
        <time>2018-04-30T08:45:59Z</time>
      </trkpt>
      <trkpt lat="62.640486629962" lon="17.911013134829">
        <ele>52</ele>
        <time>2018-04-30T08:46:00Z</time>
      </trkpt>
      <trkpt lat="62.640507668531" lon="17.910982457075">
        <ele>52.2</ele>
        <time>2018-04-30T08:46:01Z</time>
      </trkpt>
      <trkpt lat="62.640530970213" lon="17.910948258923">
        <ele>52.4</ele>
        <time>2018-04-30T08:46:02Z</time>
      </trkpt>
      <trkpt lat="62.640552679334" lon="17.910918670816">
        <ele>52.6</ele>
        <time>2018-04-30T08:46:03Z</time>
      </trkpt>
      <trkpt lat="62.640577741215" lon="17.910885897587">
        <ele>52.8</ele>
        <time>2018-04-30T08:46:04Z</time>
      </trkpt>
      <trkpt lat="62.640601461992" lon="17.9108546331">
        <ele>53</ele>
        <time>2018-04-30T08:46:05Z</time>
      </trkpt>
      <trkpt lat="62.640624847493" lon="17.910827559563">
        <ele>53.2</ele>
        <time>2018-04-30T08:46:06Z</time>
      </trkpt>
      <trkpt lat="62.640652507763" lon="17.910799815474">
        <ele>53.4</ele>
        <time>2018-04-30T08:46:07Z</time>
      </trkpt>
      <trkpt lat="62.640677485825" lon="17.910774250679">
        <ele>53.6</ele>
        <time>2018-04-30T08:46:08Z</time>
      </trkpt>
      <trkpt lat="62.640703972629" lon="17.910747428599">
        <ele>53.6</ele>
        <time>2018-04-30T08:46:09Z</time>
      </trkpt>
      <trkpt lat="62.640733979831" lon="17.910721528528">
        <ele>53.8</ele>
        <time>2018-04-30T08:46:10Z</time>
      </trkpt>
      <trkpt lat="62.640762143015" lon="17.91069621519">
        <ele>54</ele>
        <time>2018-04-30T08:46:11Z</time>
      </trkpt>
      <trkpt lat="62.640792653131" lon="17.910664028694">
        <ele>54</ele>
        <time>2018-04-30T08:46:12Z</time>
      </trkpt>
      <trkpt lat="62.640822995609" lon="17.910636368424">
        <ele>54.2</ele>
        <time>2018-04-30T08:46:13Z</time>
      </trkpt>
      <trkpt lat="62.640854595372" lon="17.910610384534">
        <ele>54.2</ele>
        <time>2018-04-30T08:46:14Z</time>
      </trkpt>
      <trkpt lat="62.640884434936" lon="17.910582724264">
        <ele>54.4</ele>
        <time>2018-04-30T08:46:15Z</time>
      </trkpt>
      <trkpt lat="62.640917040527" lon="17.910553052338">
        <ele>54.6</ele>
        <time>2018-04-30T08:46:16Z</time>
      </trkpt>
      <trkpt lat="62.640952160688" lon="17.910524134783">
        <ele>54.6</ele>
        <time>2018-04-30T08:46:17Z</time>
      </trkpt>
      <trkpt lat="62.640986526478" lon="17.910496474513">
        <ele>54.8</ele>
        <time>2018-04-30T08:46:18Z</time>
      </trkpt>
      <trkpt lat="62.641020976087" lon="17.910466802587">
        <ele>55</ele>
        <time>2018-04-30T08:46:19Z</time>
      </trkpt>
      <trkpt lat="62.641055760972" lon="17.910435705738">
        <ele>55</ele>
        <time>2018-04-30T08:46:20Z</time>
      </trkpt>
      <trkpt lat="62.64108694164" lon="17.910407626373">
        <ele>55.2</ele>
        <time>2018-04-30T08:46:21Z</time>
      </trkpt>
      <trkpt lat="62.641126420389" lon="17.910372087117">
        <ele>55.2</ele>
        <time>2018-04-30T08:46:22Z</time>
      </trkpt>
      <trkpt lat="62.641159445075" lon="17.910342834286">
        <ele>55.2</ele>
        <time>2018-04-30T08:46:23Z</time>
      </trkpt>
      <trkpt lat="62.641197750358" lon="17.910310563971">
        <ele>55.2</ele>
        <time>2018-04-30T08:46:24Z</time>
      </trkpt>
      <trkpt lat="62.641233876347" lon="17.910278126018">
        <ele>55.2</ele>
        <time>2018-04-30T08:46:25Z</time>
      </trkpt>
      <trkpt lat="62.641268158318" lon="17.910247951178">
        <ele>55.2</ele>
        <time>2018-04-30T08:46:26Z</time>
      </trkpt>
      <trkpt lat="62.641303781393" lon="17.910218698347">
        <ele>54.8</ele>
        <time>2018-04-30T08:46:27Z</time>
      </trkpt>
      <trkpt lat="62.641340326477" lon="17.910189696973">
        <ele>54.6</ele>
        <time>2018-04-30T08:46:28Z</time>
      </trkpt>
      <trkpt lat="62.641373267344" lon="17.910161533789">
        <ele>54.6</ele>
        <time>2018-04-30T08:46:29Z</time>
      </trkpt>
      <trkpt lat="62.641405118564" lon="17.910134376433">
        <ele>54.6</ele>
        <time>2018-04-30T08:46:30Z</time>
      </trkpt>
      <trkpt lat="62.641435293404" lon="17.910111242389">
        <ele>54.6</ele>
        <time>2018-04-30T08:46:31Z</time>
      </trkpt>
      <trkpt lat="62.641468904823" lon="17.910087940707">
        <ele>54.8</ele>
        <time>2018-04-30T08:46:32Z</time>
      </trkpt>
      <trkpt lat="62.641497319464" lon="17.910064471387">
        <ele>55</ele>
        <time>2018-04-30T08:46:33Z</time>
      </trkpt>
      <trkpt lat="62.641528500132" lon="17.910036056746">
        <ele>55.2</ele>
        <time>2018-04-30T08:46:34Z</time>
      </trkpt>
      <trkpt lat="62.641557920601" lon="17.910009234666">
        <ele>55.2</ele>
        <time>2018-04-30T08:46:35Z</time>
      </trkpt>
      <trkpt lat="62.64158734107" lon="17.909983418414">
        <ele>55.2</ele>
        <time>2018-04-30T08:46:36Z</time>
      </trkpt>
      <trkpt lat="62.641622293593" lon="17.909952070108">
        <ele>55.2</ele>
        <time>2018-04-30T08:46:37Z</time>
      </trkpt>
      <trkpt lat="62.641654480089" lon="17.909923739286">
        <ele>55.4</ele>
        <time>2018-04-30T08:46:38Z</time>
      </trkpt>
      <trkpt lat="62.641689013517" lon="17.909890127867">
        <ele>55.2</ele>
        <time>2018-04-30T08:46:39Z</time>
      </trkpt>
      <trkpt lat="62.641725726239" lon="17.909849140376">
        <ele>55.4</ele>
        <time>2018-04-30T08:46:40Z</time>
      </trkpt>
      <trkpt lat="62.641760762581" lon="17.909814774586">
        <ele>55.4</ele>
        <time>2018-04-30T08:46:41Z</time>
      </trkpt>
      <trkpt lat="62.641802504443" lon="17.909779654425">
        <ele>55.2</ele>
        <time>2018-04-30T08:46:42Z</time>
      </trkpt>
      <trkpt lat="62.641843743391" lon="17.909746210644">
        <ele>55.2</ele>
        <time>2018-04-30T08:46:43Z</time>
      </trkpt>
      <trkpt lat="62.641886742538" lon="17.909709497922">
        <ele>55.2</ele>
        <time>2018-04-30T08:46:44Z</time>
      </trkpt>
      <trkpt lat="62.641926556563" lon="17.909672869019">
        <ele>55</ele>
        <time>2018-04-30T08:46:45Z</time>
      </trkpt>
      <trkpt lat="62.641969890986" lon="17.909636156297">
        <ele>54.6</ele>
        <time>2018-04-30T08:46:46Z</time>
      </trkpt>
      <trkpt lat="62.642015572341" lon="17.909596845186">
        <ele>54.4</ele>
        <time>2018-04-30T08:46:47Z</time>
      </trkpt>
      <trkpt lat="62.642059325859" lon="17.909560803016">
        <ele>54</ele>
        <time>2018-04-30T08:46:48Z</time>
      </trkpt>
      <trkpt lat="62.642101402997" lon="17.909526856321">
        <ele>53.6</ele>
        <time>2018-04-30T08:46:49Z</time>
      </trkpt>
      <trkpt lat="62.642142390488" lon="17.909495675653">
        <ele>53.2</ele>
        <time>2018-04-30T08:46:50Z</time>
      </trkpt>
      <trkpt lat="62.642176672459" lon="17.909468685935">
        <ele>53</ele>
        <time>2018-04-30T08:46:51Z</time>
      </trkpt>
      <trkpt lat="62.642218079045" lon="17.909433733412">
        <ele>52.6</ele>
        <time>2018-04-30T08:46:52Z</time>
      </trkpt>
      <trkpt lat="62.642253534482" lon="17.909405905504">
        <ele>52.4</ele>
        <time>2018-04-30T08:46:53Z</time>
      </trkpt>
      <trkpt lat="62.642293683783" lon="17.909375311569">
        <ele>52</ele>
        <time>2018-04-30T08:46:54Z</time>
      </trkpt>
      <trkpt lat="62.642331821428" lon="17.909343292711">
        <ele>51.8</ele>
        <time>2018-04-30T08:46:55Z</time>
      </trkpt>
      <trkpt lat="62.642367276865" lon="17.90931152531">
        <ele>51.4</ele>
        <time>2018-04-30T08:46:56Z</time>
      </trkpt>
      <trkpt lat="62.642405163053" lon="17.909278081529">
        <ele>51</ele>
        <time>2018-04-30T08:46:57Z</time>
      </trkpt>
      <trkpt lat="62.642444306526" lon="17.909245643576">
        <ele>50.8</ele>
        <time>2018-04-30T08:46:58Z</time>
      </trkpt>
      <trkpt lat="62.642480348696" lon="17.909213289442">
        <ele>50.4</ele>
        <time>2018-04-30T08:46:59Z</time>
      </trkpt>
      <trkpt lat="62.642516642323" lon="17.909178672195">
        <ele>50.2</ele>
        <time>2018-04-30T08:47:00Z</time>
      </trkpt>
      <trkpt lat="62.642551678665" lon="17.909145647509">
        <ele>50</ele>
        <time>2018-04-30T08:47:01Z</time>
      </trkpt>
      <trkpt lat="62.642590319224" lon="17.909107426045">
        <ele>49.8</ele>
        <time>2018-04-30T08:47:02Z</time>
      </trkpt>
      <trkpt lat="62.642622924815" lon="17.909072473522">
        <ele>49.6</ele>
        <time>2018-04-30T08:47:03Z</time>
      </trkpt>
      <trkpt lat="62.642659050804" lon="17.909031486031">
        <ele>49.4</ele>
        <time>2018-04-30T08:47:04Z</time>
      </trkpt>
      <trkpt lat="62.642693332775" lon="17.908993767481">
        <ele>49</ele>
        <time>2018-04-30T08:47:05Z</time>
      </trkpt>
      <trkpt lat="62.642726525099" lon="17.908957390035">
        <ele>48.6</ele>
        <time>2018-04-30T08:47:06Z</time>
      </trkpt>
      <trkpt lat="62.642764914201" lon="17.908915396716">
        <ele>48.4</ele>
        <time>2018-04-30T08:47:07Z</time>
      </trkpt>
      <trkpt lat="62.642800202" lon="17.908877426709">
        <ele>48</ele>
        <time>2018-04-30T08:47:08Z</time>
      </trkpt>
      <trkpt lat="62.642836495627" lon="17.908830488069">
        <ele>47.8</ele>
        <time>2018-04-30T08:47:09Z</time>
      </trkpt>
      <trkpt lat="62.642873711263" lon="17.908769384018">
        <ele>47.6</ele>
        <time>2018-04-30T08:47:10Z</time>
      </trkpt>
      <trkpt lat="62.642907406501" lon="17.908711716546">
        <ele>47.4</ele>
        <time>2018-04-30T08:47:11Z</time>
      </trkpt>
      <trkpt lat="62.642945460327" lon="17.908648014106">
        <ele>47.2</ele>
        <time>2018-04-30T08:47:12Z</time>
      </trkpt>
      <trkpt lat="62.642981334859" lon="17.908591352462">
        <ele>47.2</ele>
        <time>2018-04-30T08:47:13Z</time>
      </trkpt>
      <trkpt lat="62.643017041753" lon="17.908536283379">
        <ele>47</ele>
        <time>2018-04-30T08:47:14Z</time>
      </trkpt>
      <trkpt lat="62.643052245733" lon="17.908481884848">
        <ele>47</ele>
        <time>2018-04-30T08:47:15Z</time>
      </trkpt>
      <trkpt lat="62.643077559071" lon="17.908415416381">
        <ele>47</ele>
        <time>2018-04-30T08:47:16Z</time>
      </trkpt>
      <trkpt lat="62.643108907377" lon="17.908348193543">
        <ele>47</ele>
        <time>2018-04-30T08:47:17Z</time>
      </trkpt>
      <trkpt lat="62.643141596787" lon="17.908291531899">
        <ele>47</ele>
        <time>2018-04-30T08:47:18Z</time>
      </trkpt>
      <trkpt lat="62.643174537654" lon="17.908237720101">
        <ele>46.8</ele>
        <time>2018-04-30T08:47:19Z</time>
      </trkpt>
      <trkpt lat="62.643206472693" lon="17.908182567199">
        <ele>46.8</ele>
        <time>2018-04-30T08:47:20Z</time>
      </trkpt>
      <trkpt lat="62.643233630049" lon="17.908131605247">
        <ele>46.6</ele>
        <time>2018-04-30T08:47:21Z</time>
      </trkpt>
      <trkpt lat="62.64326623564" lon="17.908068908635">
        <ele>46.6</ele>
        <time>2018-04-30T08:47:22Z</time>
      </trkpt>
      <trkpt lat="62.64329221953" lon="17.908015013018">
        <ele>46.6</ele>
        <time>2018-04-30T08:47:23Z</time>
      </trkpt>
      <trkpt lat="62.643320382714" lon="17.907953322234">
        <ele>46.6</ele>
        <time>2018-04-30T08:47:24Z</time>
      </trkpt>
      <trkpt lat="62.643346366604" lon="17.907896576771">
        <ele>46.8</ele>
        <time>2018-04-30T08:47:25Z</time>
      </trkpt>
      <trkpt lat="62.643370338838" lon="17.90784217824">
        <ele>47</ele>
        <time>2018-04-30T08:47:26Z</time>
      </trkpt>
      <trkpt lat="62.643394311072" lon="17.907785097501">
        <ele>47.2</ele>
        <time>2018-04-30T08:47:27Z</time>
      </trkpt>
      <trkpt lat="62.643419456772" lon="17.907725083097">
        <ele>47.2</ele>
        <time>2018-04-30T08:47:28Z</time>
      </trkpt>
      <trkpt lat="62.643442506997" lon="17.907665990702">
        <ele>47.4</ele>
        <time>2018-04-30T08:47:29Z</time>
      </trkpt>
      <trkpt lat="62.643466730688" lon="17.907608909963">
        <ele>47.6</ele>
        <time>2018-04-30T08:47:30Z</time>
      </trkpt>
      <trkpt lat="62.643491541112" lon="17.907562055142">
        <ele>48</ele>
        <time>2018-04-30T08:47:31Z</time>
      </trkpt>
      <trkpt lat="62.643516519174" lon="17.90751276957">
        <ele>48</ele>
        <time>2018-04-30T08:47:32Z</time>
      </trkpt>
      <trkpt lat="62.64353529463" lon="17.907463483998">
        <ele>48.4</ele>
        <time>2018-04-30T08:47:33Z</time>
      </trkpt>
      <trkpt lat="62.643555830285" lon="17.907407576725">
        <ele>48.6</ele>
        <time>2018-04-30T08:47:34Z</time>
      </trkpt>
      <trkpt lat="62.643575276293" lon="17.907357452963">
        <ele>48.8</ele>
        <time>2018-04-30T08:47:35Z</time>
      </trkpt>
      <trkpt lat="62.643593800292" lon="17.907312106884">
        <ele>49</ele>
        <time>2018-04-30T08:47:36Z</time>
      </trkpt>
      <trkpt lat="62.643612324291" lon="17.907261480208">
        <ele>49.4</ele>
        <time>2018-04-30T08:47:37Z</time>
      </trkpt>
      <trkpt lat="62.643628501358" lon="17.907216637043">
        <ele>49.2</ele>
        <time>2018-04-30T08:47:38Z</time>
      </trkpt>
      <trkpt lat="62.643645348977" lon="17.907169782222">
        <ele>49.4</ele>
        <time>2018-04-30T08:47:39Z</time>
      </trkpt>
      <trkpt lat="62.643663286243" lon="17.907121251021">
        <ele>49.4</ele>
        <time>2018-04-30T08:47:40Z</time>
      </trkpt>
      <trkpt lat="62.643679044215" lon="17.907083364833">
        <ele>49.6</ele>
        <time>2018-04-30T08:47:41Z</time>
      </trkpt>
      <trkpt lat="62.643695724196" lon="17.907043550808">
        <ele>49.4</ele>
        <time>2018-04-30T08:47:42Z</time>
      </trkpt>
      <trkpt lat="62.643709470512" lon="17.907006670448">
        <ele>49.6</ele>
        <time>2018-04-30T08:47:43Z</time>
      </trkpt>
      <trkpt lat="62.643721959543" lon="17.906971047373">
        <ele>49.8</ele>
        <time>2018-04-30T08:47:44Z</time>
      </trkpt>
      <trkpt lat="62.643734029479" lon="17.906936262488">
        <ele>50</ele>
        <time>2018-04-30T08:47:45Z</time>
      </trkpt>
      <trkpt lat="62.643743668664" lon="17.906897454291">
        <ele>50.2</ele>
        <time>2018-04-30T08:47:46Z</time>
      </trkpt>
      <trkpt lat="62.643757750256" lon="17.906860406293">
        <ele>50.6</ele>
        <time>2018-04-30T08:47:47Z</time>
      </trkpt>
      <trkpt lat="62.6437725024" lon="17.906834422403">
        <ele>50.8</ele>
        <time>2018-04-30T08:47:48Z</time>
      </trkpt>
      <trkpt lat="62.643785578164" lon="17.906812545644">
        <ele>50.8</ele>
        <time>2018-04-30T08:47:49Z</time>
      </trkpt>
      <trkpt lat="62.643794714435" lon="17.906787316125">
        <ele>50.8</ele>
        <time>2018-04-30T08:47:50Z</time>
      </trkpt>
      <trkpt lat="62.643801419955" lon="17.906761835149">
        <ele>50.8</ele>
        <time>2018-04-30T08:47:51Z</time>
      </trkpt>
      <trkpt lat="62.643810640045" lon="17.906719758011">
        <ele>50.8</ele>
        <time>2018-04-30T08:47:52Z</time>
      </trkpt>
      <trkpt lat="62.643818770488" lon="17.906672232638">
        <ele>50.8</ele>
        <time>2018-04-30T08:47:53Z</time>
      </trkpt>
      <trkpt lat="62.643825978922" lon="17.906608949293">
        <ele>50.8</ele>
        <time>2018-04-30T08:47:54Z</time>
      </trkpt>
      <trkpt lat="62.643827152388" lon="17.906539714799">
        <ele>50.8</ele>
        <time>2018-04-30T08:47:55Z</time>
      </trkpt>
      <trkpt lat="62.64381776466" lon="17.906473330151">
        <ele>50.8</ele>
        <time>2018-04-30T08:47:56Z</time>
      </trkpt>
      <trkpt lat="62.64380016267" lon="17.906407280779">
        <ele>50.6</ele>
        <time>2018-04-30T08:47:57Z</time>
      </trkpt>
      <trkpt lat="62.643778118273" lon="17.906345589995">
        <ele>50.6</ele>
        <time>2018-04-30T08:47:58Z</time>
      </trkpt>
      <trkpt lat="62.643757163523" lon="17.906287251971">
        <ele>50.6</ele>
        <time>2018-04-30T08:47:59Z</time>
      </trkpt>
      <trkpt lat="62.643738639524" lon="17.90622866249">
        <ele>50.6</ele>
        <time>2018-04-30T08:48:00Z</time>
      </trkpt>
      <trkpt lat="62.643720031706" lon="17.906174850692">
        <ele>50.8</ele>
        <time>2018-04-30T08:48:01Z</time>
      </trkpt>
      <trkpt lat="62.643694886006" lon="17.906110310062">
        <ele>50.8</ele>
        <time>2018-04-30T08:48:02Z</time>
      </trkpt>
      <trkpt lat="62.643672254876" lon="17.90605431897">
        <ele>51</ele>
        <time>2018-04-30T08:48:03Z</time>
      </trkpt>
      <trkpt lat="62.643646941538" lon="17.905993466376">
        <ele>51</ele>
        <time>2018-04-30T08:48:04Z</time>
      </trkpt>
      <trkpt lat="62.643622131114" lon="17.905937307646">
        <ele>51</ele>
        <time>2018-04-30T08:48:05Z</time>
      </trkpt>
      <trkpt lat="62.643598745613" lon="17.90588165183">
        <ele>51.2</ele>
        <time>2018-04-30T08:48:06Z</time>
      </trkpt>
      <trkpt lat="62.643572677904" lon="17.905815853915">
        <ele>51.2</ele>
        <time>2018-04-30T08:48:07Z</time>
      </trkpt>
      <trkpt lat="62.643549124765" lon="17.905750391276">
        <ele>51.4</ele>
        <time>2018-04-30T08:48:08Z</time>
      </trkpt>
      <trkpt lat="62.643521715952" lon="17.905675540909">
        <ele>51.4</ele>
        <time>2018-04-30T08:48:09Z</time>
      </trkpt>
      <trkpt lat="62.643490451465" lon="17.905594320298">
        <ele>51.4</ele>
        <time>2018-04-30T08:48:10Z</time>
      </trkpt>
      <trkpt lat="62.643460779539" lon="17.905518883198">
        <ele>51.4</ele>
        <time>2018-04-30T08:48:11Z</time>
      </trkpt>
      <trkpt lat="62.643427000482" lon="17.905432884904">
        <ele>51.4</ele>
        <time>2018-04-30T08:48:12Z</time>
      </trkpt>
      <trkpt lat="62.643396322728" lon="17.9053477248">
        <ele>51.2</ele>
        <time>2018-04-30T08:48:13Z</time>
      </trkpt>
      <trkpt lat="62.643367321354" lon="17.905257787013">
        <ele>51.4</ele>
        <time>2018-04-30T08:48:14Z</time>
      </trkpt>
      <trkpt lat="62.643341337464" lon="17.905174135651">
        <ele>51.2</ele>
        <time>2018-04-30T08:48:15Z</time>
      </trkpt>
      <trkpt lat="62.64331401247" lon="17.905083527312">
        <ele>51.2</ele>
        <time>2018-04-30T08:48:16Z</time>
      </trkpt>
      <trkpt lat="62.643286938933" lon="17.904986045815">
        <ele>51.4</ele>
        <time>2018-04-30T08:48:17Z</time>
      </trkpt>
      <trkpt lat="62.643261625595" lon="17.904890492155">
        <ele>51.4</ele>
        <time>2018-04-30T08:48:18Z</time>
      </trkpt>
      <trkpt lat="62.643237150447" lon="17.904793262115">
        <ele>51.4</ele>
        <time>2018-04-30T08:48:19Z</time>
      </trkpt>
      <trkpt lat="62.643210831281" lon="17.904692846953">
        <ele>51.4</ele>
        <time>2018-04-30T08:48:20Z</time>
      </trkpt>
      <trkpt lat="62.643188032513" lon="17.90460341208">
        <ele>51.4</ele>
        <time>2018-04-30T08:48:21Z</time>
      </trkpt>
      <trkpt lat="62.643160036967" lon="17.904485394928">
        <ele>51.4</ele>
        <time>2018-04-30T08:48:22Z</time>
      </trkpt>
      <trkpt lat="62.643138244027" lon="17.90438129173">
        <ele>51.4</ele>
        <time>2018-04-30T08:48:23Z</time>
      </trkpt>
      <trkpt lat="62.643114271793" lon="17.904261262922">
        <ele>51.2</ele>
        <time>2018-04-30T08:48:24Z</time>
      </trkpt>
      <trkpt lat="62.643094071414" lon="17.904148861643">
        <ele>51.2</ele>
        <time>2018-04-30T08:48:25Z</time>
      </trkpt>
      <trkpt lat="62.643076134148" lon="17.904039561667">
        <ele>51.2</ele>
        <time>2018-04-30T08:48:26Z</time>
      </trkpt>
      <trkpt lat="62.643059789443" lon="17.903921795972">
        <ele>51.2</ele>
        <time>2018-04-30T08:48:27Z</time>
      </trkpt>
      <trkpt lat="62.643044869661" lon="17.903793049988">
        <ele>51.2</ele>
        <time>2018-04-30T08:48:28Z</time>
      </trkpt>
      <trkpt lat="62.643031710078" lon="17.903671763895">
        <ele>51.2</ele>
        <time>2018-04-30T08:48:29Z</time>
      </trkpt>
      <trkpt lat="62.64301896959" lon="17.903549555793">
        <ele>51.2</ele>
        <time>2018-04-30T08:48:30Z</time>
      </trkpt>
      <trkpt lat="62.643010084776" lon="17.903432125374">
        <ele>51.2</ele>
        <time>2018-04-30T08:48:31Z</time>
      </trkpt>
      <trkpt lat="62.643002373428" lon="17.903299858992">
        <ele>51.2</ele>
        <time>2018-04-30T08:48:32Z</time>
      </trkpt>
      <trkpt lat="62.642997931021" lon="17.903179997822">
        <ele>51.2</ele>
        <time>2018-04-30T08:48:33Z</time>
      </trkpt>
      <trkpt lat="62.642996589917" lon="17.90304186411">
        <ele>51.2</ele>
        <time>2018-04-30T08:48:34Z</time>
      </trkpt>
      <trkpt lat="62.642996589917" lon="17.902909513909">
        <ele>51.2</ele>
        <time>2018-04-30T08:48:35Z</time>
      </trkpt>
      <trkpt lat="62.642996254641" lon="17.90278202521">
        <ele>51.2</ele>
        <time>2018-04-30T08:48:36Z</time>
      </trkpt>
      <trkpt lat="62.642996506098" lon="17.90263953291">
        <ele>51</ele>
        <time>2018-04-30T08:48:37Z</time>
      </trkpt>
      <trkpt lat="62.642998769211" lon="17.902515648428">
        <ele>51</ele>
        <time>2018-04-30T08:48:38Z</time>
      </trkpt>
      <trkpt lat="62.643001116143" lon="17.902380951295">
        <ele>51</ele>
        <time>2018-04-30T08:48:39Z</time>
      </trkpt>
      <trkpt lat="62.643004133627" lon="17.902235692968">
        <ele>51</ele>
        <time>2018-04-30T08:48:40Z</time>
      </trkpt>
      <trkpt lat="62.643007067292" lon="17.902107533717">
        <ele>51.2</ele>
        <time>2018-04-30T08:48:41Z</time>
      </trkpt>
      <trkpt lat="62.643010084776" lon="17.901964370865">
        <ele>51.2</ele>
        <time>2018-04-30T08:48:42Z</time>
      </trkpt>
      <trkpt lat="62.643012766984" lon="17.901829589913">
        <ele>51.2</ele>
        <time>2018-04-30T08:48:43Z</time>
      </trkpt>
      <trkpt lat="62.643016119744" lon="17.901696317703">
        <ele>51</ele>
        <time>2018-04-30T08:48:44Z</time>
      </trkpt>
      <trkpt lat="62.64301980778" lon="17.901573690506">
        <ele>50.8</ele>
        <time>2018-04-30T08:48:45Z</time>
      </trkpt>
      <trkpt lat="62.64302399873" lon="17.901438993373">
        <ele>50.6</ele>
        <time>2018-04-30T08:48:46Z</time>
      </trkpt>
      <trkpt lat="62.64302818968" lon="17.901300189109">
        <ele>50.2</ele>
        <time>2018-04-30T08:48:47Z</time>
      </trkpt>
      <trkpt lat="62.64303238063" lon="17.901168593279">
        <ele>50.4</ele>
        <time>2018-04-30T08:48:48Z</time>
      </trkpt>
      <trkpt lat="62.643035565752" lon="17.901038506191">
        <ele>50.4</ele>
        <time>2018-04-30T08:48:49Z</time>
      </trkpt>
      <trkpt lat="62.64303908615" lon="17.900907497094">
        <ele>50.4</ele>
        <time>2018-04-30T08:48:50Z</time>
      </trkpt>
      <trkpt lat="62.643043109462" lon="17.900793503254">
        <ele>50.4</ele>
        <time>2018-04-30T08:48:51Z</time>
      </trkpt>
      <trkpt lat="62.643048054783" lon="17.900649418393">
        <ele>50.6</ele>
        <time>2018-04-30T08:48:52Z</time>
      </trkpt>
      <trkpt lat="62.643052413371" lon="17.900528551395">
        <ele>50.6</ele>
        <time>2018-04-30T08:48:53Z</time>
      </trkpt>
      <trkpt lat="62.643057358692" lon="17.900391926425">
        <ele>50.4</ele>
        <time>2018-04-30T08:48:54Z</time>
      </trkpt>
      <trkpt lat="62.643061968737" lon="17.900261923156">
        <ele>50.4</ele>
        <time>2018-04-30T08:48:55Z</time>
      </trkpt>
      <trkpt lat="62.643066075868" lon="17.900139128321">
        <ele>50.4</ele>
        <time>2018-04-30T08:48:56Z</time>
      </trkpt>
      <trkpt lat="62.643070853551" lon="17.900011891079">
        <ele>50.4</ele>
        <time>2018-04-30T08:48:57Z</time>
      </trkpt>
      <trkpt lat="62.643075295958" lon="17.899874679376">
        <ele>50.4</ele>
        <time>2018-04-30T08:48:58Z</time>
      </trkpt>
      <trkpt lat="62.643079151632" lon="17.899743251184">
        <ele>50.6</ele>
        <time>2018-04-30T08:48:59Z</time>
      </trkpt>
      <trkpt lat="62.643083426401" lon="17.899613499372">
        <ele>50.4</ele>
        <time>2018-04-30T08:49:00Z</time>
      </trkpt>
      <trkpt lat="62.643087533532" lon="17.899487519415">
        <ele>50.4</ele>
        <time>2018-04-30T08:49:01Z</time>
      </trkpt>
      <trkpt lat="62.643091556844" lon="17.899349218065">
        <ele>50.4</ele>
        <time>2018-04-30T08:49:02Z</time>
      </trkpt>
      <trkpt lat="62.643095999251" lon="17.899224160117">
        <ele>50.4</ele>
        <time>2018-04-30T08:49:03Z</time>
      </trkpt>
      <trkpt lat="62.643100693115" lon="17.899083428016">
        <ele>50.4</ele>
        <time>2018-04-30T08:49:04Z</time>
      </trkpt>
      <trkpt lat="62.643104967884" lon="17.898947892693">
        <ele>50.4</ele>
        <time>2018-04-30T08:49:05Z</time>
      </trkpt>
      <trkpt lat="62.643108572101" lon="17.898819565804">
        <ele>50.6</ele>
        <time>2018-04-30T08:49:06Z</time>
      </trkpt>
      <trkpt lat="62.643111589585" lon="17.898677576418">
        <ele>50.8</ele>
        <time>2018-04-30T08:49:07Z</time>
      </trkpt>
      <trkpt lat="62.643114690888" lon="17.898546064407">
        <ele>51</ele>
        <time>2018-04-30T08:49:08Z</time>
      </trkpt>
      <trkpt lat="62.643118295105" lon="17.898414887672">
        <ele>51</ele>
        <time>2018-04-30T08:49:09Z</time>
      </trkpt>
      <trkpt lat="62.643122150779" lon="17.898270467535">
        <ele>51</ele>
        <time>2018-04-30T08:49:10Z</time>
      </trkpt>
      <trkpt lat="62.643125084444" lon="17.898142308284">
        <ele>51</ele>
        <time>2018-04-30T08:49:11Z</time>
      </trkpt>
      <trkpt lat="62.643128353385" lon="17.898000318898">
        <ele>51</ele>
        <time>2018-04-30T08:49:12Z</time>
      </trkpt>
      <trkpt lat="62.643134220715" lon="17.897864448299">
        <ele>50.8</ele>
        <time>2018-04-30T08:49:13Z</time>
      </trkpt>
      <trkpt lat="62.643140590959" lon="17.897731343727">
        <ele>50.8</ele>
        <time>2018-04-30T08:49:14Z</time>
      </trkpt>
      <trkpt lat="62.643145368642" lon="17.897608884168">
        <ele>50.6</ele>
        <time>2018-04-30T08:49:15Z</time>
      </trkpt>
      <trkpt lat="62.643150230144" lon="17.897474689949">
        <ele>50.6</ele>
        <time>2018-04-30T08:49:16Z</time>
      </trkpt>
      <trkpt lat="62.643154588732" lon="17.897337562065">
        <ele>50.6</ele>
        <time>2018-04-30T08:49:17Z</time>
      </trkpt>
      <trkpt lat="62.643158025311" lon="17.897207726434">
        <ele>50.6</ele>
        <time>2018-04-30T08:49:18Z</time>
      </trkpt>
      <trkpt lat="62.643160120786" lon="17.897075879147">
        <ele>50.4</ele>
        <time>2018-04-30T08:49:19Z</time>
      </trkpt>
      <trkpt lat="62.643161880985" lon="17.896943948041">
        <ele>50.6</ele>
        <time>2018-04-30T08:49:20Z</time>
      </trkpt>
      <trkpt lat="62.643163305908" lon="17.896824841242">
        <ele>50.6</ele>
        <time>2018-04-30T08:49:21Z</time>
      </trkpt>
      <trkpt lat="62.643164395555" lon="17.896675140508">
        <ele>50.6</ele>
        <time>2018-04-30T08:49:22Z</time>
      </trkpt>
      <trkpt lat="62.643164227917" lon="17.896547651809">
        <ele>50.6</ele>
        <time>2018-04-30T08:49:23Z</time>
      </trkpt>
      <trkpt lat="62.643163389727" lon="17.896413541409">
        <ele>50.6</ele>
        <time>2018-04-30T08:49:24Z</time>
      </trkpt>
      <trkpt lat="62.643161880985" lon="17.896285717434">
        <ele>50.6</ele>
        <time>2018-04-30T08:49:25Z</time>
      </trkpt>
      <trkpt lat="62.643159617872" lon="17.896163174056">
        <ele>50.6</ele>
        <time>2018-04-30T08:49:26Z</time>
      </trkpt>
      <trkpt lat="62.643156935664" lon="17.896035685357">
        <ele>50.6</ele>
        <time>2018-04-30T08:49:27Z</time>
      </trkpt>
      <trkpt lat="62.643152912352" lon="17.895903167518">
        <ele>50.8</ele>
        <time>2018-04-30T08:49:28Z</time>
      </trkpt>
      <trkpt lat="62.643148218488" lon="17.895780707959">
        <ele>50.6</ele>
        <time>2018-04-30T08:49:29Z</time>
      </trkpt>
      <trkpt lat="62.643144278995" lon="17.89565908659">
        <ele>50.8</ele>
        <time>2018-04-30T08:49:30Z</time>
      </trkpt>
      <trkpt lat="62.643140423321" lon="17.895541488533">
        <ele>50.8</ele>
        <time>2018-04-30T08:49:31Z</time>
      </trkpt>
      <trkpt lat="62.643134388353" lon="17.895416514404">
        <ele>51</ele>
        <time>2018-04-30T08:49:32Z</time>
      </trkpt>
      <trkpt lat="62.643127431376" lon="17.895301095641">
        <ele>51.2</ele>
        <time>2018-04-30T08:49:33Z</time>
      </trkpt>
      <trkpt lat="62.643119803847" lon="17.895178887539">
        <ele>51.4</ele>
        <time>2018-04-30T08:49:34Z</time>
      </trkpt>
      <trkpt lat="62.643113265965" lon="17.895070509572">
        <ele>51.6</ele>
        <time>2018-04-30T08:49:35Z</time>
      </trkpt>
      <trkpt lat="62.643105386979" lon="17.894960287587">
        <ele>51.4</ele>
        <time>2018-04-30T08:49:36Z</time>
      </trkpt>
      <trkpt lat="62.643097591812" lon="17.894844617367">
        <ele>51.6</ele>
        <time>2018-04-30T08:49:37Z</time>
      </trkpt>
      <trkpt lat="62.643090467197" lon="17.894737664323">
        <ele>51.4</ele>
        <time>2018-04-30T08:49:38Z</time>
      </trkpt>
      <trkpt lat="62.643083342582" lon="17.894632974392">
        <ele>51.4</ele>
        <time>2018-04-30T08:49:39Z</time>
      </trkpt>
      <trkpt lat="62.643074876863" lon="17.894519567285">
        <ele>51.6</ele>
        <time>2018-04-30T08:49:40Z</time>
      </trkpt>
      <trkpt lat="62.643065740592" lon="17.894417559562">
        <ele>51.8</ele>
        <time>2018-04-30T08:49:41Z</time>
      </trkpt>
      <trkpt lat="62.643055682312" lon="17.894307337577">
        <ele>52.2</ele>
        <time>2018-04-30T08:49:42Z</time>
      </trkpt>
      <trkpt lat="62.643046797498" lon="17.894200887447">
        <ele>52.6</ele>
        <time>2018-04-30T08:49:43Z</time>
      </trkpt>
      <trkpt lat="62.643038750874" lon="17.894094772593">
        <ele>52.8</ele>
        <time>2018-04-30T08:49:44Z</time>
      </trkpt>
      <trkpt lat="62.643030452793" lon="17.894001062951">
        <ele>53.2</ele>
        <time>2018-04-30T08:49:45Z</time>
      </trkpt>
      <trkpt lat="62.64301896959" lon="17.893884973636">
        <ele>53.4</ele>
        <time>2018-04-30T08:49:46Z</time>
      </trkpt>
      <trkpt lat="62.643007402568" lon="17.893770225425">
        <ele>53.2</ele>
        <time>2018-04-30T08:49:47Z</time>
      </trkpt>
      <trkpt lat="62.642995416451" lon="17.893660925449">
        <ele>53.2</ele>
        <time>2018-04-30T08:49:48Z</time>
      </trkpt>
      <trkpt lat="62.642983597972" lon="17.893547183066">
        <ele>53.2</ele>
        <time>2018-04-30T08:49:49Z</time>
      </trkpt>
      <trkpt lat="62.642972114769" lon="17.893435117063">
        <ele>53</ele>
        <time>2018-04-30T08:49:50Z</time>
      </trkpt>
      <trkpt lat="62.642961805032" lon="17.893335204815">
        <ele>53</ele>
        <time>2018-04-30T08:49:51Z</time>
      </trkpt>
      <trkpt lat="62.642948813087" lon="17.893207967573">
        <ele>53</ele>
        <time>2018-04-30T08:49:52Z</time>
      </trkpt>
      <trkpt lat="62.642937078427" lon="17.893099002873">
        <ele>53</ele>
        <time>2018-04-30T08:49:53Z</time>
      </trkpt>
      <trkpt lat="62.642924337939" lon="17.892982243006">
        <ele>53</ele>
        <time>2018-04-30T08:49:54Z</time>
      </trkpt>
      <trkpt lat="62.642912603279" lon="17.892871685745">
        <ele>53</ele>
        <time>2018-04-30T08:49:55Z</time>
      </trkpt>
      <trkpt lat="62.642900449524" lon="17.892767917823">
        <ele>53</ele>
        <time>2018-04-30T08:49:56Z</time>
      </trkpt>
      <trkpt lat="62.642887960493" lon="17.892658031114">
        <ele>53</ele>
        <time>2018-04-30T08:49:57Z</time>
      </trkpt>
      <trkpt lat="62.642875806738" lon="17.892540516876">
        <ele>53.2</ele>
        <time>2018-04-30T08:49:58Z</time>
      </trkpt>
      <trkpt lat="62.642864323535" lon="17.892429875796">
        <ele>53.2</ele>
        <time>2018-04-30T08:49:59Z</time>
      </trkpt>
      <trkpt lat="62.642850744857" lon="17.892319486173">
        <ele>53.2</ele>
        <time>2018-04-30T08:50:00Z</time>
      </trkpt>
      <trkpt lat="62.64283624417" lon="17.892214880061">
        <ele>53.4</ele>
        <time>2018-04-30T08:50:01Z</time>
      </trkpt>
      <trkpt lat="62.64282199494" lon="17.892096359995">
        <ele>53.4</ele>
        <time>2018-04-30T08:50:02Z</time>
      </trkpt>
      <trkpt lat="62.642810595556" lon="17.891985718915">
        <ele>53.6</ele>
        <time>2018-04-30T08:50:03Z</time>
      </trkpt>
      <trkpt lat="62.642798693258" lon="17.891870216333">
        <ele>53.4</ele>
        <time>2018-04-30T08:50:04Z</time>
      </trkpt>
      <trkpt lat="62.642785030761" lon="17.89175312119">
        <ele>53.6</ele>
        <time>2018-04-30T08:50:05Z</time>
      </trkpt>
      <trkpt lat="62.642771871178" lon="17.891643653576">
        <ele>53.6</ele>
        <time>2018-04-30T08:50:06Z</time>
      </trkpt>
      <trkpt lat="62.642756699939" lon="17.891522870397">
        <ele>53.6</ele>
        <time>2018-04-30T08:50:07Z</time>
      </trkpt>
      <trkpt lat="62.642743121261" lon="17.891407954548">
        <ele>53.4</ele>
        <time>2018-04-30T08:50:08Z</time>
      </trkpt>
      <trkpt lat="62.642729123488" lon="17.891293625432">
        <ele>53.4</ele>
        <time>2018-04-30T08:50:09Z</time>
      </trkpt>
      <trkpt lat="62.642712946421" lon="17.891170662959">
        <ele>53.2</ele>
        <time>2018-04-30T08:50:10Z</time>
      </trkpt>
      <trkpt lat="62.642699032467" lon="17.89105909987">
        <ele>53</ele>
        <time>2018-04-30T08:50:11Z</time>
      </trkpt>
      <trkpt lat="62.642684699418" lon="17.890934293379">
        <ele>52.8</ele>
        <time>2018-04-30T08:50:12Z</time>
      </trkpt>
      <trkpt lat="62.642671288378" lon="17.89081602477">
        <ele>52.8</ele>
        <time>2018-04-30T08:50:13Z</time>
      </trkpt>
      <trkpt lat="62.642657961157" lon="17.890697588523">
        <ele>52.8</ele>
        <time>2018-04-30T08:50:14Z</time>
      </trkpt>
      <trkpt lat="62.642645723583" lon="17.890595664619">
        <ele>52.8</ele>
        <time>2018-04-30T08:50:15Z</time>
      </trkpt>
      <trkpt lat="62.642628624507" lon="17.890464236427">
        <ele>52.8</ele>
        <time>2018-04-30T08:50:16Z</time>
      </trkpt>
      <trkpt lat="62.642612195983" lon="17.89033993285">
        <ele>52.8</ele>
        <time>2018-04-30T08:50:17Z</time>
      </trkpt>
      <trkpt lat="62.642596857106" lon="17.890223005345">
        <ele>52.8</ele>
        <time>2018-04-30T08:50:18Z</time>
      </trkpt>
      <trkpt lat="62.642581685867" lon="17.890109179143">
        <ele>52.8</ele>
        <time>2018-04-30T08:50:19Z</time>
      </trkpt>
      <trkpt lat="62.642566179352" lon="17.889994347113">
        <ele>53</ele>
        <time>2018-04-30T08:50:20Z</time>
      </trkpt>
      <trkpt lat="62.642552516855" lon="17.889892842304">
        <ele>53.2</ele>
        <time>2018-04-30T08:50:21Z</time>
      </trkpt>
      <trkpt lat="62.642535250141" lon="17.889761497931">
        <ele>53.2</ele>
        <time>2018-04-30T08:50:22Z</time>
      </trkpt>
      <trkpt lat="62.642519156893" lon="17.889644067512">
        <ele>53</ele>
        <time>2018-04-30T08:50:23Z</time>
      </trkpt>
      <trkpt lat="62.642500800532" lon="17.88951766846">
        <ele>53</ele>
        <time>2018-04-30T08:50:24Z</time>
      </trkpt>
      <trkpt lat="62.642480600153" lon="17.889394622168">
        <ele>52.8</ele>
        <time>2018-04-30T08:50:25Z</time>
      </trkpt>
      <trkpt lat="62.642460315955" lon="17.889276018283">
        <ele>52.8</ele>
        <time>2018-04-30T08:50:26Z</time>
      </trkpt>
      <trkpt lat="62.642439361205" lon="17.889150625059">
        <ele>52.8</ele>
        <time>2018-04-30T08:50:27Z</time>
      </trkpt>
      <trkpt lat="62.642418071179" lon="17.889014670641">
        <ele>52.6</ele>
        <time>2018-04-30T08:50:28Z</time>
      </trkpt>
      <trkpt lat="62.642397954619" lon="17.888883242449">
        <ele>52.6</ele>
        <time>2018-04-30T08:50:29Z</time>
      </trkpt>
      <trkpt lat="62.642377251326" lon="17.888754831741">
        <ele>52.4</ele>
        <time>2018-04-30T08:50:30Z</time>
      </trkpt>
      <trkpt lat="62.64235512311" lon="17.88863253982">
        <ele>52.2</ele>
        <time>2018-04-30T08:50:31Z</time>
      </trkpt>
      <trkpt lat="62.642329642134" lon="17.888496836859">
        <ele>52</ele>
        <time>2018-04-30T08:50:32Z</time>
      </trkpt>
      <trkpt lat="62.642306256633" lon="17.88837689187">
        <ele>51.8</ele>
        <time>2018-04-30T08:50:33Z</time>
      </trkpt>
      <trkpt lat="62.642279183096" lon="17.888240015443">
        <ele>51.8</ele>
        <time>2018-04-30T08:50:34Z</time>
      </trkpt>
      <trkpt lat="62.642252277197" lon="17.88811202383">
        <ele>51.8</ele>
        <time>2018-04-30T08:50:35Z</time>
      </trkpt>
      <trkpt lat="62.64222520366" lon="17.887990653918">
        <ele>51.6</ele>
        <time>2018-04-30T08:50:36Z</time>
      </trkpt>
      <trkpt lat="62.642194442087" lon="17.88785889045">
        <ele>51.6</ele>
        <time>2018-04-30T08:50:37Z</time>
      </trkpt>
      <trkpt lat="62.642164434885" lon="17.887739951289">
        <ele>51.4</ele>
        <time>2018-04-30T08:50:38Z</time>
      </trkpt>
      <trkpt lat="62.642133924769" lon="17.887623778155">
        <ele>51</ele>
        <time>2018-04-30T08:50:39Z</time>
      </trkpt>
      <trkpt lat="62.642100061893" lon="17.88749930694">
        <ele>50.8</ele>
        <time>2018-04-30T08:50:40Z</time>
      </trkpt>
      <trkpt lat="62.64206930032" lon="17.887389587869">
        <ele>50.8</ele>
        <time>2018-04-30T08:50:41Z</time>
      </trkpt>
      <trkpt lat="62.642033509607" lon="17.887268134138">
        <ele>50.6</ele>
        <time>2018-04-30T08:50:42Z</time>
      </trkpt>
      <trkpt lat="62.641999395274" lon="17.887158415067">
        <ele>50.6</ele>
        <time>2018-04-30T08:50:43Z</time>
      </trkpt>
      <trkpt lat="62.641966286769" lon="17.887056407344">
        <ele>51</ele>
        <time>2018-04-30T08:50:44Z</time>
      </trkpt>
      <trkpt lat="62.64193267535" lon="17.886958422933">
        <ele>50.8</ele>
        <time>2018-04-30T08:50:45Z</time>
      </trkpt>
      <trkpt lat="62.641900069759" lon="17.886870329164">
        <ele>50.8</ele>
        <time>2018-04-30T08:50:46Z</time>
      </trkpt>
      <trkpt lat="62.641857405888" lon="17.886756754419">
        <ele>50.8</ele>
        <time>2018-04-30T08:50:47Z</time>
      </trkpt>
      <trkpt lat="62.641821531356" lon="17.886661536035">
        <ele>50.8</ele>
        <time>2018-04-30T08:50:48Z</time>
      </trkpt>
      <trkpt lat="62.64178431572" lon="17.886572855533">
        <ele>50.8</ele>
        <time>2018-04-30T08:50:49Z</time>
      </trkpt>
      <trkpt lat="62.641746345713" lon="17.886489790904">
        <ele>50.8</ele>
        <time>2018-04-30T08:50:50Z</time>
      </trkpt>
      <trkpt lat="62.641714410674" lon="17.886416197822">
        <ele>51</ele>
        <time>2018-04-30T08:50:51Z</time>
      </trkpt>
      <trkpt lat="62.641674261373" lon="17.886326511492">
        <ele>51.2</ele>
        <time>2018-04-30T08:50:52Z</time>
      </trkpt>
      <trkpt lat="62.641638889755" lon="17.886252331677">
        <ele>51.6</ele>
        <time>2018-04-30T08:50:53Z</time>
      </trkpt>
      <trkpt lat="62.641601087386" lon="17.886176810758">
        <ele>51.8</ele>
        <time>2018-04-30T08:50:54Z</time>
      </trkpt>
      <trkpt lat="62.641563620293" lon="17.886107408626">
        <ele>52</ele>
        <time>2018-04-30T08:50:55Z</time>
      </trkpt>
      <trkpt lat="62.641529086865" lon="17.886039431417">
        <ele>52.2</ele>
        <time>2018-04-30T08:50:56Z</time>
      </trkpt>
      <trkpt lat="62.64149346379" lon="17.885973968778">
        <ele>52.6</ele>
        <time>2018-04-30T08:50:57Z</time>
      </trkpt>
      <trkpt lat="62.641453649765" lon="17.885908506139">
        <ele>53</ele>
        <time>2018-04-30T08:50:58Z</time>
      </trkpt>
      <trkpt lat="62.641415763577" lon="17.88584807264">
        <ele>53.2</ele>
        <time>2018-04-30T08:50:59Z</time>
      </trkpt>
      <trkpt lat="62.641378296484" lon="17.885789650797">
        <ele>53.4</ele>
        <time>2018-04-30T08:51:00Z</time>
      </trkpt>
      <trkpt lat="62.641342338133" lon="17.885730977497">
        <ele>53.8</ele>
        <time>2018-04-30T08:51:01Z</time>
      </trkpt>
      <trkpt lat="62.641303865212" lon="17.88567037636">
        <ele>53.8</ele>
        <time>2018-04-30T08:51:02Z</time>
      </trkpt>
      <trkpt lat="62.641268661232" lon="17.885618660037">
        <ele>54</ele>
        <time>2018-04-30T08:51:03Z</time>
      </trkpt>
      <trkpt lat="62.641228763388" lon="17.88556057347">
        <ele>54.2</ele>
        <time>2018-04-30T08:51:04Z</time>
      </trkpt>
      <trkpt lat="62.641191044838" lon="17.885508186595">
        <ele>54.2</ele>
        <time>2018-04-30T08:51:05Z</time>
      </trkpt>
      <trkpt lat="62.641154583573" lon="17.885461247955">
        <ele>54.4</ele>
        <time>2018-04-30T08:51:06Z</time>
      </trkpt>
      <trkpt lat="62.641113679901" lon="17.885407436157">
        <ele>54.6</ele>
        <time>2018-04-30T08:51:07Z</time>
      </trkpt>
      <trkpt lat="62.641076464265" lon="17.885357563852">
        <ele>54.6</ele>
        <time>2018-04-30T08:51:08Z</time>
      </trkpt>
      <trkpt lat="62.641040254457" lon="17.885308194461">
        <ele>54.8</ele>
        <time>2018-04-30T08:51:09Z</time>
      </trkpt>
      <trkpt lat="62.640999266966" lon="17.885255891405">
        <ele>55</ele>
        <time>2018-04-30T08:51:10Z</time>
      </trkpt>
      <trkpt lat="62.640962470425" lon="17.88521188643">
        <ele>55.2</ele>
        <time>2018-04-30T08:51:11Z</time>
      </trkpt>
      <trkpt lat="62.640921399115" lon="17.885162517039">
        <ele>55.4</ele>
        <time>2018-04-30T08:51:12Z</time>
      </trkpt>
      <trkpt lat="62.640883093832" lon="17.885111974182">
        <ele>55.6</ele>
        <time>2018-04-30T08:51:13Z</time>
      </trkpt>
      <trkpt lat="62.640844285635" lon="17.885062856248">
        <ele>55.6</ele>
        <time>2018-04-30T08:51:14Z</time>
      </trkpt>
      <trkpt lat="62.640810674216" lon="17.885020946748">
        <ele>55.8</ele>
        <time>2018-04-30T08:51:15Z</time>
      </trkpt>
      <trkpt lat="62.640767758888" lon="17.884965710027">
        <ele>56</ele>
        <time>2018-04-30T08:51:16Z</time>
      </trkpt>
      <trkpt lat="62.640726855216" lon="17.884911060039">
        <ele>56</ele>
        <time>2018-04-30T08:51:17Z</time>
      </trkpt>
      <trkpt lat="62.640687460286" lon="17.884858589345">
        <ele>56.4</ele>
        <time>2018-04-30T08:51:18Z</time>
      </trkpt>
      <trkpt lat="62.640648065356" lon="17.884805029004">
        <ele>56.4</ele>
        <time>2018-04-30T08:51:19Z</time>
      </trkpt>
      <trkpt lat="62.640608838064" lon="17.884752725948">
        <ele>56.4</ele>
        <time>2018-04-30T08:51:20Z</time>
      </trkpt>
      <trkpt lat="62.640574136998" lon="17.884704362385">
        <ele>56.6</ele>
        <time>2018-04-30T08:51:21Z</time>
      </trkpt>
      <trkpt lat="62.640528790919" lon="17.884642336325">
        <ele>56.8</ele>
        <time>2018-04-30T08:51:22Z</time>
      </trkpt>
      <trkpt lat="62.640490485636" lon="17.884586848147">
        <ele>57</ele>
        <time>2018-04-30T08:51:23Z</time>
      </trkpt>
      <trkpt lat="62.640451342163" lon="17.884524654449">
        <ele>57.2</ele>
        <time>2018-04-30T08:51:24Z</time>
      </trkpt>
      <trkpt lat="62.640412282509" lon="17.884462796027">
        <ele>57.4</ele>
        <time>2018-04-30T08:51:25Z</time>
      </trkpt>
      <trkpt lat="62.640375905063" lon="17.884403619813">
        <ele>57.6</ele>
        <time>2018-04-30T08:51:26Z</time>
      </trkpt>
      <trkpt lat="62.640338689427" lon="17.884339163002">
        <ele>57.8</ele>
        <time>2018-04-30T08:51:27Z</time>
      </trkpt>
      <trkpt lat="62.640299545954" lon="17.884268419766">
        <ele>57.8</ele>
        <time>2018-04-30T08:51:28Z</time>
      </trkpt>
      <trkpt lat="62.640262414137" lon="17.884201532204">
        <ele>57.8</ele>
        <time>2018-04-30T08:51:29Z</time>
      </trkpt>
      <trkpt lat="62.64022612051" lon="17.884131878615">
        <ele>57.8</ele>
        <time>2018-04-30T08:51:30Z</time>
      </trkpt>
      <trkpt lat="62.640192760548" lon="17.884066499795">
        <ele>57.8</ele>
        <time>2018-04-30T08:51:31Z</time>
      </trkpt>
      <trkpt lat="62.640156634559" lon="17.883989470134">
        <ele>57.8</ele>
        <time>2018-04-30T08:51:32Z</time>
      </trkpt>
      <trkpt lat="62.640124028968" lon="17.883917134337">
        <ele>57.6</ele>
        <time>2018-04-30T08:51:33Z</time>
      </trkpt>
      <trkpt lat="62.640087316246" lon="17.883832980061">
        <ele>57.6</ele>
        <time>2018-04-30T08:51:34Z</time>
      </trkpt>
      <trkpt lat="62.640053034275" lon="17.88375259764">
        <ele>57.8</ele>
        <time>2018-04-30T08:51:35Z</time>
      </trkpt>
      <trkpt lat="62.640020931598" lon="17.883675903255">
        <ele>57.8</ele>
        <time>2018-04-30T08:51:36Z</time>
      </trkpt>
      <trkpt lat="62.639985895256" lon="17.883587977124">
        <ele>58</ele>
        <time>2018-04-30T08:51:37Z</time>
      </trkpt>
      <trkpt lat="62.639954295493" lon="17.88350616978">
        <ele>58</ele>
        <time>2018-04-30T08:51:38Z</time>
      </trkpt>
      <trkpt lat="62.639922192816" lon="17.883421428771">
        <ele>58</ele>
        <time>2018-04-30T08:51:39Z</time>
      </trkpt>
      <trkpt lat="62.639888832854" lon="17.883331658622">
        <ele>58.2</ele>
        <time>2018-04-30T08:51:40Z</time>
      </trkpt>
      <trkpt lat="62.639860082937" lon="17.883246163242">
        <ele>58.4</ele>
        <time>2018-04-30T08:51:41Z</time>
      </trkpt>
      <trkpt lat="62.639829489002" lon="17.883144742252">
        <ele>58.4</ele>
        <time>2018-04-30T08:51:42Z</time>
      </trkpt>
      <trkpt lat="62.639799900895" lon="17.883048015126">
        <ele>58.6</ele>
        <time>2018-04-30T08:51:43Z</time>
      </trkpt>
      <trkpt lat="62.639769977512" lon="17.882949695439">
        <ele>58.6</ele>
        <time>2018-04-30T08:51:44Z</time>
      </trkpt>
      <trkpt lat="62.639741981966" lon="17.882854644693">
        <ele>58.4</ele>
        <time>2018-04-30T08:51:45Z</time>
      </trkpt>
      <trkpt lat="62.639712896773" lon="17.882754397169">
        <ele>58.2</ele>
        <time>2018-04-30T08:51:46Z</time>
      </trkpt>
      <trkpt lat="62.639682889571" lon="17.882645013374">
        <ele>58</ele>
        <time>2018-04-30T08:51:47Z</time>
      </trkpt>
      <trkpt lat="62.639655061663" lon="17.88253806033">
        <ele>57.8</ele>
        <time>2018-04-30T08:51:48Z</time>
      </trkpt>
      <trkpt lat="62.639628826316" lon="17.882429682363">
        <ele>57.8</ele>
        <time>2018-04-30T08:51:49Z</time>
      </trkpt>
      <trkpt lat="62.639604434987" lon="17.882319460378">
        <ele>57.8</ele>
        <time>2018-04-30T08:51:50Z</time>
      </trkpt>
      <trkpt lat="62.639583815513" lon="17.882220973053">
        <ele>57.8</ele>
        <time>2018-04-30T08:51:51Z</time>
      </trkpt>
      <trkpt lat="62.639558753632" lon="17.882092394707">
        <ele>57.8</ele>
        <time>2018-04-30T08:51:52Z</time>
      </trkpt>
      <trkpt lat="62.639538217977" lon="17.881974545193">
        <ele>58</ele>
        <time>2018-04-30T08:51:53Z</time>
      </trkpt>
      <trkpt lat="62.639517682322" lon="17.881846805037">
        <ele>58</ele>
        <time>2018-04-30T08:51:54Z</time>
      </trkpt>
      <trkpt lat="62.63949940978" lon="17.881734403758">
        <ele>57.8</ele>
        <time>2018-04-30T08:51:55Z</time>
      </trkpt>
      <trkpt lat="62.639476946288" lon="17.881595431856">
        <ele>57.8</ele>
        <time>2018-04-30T08:51:56Z</time>
      </trkpt>
      <trkpt lat="62.639458087013" lon="17.881462327284">
        <ele>57.6</ele>
        <time>2018-04-30T08:51:57Z</time>
      </trkpt>
      <trkpt lat="62.639440401204" lon="17.881316649862">
        <ele>57.4</ele>
        <time>2018-04-30T08:51:58Z</time>
      </trkpt>
      <trkpt lat="62.639424391775" lon="17.881176923589">
        <ele>57.2</ele>
        <time>2018-04-30T08:51:59Z</time>
      </trkpt>
      <trkpt lat="62.639409891088" lon="17.881030659434">
        <ele>57</ele>
        <time>2018-04-30T08:52:00Z</time>
      </trkpt>
      <trkpt lat="62.639398324066" lon="17.880895962301">
        <ele>56.6</ele>
        <time>2018-04-30T08:52:01Z</time>
      </trkpt>
      <trkpt lat="62.639386589406" lon="17.880753972915">
        <ele>56.2</ele>
        <time>2018-04-30T08:52:02Z</time>
      </trkpt>
      <trkpt lat="62.639375441479" lon="17.88061776704">
        <ele>55.8</ele>
        <time>2018-04-30T08:52:03Z</time>
      </trkpt>
      <trkpt lat="62.639363874457" lon="17.880469994143">
        <ele>55.4</ele>
        <time>2018-04-30T08:52:04Z</time>
      </trkpt>
      <trkpt lat="62.639353313263" lon="17.880327082748">
        <ele>55</ele>
        <time>2018-04-30T08:52:05Z</time>
      </trkpt>
      <trkpt lat="62.639343254983" lon="17.880192972348">
        <ele>54.8</ele>
        <time>2018-04-30T08:52:06Z</time>
      </trkpt>
      <trkpt lat="62.639332526151" lon="17.88004109232">
        <ele>54.6</ele>
        <time>2018-04-30T08:52:07Z</time>
      </trkpt>
      <trkpt lat="62.639321797319" lon="17.879900360219">
        <ele>54.6</ele>
        <time>2018-04-30T08:52:08Z</time>
      </trkpt>
      <trkpt lat="62.639310900849" lon="17.879761472136">
        <ele>54.6</ele>
        <time>2018-04-30T08:52:09Z</time>
      </trkpt>
      <trkpt lat="62.63929824418" lon="17.879603724778">
        <ele>54.6</ele>
        <time>2018-04-30T08:52:10Z</time>
      </trkpt>
      <trkpt lat="62.639285336054" lon="17.879461316297">
        <ele>54.6</ele>
        <time>2018-04-30T08:52:11Z</time>
      </trkpt>
      <trkpt lat="62.639269913358" lon="17.879303066025">
        <ele>54.4</ele>
        <time>2018-04-30T08:52:12Z</time>
      </trkpt>
      <trkpt lat="62.639256083223" lon="17.879152443282">
        <ele>54.2</ele>
        <time>2018-04-30T08:52:13Z</time>
      </trkpt>
      <trkpt lat="62.639242253088" lon="17.878994109191">
        <ele>54.2</ele>
        <time>2018-04-30T08:52:14Z</time>
      </trkpt>
      <trkpt lat="62.639228506772" lon="17.878845581923">
        <ele>54</ele>
        <time>2018-04-30T08:52:15Z</time>
      </trkpt>
      <trkpt lat="62.639212664981" lon="17.878692193153">
        <ele>54</ele>
        <time>2018-04-30T08:52:16Z</time>
      </trkpt>
      <trkpt lat="62.63919430862" lon="17.878530841578">
        <ele>54</ele>
        <time>2018-04-30T08:52:17Z</time>
      </trkpt>
      <trkpt lat="62.639176455173" lon="17.878384074509">
        <ele>53.8</ele>
        <time>2018-04-30T08:52:18Z</time>
      </trkpt>
      <trkpt lat="62.639155835699" lon="17.87822808735">
        <ele>53.8</ele>
        <time>2018-04-30T08:52:19Z</time>
      </trkpt>
      <trkpt lat="62.639135216225" lon="17.878074447123">
        <ele>53.8</ele>
        <time>2018-04-30T08:52:20Z</time>
      </trkpt>
      <trkpt lat="62.639117111321" lon="17.877937403058">
        <ele>53.8</ele>
        <time>2018-04-30T08:52:21Z</time>
      </trkpt>
      <trkpt lat="62.639093306725" lon="17.877765574108">
        <ele>53.6</ele>
        <time>2018-04-30T08:52:22Z</time>
      </trkpt>
      <trkpt lat="62.639070591776" lon="17.877617549754">
        <ele>53.6</ele>
        <time>2018-04-30T08:52:23Z</time>
      </trkpt>
      <trkpt lat="62.639046116628" lon="17.877473381074">
        <ele>53.4</ele>
        <time>2018-04-30T08:52:24Z</time>
      </trkpt>
      <trkpt lat="62.639020719471" lon="17.87732116577">
        <ele>53</ele>
        <time>2018-04-30T08:52:25Z</time>
      </trkpt>
      <trkpt lat="62.638996831056" lon="17.877179930755">
        <ele>52.6</ele>
        <time>2018-04-30T08:52:26Z</time>
      </trkpt>
      <trkpt lat="62.638969589881" lon="17.877034169514">
        <ele>52.4</ele>
        <time>2018-04-30T08:52:27Z</time>
      </trkpt>
      <trkpt lat="62.638938493032" lon="17.87687692507">
        <ele>52</ele>
        <time>2018-04-30T08:52:28Z</time>
      </trkpt>
      <trkpt lat="62.63890848583" lon="17.876729152173">
        <ele>51.8</ele>
        <time>2018-04-30T08:52:29Z</time>
      </trkpt>
      <trkpt lat="62.63887914918" lon="17.87657852943">
        <ele>51.4</ele>
        <time>2018-04-30T08:52:30Z</time>
      </trkpt>
      <trkpt lat="62.638851069815" lon="17.876435282759">
        <ele>51</ele>
        <time>2018-04-30T08:52:31Z</time>
      </trkpt>
      <trkpt lat="62.638819386233" lon="17.876276697211">
        <ele>50.8</ele>
        <time>2018-04-30T08:52:32Z</time>
      </trkpt>
      <trkpt lat="62.638789379031" lon="17.876137809128">
        <ele>50.4</ele>
        <time>2018-04-30T08:52:33Z</time>
      </trkpt>
      <trkpt lat="62.638754342689" lon="17.875983246892">
        <ele>50.2</ele>
        <time>2018-04-30T08:52:34Z</time>
      </trkpt>
      <trkpt lat="62.638721401822" lon="17.875840167859">
        <ele>49.6</ele>
        <time>2018-04-30T08:52:35Z</time>
      </trkpt>
      <trkpt lat="62.638687706584" lon="17.875699184301">
        <ele>49.4</ele>
        <time>2018-04-30T08:52:36Z</time>
      </trkpt>
      <trkpt lat="62.638652586423" lon="17.875555434716">
        <ele>49.2</ele>
        <time>2018-04-30T08:52:37Z</time>
      </trkpt>
      <trkpt lat="62.638621154298" lon="17.875426269637">
        <ele>49</ele>
        <time>2018-04-30T08:52:38Z</time>
      </trkpt>
      <trkpt lat="62.638589554535" lon="17.875289057934">
        <ele>48.8</ele>
        <time>2018-04-30T08:52:39Z</time>
      </trkpt>
      <trkpt lat="62.638556194573" lon="17.875143715788">
        <ele>48.6</ele>
        <time>2018-04-30T08:52:40Z</time>
      </trkpt>
      <trkpt lat="62.638526355009" lon="17.875013796338">
        <ele>48.4</ele>
        <time>2018-04-30T08:52:41Z</time>
      </trkpt>
      <trkpt lat="62.638492575952" lon="17.874869962934">
        <ele>48.2</ele>
        <time>2018-04-30T08:52:42Z</time>
      </trkpt>
      <trkpt lat="62.638459718904" lon="17.87473199686">
        <ele>48</ele>
        <time>2018-04-30T08:52:43Z</time>
      </trkpt>
      <trkpt lat="62.638427867684" lon="17.874593779329">
        <ele>47.6</ele>
        <time>2018-04-30T08:52:44Z</time>
      </trkpt>
      <trkpt lat="62.638398195758" lon="17.874463859879">
        <ele>47.4</ele>
        <time>2018-04-30T08:52:45Z</time>
      </trkpt>
      <trkpt lat="62.638366847452" lon="17.874321535217">
        <ele>47.2</ele>
        <time>2018-04-30T08:52:46Z</time>
      </trkpt>
      <trkpt lat="62.638333319852" lon="17.87416873318">
        <ele>47</ele>
        <time>2018-04-30T08:52:47Z</time>
      </trkpt>
      <trkpt lat="62.638302139184" lon="17.874025905604">
        <ele>46.8</ele>
        <time>2018-04-30T08:52:48Z</time>
      </trkpt>
      <trkpt lat="62.638271293792" lon="17.873885927874">
        <ele>46.6</ele>
        <time>2018-04-30T08:52:49Z</time>
      </trkpt>
      <trkpt lat="62.638241538047" lon="17.873737568244">
        <ele>46.4</ele>
        <time>2018-04-30T08:52:50Z</time>
      </trkpt>
      <trkpt lat="62.638216643804" lon="17.87360714588">
        <ele>46</ele>
        <time>2018-04-30T08:52:51Z</time>
      </trkpt>
      <trkpt lat="62.638185044041" lon="17.873442944459">
        <ele>45.8</ele>
        <time>2018-04-30T08:52:52Z</time>
      </trkpt>
      <trkpt lat="62.638156880857" lon="17.87329701558">
        <ele>45.4</ele>
        <time>2018-04-30T08:52:53Z</time>
      </trkpt>
      <trkpt lat="62.638127628026" lon="17.873135915462">
        <ele>45.2</ele>
        <time>2018-04-30T08:52:54Z</time>
      </trkpt>
      <trkpt lat="62.638100051575" lon="17.872979006294">
        <ele>45.4</ele>
        <time>2018-04-30T08:52:55Z</time>
      </trkpt>
      <trkpt lat="62.638074235323" lon="17.872825868981">
        <ele>45.2</ele>
        <time>2018-04-30T08:52:56Z</time>
      </trkpt>
      <trkpt lat="62.638049089623" lon="17.872667115795">
        <ele>45.4</ele>
        <time>2018-04-30T08:52:57Z</time>
      </trkpt>
      <trkpt lat="62.638023608647" lon="17.872498304329">
        <ele>45.2</ele>
        <time>2018-04-30T08:52:58Z</time>
      </trkpt>
      <trkpt lat="62.638000223146" lon="17.87233812622">
        <ele>44.8</ele>
        <time>2018-04-30T08:52:59Z</time>
      </trkpt>
      <trkpt lat="62.637977927292" lon="17.872178451025">
        <ele>43.8</ele>
        <time>2018-04-30T08:53:00Z</time>
      </trkpt>
      <trkpt lat="62.637956385809" lon="17.872017686183">
        <ele>43</ele>
        <time>2018-04-30T08:53:01Z</time>
      </trkpt>
      <trkpt lat="62.637934341412" lon="17.871840408998">
        <ele>42.4</ele>
        <time>2018-04-30T08:53:02Z</time>
      </trkpt>
      <trkpt lat="62.637915649775" lon="17.871678554509">
        <ele>42</ele>
        <time>2018-04-30T08:53:03Z</time>
      </trkpt>
      <trkpt lat="62.637896539043" lon="17.871504378627">
        <ele>41.6</ele>
        <time>2018-04-30T08:53:04Z</time>
      </trkpt>
      <trkpt lat="62.637879020872" lon="17.871322407578">
        <ele>41.8</ele>
        <time>2018-04-30T08:53:05Z</time>
      </trkpt>
      <trkpt lat="62.637864436366" lon="17.871148986067">
        <ele>42</ele>
        <time>2018-04-30T08:53:06Z</time>
      </trkpt>
      <trkpt lat="62.637850019498" lon="17.870959974222">
        <ele>41.8</ele>
        <time>2018-04-30T08:53:07Z</time>
      </trkpt>
      <trkpt lat="62.637838284838" lon="17.870785295426">
        <ele>41.6</ele>
        <time>2018-04-30T08:53:08Z</time>
      </trkpt>
      <trkpt lat="62.637828478015" lon="17.870609946078">
        <ele>41.2</ele>
        <time>2018-04-30T08:53:09Z</time>
      </trkpt>
      <trkpt lat="62.63781967702" lon="17.87041112741">
        <ele>40.4</ele>
        <time>2018-04-30T08:53:10Z</time>
      </trkpt>
      <trkpt lat="62.637811714215" lon="17.870227312343">
        <ele>40</ele>
        <time>2018-04-30T08:53:11Z</time>
      </trkpt>
      <trkpt lat="62.637804505781" lon="17.870030253874">
        <ele>39.6</ele>
        <time>2018-04-30T08:53:12Z</time>
      </trkpt>
      <trkpt lat="62.637799895736" lon="17.869839314192">
        <ele>39</ele>
        <time>2018-04-30T08:53:13Z</time>
      </trkpt>
      <trkpt lat="62.637797464985" lon="17.869646949587">
        <ele>38.6</ele>
        <time>2018-04-30T08:53:14Z</time>
      </trkpt>
      <trkpt lat="62.637797381166" lon="17.86946900185">
        <ele>38.2</ele>
        <time>2018-04-30T08:53:15Z</time>
      </trkpt>
      <trkpt lat="62.637799811917" lon="17.869274457951">
        <ele>37.6</ele>
        <time>2018-04-30T08:53:16Z</time>
      </trkpt>
      <trkpt lat="62.6378045896" lon="17.869073292351">
        <ele>37.2</ele>
        <time>2018-04-30T08:53:17Z</time>
      </trkpt>
      <trkpt lat="62.637809870197" lon="17.868880341013">
        <ele>36.6</ele>
        <time>2018-04-30T08:53:18Z</time>
      </trkpt>
      <trkpt lat="62.637816156622" lon="17.868687976408">
        <ele>36</ele>
        <time>2018-04-30T08:53:19Z</time>
      </trkpt>
      <trkpt lat="62.637824119427" lon="17.868498629287">
        <ele>35.2</ele>
        <time>2018-04-30T08:53:20Z</time>
      </trkpt>
      <trkpt lat="62.637831160223" lon="17.868338870273">
        <ele>34.4</ele>
        <time>2018-04-30T08:53:21Z</time>
      </trkpt>
      <trkpt lat="62.637841721417" lon="17.868133429904">
        <ele>33.4</ele>
        <time>2018-04-30T08:53:22Z</time>
      </trkpt>
      <trkpt lat="62.637851360602" lon="17.867957912918">
        <ele>32.6</ele>
        <time>2018-04-30T08:53:23Z</time>
      </trkpt>
      <trkpt lat="62.637861418882" lon="17.867782898846">
        <ele>32</ele>
        <time>2018-04-30T08:53:24Z</time>
      </trkpt>
      <trkpt lat="62.637871141886" lon="17.867610483163">
        <ele>31.4</ele>
        <time>2018-04-30T08:53:25Z</time>
      </trkpt>
      <trkpt lat="62.637880613433" lon="17.867446617018">
        <ele>31</ele>
        <time>2018-04-30T08:53:26Z</time>
      </trkpt>
      <trkpt lat="62.637890587894" lon="17.867267747272">
        <ele>31</ele>
        <time>2018-04-30T08:53:27Z</time>
      </trkpt>
      <trkpt lat="62.637901065269" lon="17.867083261653">
        <ele>31</ele>
        <time>2018-04-30T08:53:28Z</time>
      </trkpt>
      <trkpt lat="62.637910452997" lon="17.866907074115">
        <ele>30.8</ele>
        <time>2018-04-30T08:53:29Z</time>
      </trkpt>
      <trkpt lat="62.637920427458" lon="17.866735328984">
        <ele>30.4</ele>
        <time>2018-04-30T08:53:30Z</time>
      </trkpt>
      <trkpt lat="62.637931491566" lon="17.866565930785">
        <ele>30.2</ele>
        <time>2018-04-30T08:53:31Z</time>
      </trkpt>
      <trkpt lat="62.637942723312" lon="17.866389072695">
        <ele>30</ele>
        <time>2018-04-30T08:53:32Z</time>
      </trkpt>
      <trkpt lat="62.637951524307" lon="17.866235516287">
        <ele>29.8</ele>
        <time>2018-04-30T08:53:33Z</time>
      </trkpt>
      <trkpt lat="62.637960576759" lon="17.866052287953">
        <ele>29.8</ele>
        <time>2018-04-30T08:53:34Z</time>
      </trkpt>
      <trkpt lat="62.637969042478" lon="17.865880207546">
        <ele>30.2</ele>
        <time>2018-04-30T08:53:35Z</time>
      </trkpt>
      <trkpt lat="62.637977005283" lon="17.865721035265">
        <ele>30.2</ele>
        <time>2018-04-30T08:53:36Z</time>
      </trkpt>
      <trkpt lat="62.637986057735" lon="17.8655420817">
        <ele>30.2</ele>
        <time>2018-04-30T08:53:37Z</time>
      </trkpt>
      <trkpt lat="62.637994942549" lon="17.865382406505">
        <ele>30.6</ele>
        <time>2018-04-30T08:53:38Z</time>
      </trkpt>
      <trkpt lat="62.63800407882" lon="17.865221641663">
        <ele>30.8</ele>
        <time>2018-04-30T08:53:39Z</time>
      </trkpt>
      <trkpt lat="62.638013047453" lon="17.865053836025">
        <ele>30.6</ele>
        <time>2018-04-30T08:53:40Z</time>
      </trkpt>
      <trkpt lat="62.638021177896" lon="17.864908577698">
        <ele>30.6</ele>
        <time>2018-04-30T08:53:41Z</time>
      </trkpt>
      <trkpt lat="62.63803006271" lon="17.864740436784">
        <ele>30.8</ele>
        <time>2018-04-30T08:53:42Z</time>
      </trkpt>
      <trkpt lat="62.638038779886" lon="17.864585539272">
        <ele>30.8</ele>
        <time>2018-04-30T08:53:43Z</time>
      </trkpt>
      <trkpt lat="62.638047245605" lon="17.864433575425">
        <ele>30.8</ele>
        <time>2018-04-30T08:53:44Z</time>
      </trkpt>
      <trkpt lat="62.638053783487" lon="17.864293513876">
        <ele>30.8</ele>
        <time>2018-04-30T08:53:45Z</time>
      </trkpt>
      <trkpt lat="62.638059902274" lon="17.864144399875">
        <ele>31</ele>
        <time>2018-04-30T08:53:46Z</time>
      </trkpt>
      <trkpt lat="62.638068032717" lon="17.86399226839">
        <ele>31</ele>
        <time>2018-04-30T08:53:47Z</time>
      </trkpt>
      <trkpt lat="62.638075995522" lon="17.863848518805">
        <ele>30.8</ele>
        <time>2018-04-30T08:53:48Z</time>
      </trkpt>
      <trkpt lat="62.638084209784" lon="17.863707954342">
        <ele>30.8</ele>
        <time>2018-04-30T08:53:49Z</time>
      </trkpt>
      <trkpt lat="62.63809208877" lon="17.863565462042">
        <ele>30.8</ele>
        <time>2018-04-30T08:53:50Z</time>
      </trkpt>
      <trkpt lat="62.638097872281" lon="17.863440152637">
        <ele>31</ele>
        <time>2018-04-30T08:53:51Z</time>
      </trkpt>
      <trkpt lat="62.638103404335" lon="17.863284584573">
        <ele>31</ele>
        <time>2018-04-30T08:53:52Z</time>
      </trkpt>
      <trkpt lat="62.638107679104" lon="17.863151647639">
        <ele>31</ele>
        <time>2018-04-30T08:53:53Z</time>
      </trkpt>
      <trkpt lat="62.638112624425" lon="17.863011083176">
        <ele>31</ele>
        <time>2018-04-30T08:53:54Z</time>
      </trkpt>
      <trkpt lat="62.638117569746" lon="17.862877224233">
        <ele>31</ele>
        <time>2018-04-30T08:53:55Z</time>
      </trkpt>
      <trkpt lat="62.638122766524" lon="17.862749064982">
        <ele>30.8</ele>
        <time>2018-04-30T08:53:56Z</time>
      </trkpt>
      <trkpt lat="62.638128801492" lon="17.862614116392">
        <ele>30.8</ele>
        <time>2018-04-30T08:53:57Z</time>
      </trkpt>
      <trkpt lat="62.638134165908" lon="17.862469025703">
        <ele>31</ele>
        <time>2018-04-30T08:53:58Z</time>
      </trkpt>
      <trkpt lat="62.638137099573" lon="17.862332819828">
        <ele>31</ele>
        <time>2018-04-30T08:53:59Z</time>
      </trkpt>
      <trkpt lat="62.638138775953" lon="17.862196530134">
        <ele>31.2</ele>
        <time>2018-04-30T08:54:00Z</time>
      </trkpt>
      <trkpt lat="62.638139614143" lon="17.862066610684">
        <ele>31.2</ele>
        <time>2018-04-30T08:54:01Z</time>
      </trkpt>
      <trkpt lat="62.638139949419" lon="17.861920681805">
        <ele>31.2</ele>
        <time>2018-04-30T08:54:02Z</time>
      </trkpt>
      <trkpt lat="62.638140787609" lon="17.861792187278">
        <ele>31</ele>
        <time>2018-04-30T08:54:03Z</time>
      </trkpt>
      <trkpt lat="62.638139781781" lon="17.861645504028">
        <ele>31.2</ele>
        <time>2018-04-30T08:54:04Z</time>
      </trkpt>
      <trkpt lat="62.638136848116" lon="17.861507789411">
        <ele>31.2</ele>
        <time>2018-04-30T08:54:05Z</time>
      </trkpt>
      <trkpt lat="62.638134417365" lon="17.861376528857">
        <ele>31.2</ele>
        <time>2018-04-30T08:54:06Z</time>
      </trkpt>
      <trkpt lat="62.638133243899" lon="17.861231186711">
        <ele>31.4</ele>
        <time>2018-04-30T08:54:07Z</time>
      </trkpt>
      <trkpt lat="62.638132824804" lon="17.861096573397">
        <ele>31.2</ele>
        <time>2018-04-30T08:54:08Z</time>
      </trkpt>
      <trkpt lat="62.638131567519" lon="17.860966234852">
        <ele>31.4</ele>
        <time>2018-04-30T08:54:09Z</time>
      </trkpt>
      <trkpt lat="62.638128717673" lon="17.860819635421">
        <ele>31.4</ele>
        <time>2018-04-30T08:54:10Z</time>
      </trkpt>
      <trkpt lat="62.638125364913" lon="17.86068979979">
        <ele>31.4</ele>
        <time>2018-04-30T08:54:11Z</time>
      </trkpt>
      <trkpt lat="62.638120084316" lon="17.8605464693">
        <ele>31.2</ele>
        <time>2018-04-30T08:54:12Z</time>
      </trkpt>
      <trkpt lat="62.638113714072" lon="17.860409592873">
        <ele>30.8</ele>
        <time>2018-04-30T08:54:13Z</time>
      </trkpt>
      <trkpt lat="62.638107427647" lon="17.860273470817">
        <ele>30.8</ele>
        <time>2018-04-30T08:54:14Z</time>
      </trkpt>
      <trkpt lat="62.638101644136" lon="17.86014665267">
        <ele>30.6</ele>
        <time>2018-04-30T08:54:15Z</time>
      </trkpt>
      <trkpt lat="62.638093513693" lon="17.860009860062">
        <ele>30.2</ele>
        <time>2018-04-30T08:54:16Z</time>
      </trkpt>
      <trkpt lat="62.638083623051" lon="17.859866948667">
        <ele>30</ele>
        <time>2018-04-30T08:54:17Z</time>
      </trkpt>
      <trkpt lat="62.638074067685" lon="17.859734766104">
        <ele>30.2</ele>
        <time>2018-04-30T08:54:18Z</time>
      </trkpt>
      <trkpt lat="62.638065601966" lon="17.859601074799">
        <ele>29.8</ele>
        <time>2018-04-30T08:54:19Z</time>
      </trkpt>
      <trkpt lat="62.638056465695" lon="17.859471322987">
        <ele>30</ele>
        <time>2018-04-30T08:54:20Z</time>
      </trkpt>
      <trkpt lat="62.638046658872" lon="17.859356323319">
        <ele>30.2</ele>
        <time>2018-04-30T08:54:21Z</time>
      </trkpt>
      <trkpt lat="62.638033331651" lon="17.859212238458">
        <ele>30.4</ele>
        <time>2018-04-30T08:54:22Z</time>
      </trkpt>
      <trkpt lat="62.638022602819" lon="17.859088521614">
        <ele>30.4</ele>
        <time>2018-04-30T08:54:23Z</time>
      </trkpt>
      <trkpt lat="62.638010616702" lon="17.858956506689">
        <ele>30.6</ele>
        <time>2018-04-30T08:54:24Z</time>
      </trkpt>
      <trkpt lat="62.637997792395" lon="17.858829437085">
        <ele>30.6</ele>
        <time>2018-04-30T08:54:25Z</time>
      </trkpt>
      <trkpt lat="62.63798480045" lon="17.858708989182">
        <ele>30.6</ele>
        <time>2018-04-30T08:54:26Z</time>
      </trkpt>
      <trkpt lat="62.637969461573" lon="17.858581668121">
        <ele>30.8</ele>
        <time>2018-04-30T08:54:27Z</time>
      </trkpt>
      <trkpt lat="62.637953452144" lon="17.858447557721">
        <ele>30.8</ele>
        <time>2018-04-30T08:54:28Z</time>
      </trkpt>
      <trkpt lat="62.637939622009" lon="17.858319147013">
        <ele>30.8</ele>
        <time>2018-04-30T08:54:29Z</time>
      </trkpt>
      <trkpt lat="62.637924534589" lon="17.858193418513">
        <ele>30.4</ele>
        <time>2018-04-30T08:54:30Z</time>
      </trkpt>
      <trkpt lat="62.637909866264" lon="17.858071210411">
        <ele>30.4</ele>
        <time>2018-04-30T08:54:31Z</time>
      </trkpt>
      <trkpt lat="62.637894108292" lon="17.857937016192">
        <ele>30.2</ele>
        <time>2018-04-30T08:54:32Z</time>
      </trkpt>
      <trkpt lat="62.637879272329" lon="17.857817155022">
        <ele>30.2</ele>
        <time>2018-04-30T08:54:33Z</time>
      </trkpt>
      <trkpt lat="62.637861921796" lon="17.857680865328">
        <ele>30.2</ele>
        <time>2018-04-30T08:54:34Z</time>
      </trkpt>
      <trkpt lat="62.637845996186" lon="17.857553879543">
        <ele>30.4</ele>
        <time>2018-04-30T08:54:35Z</time>
      </trkpt>
      <trkpt lat="62.637830992585" lon="17.857431503803">
        <ele>30.4</ele>
        <time>2018-04-30T08:54:36Z</time>
      </trkpt>
      <trkpt lat="62.637813977328" lon="17.85729513029">
        <ele>30.4</ele>
        <time>2018-04-30T08:54:37Z</time>
      </trkpt>
      <trkpt lat="62.637798303175" lon="17.857166468125">
        <ele>30.6</ele>
        <time>2018-04-30T08:54:38Z</time>
      </trkpt>
      <trkpt lat="62.637782293746" lon="17.857034956114">
        <ele>30.6</ele>
        <time>2018-04-30T08:54:39Z</time>
      </trkpt>
      <trkpt lat="62.637763099195" lon="17.856899085515">
        <ele>30.8</ele>
        <time>2018-04-30T08:54:40Z</time>
      </trkpt>
      <trkpt lat="62.637747341223" lon="17.85677209973">
        <ele>30.8</ele>
        <time>2018-04-30T08:54:41Z</time>
      </trkpt>
      <trkpt lat="62.637730912699" lon="17.856628098688">
        <ele>31</ele>
        <time>2018-04-30T08:54:42Z</time>
      </trkpt>
      <trkpt lat="62.637715238546" lon="17.856490970804">
        <ele>31</ele>
        <time>2018-04-30T08:54:43Z</time>
      </trkpt>
      <trkpt lat="62.637699312936" lon="17.856352417997">
        <ele>30.8</ele>
        <time>2018-04-30T08:54:44Z</time>
      </trkpt>
      <trkpt lat="62.637684141697" lon="17.856224007289">
        <ele>30.8</ele>
        <time>2018-04-30T08:54:45Z</time>
      </trkpt>
      <trkpt lat="62.637666372069" lon="17.856086795586">
        <ele>30.8</ele>
        <time>2018-04-30T08:54:46Z</time>
      </trkpt>
      <trkpt lat="62.637647345156" lon="17.855945560571">
        <ele>30.4</ele>
        <time>2018-04-30T08:54:47Z</time>
      </trkpt>
      <trkpt lat="62.637630078442" lon="17.855812539818">
        <ele>30.2</ele>
        <time>2018-04-30T08:54:48Z</time>
      </trkpt>
      <trkpt lat="62.637613649918" lon="17.855679016151">
        <ele>30.2</ele>
        <time>2018-04-30T08:54:49Z</time>
      </trkpt>
      <trkpt lat="62.637597472851" lon="17.855545157208">
        <ele>29.8</ele>
        <time>2018-04-30T08:54:50Z</time>
      </trkpt>
      <trkpt lat="62.6375866602" lon="17.855429151712">
        <ele>29.8</ele>
        <time>2018-04-30T08:54:51Z</time>
      </trkpt>
      <trkpt lat="62.637572075694" lon="17.855281630272">
        <ele>29.8</ele>
        <time>2018-04-30T08:54:52Z</time>
      </trkpt>
      <trkpt lat="62.637559754301" lon="17.855157159057">
        <ele>30</ele>
        <time>2018-04-30T08:54:53Z</time>
      </trkpt>
      <trkpt lat="62.637548522555" lon="17.855028748349">
        <ele>30.4</ele>
        <time>2018-04-30T08:54:54Z</time>
      </trkpt>
      <trkpt lat="62.63753804518" lon="17.854904360953">
        <ele>30.6</ele>
        <time>2018-04-30T08:54:55Z</time>
      </trkpt>
      <trkpt lat="62.637527483986" lon="17.854790031837">
        <ele>30.8</ele>
        <time>2018-04-30T08:54:56Z</time>
      </trkpt>
      <trkpt lat="62.637516587516" lon="17.854675032169">
        <ele>31</ele>
        <time>2018-04-30T08:54:57Z</time>
      </trkpt>
      <trkpt lat="62.637505271951" lon="17.85455089623">
        <ele>31</ele>
        <time>2018-04-30T08:54:58Z</time>
      </trkpt>
      <trkpt lat="62.637496219499" lon="17.854438662589">
        <ele>31.2</ele>
        <time>2018-04-30T08:54:59Z</time>
      </trkpt>
      <trkpt lat="62.637487418504" lon="17.854329111156">
        <ele>31.4</ele>
        <time>2018-04-30T08:55:00Z</time>
      </trkpt>
      <trkpt lat="62.637479288061" lon="17.854225846148">
        <ele>31.4</ele>
        <time>2018-04-30T08:55:01Z</time>
      </trkpt>
      <trkpt lat="62.63747098998" lon="17.854112439041">
        <ele>31.6</ele>
        <time>2018-04-30T08:55:02Z</time>
      </trkpt>
      <trkpt lat="62.637464452098" lon="17.854012945888">
        <ele>31.8</ele>
        <time>2018-04-30T08:55:03Z</time>
      </trkpt>
      <trkpt lat="62.637457746578" lon="17.853901466618">
        <ele>32</ele>
        <time>2018-04-30T08:55:04Z</time>
      </trkpt>
      <trkpt lat="62.637451543972" lon="17.85379820161">
        <ele>32.2</ele>
        <time>2018-04-30T08:55:05Z</time>
      </trkpt>
      <trkpt lat="62.63744668247" lon="17.853698876095">
        <ele>32.4</ele>
        <time>2018-04-30T08:55:06Z</time>
      </trkpt>
      <trkpt lat="62.637441820968" lon="17.853590246671">
        <ele>32.4</ele>
        <time>2018-04-30T08:55:07Z</time>
      </trkpt>
      <trkpt lat="62.637437797656" lon="17.853492178441">
        <ele>32.4</ele>
        <time>2018-04-30T08:55:08Z</time>
      </trkpt>
      <trkpt lat="62.637433522887" lon="17.853398887894">
        <ele>32.6</ele>
        <time>2018-04-30T08:55:09Z</time>
      </trkpt>
      <trkpt lat="62.637427320281" lon="17.853298053637">
        <ele>32.8</ele>
        <time>2018-04-30T08:55:10Z</time>
      </trkpt>
      <trkpt lat="62.637422626417" lon="17.853209121678">
        <ele>32.8</ele>
        <time>2018-04-30T08:55:11Z</time>
      </trkpt>
      <trkpt lat="62.637419441295" lon="17.853113484199">
        <ele>33</ele>
        <time>2018-04-30T08:55:12Z</time>
      </trkpt>
      <trkpt lat="62.63741734582" lon="17.853025222792">
        <ele>33.2</ele>
        <time>2018-04-30T08:55:13Z</time>
      </trkpt>
      <trkpt lat="62.637414998888" lon="17.852941403792">
        <ele>33.4</ele>
        <time>2018-04-30T08:55:14Z</time>
      </trkpt>
      <trkpt lat="62.637412400499" lon="17.852868145986">
        <ele>33.6</ele>
        <time>2018-04-30T08:55:15Z</time>
      </trkpt>
      <trkpt lat="62.637409215377" lon="17.852781560959">
        <ele>33.6</ele>
        <time>2018-04-30T08:55:16Z</time>
      </trkpt>
      <trkpt lat="62.637405778798" lon="17.852698077235">
        <ele>33.6</ele>
        <time>2018-04-30T08:55:17Z</time>
      </trkpt>
      <trkpt lat="62.637401755486" lon="17.852620293203">
        <ele>33.8</ele>
        <time>2018-04-30T08:55:18Z</time>
      </trkpt>
      <trkpt lat="62.637397732174" lon="17.852543934094">
        <ele>34</ele>
        <time>2018-04-30T08:55:19Z</time>
      </trkpt>
      <trkpt lat="62.637393625043" lon="17.852468580813">
        <ele>33.8</ele>
        <time>2018-04-30T08:55:20Z</time>
      </trkpt>
      <trkpt lat="62.637391194292" lon="17.852404710735">
        <ele>34.2</ele>
        <time>2018-04-30T08:55:21Z</time>
      </trkpt>
      <trkpt lat="62.637389350274" lon="17.852325082685">
        <ele>34.4</ele>
        <time>2018-04-30T08:55:22Z</time>
      </trkpt>
      <trkpt lat="62.637386919523" lon="17.852256351105">
        <ele>34.4</ele>
        <time>2018-04-30T08:55:23Z</time>
      </trkpt>
      <trkpt lat="62.637383734401" lon="17.852189128267">
        <ele>34.6</ele>
        <time>2018-04-30T08:55:24Z</time>
      </trkpt>
      <trkpt lat="62.637382644754" lon="17.852120396687">
        <ele>34.6</ele>
        <time>2018-04-30T08:55:25Z</time>
      </trkpt>
      <trkpt lat="62.637380716917" lon="17.852056191333">
        <ele>34.8</ele>
        <time>2018-04-30T08:55:26Z</time>
      </trkpt>
      <trkpt lat="62.637377867071" lon="17.851988214124">
        <ele>34.8</ele>
        <time>2018-04-30T08:55:27Z</time>
      </trkpt>
      <trkpt lat="62.637375520139" lon="17.851914621042">
        <ele>35</ele>
        <time>2018-04-30T08:55:28Z</time>
      </trkpt>
      <trkpt lat="62.637373676121" lon="17.851845638005">
        <ele>35.2</ele>
        <time>2018-04-30T08:55:29Z</time>
      </trkpt>
      <trkpt lat="62.637371915922" lon="17.85178151647">
        <ele>35.4</ele>
        <time>2018-04-30T08:55:30Z</time>
      </trkpt>
      <trkpt lat="62.637369485171" lon="17.851713203985">
        <ele>35.6</ele>
        <time>2018-04-30T08:55:31Z</time>
      </trkpt>
      <trkpt lat="62.637366886782" lon="17.851641706378">
        <ele>35.8</ele>
        <time>2018-04-30T08:55:32Z</time>
      </trkpt>
      <trkpt lat="62.637365042764" lon="17.851576662834">
        <ele>35.8</ele>
        <time>2018-04-30T08:55:33Z</time>
      </trkpt>
      <trkpt lat="62.637363282565" lon="17.851501141915">
        <ele>36.2</ele>
        <time>2018-04-30T08:55:34Z</time>
      </trkpt>
      <trkpt lat="62.637362192918" lon="17.851431320688">
        <ele>36.6</ele>
        <time>2018-04-30T08:55:35Z</time>
      </trkpt>
      <trkpt lat="62.637361019452" lon="17.85136409785">
        <ele>36.8</ele>
        <time>2018-04-30T08:55:36Z</time>
      </trkpt>
      <trkpt lat="62.637357750511" lon="17.851287068189">
        <ele>37.4</ele>
        <time>2018-04-30T08:55:37Z</time>
      </trkpt>
      <trkpt lat="62.637354733027" lon="17.851211966365">
        <ele>37.8</ele>
        <time>2018-04-30T08:55:38Z</time>
      </trkpt>
      <trkpt lat="62.637353559561" lon="17.851141306948">
        <ele>38</ele>
        <time>2018-04-30T08:55:39Z</time>
      </trkpt>
      <trkpt lat="62.637351464086" lon="17.851062600907">
        <ele>38.4</ele>
        <time>2018-04-30T08:55:40Z</time>
      </trkpt>
      <trkpt lat="62.637348362783" lon="17.850990935662">
        <ele>38.4</ele>
        <time>2018-04-30T08:55:41Z</time>
      </trkpt>
      <trkpt lat="62.637345429118" lon="17.850911810526">
        <ele>38.4</ele>
        <time>2018-04-30T08:55:42Z</time>
      </trkpt>
      <trkpt lat="62.637342495453" lon="17.850836541064">
        <ele>38.6</ele>
        <time>2018-04-30T08:55:43Z</time>
      </trkpt>
      <trkpt lat="62.637338472141" lon="17.85076143924">
        <ele>38.8</ele>
        <time>2018-04-30T08:55:44Z</time>
      </trkpt>
      <trkpt lat="62.637334867924" lon="17.850695306049">
        <ele>38.8</ele>
        <time>2018-04-30T08:55:45Z</time>
      </trkpt>
      <trkpt lat="62.637331179888" lon="17.850616264732">
        <ele>38.8</ele>
        <time>2018-04-30T08:55:46Z</time>
      </trkpt>
      <trkpt lat="62.637328665318" lon="17.85053764251">
        <ele>39</ele>
        <time>2018-04-30T08:55:47Z</time>
      </trkpt>
      <trkpt lat="62.637326653662" lon="17.850462959781">
        <ele>39</ele>
        <time>2018-04-30T08:55:48Z</time>
      </trkpt>
      <trkpt lat="62.637324642006" lon="17.850387941776">
        <ele>39</ele>
        <time>2018-04-30T08:55:49Z</time>
      </trkpt>
      <trkpt lat="62.637321959798" lon="17.850314264875">
        <ele>39</ele>
        <time>2018-04-30T08:55:50Z</time>
      </trkpt>
      <trkpt lat="62.637319529047" lon="17.850250562435">
        <ele>39.2</ele>
        <time>2018-04-30T08:55:51Z</time>
      </trkpt>
      <trkpt lat="62.637315757192" lon="17.850170012376">
        <ele>39.2</ele>
        <time>2018-04-30T08:55:52Z</time>
      </trkpt>
      <trkpt lat="62.637313158803" lon="17.850098179493">
        <ele>39.2</ele>
        <time>2018-04-30T08:55:53Z</time>
      </trkpt>
      <trkpt lat="62.637311398604" lon="17.850027017162">
        <ele>39.4</ele>
        <time>2018-04-30T08:55:54Z</time>
      </trkpt>
      <trkpt lat="62.6373100575" lon="17.849955016641">
        <ele>39.4</ele>
        <time>2018-04-30T08:55:55Z</time>
      </trkpt>
      <trkpt lat="62.637308045844" lon="17.849887961441">
        <ele>39.6</ele>
        <time>2018-04-30T08:55:56Z</time>
      </trkpt>
      <trkpt lat="62.637304273989" lon="17.849815625644">
        <ele>39.8</ele>
        <time>2018-04-30T08:55:57Z</time>
      </trkpt>
      <trkpt lat="62.637298993392" lon="17.849737925431">
        <ele>40.2</ele>
        <time>2018-04-30T08:55:58Z</time>
      </trkpt>
      <trkpt lat="62.637294886261" lon="17.849660728132">
        <ele>40.4</ele>
        <time>2018-04-30T08:55:59Z</time>
      </trkpt>
      <trkpt lat="62.637291365863" lon="17.849586045403">
        <ele>40.6</ele>
        <time>2018-04-30T08:56:00Z</time>
      </trkpt>
      <trkpt lat="62.637288180741" lon="17.849507842276">
        <ele>41</ele>
        <time>2018-04-30T08:56:01Z</time>
      </trkpt>
      <trkpt lat="62.637285498533" lon="17.849421508706">
        <ele>41.2</ele>
        <time>2018-04-30T08:56:02Z</time>
      </trkpt>
      <trkpt lat="62.637282732506" lon="17.849346155425">
        <ele>41.2</ele>
        <time>2018-04-30T08:56:03Z</time>
      </trkpt>
      <trkpt lat="62.637278876832" lon="17.849257977837">
        <ele>41.4</ele>
        <time>2018-04-30T08:56:04Z</time>
      </trkpt>
      <trkpt lat="62.637276697538" lon="17.849176002855">
        <ele>41.4</ele>
        <time>2018-04-30T08:56:05Z</time>
      </trkpt>
      <trkpt lat="62.637275524072" lon="17.849095536615">
        <ele>41.4</ele>
        <time>2018-04-30T08:56:06Z</time>
      </trkpt>
      <trkpt lat="62.637273260959" lon="17.84900543119">
        <ele>41.6</ele>
        <time>2018-04-30T08:56:07Z</time>
      </trkpt>
      <trkpt lat="62.637269992018" lon="17.84891909762">
        <ele>41.8</ele>
        <time>2018-04-30T08:56:08Z</time>
      </trkpt>
      <trkpt lat="62.637266974534" lon="17.848836703543">
        <ele>41.8</ele>
        <time>2018-04-30T08:56:09Z</time>
      </trkpt>
      <trkpt lat="62.637264459964" lon="17.848744167367">
        <ele>41.8</ele>
        <time>2018-04-30T08:56:10Z</time>
      </trkpt>
      <trkpt lat="62.637261777756" lon="17.848661102738">
        <ele>42</ele>
        <time>2018-04-30T08:56:11Z</time>
      </trkpt>
      <trkpt lat="62.637257000073" lon="17.848568566562">
        <ele>42</ele>
        <time>2018-04-30T08:56:12Z</time>
      </trkpt>
      <trkpt lat="62.63725222239" lon="17.848479550784">
        <ele>42</ele>
        <time>2018-04-30T08:56:13Z</time>
      </trkpt>
      <trkpt lat="62.637248450535" lon="17.848389445359">
        <ele>42.2</ele>
        <time>2018-04-30T08:56:14Z</time>
      </trkpt>
      <trkpt lat="62.637245935965" lon="17.848309230576">
        <ele>42.2</ele>
        <time>2018-04-30T08:56:15Z</time>
      </trkpt>
      <trkpt lat="62.637243337576" lon="17.848213174002">
        <ele>42.4</ele>
        <time>2018-04-30T08:56:16Z</time>
      </trkpt>
      <trkpt lat="62.637240320092" lon="17.848117368885">
        <ele>42.6</ele>
        <time>2018-04-30T08:56:17Z</time>
      </trkpt>
      <trkpt lat="62.637236632056" lon="17.848025922356">
        <ele>42.6</ele>
        <time>2018-04-30T08:56:18Z</time>
      </trkpt>
      <trkpt lat="62.637234285124" lon="17.847936068388">
        <ele>42.6</ele>
        <time>2018-04-30T08:56:19Z</time>
      </trkpt>
      <trkpt lat="62.637233195477" lon="17.847844035126">
        <ele>42.8</ele>
        <time>2018-04-30T08:56:20Z</time>
      </trkpt>
      <trkpt lat="62.63723210583" lon="17.84776239542">
        <ele>42.8</ele>
        <time>2018-04-30T08:56:21Z</time>
      </trkpt>
      <trkpt lat="62.63722875307" lon="17.847658627498">
        <ele>42.6</ele>
        <time>2018-04-30T08:56:22Z</time>
      </trkpt>
      <trkpt lat="62.637224645939" lon="17.84756625896">
        <ele>42.8</ele>
        <time>2018-04-30T08:56:23Z</time>
      </trkpt>
      <trkpt lat="62.637220622627" lon="17.847473974241">
        <ele>42.8</ele>
        <time>2018-04-30T08:56:24Z</time>
      </trkpt>
      <trkpt lat="62.63721618022" lon="17.847380599875">
        <ele>42.8</ele>
        <time>2018-04-30T08:56:25Z</time>
      </trkpt>
      <trkpt lat="62.637212240727" lon="17.847292087011">
        <ele>42.6</ele>
        <time>2018-04-30T08:56:26Z</time>
      </trkpt>
      <trkpt lat="62.637209139424" lon="17.847197958274">
        <ele>42.8</ele>
        <time>2018-04-30T08:56:27Z</time>
      </trkpt>
      <trkpt lat="62.637207965958" lon="17.847097626931">
        <ele>42.8</ele>
        <time>2018-04-30T08:56:28Z</time>
      </trkpt>
      <trkpt lat="62.637206205759" lon="17.847002911461">
        <ele>42.8</ele>
        <time>2018-04-30T08:56:29Z</time>
      </trkpt>
      <trkpt lat="62.637202433904" lon="17.846914817692">
        <ele>42.8</ele>
        <time>2018-04-30T08:56:30Z</time>
      </trkpt>
      <trkpt lat="62.637197153307" lon="17.846820940412">
        <ele>42.8</ele>
        <time>2018-04-30T08:56:31Z</time>
      </trkpt>
      <trkpt lat="62.637191621253" lon="17.84672220163">
        <ele>42.8</ele>
        <time>2018-04-30T08:56:32Z</time>
      </trkpt>
      <trkpt lat="62.63718768176" lon="17.846636622431">
        <ele>42.8</ele>
        <time>2018-04-30T08:56:33Z</time>
      </trkpt>
      <trkpt lat="62.637183993724" lon="17.846538721839">
        <ele>42.8</ele>
        <time>2018-04-30T08:56:34Z</time>
      </trkpt>
      <trkpt lat="62.637180054231" lon="17.846449035509">
        <ele>42.8</ele>
        <time>2018-04-30T08:56:35Z</time>
      </trkpt>
      <trkpt lat="62.637174605996" lon="17.846362115206">
        <ele>42.8</ele>
        <time>2018-04-30T08:56:36Z</time>
      </trkpt>
      <trkpt lat="62.63716924158" lon="17.846264046976">
        <ele>43</ele>
        <time>2018-04-30T08:56:37Z</time>
      </trkpt>
      <trkpt lat="62.637166391734" lon="17.846169750601">
        <ele>43.2</ele>
        <time>2018-04-30T08:56:38Z</time>
      </trkpt>
      <trkpt lat="62.63716421244" lon="17.846083919945">
        <ele>43.4</ele>
        <time>2018-04-30T08:56:39Z</time>
      </trkpt>
      <trkpt lat="62.637159350938" lon="17.845985767896">
        <ele>43.6</ele>
        <time>2018-04-30T08:56:40Z</time>
      </trkpt>
      <trkpt lat="62.637155159988" lon="17.845898596136">
        <ele>44</ele>
        <time>2018-04-30T08:56:41Z</time>
      </trkpt>
      <trkpt lat="62.637151304314" lon="17.845800611725">
        <ele>44</ele>
        <time>2018-04-30T08:56:42Z</time>
      </trkpt>
      <trkpt lat="62.637147281002" lon="17.845709919567">
        <ele>44</ele>
        <time>2018-04-30T08:56:43Z</time>
      </trkpt>
      <trkpt lat="62.637142168043" lon="17.845619730323">
        <ele>43.8</ele>
        <time>2018-04-30T08:56:44Z</time>
      </trkpt>
      <trkpt lat="62.637138563826" lon="17.845538342074">
        <ele>44</ele>
        <time>2018-04-30T08:56:45Z</time>
      </trkpt>
      <trkpt lat="62.637135881618" lon="17.845440441482">
        <ele>44</ele>
        <time>2018-04-30T08:56:46Z</time>
      </trkpt>
      <trkpt lat="62.637132277401" lon="17.845345642193">
        <ele>44.2</ele>
        <time>2018-04-30T08:56:47Z</time>
      </trkpt>
      <trkpt lat="62.637128002632" lon="17.845251429637">
        <ele>44.6</ele>
        <time>2018-04-30T08:56:48Z</time>
      </trkpt>
      <trkpt lat="62.637123811682" lon="17.845156378891">
        <ele>45</ele>
        <time>2018-04-30T08:56:49Z</time>
      </trkpt>
      <trkpt lat="62.637118782542" lon="17.84506426181">
        <ele>45.2</ele>
        <time>2018-04-30T08:56:50Z</time>
      </trkpt>
      <trkpt lat="62.63711392104" lon="17.844982370647">
        <ele>45.2</ele>
        <time>2018-04-30T08:56:51Z</time>
      </trkpt>
      <trkpt lat="62.637107969891" lon="17.844878602725">
        <ele>45</ele>
        <time>2018-04-30T08:56:52Z</time>
      </trkpt>
      <trkpt lat="62.637104114217" lon="17.844787575291">
        <ele>44.8</ele>
        <time>2018-04-30T08:56:53Z</time>
      </trkpt>
      <trkpt lat="62.637100761457" lon="17.844694368563">
        <ele>44.6</ele>
        <time>2018-04-30T08:56:54Z</time>
      </trkpt>
      <trkpt lat="62.637098079249" lon="17.844601413292">
        <ele>44.6</ele>
        <time>2018-04-30T08:56:55Z</time>
      </trkpt>
      <trkpt lat="62.637096067593" lon="17.844511978419">
        <ele>44.6</ele>
        <time>2018-04-30T08:56:56Z</time>
      </trkpt>
      <trkpt lat="62.637093385385" lon="17.844420028976">
        <ele>44.8</ele>
        <time>2018-04-30T08:56:57Z</time>
      </trkpt>
      <trkpt lat="62.637088691521" lon="17.844321122556">
        <ele>44.8</ele>
        <time>2018-04-30T08:56:58Z</time>
      </trkpt>
      <trkpt lat="62.637086093132" lon="17.844226239448">
        <ele>44.8</ele>
        <time>2018-04-30T08:56:59Z</time>
      </trkpt>
      <trkpt lat="62.637084081476" lon="17.844137139851">
        <ele>45</ele>
        <time>2018-04-30T08:57:00Z</time>
      </trkpt>
      <trkpt lat="62.637081399268" lon="17.844042089105">
        <ele>45</ele>
        <time>2018-04-30T08:57:01Z</time>
      </trkpt>
      <trkpt lat="62.63707871706" lon="17.843943350323">
        <ele>45.2</ele>
        <time>2018-04-30T08:57:02Z</time>
      </trkpt>
      <trkpt lat="62.637075951033" lon="17.843853328717">
        <ele>45.2</ele>
        <time>2018-04-30T08:57:03Z</time>
      </trkpt>
      <trkpt lat="62.637073520282" lon="17.843750734261">
        <ele>45.4</ele>
        <time>2018-04-30T08:57:04Z</time>
      </trkpt>
      <trkpt lat="62.637072346816" lon="17.843653923316">
        <ele>45.4</ele>
        <time>2018-04-30T08:57:05Z</time>
      </trkpt>
      <trkpt lat="62.63707117335" lon="17.843561638597">
        <ele>45.4</ele>
        <time>2018-04-30T08:57:06Z</time>
      </trkpt>
      <trkpt lat="62.637068994056" lon="17.843458960322">
        <ele>45.6</ele>
        <time>2018-04-30T08:57:07Z</time>
      </trkpt>
      <trkpt lat="62.637067401495" lon="17.843359718626">
        <ele>45.6</ele>
        <time>2018-04-30T08:57:08Z</time>
      </trkpt>
      <trkpt lat="62.63706782059" lon="17.843266679536">
        <ele>45.6</ele>
        <time>2018-04-30T08:57:09Z</time>
      </trkpt>
      <trkpt lat="62.637068826418" lon="17.8431624087">
        <ele>45.8</ele>
        <time>2018-04-30T08:57:10Z</time>
      </trkpt>
      <trkpt lat="62.637067569133" lon="17.843066435945">
        <ele>45.6</ele>
        <time>2018-04-30T08:57:11Z</time>
      </trkpt>
      <trkpt lat="62.63706446783" lon="17.842963087118">
        <ele>45.6</ele>
        <time>2018-04-30T08:57:12Z</time>
      </trkpt>
      <trkpt lat="62.637064719287" lon="17.842864515974">
        <ele>45.4</ele>
        <time>2018-04-30T08:57:13Z</time>
      </trkpt>
      <trkpt lat="62.637064803106" lon="17.842761334785">
        <ele>45.6</ele>
        <time>2018-04-30T08:57:14Z</time>
      </trkpt>
      <trkpt lat="62.637065892753" lon="17.842682628744">
        <ele>45.6</ele>
        <time>2018-04-30T08:57:15Z</time>
      </trkpt>
      <trkpt lat="62.637068155866" lon="17.842568802542">
        <ele>45.8</ele>
        <time>2018-04-30T08:57:16Z</time>
      </trkpt>
      <trkpt lat="62.63706865878" lon="17.842464783163">
        <ele>46.2</ele>
        <time>2018-04-30T08:57:17Z</time>
      </trkpt>
      <trkpt lat="62.637068994056" lon="17.842363110716">
        <ele>46.4</ele>
        <time>2018-04-30T08:57:18Z</time>
      </trkpt>
      <trkpt lat="62.637069748427" lon="17.842262779373">
        <ele>46.2</ele>
        <time>2018-04-30T08:57:19Z</time>
      </trkpt>
      <trkpt lat="62.637071592445" lon="17.84216580079">
        <ele>46.2</ele>
        <time>2018-04-30T08:57:20Z</time>
      </trkpt>
      <trkpt lat="62.637073185006" lon="17.84207946722">
        <ele>46</ele>
        <time>2018-04-30T08:57:21Z</time>
      </trkpt>
      <trkpt lat="62.637074274653" lon="17.841977794773">
        <ele>45.6</ele>
        <time>2018-04-30T08:57:22Z</time>
      </trkpt>
      <trkpt lat="62.637075615757" lon="17.841878553077">
        <ele>45.2</ele>
        <time>2018-04-30T08:57:23Z</time>
      </trkpt>
      <trkpt lat="62.637077711232" lon="17.841787944738">
        <ele>45</ele>
        <time>2018-04-30T08:57:24Z</time>
      </trkpt>
      <trkpt lat="62.637079387612" lon="17.841697587856">
        <ele>45</ele>
        <time>2018-04-30T08:57:25Z</time>
      </trkpt>
      <trkpt lat="62.637081063992" lon="17.841611002829">
        <ele>45</ele>
        <time>2018-04-30T08:57:26Z</time>
      </trkpt>
      <trkpt lat="62.637084752028" lon="17.841522406146">
        <ele>44.8</ele>
        <time>2018-04-30T08:57:27Z</time>
      </trkpt>
      <trkpt lat="62.63708793715" lon="17.841427942133">
        <ele>45</ele>
        <time>2018-04-30T08:57:28Z</time>
      </trkpt>
      <trkpt lat="62.637090535539" lon="17.841340351278">
        <ele>45</ele>
        <time>2018-04-30T08:57:29Z</time>
      </trkpt>
      <trkpt lat="62.637093133928" lon="17.841258292477">
        <ele>45.2</ele>
        <time>2018-04-30T08:57:30Z</time>
      </trkpt>
      <trkpt lat="62.637096486688" lon="17.841168773785">
        <ele>45.2</ele>
        <time>2018-04-30T08:57:31Z</time>
      </trkpt>
      <trkpt lat="62.637099839448" lon="17.841075399419">
        <ele>45.6</ele>
        <time>2018-04-30T08:57:32Z</time>
      </trkpt>
      <trkpt lat="62.637101934923" lon="17.840991748057">
        <ele>45.8</ele>
        <time>2018-04-30T08:57:33Z</time>
      </trkpt>
      <trkpt lat="62.637104784769" lon="17.840898960424">
        <ele>46</ele>
        <time>2018-04-30T08:57:34Z</time>
      </trkpt>
      <trkpt lat="62.637108975719" lon="17.840813045949">
        <ele>46</ele>
        <time>2018-04-30T08:57:35Z</time>
      </trkpt>
      <trkpt lat="62.637113166669" lon="17.840730568053">
        <ele>46.2</ele>
        <time>2018-04-30T08:57:36Z</time>
      </trkpt>
      <trkpt lat="62.637116938524" lon="17.840638702429">
        <ele>46.2</ele>
        <time>2018-04-30T08:57:37Z</time>
      </trkpt>
      <trkpt lat="62.637121213293" lon="17.840553039411">
        <ele>46</ele>
        <time>2018-04-30T08:57:38Z</time>
      </trkpt>
      <trkpt lat="62.637123727863" lon="17.840486487125">
        <ele>46</ele>
        <time>2018-04-30T08:57:39Z</time>
      </trkpt>
      <trkpt lat="62.637127751175" lon="17.840380288452">
        <ele>45.8</ele>
        <time>2018-04-30T08:57:40Z</time>
      </trkpt>
      <trkpt lat="62.637132109763" lon="17.840297559099">
        <ele>46</ele>
        <time>2018-04-30T08:57:41Z</time>
      </trkpt>
      <trkpt lat="62.637136803627" lon="17.840203095086">
        <ele>46.2</ele>
        <time>2018-04-30T08:57:42Z</time>
      </trkpt>
      <trkpt lat="62.637142084224" lon="17.840112402928">
        <ele>46.4</ele>
        <time>2018-04-30T08:57:43Z</time>
      </trkpt>
      <trkpt lat="62.637149711753" lon="17.840025147349">
        <ele>46.8</ele>
        <time>2018-04-30T08:57:44Z</time>
      </trkpt>
      <trkpt lat="62.637156836368" lon="17.839942417996">
        <ele>47.4</ele>
        <time>2018-04-30T08:57:45Z</time>
      </trkpt>
      <trkpt lat="62.637163122793" lon="17.839847283431">
        <ele>47.6</ele>
        <time>2018-04-30T08:57:46Z</time>
      </trkpt>
      <trkpt lat="62.637169157761" lon="17.839746449174">
        <ele>47.8</ele>
        <time>2018-04-30T08:57:47Z</time>
      </trkpt>
      <trkpt lat="62.637175025091" lon="17.839647291297">
        <ele>47.8</ele>
        <time>2018-04-30T08:57:48Z</time>
      </trkpt>
      <trkpt lat="62.637181982068" lon="17.839550731809">
        <ele>48.2</ele>
        <time>2018-04-30T08:57:49Z</time>
      </trkpt>
      <trkpt lat="62.637187765579" lon="17.839455178149">
        <ele>48.4</ele>
        <time>2018-04-30T08:57:50Z</time>
      </trkpt>
      <trkpt lat="62.63719354909" lon="17.839370604778">
        <ele>48.6</ele>
        <time>2018-04-30T08:57:51Z</time>
      </trkpt>
      <trkpt lat="62.637203355913" lon="17.839268932331">
        <ele>48.8</ele>
        <time>2018-04-30T08:57:52Z</time>
      </trkpt>
      <trkpt lat="62.637213162736" lon="17.839175893241">
        <ele>49</ele>
        <time>2018-04-30T08:57:53Z</time>
      </trkpt>
      <trkpt lat="62.637221460817" lon="17.839091068413">
        <ele>49</ele>
        <time>2018-04-30T08:57:54Z</time>
      </trkpt>
      <trkpt lat="62.637228166337" lon="17.83899744259">
        <ele>49</ele>
        <time>2018-04-30T08:57:55Z</time>
      </trkpt>
      <trkpt lat="62.637235039495" lon="17.838912450124">
        <ele>49</ele>
        <time>2018-04-30T08:57:56Z</time>
      </trkpt>
      <trkpt lat="62.637243421395" lon="17.838827457658">
        <ele>49.2</ele>
        <time>2018-04-30T08:57:57Z</time>
      </trkpt>
      <trkpt lat="62.637252725304" lon="17.838736346405">
        <ele>49.2</ele>
        <time>2018-04-30T08:57:58Z</time>
      </trkpt>
      <trkpt lat="62.637261191023" lon="17.838650012835">
        <ele>49.4</ele>
        <time>2018-04-30T08:57:59Z</time>
      </trkpt>
      <trkpt lat="62.637269070009" lon="17.838568792224">
        <ele>49.6</ele>
        <time>2018-04-30T08:58:00Z</time>
      </trkpt>
      <trkpt lat="62.637278038642" lon="17.838483213025">
        <ele>49.8</ele>
        <time>2018-04-30T08:58:01Z</time>
      </trkpt>
      <trkpt lat="62.637287677827" lon="17.838394029609">
        <ele>50</ele>
        <time>2018-04-30T08:58:02Z</time>
      </trkpt>
      <trkpt lat="62.637295305356" lon="17.838315072111">
        <ele>50.4</ele>
        <time>2018-04-30T08:58:03Z</time>
      </trkpt>
      <trkpt lat="62.637302932885" lon="17.838224966686">
        <ele>50.6</ele>
        <time>2018-04-30T08:58:04Z</time>
      </trkpt>
      <trkpt lat="62.637311398604" lon="17.838138800754">
        <ele>51</ele>
        <time>2018-04-30T08:58:05Z</time>
      </trkpt>
      <trkpt lat="62.637318523219" lon="17.838058753609">
        <ele>51.4</ele>
        <time>2018-04-30T08:58:06Z</time>
      </trkpt>
      <trkpt lat="62.637326402205" lon="17.837971833306">
        <ele>51.4</ele>
        <time>2018-04-30T08:58:07Z</time>
      </trkpt>
      <trkpt lat="62.637334029734" lon="17.837885248279">
        <ele>51.6</ele>
        <time>2018-04-30T08:58:08Z</time>
      </trkpt>
      <trkpt lat="62.637341154349" lon="17.83780386003">
        <ele>51.8</ele>
        <time>2018-04-30T08:58:09Z</time>
      </trkpt>
      <trkpt lat="62.637349536249" lon="17.837712413501">
        <ele>52</ele>
        <time>2018-04-30T08:58:10Z</time>
      </trkpt>
      <trkpt lat="62.637356912321" lon="17.837633456003">
        <ele>52</ele>
        <time>2018-04-30T08:58:11Z</time>
      </trkpt>
      <trkpt lat="62.637367305877" lon="17.837546284243">
        <ele>52.2</ele>
        <time>2018-04-30T08:58:12Z</time>
      </trkpt>
      <trkpt lat="62.637377867071" lon="17.837463722528">
        <ele>52.2</ele>
        <time>2018-04-30T08:58:13Z</time>
      </trkpt>
      <trkpt lat="62.637387338618" lon="17.837379987347">
        <ele>52.4</ele>
        <time>2018-04-30T08:58:14Z</time>
      </trkpt>
      <trkpt lat="62.637396055794" lon="17.837307232455">
        <ele>52.4</ele>
        <time>2018-04-30T08:58:15Z</time>
      </trkpt>
      <trkpt lat="62.637405527341" lon="17.837218719591">
        <ele>52.6</ele>
        <time>2018-04-30T08:58:16Z</time>
      </trkpt>
      <trkpt lat="62.637413490146" lon="17.837132386021">
        <ele>52.8</ele>
        <time>2018-04-30T08:58:17Z</time>
      </trkpt>
      <trkpt lat="62.637422961693" lon="17.837050997772">
        <ele>52.8</ele>
        <time>2018-04-30T08:58:18Z</time>
      </trkpt>
      <trkpt lat="62.637432852335" lon="17.83697069917">
        <ele>53</ele>
        <time>2018-04-30T08:58:19Z</time>
      </trkpt>
      <trkpt lat="62.637442742977" lon="17.836891238758">
        <ele>53</ele>
        <time>2018-04-30T08:58:20Z</time>
      </trkpt>
      <trkpt lat="62.637451460153" lon="17.836819405875">
        <ele>53.2</ele>
        <time>2018-04-30T08:58:21Z</time>
      </trkpt>
      <trkpt lat="62.637461518433" lon="17.836729971002">
        <ele>53.2</ele>
        <time>2018-04-30T08:58:22Z</time>
      </trkpt>
      <trkpt lat="62.637470487066" lon="17.836645397631">
        <ele>53.4</ele>
        <time>2018-04-30T08:58:23Z</time>
      </trkpt>
      <trkpt lat="62.637479288061" lon="17.836564596115">
        <ele>53.6</ele>
        <time>2018-04-30T08:58:24Z</time>
      </trkpt>
      <trkpt lat="62.637488340513" lon="17.836484046056">
        <ele>53.8</ele>
        <time>2018-04-30T08:58:25Z</time>
      </trkpt>
      <trkpt lat="62.637498566431" lon="17.836407100214">
        <ele>54</ele>
        <time>2018-04-30T08:58:26Z</time>
      </trkpt>
      <trkpt lat="62.637508457073" lon="17.836326214879">
        <ele>54.4</ele>
        <time>2018-04-30T08:58:27Z</time>
      </trkpt>
      <trkpt lat="62.637517006611" lon="17.836238372567">
        <ele>54.4</ele>
        <time>2018-04-30T08:58:28Z</time>
      </trkpt>
      <trkpt lat="62.637525220873" lon="17.836155224119">
        <ele>54.6</ele>
        <time>2018-04-30T08:58:29Z</time>
      </trkpt>
      <trkpt lat="62.637531674936" lon="17.836080206114">
        <ele>54.8</ele>
        <time>2018-04-30T08:58:30Z</time>
      </trkpt>
      <trkpt lat="62.637540727388" lon="17.83599253144">
        <ele>55</ele>
        <time>2018-04-30T08:58:31Z</time>
      </trkpt>
      <trkpt lat="62.63755145622" lon="17.835903767119">
        <ele>55.4</ele>
        <time>2018-04-30T08:58:32Z</time>
      </trkpt>
      <trkpt lat="62.637561430681" lon="17.835823636155">
        <ele>55.6</ele>
        <time>2018-04-30T08:58:33Z</time>
      </trkpt>
      <trkpt lat="62.637571824237" lon="17.835732441083">
        <ele>55.8</ele>
        <time>2018-04-30T08:58:34Z</time>
      </trkpt>
      <trkpt lat="62.637581379603" lon="17.835645604599">
        <ele>56</ele>
        <time>2018-04-30T08:58:35Z</time>
      </trkpt>
      <trkpt lat="62.637590934969" lon="17.835562623789">
        <ele>56.2</ele>
        <time>2018-04-30T08:58:36Z</time>
      </trkpt>
      <trkpt lat="62.637600657973" lon="17.83547285364">
        <ele>56.4</ele>
        <time>2018-04-30T08:58:37Z</time>
      </trkpt>
      <trkpt lat="62.637609961882" lon="17.835385011328">
        <ele>56.6</ele>
        <time>2018-04-30T08:58:38Z</time>
      </trkpt>
      <trkpt lat="62.637619601067" lon="17.835299432129">
        <ele>56.6</ele>
        <time>2018-04-30T08:58:39Z</time>
      </trkpt>
      <trkpt lat="62.637631168089" lon="17.835209829618">
        <ele>56.6</ele>
        <time>2018-04-30T08:58:40Z</time>
      </trkpt>
      <trkpt lat="62.637640052903" lon="17.835125759161">
        <ele>56.8</ele>
        <time>2018-04-30T08:58:41Z</time>
      </trkpt>
      <trkpt lat="62.637651368468" lon="17.835033222985">
        <ele>56.8</ele>
        <time>2018-04-30T08:58:42Z</time>
      </trkpt>
      <trkpt lat="62.6376620973" lon="17.834946218863">
        <ele>56.8</ele>
        <time>2018-04-30T08:58:43Z</time>
      </trkpt>
      <trkpt lat="62.637672239399" lon="17.834860304388">
        <ele>57.2</ele>
        <time>2018-04-30T08:58:44Z</time>
      </trkpt>
      <trkpt lat="62.637681291851" lon="17.834784783469">
        <ele>57.2</ele>
        <time>2018-04-30T08:58:45Z</time>
      </trkpt>
      <trkpt lat="62.63769227214" lon="17.834695432415">
        <ele>57.4</ele>
        <time>2018-04-30T08:58:46Z</time>
      </trkpt>
      <trkpt lat="62.637701743687" lon="17.834604321162">
        <ele>57.4</ele>
        <time>2018-04-30T08:58:47Z</time>
      </trkpt>
      <trkpt lat="62.637710544682" lon="17.834517987592">
        <ele>57.6</ele>
        <time>2018-04-30T08:58:48Z</time>
      </trkpt>
      <trkpt lat="62.637721105876" lon="17.834433414221">
        <ele>57.6</ele>
        <time>2018-04-30T08:58:49Z</time>
      </trkpt>
      <trkpt lat="62.637731164156" lon="17.834346158642">
        <ele>57.6</ele>
        <time>2018-04-30T08:58:50Z</time>
      </trkpt>
      <trkpt lat="62.63774004897" lon="17.83426837461">
        <ele>57.8</ele>
        <time>2018-04-30T08:58:51Z</time>
      </trkpt>
      <trkpt lat="62.637752370363" lon="17.83417198276">
        <ele>57.8</ele>
        <time>2018-04-30T08:58:52Z</time>
      </trkpt>
      <trkpt lat="62.637762512462" lon="17.83408229643">
        <ele>57.8</ele>
        <time>2018-04-30T08:58:53Z</time>
      </trkpt>
      <trkpt lat="62.637771648733" lon="17.833992777738">
        <ele>58.2</ele>
        <time>2018-04-30T08:58:54Z</time>
      </trkpt>
      <trkpt lat="62.637781036461" lon="17.83390292377">
        <ele>58.4</ele>
        <time>2018-04-30T08:58:55Z</time>
      </trkpt>
      <trkpt lat="62.63779034037" lon="17.8338165902">
        <ele>58.8</ele>
        <time>2018-04-30T08:58:56Z</time>
      </trkpt>
      <trkpt lat="62.637802494125" lon="17.833727658241">
        <ele>59</ele>
        <time>2018-04-30T08:58:57Z</time>
      </trkpt>
      <trkpt lat="62.637814061147" lon="17.833631098753">
        <ele>59.2</ele>
        <time>2018-04-30T08:58:58Z</time>
      </trkpt>
      <trkpt lat="62.637824287065" lon="17.8335399875">
        <ele>59.2</ele>
        <time>2018-04-30T08:58:59Z</time>
      </trkpt>
      <trkpt lat="62.637834345345" lon="17.83345113936">
        <ele>59.2</ele>
        <time>2018-04-30T08:59:00Z</time>
      </trkpt>
      <trkpt lat="62.63784482272" lon="17.833363464686">
        <ele>59.4</ele>
        <time>2018-04-30T08:59:01Z</time>
      </trkpt>
      <trkpt lat="62.637856305923" lon="17.833268749216">
        <ele>59.4</ele>
        <time>2018-04-30T08:59:02Z</time>
      </trkpt>
      <trkpt lat="62.637865609832" lon="17.833184511121">
        <ele>59.4</ele>
        <time>2018-04-30T08:59:03Z</time>
      </trkpt>
      <trkpt lat="62.63787583575" lon="17.833090130927">
        <ele>59.4</ele>
        <time>2018-04-30T08:59:04Z</time>
      </trkpt>
      <trkpt lat="62.637885474935" lon="17.83300103133">
        <ele>59.4</ele>
        <time>2018-04-30T08:59:05Z</time>
      </trkpt>
      <trkpt lat="62.637894443568" lon="17.832913105199">
        <ele>59.4</ele>
        <time>2018-04-30T08:59:06Z</time>
      </trkpt>
      <trkpt lat="62.637903831296" lon="17.832819227919">
        <ele>59.6</ele>
        <time>2018-04-30T08:59:07Z</time>
      </trkpt>
      <trkpt lat="62.6379135543" lon="17.832725518277">
        <ele>59.8</ele>
        <time>2018-04-30T08:59:08Z</time>
      </trkpt>
      <trkpt lat="62.63792277439" lon="17.832635329033">
        <ele>60</ele>
        <time>2018-04-30T08:59:09Z</time>
      </trkpt>
      <trkpt lat="62.637932162118" lon="17.832536254975">
        <ele>60.2</ele>
        <time>2018-04-30T08:59:10Z</time>
      </trkpt>
      <trkpt lat="62.637940795475" lon="17.832443802618">
        <ele>60.4</ele>
        <time>2018-04-30T08:59:11Z</time>
      </trkpt>
      <trkpt lat="62.637950602298" lon="17.832340705248">
        <ele>60.4</ele>
        <time>2018-04-30T08:59:12Z</time>
      </trkpt>
      <trkpt lat="62.637959487112" lon="17.832241882647">
        <ele>60.6</ele>
        <time>2018-04-30T08:59:13Z</time>
      </trkpt>
      <trkpt lat="62.637967114641" lon="17.832141802761">
        <ele>60.6</ele>
        <time>2018-04-30T08:59:14Z</time>
      </trkpt>
      <trkpt lat="62.637975664179" lon="17.832048176938">
        <ele>60.8</ele>
        <time>2018-04-30T08:59:15Z</time>
      </trkpt>
      <trkpt lat="62.637984716631" lon="17.831947929414">
        <ele>60.8</ele>
        <time>2018-04-30T08:59:16Z</time>
      </trkpt>
      <trkpt lat="62.637992511798" lon="17.831840724913">
        <ele>60.8</ele>
        <time>2018-04-30T08:59:17Z</time>
      </trkpt>
      <trkpt lat="62.637999301137" lon="17.83173871719">
        <ele>60.8</ele>
        <time>2018-04-30T08:59:18Z</time>
      </trkpt>
      <trkpt lat="62.638006258114" lon="17.831637380019">
        <ele>61</ele>
        <time>2018-04-30T08:59:19Z</time>
      </trkpt>
      <trkpt lat="62.638013634186" lon="17.831536964857">
        <ele>61.2</ele>
        <time>2018-04-30T08:59:20Z</time>
      </trkpt>
      <trkpt lat="62.638020507344" lon="17.831446691794">
        <ele>61.2</ele>
        <time>2018-04-30T08:59:21Z</time>
      </trkpt>
      <trkpt lat="62.638029140701" lon="17.831328171728">
        <ele>61.4</ele>
        <time>2018-04-30T08:59:22Z</time>
      </trkpt>
      <trkpt lat="62.638037354963" lon="17.831222559788">
        <ele>61.6</ele>
        <time>2018-04-30T08:59:23Z</time>
      </trkpt>
      <trkpt lat="62.638044060483" lon="17.831115774382">
        <ele>61.8</ele>
        <time>2018-04-30T08:59:24Z</time>
      </trkpt>
      <trkpt lat="62.638048586709" lon="17.831009910985">
        <ele>61.8</ele>
        <time>2018-04-30T08:59:25Z</time>
      </trkpt>
      <trkpt lat="62.638053783487" lon="17.83090639452">
        <ele>61.8</ele>
        <time>2018-04-30T08:59:26Z</time>
      </trkpt>
      <trkpt lat="62.63805856117" lon="17.830802878055">
        <ele>61.8</ele>
        <time>2018-04-30T08:59:27Z</time>
      </trkpt>
      <trkpt lat="62.638063003577" lon="17.830685866731">
        <ele>61.8</ele>
        <time>2018-04-30T08:59:28Z</time>
      </trkpt>
      <trkpt lat="62.638068032717" lon="17.83057614766">
        <ele>61.8</ele>
        <time>2018-04-30T08:59:29Z</time>
      </trkpt>
      <trkpt lat="62.638072558943" lon="17.830468691702">
        <ele>61.6</ele>
        <time>2018-04-30T08:59:30Z</time>
      </trkpt>
      <trkpt lat="62.638077252807" lon="17.830357463889">
        <ele>61.6</ele>
        <time>2018-04-30T08:59:31Z</time>
      </trkpt>
      <trkpt lat="62.638081862852" lon="17.83023919528">
        <ele>61.4</ele>
        <time>2018-04-30T08:59:32Z</time>
      </trkpt>
      <trkpt lat="62.638086305259" lon="17.83013442153">
        <ele>61.4</ele>
        <time>2018-04-30T08:59:33Z</time>
      </trkpt>
      <trkpt lat="62.638090077114" lon="17.830018248396">
        <ele>61.4</ele>
        <time>2018-04-30T08:59:34Z</time>
      </trkpt>
      <trkpt lat="62.638092675503" lon="17.829908277868">
        <ele>61.4</ele>
        <time>2018-04-30T08:59:35Z</time>
      </trkpt>
      <trkpt lat="62.63809544153" lon="17.829800067539">
        <ele>61.2</ele>
        <time>2018-04-30T08:59:36Z</time>
      </trkpt>
      <trkpt lat="62.638099213385" lon="17.829682469482">
        <ele>61.2</ele>
        <time>2018-04-30T08:59:37Z</time>
      </trkpt>
      <trkpt lat="62.638102817602" lon="17.829562524493">
        <ele>61.2</ele>
        <time>2018-04-30T08:59:38Z</time>
      </trkpt>
      <trkpt lat="62.638106086543" lon="17.829455236173">
        <ele>61</ele>
        <time>2018-04-30T08:59:39Z</time>
      </trkpt>
      <trkpt lat="62.638109606941" lon="17.82932892094">
        <ele>61.2</ele>
        <time>2018-04-30T08:59:40Z</time>
      </trkpt>
      <trkpt lat="62.638112037692" lon="17.82921827986">
        <ele>61.2</ele>
        <time>2018-04-30T08:59:41Z</time>
      </trkpt>
      <trkpt lat="62.638113546434" lon="17.829091461713">
        <ele>61.2</ele>
        <time>2018-04-30T08:59:42Z</time>
      </trkpt>
      <trkpt lat="62.638115390452" lon="17.828971432905">
        <ele>61.4</ele>
        <time>2018-04-30T08:59:43Z</time>
      </trkpt>
      <trkpt lat="62.63811807266" lon="17.828845788224">
        <ele>61.6</ele>
        <time>2018-04-30T08:59:44Z</time>
      </trkpt>
      <trkpt lat="62.638119078488" lon="17.828739086637">
        <ele>61.6</ele>
        <time>2018-04-30T08:59:45Z</time>
      </trkpt>
      <trkpt lat="62.63811974904" lon="17.828616878535">
        <ele>61.4</ele>
        <time>2018-04-30T08:59:46Z</time>
      </trkpt>
      <trkpt lat="62.638119665221" lon="17.82848821637">
        <ele>61.4</ele>
        <time>2018-04-30T08:59:47Z</time>
      </trkpt>
      <trkpt lat="62.638119246126" lon="17.828359470386">
        <ele>61.4</ele>
        <time>2018-04-30T08:59:48Z</time>
      </trkpt>
      <trkpt lat="62.638117905022" lon="17.828238938664">
        <ele>61.4</ele>
        <time>2018-04-30T08:59:49Z</time>
      </trkpt>
      <trkpt lat="62.638115222814" lon="17.828118742218">
        <ele>61.2</ele>
        <time>2018-04-30T08:59:50Z</time>
      </trkpt>
      <trkpt lat="62.638113630253" lon="17.828010950984">
        <ele>61.2</ele>
        <time>2018-04-30T08:59:51Z</time>
      </trkpt>
      <trkpt lat="62.638111786235" lon="17.827877008222">
        <ele>61.4</ele>
        <time>2018-04-30T08:59:52Z</time>
      </trkpt>
      <trkpt lat="62.638110780407" lon="17.827754297206">
        <ele>61.2</ele>
        <time>2018-04-30T08:59:53Z</time>
      </trkpt>
      <trkpt lat="62.638108684932" lon="17.82763158619">
        <ele>61.4</ele>
        <time>2018-04-30T08:59:54Z</time>
      </trkpt>
      <trkpt lat="62.638105667448" lon="17.827505690052">
        <ele>61.4</ele>
        <time>2018-04-30T08:59:55Z</time>
      </trkpt>
      <trkpt lat="62.63810298524" lon="17.82739102566">
        <ele>61.4</ele>
        <time>2018-04-30T08:59:56Z</time>
      </trkpt>
      <trkpt lat="62.638101476498" lon="17.827263536961">
        <ele>61.6</ele>
        <time>2018-04-30T08:59:57Z</time>
      </trkpt>
      <trkpt lat="62.638098626652" lon="17.827128336914">
        <ele>61.8</ele>
        <time>2018-04-30T08:59:58Z</time>
      </trkpt>
      <trkpt lat="62.638094519521" lon="17.827001602586">
        <ele>62</ele>
        <time>2018-04-30T08:59:59Z</time>
      </trkpt>
      <trkpt lat="62.638089909476" lon="17.826874868258">
        <ele>62.2</ele>
        <time>2018-04-30T09:00:00Z</time>
      </trkpt>
      <trkpt lat="62.63808538325" lon="17.826745786998">
        <ele>62.2</ele>
        <time>2018-04-30T09:00:01Z</time>
      </trkpt>
      <trkpt lat="62.638079935015" lon="17.826607066553">
        <ele>62.4</ele>
        <time>2018-04-30T09:00:02Z</time>
      </trkpt>
      <trkpt lat="62.63807364859" lon="17.826483014433">
        <ele>62.4</ele>
        <time>2018-04-30T09:00:03Z</time>
      </trkpt>
      <trkpt lat="62.638067362165" lon="17.826346473282">
        <ele>62.4</ele>
        <time>2018-04-30T09:00:04Z</time>
      </trkpt>
      <trkpt lat="62.638061327197" lon="17.826216386194">
        <ele>62.4</ele>
        <time>2018-04-30T09:00:05Z</time>
      </trkpt>
      <trkpt lat="62.638053196754" lon="17.826094261911">
        <ele>62.2</ele>
        <time>2018-04-30T09:00:06Z</time>
      </trkpt>
      <trkpt lat="62.638043725207" lon="17.825959145683">
        <ele>62.2</ele>
        <time>2018-04-30T09:00:07Z</time>
      </trkpt>
      <trkpt lat="62.638035008031" lon="17.825827717491">
        <ele>62.2</ele>
        <time>2018-04-30T09:00:08Z</time>
      </trkpt>
      <trkpt lat="62.638027296683" lon="17.825705760846">
        <ele>62.2</ele>
        <time>2018-04-30T09:00:09Z</time>
      </trkpt>
      <trkpt lat="62.638018579507" lon="17.825572069541">
        <ele>62.2</ele>
        <time>2018-04-30T09:00:10Z</time>
      </trkpt>
      <trkpt lat="62.638010532883" lon="17.825457069873">
        <ele>62.4</ele>
        <time>2018-04-30T09:00:11Z</time>
      </trkpt>
      <trkpt lat="62.638000306965" lon="17.82532153455">
        <ele>62.2</ele>
        <time>2018-04-30T09:00:12Z</time>
      </trkpt>
      <trkpt lat="62.637991338332" lon="17.825195303136">
        <ele>62</ele>
        <time>2018-04-30T09:00:13Z</time>
      </trkpt>
      <trkpt lat="62.637979938948" lon="17.825070831921">
        <ele>61.8</ele>
        <time>2018-04-30T09:00:14Z</time>
      </trkpt>
      <trkpt lat="62.637969042478" lon="17.824957843909">
        <ele>61.6</ele>
        <time>2018-04-30T09:00:15Z</time>
      </trkpt>
      <trkpt lat="62.637957726913" lon="17.824832199228">
        <ele>61.4</ele>
        <time>2018-04-30T09:00:16Z</time>
      </trkpt>
      <trkpt lat="62.637945824615" lon="17.824705129624">
        <ele>61.6</ele>
        <time>2018-04-30T09:00:17Z</time>
      </trkpt>
      <trkpt lat="62.637935095783" lon="17.824587615386">
        <ele>61.4</ele>
        <time>2018-04-30T09:00:18Z</time>
      </trkpt>
      <trkpt lat="62.63792445077" lon="17.824468843863">
        <ele>61.4</ele>
        <time>2018-04-30T09:00:19Z</time>
      </trkpt>
      <trkpt lat="62.637913386662" lon="17.824349653245">
        <ele>61.4</ele>
        <time>2018-04-30T09:00:20Z</time>
      </trkpt>
      <trkpt lat="62.637901987278" lon="17.824243286934">
        <ele>61.2</ele>
        <time>2018-04-30T09:00:21Z</time>
      </trkpt>
      <trkpt lat="62.637888073324" lon="17.824114457131">
        <ele>60.8</ele>
        <time>2018-04-30T09:00:22Z</time>
      </trkpt>
      <trkpt lat="62.637876422483" lon="17.823996691436">
        <ele>61</ele>
        <time>2018-04-30T09:00:23Z</time>
      </trkpt>
      <trkpt lat="62.637865023099" lon="17.823879261017">
        <ele>61</ele>
        <time>2018-04-30T09:00:24Z</time>
      </trkpt>
      <trkpt lat="62.63785236643" lon="17.823762333512">
        <ele>61</ele>
        <time>2018-04-30T09:00:25Z</time>
      </trkpt>
      <trkpt lat="62.637840296494" lon="17.823652279165">
        <ele>61.2</ele>
        <time>2018-04-30T09:00:26Z</time>
      </trkpt>
      <trkpt lat="62.637828394196" lon="17.823536441307">
        <ele>61.4</ele>
        <time>2018-04-30T09:00:27Z</time>
      </trkpt>
      <trkpt lat="62.637812720043" lon="17.823417669784">
        <ele>61.2</ele>
        <time>2018-04-30T09:00:28Z</time>
      </trkpt>
      <trkpt lat="62.637798051718" lon="17.823303005392">
        <ele>61.4</ele>
        <time>2018-04-30T09:00:29Z</time>
      </trkpt>
      <trkpt lat="62.637784975954" lon="17.823191777579">
        <ele>61.4</ele>
        <time>2018-04-30T09:00:30Z</time>
      </trkpt>
      <trkpt lat="62.637770894362" lon="17.82308021449">
        <ele>61.6</ele>
        <time>2018-04-30T09:00:31Z</time>
      </trkpt>
      <trkpt lat="62.637756142218" lon="17.822956497646">
        <ele>61.6</ele>
        <time>2018-04-30T09:00:32Z</time>
      </trkpt>
      <trkpt lat="62.637741222436" lon="17.822846694756">
        <ele>61.8</ele>
        <time>2018-04-30T09:00:33Z</time>
      </trkpt>
      <trkpt lat="62.637724793912" lon="17.822724486654">
        <ele>62</ele>
        <time>2018-04-30T09:00:34Z</time>
      </trkpt>
      <trkpt lat="62.637708533026" lon="17.822609570805">
        <ele>62</ele>
        <time>2018-04-30T09:00:35Z</time>
      </trkpt>
      <trkpt lat="62.637693361787" lon="17.822499181182">
        <ele>62</ele>
        <time>2018-04-30T09:00:36Z</time>
      </trkpt>
      <trkpt lat="62.637677017082" lon="17.822380409659">
        <ele>62</ele>
        <time>2018-04-30T09:00:37Z</time>
      </trkpt>
      <trkpt lat="62.637662264938" lon="17.822265242353">
        <ele>62</ele>
        <time>2018-04-30T09:00:38Z</time>
      </trkpt>
      <trkpt lat="62.637650111183" lon="17.822177819136">
        <ele>61.8</ele>
        <time>2018-04-30T09:00:39Z</time>
      </trkpt>
      <trkpt lat="62.63763108427" lon="17.822037673768">
        <ele>61.8</ele>
        <time>2018-04-30T09:00:40Z</time>
      </trkpt>
      <trkpt lat="62.637615829212" lon="17.821927619421">
        <ele>62.2</ele>
        <time>2018-04-30T09:00:41Z</time>
      </trkpt>
      <trkpt lat="62.637599149231" lon="17.821809099355">
        <ele>62</ele>
        <time>2018-04-30T09:00:42Z</time>
      </trkpt>
      <trkpt lat="62.637583810354" lon="17.821700889026">
        <ele>62</ele>
        <time>2018-04-30T09:00:43Z</time>
      </trkpt>
      <trkpt lat="62.637567549468" lon="17.821585973177">
        <ele>62</ele>
        <time>2018-04-30T09:00:44Z</time>
      </trkpt>
      <trkpt lat="62.637550701849" lon="17.821478768676">
        <ele>62.2</ele>
        <time>2018-04-30T09:00:45Z</time>
      </trkpt>
      <trkpt lat="62.63753385423" lon="17.82136695413">
        <ele>62</ele>
        <time>2018-04-30T09:00:46Z</time>
      </trkpt>
      <trkpt lat="62.637517258068" lon="17.821251200091">
        <ele>62.2</ele>
        <time>2018-04-30T09:00:47Z</time>
      </trkpt>
      <trkpt lat="62.637500410449" lon="17.821130500731">
        <ele>62.2</ele>
        <time>2018-04-30T09:00:48Z</time>
      </trkpt>
      <trkpt lat="62.637482892278" lon="17.821014327597">
        <ele>62.4</ele>
        <time>2018-04-30T09:00:49Z</time>
      </trkpt>
      <trkpt lat="62.637465290288" lon="17.820898238282">
        <ele>62.4</ele>
        <time>2018-04-30T09:00:50Z</time>
      </trkpt>
      <trkpt lat="62.637449616135" lon="17.820793296894">
        <ele>62.6</ele>
        <time>2018-04-30T09:00:51Z</time>
      </trkpt>
      <trkpt lat="62.637429248118" lon="17.820664047996">
        <ele>62.4</ele>
        <time>2018-04-30T09:00:52Z</time>
      </trkpt>
      <trkpt lat="62.637411227033" lon="17.820546030844">
        <ele>62.2</ele>
        <time>2018-04-30T09:00:53Z</time>
      </trkpt>
      <trkpt lat="62.637394044138" lon="17.820427678416">
        <ele>62.2</ele>
        <time>2018-04-30T09:00:54Z</time>
      </trkpt>
      <trkpt lat="62.637376358329" lon="17.82030832016">
        <ele>62.2</ele>
        <time>2018-04-30T09:00:55Z</time>
      </trkpt>
      <trkpt lat="62.637358923977" lon="17.820195583605">
        <ele>62</ele>
        <time>2018-04-30T09:00:56Z</time>
      </trkpt>
      <trkpt lat="62.637341321987" lon="17.820080248661">
        <ele>62</ele>
        <time>2018-04-30T09:00:57Z</time>
      </trkpt>
      <trkpt lat="62.637323217083" lon="17.819958711111">
        <ele>62.2</ele>
        <time>2018-04-30T09:00:58Z</time>
      </trkpt>
      <trkpt lat="62.637305447455" lon="17.819843795262">
        <ele>62</ele>
        <time>2018-04-30T09:00:59Z</time>
      </trkpt>
      <trkpt lat="62.63728658818" lon="17.819729214689">
        <ele>62</ele>
        <time>2018-04-30T09:01:00Z</time>
      </trkpt>
      <trkpt lat="62.637269321466" lon="17.819620501446">
        <ele>62.2</ele>
        <time>2018-04-30T09:01:01Z</time>
      </trkpt>
      <trkpt lat="62.637251216562" lon="17.81950114319">
        <ele>62</ele>
        <time>2018-04-30T09:01:02Z</time>
      </trkpt>
      <trkpt lat="62.637234368943" lon="17.819393938689">
        <ele>62.2</ele>
        <time>2018-04-30T09:01:03Z</time>
      </trkpt>
      <trkpt lat="62.637213498012" lon="17.819273658424">
        <ele>62.2</ele>
        <time>2018-04-30T09:01:04Z</time>
      </trkpt>
      <trkpt lat="62.637194219642" lon="17.819157988204">
        <ele>62.2</ele>
        <time>2018-04-30T09:01:05Z</time>
      </trkpt>
      <trkpt lat="62.637177455842" lon="17.819050448427">
        <ele>62.2</ele>
        <time>2018-04-30T09:01:06Z</time>
      </trkpt>
      <trkpt lat="62.637158177472" lon="17.818929916705">
        <ele>62.6</ele>
        <time>2018-04-30T09:01:07Z</time>
      </trkpt>
      <trkpt lat="62.637139821111" lon="17.81882053291">
        <ele>62.6</ele>
        <time>2018-04-30T09:01:08Z</time>
      </trkpt>
      <trkpt lat="62.637120123646" lon="17.818711149115">
        <ele>62.6</ele>
        <time>2018-04-30T09:01:09Z</time>
      </trkpt>
      <trkpt lat="62.63709883362" lon="17.818592880506">
        <ele>62.6</ele>
        <time>2018-04-30T09:01:10Z</time>
      </trkpt>
      <trkpt lat="62.63708039344" lon="17.818484167263">
        <ele>62.6</ele>
        <time>2018-04-30T09:01:11Z</time>
      </trkpt>
      <trkpt lat="62.637061617984" lon="17.818364306093">
        <ele>62.6</ele>
        <time>2018-04-30T09:01:12Z</time>
      </trkpt>
      <trkpt lat="62.637042423433" lon="17.818245786027">
        <ele>62.6</ele>
        <time>2018-04-30T09:01:13Z</time>
      </trkpt>
      <trkpt lat="62.637023983253" lon="17.818137156603">
        <ele>62.4</ele>
        <time>2018-04-30T09:01:14Z</time>
      </trkpt>
      <trkpt lat="62.63700579453" lon="17.818027856627">
        <ele>62.4</ele>
        <time>2018-04-30T09:01:15Z</time>
      </trkpt>
      <trkpt lat="62.636986180884" lon="17.817906738172">
        <ele>62.4</ele>
        <time>2018-04-30T09:01:16Z</time>
      </trkpt>
      <trkpt lat="62.636966902514" lon="17.817785703536">
        <ele>62.6</ele>
        <time>2018-04-30T09:01:17Z</time>
      </trkpt>
      <trkpt lat="62.636947624144" lon="17.817669781859">
        <ele>62.6</ele>
        <time>2018-04-30T09:01:18Z</time>
      </trkpt>
      <trkpt lat="62.636927926679" lon="17.817553021992">
        <ele>62.6</ele>
        <time>2018-04-30T09:01:19Z</time>
      </trkpt>
      <trkpt lat="62.63690604992" lon="17.817434501926">
        <ele>62.6</ele>
        <time>2018-04-30T09:01:20Z</time>
      </trkpt>
      <trkpt lat="62.636887190645" lon="17.817328722348">
        <ele>62.8</ele>
        <time>2018-04-30T09:01:21Z</time>
      </trkpt>
      <trkpt lat="62.636864559515" lon="17.817194779586">
        <ele>62.6</ele>
        <time>2018-04-30T09:01:22Z</time>
      </trkpt>
      <trkpt lat="62.636844107679" lon="17.817070308371">
        <ele>62.6</ele>
        <time>2018-04-30T09:01:23Z</time>
      </trkpt>
      <trkpt lat="62.636824326395" lon="17.816951620667">
        <ele>62.6</ele>
        <time>2018-04-30T09:01:24Z</time>
      </trkpt>
      <trkpt lat="62.636803287826" lon="17.816830083117">
        <ele>62.6</ele>
        <time>2018-04-30T09:01:25Z</time>
      </trkpt>
      <trkpt lat="62.636783003628" lon="17.816716843648">
        <ele>62.4</ele>
        <time>2018-04-30T09:01:26Z</time>
      </trkpt>
      <trkpt lat="62.636760540136" lon="17.816594887003">
        <ele>62.4</ele>
        <time>2018-04-30T09:01:27Z</time>
      </trkpt>
      <trkpt lat="62.63673673554" lon="17.816462285345">
        <ele>62.4</ele>
        <time>2018-04-30T09:01:28Z</time>
      </trkpt>
      <trkpt lat="62.636715194057" lon="17.816334964284">
        <ele>62.6</ele>
        <time>2018-04-30T09:01:29Z</time>
      </trkpt>
      <trkpt lat="62.636693317298" lon="17.816205966843">
        <ele>62.6</ele>
        <time>2018-04-30T09:01:30Z</time>
      </trkpt>
      <trkpt lat="62.636671440539" lon="17.81607629885">
        <ele>62.6</ele>
        <time>2018-04-30T09:01:31Z</time>
      </trkpt>
      <trkpt lat="62.636647384486" lon="17.81593967388">
        <ele>62.4</ele>
        <time>2018-04-30T09:01:32Z</time>
      </trkpt>
      <trkpt lat="62.636625088632" lon="17.815813693923">
        <ele>62.4</ele>
        <time>2018-04-30T09:01:33Z</time>
      </trkpt>
      <trkpt lat="62.636599523837" lon="17.815672961822">
        <ele>62.2</ele>
        <time>2018-04-30T09:01:34Z</time>
      </trkpt>
      <trkpt lat="62.636574797232" lon="17.815543377648">
        <ele>62.2</ele>
        <time>2018-04-30T09:01:35Z</time>
      </trkpt>
      <trkpt lat="62.636549902989" lon="17.815418738795">
        <ele>62.2</ele>
        <time>2018-04-30T09:01:36Z</time>
      </trkpt>
      <trkpt lat="62.636522494176" lon="17.815283706386">
        <ele>62.2</ele>
        <time>2018-04-30T09:01:37Z</time>
      </trkpt>
      <trkpt lat="62.636496594105" lon="17.815154122212">
        <ele>62.2</ele>
        <time>2018-04-30T09:01:38Z</time>
      </trkpt>
      <trkpt lat="62.636470526396" lon="17.815035350689">
        <ele>62</ele>
        <time>2018-04-30T09:01:39Z</time>
      </trkpt>
      <trkpt lat="62.636439094271" lon="17.814902916669">
        <ele>61.6</ele>
        <time>2018-04-30T09:01:40Z</time>
      </trkpt>
      <trkpt lat="62.636410931087" lon="17.814786575897">
        <ele>61.4</ele>
        <time>2018-04-30T09:01:41Z</time>
      </trkpt>
      <trkpt lat="62.636378157858" lon="17.814650956755">
        <ele>61.2</ele>
        <time>2018-04-30T09:01:42Z</time>
      </trkpt>
      <trkpt lat="62.636346641914" lon="17.814524473884">
        <ele>61</ele>
        <time>2018-04-30T09:01:43Z</time>
      </trkpt>
      <trkpt lat="62.636313952504" lon="17.814398913022">
        <ele>60.8</ele>
        <time>2018-04-30T09:01:44Z</time>
      </trkpt>
      <trkpt lat="62.636281346913" lon="17.814279806223">
        <ele>60.8</ele>
        <time>2018-04-30T09:01:45Z</time>
      </trkpt>
      <trkpt lat="62.636246059114" lon="17.814155418827">
        <ele>60.6</ele>
        <time>2018-04-30T09:01:46Z</time>
      </trkpt>
      <trkpt lat="62.636206077451" lon="17.814022314255">
        <ele>60.4</ele>
        <time>2018-04-30T09:01:47Z</time>
      </trkpt>
      <trkpt lat="62.636169364729" lon="17.813894993194">
        <ele>60.4</ele>
        <time>2018-04-30T09:01:48Z</time>
      </trkpt>
      <trkpt lat="62.636135250396" lon="17.813778233327">
        <ele>60.4</ele>
        <time>2018-04-30T09:01:49Z</time>
      </trkpt>
      <trkpt lat="62.636096442199" lon="17.813655103216">
        <ele>60</ele>
        <time>2018-04-30T09:01:50Z</time>
      </trkpt>
      <trkpt lat="62.636060819124" lon="17.813548988362">
        <ele>60</ele>
        <time>2018-04-30T09:01:51Z</time>
      </trkpt>
      <trkpt lat="62.636015975959" lon="17.813419152731">
        <ele>59.8</ele>
        <time>2018-04-30T09:01:52Z</time>
      </trkpt>
      <trkpt lat="62.635973898821" lon="17.813300045932">
        <ele>59.6</ele>
        <time>2018-04-30T09:01:53Z</time>
      </trkpt>
      <trkpt lat="62.635931989321" lon="17.813184459531">
        <ele>59.4</ele>
        <time>2018-04-30T09:01:54Z</time>
      </trkpt>
      <trkpt lat="62.635889073993" lon="17.813071555338">
        <ele>59.4</ele>
        <time>2018-04-30T09:01:55Z</time>
      </trkpt>
      <trkpt lat="62.635848924692" lon="17.81296745214">
        <ele>59.2</ele>
        <time>2018-04-30T09:01:56Z</time>
      </trkpt>
      <trkpt lat="62.635807015192" lon="17.812858068345">
        <ele>58.8</ele>
        <time>2018-04-30T09:01:57Z</time>
      </trkpt>
      <trkpt lat="62.635763429312" lon="17.812744158324">
        <ele>58.6</ele>
        <time>2018-04-30T09:01:58Z</time>
      </trkpt>
      <trkpt lat="62.635723112373" lon="17.812644581352">
        <ele>58</ele>
        <time>2018-04-30T09:01:59Z</time>
      </trkpt>
      <trkpt lat="62.635678855941" lon="17.812542405991">
        <ele>57.8</ele>
        <time>2018-04-30T09:02:00Z</time>
      </trkpt>
      <trkpt lat="62.635637365536" lon="17.812447858159">
        <ele>58</ele>
        <time>2018-04-30T09:02:01Z</time>
      </trkpt>
      <trkpt lat="62.635590343077" lon="17.812345347522">
        <ele>58</ele>
        <time>2018-04-30T09:02:02Z</time>
      </trkpt>
      <trkpt lat="62.635548601215" lon="17.81225499064">
        <ele>58.2</ele>
        <time>2018-04-30T09:02:03Z</time>
      </trkpt>
      <trkpt lat="62.635500908204" lon="17.812159604618">
        <ele>58.4</ele>
        <time>2018-04-30T09:02:04Z</time>
      </trkpt>
      <trkpt lat="62.635454640116" lon="17.812068493365">
        <ele>58.6</ele>
        <time>2018-04-30T09:02:05Z</time>
      </trkpt>
      <trkpt lat="62.635411221874" lon="17.811986434564">
        <ele>58.6</ele>
        <time>2018-04-30T09:02:06Z</time>
      </trkpt>
      <trkpt lat="62.635367552175" lon="17.811905800686">
        <ele>58.8</ele>
        <time>2018-04-30T09:02:07Z</time>
      </trkpt>
      <trkpt lat="62.63531851806" lon="17.811814857071">
        <ele>58.8</ele>
        <time>2018-04-30T09:02:08Z</time>
      </trkpt>
      <trkpt lat="62.63527660856" lon="17.811737156858">
        <ele>58.8</ele>
        <time>2018-04-30T09:02:09Z</time>
      </trkpt>
      <trkpt lat="62.635227322988" lon="17.811647135252">
        <ele>58.8</ele>
        <time>2018-04-30T09:02:10Z</time>
      </trkpt>
      <trkpt lat="62.635186754592" lon="17.811570608505">
        <ele>58.8</ele>
        <time>2018-04-30T09:02:11Z</time>
      </trkpt>
      <trkpt lat="62.635139564495" lon="17.811486957143">
        <ele>59</ele>
        <time>2018-04-30T09:02:12Z</time>
      </trkpt>
      <trkpt lat="62.635093715502" lon="17.811408586378">
        <ele>59.2</ele>
        <time>2018-04-30T09:02:13Z</time>
      </trkpt>
      <trkpt lat="62.635048117966" lon="17.811327449586">
        <ele>59.4</ele>
        <time>2018-04-30T09:02:14Z</time>
      </trkpt>
      <trkpt lat="62.635005454095" lon="17.81125083902">
        <ele>59.6</ele>
        <time>2018-04-30T09:02:15Z</time>
      </trkpt>
      <trkpt lat="62.634958683093" lon="17.811169031676">
        <ele>59.8</ele>
        <time>2018-04-30T09:02:16Z</time>
      </trkpt>
      <trkpt lat="62.634909648978" lon="17.811085380314">
        <ele>60</ele>
        <time>2018-04-30T09:02:17Z</time>
      </trkpt>
      <trkpt lat="62.6348625427" lon="17.811004997893">
        <ele>60</ele>
        <time>2018-04-30T09:02:18Z</time>
      </trkpt>
      <trkpt lat="62.634815101146" lon="17.810924112558">
        <ele>60.2</ele>
        <time>2018-04-30T09:02:19Z</time>
      </trkpt>
      <trkpt lat="62.634769671248" lon="17.810843981594">
        <ele>60.4</ele>
        <time>2018-04-30T09:02:20Z</time>
      </trkpt>
      <trkpt lat="62.634729102852" lon="17.810772903082">
        <ele>60.4</ele>
        <time>2018-04-30T09:02:21Z</time>
      </trkpt>
      <trkpt lat="62.634680487832" lon="17.810689084082">
        <ele>60.2</ele>
        <time>2018-04-30T09:02:22Z</time>
      </trkpt>
      <trkpt lat="62.634632291907" lon="17.810606941462">
        <ele>60</ele>
        <time>2018-04-30T09:02:23Z</time>
      </trkpt>
      <trkpt lat="62.634587867837" lon="17.810530247077">
        <ele>59.8</ele>
        <time>2018-04-30T09:02:24Z</time>
      </trkpt>
      <trkpt lat="62.634543359948" lon="17.810453552692">
        <ele>59.8</ele>
        <time>2018-04-30T09:02:25Z</time>
      </trkpt>
      <trkpt lat="62.634501534267" lon="17.810382893275">
        <ele>59.6</ele>
        <time>2018-04-30T09:02:26Z</time>
      </trkpt>
      <trkpt lat="62.634457445473" lon="17.810306366528">
        <ele>59.8</ele>
        <time>2018-04-30T09:02:27Z</time>
      </trkpt>
      <trkpt lat="62.634412015575" lon="17.810223050442">
        <ele>60</ele>
        <time>2018-04-30T09:02:28Z</time>
      </trkpt>
      <trkpt lat="62.634369351704" lon="17.810144092944">
        <ele>60</ele>
        <time>2018-04-30T09:02:29Z</time>
      </trkpt>
      <trkpt lat="62.634325933462" lon="17.81006563836">
        <ele>60.2</ele>
        <time>2018-04-30T09:02:30Z</time>
      </trkpt>
      <trkpt lat="62.634285197428" lon="17.809992632011">
        <ele>60.2</ele>
        <time>2018-04-30T09:02:31Z</time>
      </trkpt>
      <trkpt lat="62.63423976753" lon="17.809910405572">
        <ele>60.4</ele>
        <time>2018-04-30T09:02:32Z</time>
      </trkpt>
      <trkpt lat="62.634201043152" lon="17.809836561033">
        <ele>60.4</ele>
        <time>2018-04-30T09:02:33Z</time>
      </trkpt>
      <trkpt lat="62.634158630738" lon="17.80974880254">
        <ele>60.4</ele>
        <time>2018-04-30T09:02:34Z</time>
      </trkpt>
      <trkpt lat="62.634120157817" lon="17.809666743739">
        <ele>60.2</ele>
        <time>2018-04-30T09:02:35Z</time>
      </trkpt>
      <trkpt lat="62.634083780371" lon="17.809590468449">
        <ele>60.2</ele>
        <time>2018-04-30T09:02:36Z</time>
      </trkpt>
      <trkpt lat="62.63404530745" lon="17.809510505123">
        <ele>60.4</ele>
        <time>2018-04-30T09:02:37Z</time>
      </trkpt>
      <trkpt lat="62.634004487597" lon="17.809422411354">
        <ele>60.2</ele>
        <time>2018-04-30T09:02:38Z</time>
      </trkpt>
      <trkpt lat="62.633971127635" lon="17.809347812444">
        <ele>60.2</ele>
        <time>2018-04-30T09:02:39Z</time>
      </trkpt>
      <trkpt lat="62.633932487076" lon="17.809261059779">
        <ele>60.2</ele>
        <time>2018-04-30T09:02:40Z</time>
      </trkpt>
      <trkpt lat="62.63389694782" lon="17.809182102281">
        <ele>60.4</ele>
        <time>2018-04-30T09:02:41Z</time>
      </trkpt>
      <trkpt lat="62.63385839108" lon="17.809095349616">
        <ele>60.4</ele>
        <time>2018-04-30T09:02:42Z</time>
      </trkpt>
      <trkpt lat="62.633827294231" lon="17.809020834525">
        <ele>60.6</ele>
        <time>2018-04-30T09:02:43Z</time>
      </trkpt>
      <trkpt lat="62.633788318396" lon="17.808922095743">
        <ele>60.6</ele>
        <time>2018-04-30T09:02:44Z</time>
      </trkpt>
      <trkpt lat="62.633756467176" lon="17.808839282571">
        <ele>60.6</ele>
        <time>2018-04-30T09:02:45Z</time>
      </trkpt>
      <trkpt lat="62.633721514653" lon="17.808749093327">
        <ele>60.4</ele>
        <time>2018-04-30T09:02:46Z</time>
      </trkpt>
      <trkpt lat="62.633686478311" lon="17.808654461676">
        <ele>60.4</ele>
        <time>2018-04-30T09:02:47Z</time>
      </trkpt>
      <trkpt lat="62.633652783073" lon="17.808559494749">
        <ele>60.2</ele>
        <time>2018-04-30T09:02:48Z</time>
      </trkpt>
      <trkpt lat="62.63361950693" lon="17.808468551134">
        <ele>60.4</ele>
        <time>2018-04-30T09:02:49Z</time>
      </trkpt>
      <trkpt lat="62.633583716217" lon="17.808369812352">
        <ele>60.4</ele>
        <time>2018-04-30T09:02:50Z</time>
      </trkpt>
      <trkpt lat="62.633554631024" lon="17.808285406619">
        <ele>60.4</ele>
        <time>2018-04-30T09:02:51Z</time>
      </trkpt>
      <trkpt lat="62.633520181415" lon="17.808178956489">
        <ele>60.4</ele>
        <time>2018-04-30T09:02:52Z</time>
      </trkpt>
      <trkpt lat="62.633485815625" lon="17.808065800839">
        <ele>60.2</ele>
        <time>2018-04-30T09:02:53Z</time>
      </trkpt>
      <trkpt lat="62.633454551138" lon="17.807958847795">
        <ele>60.2</ele>
        <time>2018-04-30T09:02:54Z</time>
      </trkpt>
      <trkpt lat="62.633422364642" lon="17.807847703801">
        <ele>60.2</ele>
        <time>2018-04-30T09:02:55Z</time>
      </trkpt>
      <trkpt lat="62.633391183974" lon="17.80773966111">
        <ele>60.2</ele>
        <time>2018-04-30T09:02:56Z</time>
      </trkpt>
      <trkpt lat="62.633359165116" lon="17.807626337822">
        <ele>60</ele>
        <time>2018-04-30T09:02:57Z</time>
      </trkpt>
      <trkpt lat="62.633325218421" lon="17.807500357865">
        <ele>60</ele>
        <time>2018-04-30T09:02:58Z</time>
      </trkpt>
      <trkpt lat="62.633293534839" lon="17.807380580514">
        <ele>59.8</ele>
        <time>2018-04-30T09:02:59Z</time>
      </trkpt>
      <trkpt lat="62.633261264524" lon="17.807255103471">
        <ele>59.6</ele>
        <time>2018-04-30T09:03:00Z</time>
      </trkpt>
      <trkpt lat="62.633232682245" lon="17.807139097975">
        <ele>59.6</ele>
        <time>2018-04-30T09:03:01Z</time>
      </trkpt>
      <trkpt lat="62.633198987007" lon="17.807005490489">
        <ele>59.4</ele>
        <time>2018-04-30T09:03:02Z</time>
      </trkpt>
      <trkpt lat="62.633168225434" lon="17.806886635147">
        <ele>59</ele>
        <time>2018-04-30T09:03:03Z</time>
      </trkpt>
      <trkpt lat="62.633132350902" lon="17.806749423444">
        <ele>58.8</ele>
        <time>2018-04-30T09:03:04Z</time>
      </trkpt>
      <trkpt lat="62.633099158578" lon="17.806618330528">
        <ele>58.6</ele>
        <time>2018-04-30T09:03:05Z</time>
      </trkpt>
      <trkpt lat="62.63306797791" lon="17.806491847657">
        <ele>58.2</ele>
        <time>2018-04-30T09:03:06Z</time>
      </trkpt>
      <trkpt lat="62.633034282672" lon="17.806349858271">
        <ele>58</ele>
        <time>2018-04-30T09:03:07Z</time>
      </trkpt>
      <trkpt lat="62.633001593262" lon="17.806212143654">
        <ele>57.6</ele>
        <time>2018-04-30T09:03:08Z</time>
      </trkpt>
      <trkpt lat="62.632972088974" lon="17.806087169525">
        <ele>57.4</ele>
        <time>2018-04-30T09:03:09Z</time>
      </trkpt>
      <trkpt lat="62.63294141122" lon="17.805954903143">
        <ele>57</ele>
        <time>2018-04-30T09:03:10Z</time>
      </trkpt>
      <trkpt lat="62.632911571656" lon="17.805827833539">
        <ele>57</ele>
        <time>2018-04-30T09:03:11Z</time>
      </trkpt>
      <trkpt lat="62.632878379332" lon="17.805692884949">
        <ele>56.8</ele>
        <time>2018-04-30T09:03:12Z</time>
      </trkpt>
      <trkpt lat="62.632846779569" lon="17.805566150621">
        <ele>56.6</ele>
        <time>2018-04-30T09:03:13Z</time>
      </trkpt>
      <trkpt lat="62.632817023824" lon="17.805441930863">
        <ele>56.8</ele>
        <time>2018-04-30T09:03:14Z</time>
      </trkpt>
      <trkpt lat="62.632791039934" lon="17.805324584263">
        <ele>56.8</ele>
        <time>2018-04-30T09:03:15Z</time>
      </trkpt>
      <trkpt lat="62.632764217854" lon="17.805200867419">
        <ele>56.8</ele>
        <time>2018-04-30T09:03:16Z</time>
      </trkpt>
      <trkpt lat="62.632735803213" lon="17.805075558014">
        <ele>57</ele>
        <time>2018-04-30T09:03:17Z</time>
      </trkpt>
      <trkpt lat="62.632709986961" lon="17.80496189945">
        <ele>57</ele>
        <time>2018-04-30T09:03:18Z</time>
      </trkpt>
      <trkpt lat="62.63268492508" lon="17.804849749628">
        <ele>57</ele>
        <time>2018-04-30T09:03:19Z</time>
      </trkpt>
      <trkpt lat="62.632660701389" lon="17.804740701109">
        <ele>57.2</ele>
        <time>2018-04-30T09:03:20Z</time>
      </trkpt>
      <trkpt lat="62.632640165734" lon="17.80464590182">
        <ele>57.4</ele>
        <time>2018-04-30T09:03:21Z</time>
      </trkpt>
      <trkpt lat="62.6326161935" lon="17.804536518025">
        <ele>57.6</ele>
        <time>2018-04-30T09:03:22Z</time>
      </trkpt>
      <trkpt lat="62.632593310913" lon="17.804430067895">
        <ele>57.8</ele>
        <time>2018-04-30T09:03:23Z</time>
      </trkpt>
      <trkpt lat="62.632573110534" lon="17.804331832027">
        <ele>58</ele>
        <time>2018-04-30T09:03:24Z</time>
      </trkpt>
      <trkpt lat="62.632553915983" lon="17.80423854148">
        <ele>58.4</ele>
        <time>2018-04-30T09:03:25Z</time>
      </trkpt>
      <trkpt lat="62.632535894898" lon="17.80415136972">
        <ele>58.8</ele>
        <time>2018-04-30T09:03:26Z</time>
      </trkpt>
      <trkpt lat="62.632518628184" lon="17.804063108313">
        <ele>59</ele>
        <time>2018-04-30T09:03:27Z</time>
      </trkpt>
      <trkpt lat="62.632500271823" lon="17.803969566309">
        <ele>59.2</ele>
        <time>2018-04-30T09:03:28Z</time>
      </trkpt>
      <trkpt lat="62.632484010937" lon="17.803882981282">
        <ele>59.6</ele>
        <time>2018-04-30T09:03:29Z</time>
      </trkpt>
      <trkpt lat="62.632468755879" lon="17.803798659368">
        <ele>59.8</ele>
        <time>2018-04-30T09:03:30Z</time>
      </trkpt>
      <trkpt lat="62.632454841925" lon="17.803719785689">
        <ele>60</ele>
        <time>2018-04-30T09:03:31Z</time>
      </trkpt>
      <trkpt lat="62.632440425057" lon="17.803634290309">
        <ele>60.4</ele>
        <time>2018-04-30T09:03:32Z</time>
      </trkpt>
      <trkpt lat="62.632428774216" lon="17.803559104666">
        <ele>60.6</ele>
        <time>2018-04-30T09:03:33Z</time>
      </trkpt>
      <trkpt lat="62.632415111719" lon="17.803477884055">
        <ele>61</ele>
        <time>2018-04-30T09:03:34Z</time>
      </trkpt>
      <trkpt lat="62.632402790326" lon="17.80340118967">
        <ele>61.2</ele>
        <time>2018-04-30T09:03:35Z</time>
      </trkpt>
      <trkpt lat="62.632392229132" lon="17.8033316199">
        <ele>61.2</ele>
        <time>2018-04-30T09:03:36Z</time>
      </trkpt>
      <trkpt lat="62.632380410653" lon="17.803261547216">
        <ele>61.2</ele>
        <time>2018-04-30T09:03:37Z</time>
      </trkpt>
      <trkpt lat="62.632366496699" lon="17.80318828941">
        <ele>61.4</ele>
        <time>2018-04-30T09:03:38Z</time>
      </trkpt>
      <trkpt lat="62.632356522238" lon="17.803119976925">
        <ele>61.6</ele>
        <time>2018-04-30T09:03:39Z</time>
      </trkpt>
      <trkpt lat="62.632348475614" lon="17.803053257001">
        <ele>61.6</ele>
        <time>2018-04-30T09:03:40Z</time>
      </trkpt>
      <trkpt lat="62.632336573316" lon="17.802965666146">
        <ele>61.8</ele>
        <time>2018-04-30T09:03:41Z</time>
      </trkpt>
      <trkpt lat="62.632326598855" lon="17.802879332576">
        <ele>62</ele>
        <time>2018-04-30T09:03:42Z</time>
      </trkpt>
      <trkpt lat="62.632317714041" lon="17.80279685468">
        <ele>62.2</ele>
        <time>2018-04-30T09:03:43Z</time>
      </trkpt>
      <trkpt lat="62.632308242494" lon="17.802709766739">
        <ele>62.2</ele>
        <time>2018-04-30T09:03:44Z</time>
      </trkpt>
      <trkpt lat="62.632298687128" lon="17.802627791757">
        <ele>62.6</ele>
        <time>2018-04-30T09:03:45Z</time>
      </trkpt>
      <trkpt lat="62.632288125934" lon="17.802542966929">
        <ele>62.6</ele>
        <time>2018-04-30T09:03:46Z</time>
      </trkpt>
      <trkpt lat="62.632276810369" lon="17.802454705522">
        <ele>63</ele>
        <time>2018-04-30T09:03:47Z</time>
      </trkpt>
      <trkpt lat="62.632266500632" lon="17.802370467427">
        <ele>63.4</ele>
        <time>2018-04-30T09:03:48Z</time>
      </trkpt>
      <trkpt lat="62.632258454008" lon="17.802291258472">
        <ele>63.6</ele>
        <time>2018-04-30T09:03:49Z</time>
      </trkpt>
      <trkpt lat="62.63225074266" lon="17.802204170531">
        <ele>63.8</ele>
        <time>2018-04-30T09:03:50Z</time>
      </trkpt>
      <trkpt lat="62.632244372416" lon="17.802128984888">
        <ele>64</ele>
        <time>2018-04-30T09:03:51Z</time>
      </trkpt>
      <trkpt lat="62.632236325792" lon="17.802040639662">
        <ele>64</ele>
        <time>2018-04-30T09:03:52Z</time>
      </trkpt>
      <trkpt lat="62.632228362987" lon="17.801952629712">
        <ele>64</ele>
        <time>2018-04-30T09:03:53Z</time>
      </trkpt>
      <trkpt lat="62.632222914752" lon="17.80186730197">
        <ele>64.2</ele>
        <time>2018-04-30T09:03:54Z</time>
      </trkpt>
      <trkpt lat="62.632217550336" lon="17.801782812418">
        <ele>64.2</ele>
        <time>2018-04-30T09:03:55Z</time>
      </trkpt>
      <trkpt lat="62.632211096273" lon="17.801703184368">
        <ele>64.4</ele>
        <time>2018-04-30T09:03:56Z</time>
      </trkpt>
      <trkpt lat="62.632203384925" lon="17.801620538834">
        <ele>64.6</ele>
        <time>2018-04-30T09:03:57Z</time>
      </trkpt>
      <trkpt lat="62.6321970985" lon="17.801530517228">
        <ele>64.8</ele>
        <time>2018-04-30T09:03:58Z</time>
      </trkpt>
      <trkpt lat="62.632193494283" lon="17.801442674916">
        <ele>64.8</ele>
        <time>2018-04-30T09:03:59Z</time>
      </trkpt>
      <trkpt lat="62.632190057704" lon="17.801355754613">
        <ele>65</ele>
        <time>2018-04-30T09:04:00Z</time>
      </trkpt>
      <trkpt lat="62.632183603641" lon="17.801274114907">
        <ele>65.2</ele>
        <time>2018-04-30T09:04:01Z</time>
      </trkpt>
      <trkpt lat="62.632177065759" lon="17.80117495703">
        <ele>65.2</ele>
        <time>2018-04-30T09:04:02Z</time>
      </trkpt>
      <trkpt lat="62.6321719528" lon="17.801089042555">
        <ele>65.4</ele>
        <time>2018-04-30T09:04:03Z</time>
      </trkpt>
      <trkpt lat="62.632167594212" lon="17.800990219954">
        <ele>65.2</ele>
        <time>2018-04-30T09:04:04Z</time>
      </trkpt>
      <trkpt lat="62.632162900348" lon="17.800894331018">
        <ele>65.4</ele>
        <time>2018-04-30T09:04:05Z</time>
      </trkpt>
      <trkpt lat="62.632158709398" lon="17.800803722679">
        <ele>65.4</ele>
        <time>2018-04-30T09:04:06Z</time>
      </trkpt>
      <trkpt lat="62.632154937543" lon="17.800707079372">
        <ele>65.6</ele>
        <time>2018-04-30T09:04:07Z</time>
      </trkpt>
      <trkpt lat="62.63215099805" lon="17.800603059993">
        <ele>65.6</ele>
        <time>2018-04-30T09:04:08Z</time>
      </trkpt>
      <trkpt lat="62.632146052729" lon="17.800509685627">
        <ele>65.8</ele>
        <time>2018-04-30T09:04:09Z</time>
      </trkpt>
      <trkpt lat="62.632139431028" lon="17.800403403135">
        <ele>65.8</ele>
        <time>2018-04-30T09:04:10Z</time>
      </trkpt>
      <trkpt lat="62.632135575354" lon="17.800308017113">
        <ele>65.8</ele>
        <time>2018-04-30T09:04:11Z</time>
      </trkpt>
      <trkpt lat="62.632132306413" lon="17.800199890603">
        <ele>65.8</ele>
        <time>2018-04-30T09:04:12Z</time>
      </trkpt>
      <trkpt lat="62.632129121291" lon="17.800100229812">
        <ele>65.8</ele>
        <time>2018-04-30T09:04:13Z</time>
      </trkpt>
      <trkpt lat="62.632125349436" lon="17.799996797166">
        <ele>66</ele>
        <time>2018-04-30T09:04:14Z</time>
      </trkpt>
      <trkpt lat="62.632121996676" lon="17.799899148031">
        <ele>66</ele>
        <time>2018-04-30T09:04:15Z</time>
      </trkpt>
      <trkpt lat="62.632118057183" lon="17.799793955186">
        <ele>66</ele>
        <time>2018-04-30T09:04:16Z</time>
      </trkpt>
      <trkpt lat="62.63211411769" lon="17.799684152296">
        <ele>65.8</ele>
        <time>2018-04-30T09:04:17Z</time>
      </trkpt>
      <trkpt lat="62.632110429654" lon="17.799577031614">
        <ele>65.8</ele>
        <time>2018-04-30T09:04:18Z</time>
      </trkpt>
      <trkpt lat="62.632106825437" lon="17.799468150733">
        <ele>65.8</ele>
        <time>2018-04-30T09:04:19Z</time>
      </trkpt>
      <trkpt lat="62.632101963935" lon="17.799360610956">
        <ele>65.6</ele>
        <time>2018-04-30T09:04:20Z</time>
      </trkpt>
      <trkpt lat="62.632096767157" lon="17.799257513586">
        <ele>65.6</ele>
        <time>2018-04-30T09:04:21Z</time>
      </trkpt>
      <trkpt lat="62.632090899827" lon="17.799148884162">
        <ele>65.6</ele>
        <time>2018-04-30T09:04:22Z</time>
      </trkpt>
      <trkpt lat="62.632084194307" lon="17.799025334956">
        <ele>65.4</ele>
        <time>2018-04-30T09:04:23Z</time>
      </trkpt>
      <trkpt lat="62.632077404968" lon="17.798908323632">
        <ele>65.4</ele>
        <time>2018-04-30T09:04:24Z</time>
      </trkpt>
      <trkpt lat="62.632070867086" lon="17.79879198286">
        <ele>65.4</ele>
        <time>2018-04-30T09:04:25Z</time>
      </trkpt>
      <trkpt lat="62.632064077747" lon="17.798680838866">
        <ele>65.6</ele>
        <time>2018-04-30T09:04:26Z</time>
      </trkpt>
      <trkpt lat="62.632055863485" lon="17.798561899705">
        <ele>65.6</ele>
        <time>2018-04-30T09:04:27Z</time>
      </trkpt>
      <trkpt lat="62.632046559576" lon="17.798432566988">
        <ele>65.4</ele>
        <time>2018-04-30T09:04:28Z</time>
      </trkpt>
      <trkpt lat="62.632037590943" lon="17.798309353058">
        <ele>65.4</ele>
        <time>2018-04-30T09:04:29Z</time>
      </trkpt>
      <trkpt lat="62.632027616482" lon="17.798185217119">
        <ele>65.2</ele>
        <time>2018-04-30T09:04:30Z</time>
      </trkpt>
      <trkpt lat="62.632016468555" lon="17.798065104492">
        <ele>64.8</ele>
        <time>2018-04-30T09:04:31Z</time>
      </trkpt>
      <trkpt lat="62.632002973696" lon="17.797930574997">
        <ele>64.8</ele>
        <time>2018-04-30T09:04:32Z</time>
      </trkpt>
      <trkpt lat="62.631989059742" lon="17.797807528705">
        <ele>64.6</ele>
        <time>2018-04-30T09:04:33Z</time>
      </trkpt>
      <trkpt lat="62.631972966494" lon="17.797665623138">
        <ele>64.6</ele>
        <time>2018-04-30T09:04:34Z</time>
      </trkpt>
      <trkpt lat="62.631956873246" lon="17.797531512738">
        <ele>64.4</ele>
        <time>2018-04-30T09:04:35Z</time>
      </trkpt>
      <trkpt lat="62.631940109446" lon="17.79740645479">
        <ele>64.4</ele>
        <time>2018-04-30T09:04:36Z</time>
      </trkpt>
      <trkpt lat="62.631920663438" lon="17.797267399069">
        <ele>64.2</ele>
        <time>2018-04-30T09:04:37Z</time>
      </trkpt>
      <trkpt lat="62.63190037924" lon="17.797120883457">
        <ele>64.2</ele>
        <time>2018-04-30T09:04:38Z</time>
      </trkpt>
      <trkpt lat="62.631881436146" lon="17.796989371446">
        <ele>64</ele>
        <time>2018-04-30T09:04:39Z</time>
      </trkpt>
      <trkpt lat="62.631859056473" lon="17.796849980449">
        <ele>64</ele>
        <time>2018-04-30T09:04:40Z</time>
      </trkpt>
      <trkpt lat="62.63183751499" lon="17.796725173958">
        <ele>63.8</ele>
        <time>2018-04-30T09:04:41Z</time>
      </trkpt>
      <trkpt lat="62.631812117833" lon="17.7965841904">
        <ele>63.8</ele>
        <time>2018-04-30T09:04:42Z</time>
      </trkpt>
      <trkpt lat="62.631786720676" lon="17.796452510751">
        <ele>63.8</ele>
        <time>2018-04-30T09:04:43Z</time>
      </trkpt>
      <trkpt lat="62.631761323519" lon="17.796323010396">
        <ele>63.6</ele>
        <time>2018-04-30T09:04:44Z</time>
      </trkpt>
      <trkpt lat="62.631737602742" lon="17.796204406511">
        <ele>63.6</ele>
        <time>2018-04-30T09:04:45Z</time>
      </trkpt>
      <trkpt lat="62.631711199757" lon="17.796076917812">
        <ele>63.6</ele>
        <time>2018-04-30T09:04:46Z</time>
      </trkpt>
      <trkpt lat="62.631682868935" lon="17.795943477964">
        <ele>63.4</ele>
        <time>2018-04-30T09:04:47Z</time>
      </trkpt>
      <trkpt lat="62.631656298312" lon="17.795820934586">
        <ele>63.4</ele>
        <time>2018-04-30T09:04:48Z</time>
      </trkpt>
      <trkpt lat="62.631630733517" lon="17.795707695117">
        <ele>63.4</ele>
        <time>2018-04-30T09:04:49Z</time>
      </trkpt>
      <trkpt lat="62.631602318876" lon="17.7955867443">
        <ele>63.6</ele>
        <time>2018-04-30T09:04:50Z</time>
      </trkpt>
      <trkpt lat="62.631577592271" lon="17.795481886731">
        <ele>63.6</ele>
        <time>2018-04-30T09:04:51Z</time>
      </trkpt>
      <trkpt lat="62.631548590897" lon="17.795359846267">
        <ele>63.6</ele>
        <time>2018-04-30T09:04:52Z</time>
      </trkpt>
      <trkpt lat="62.631519338066" lon="17.795240404192">
        <ele>63.6</ele>
        <time>2018-04-30T09:04:53Z</time>
      </trkpt>
      <trkpt lat="62.631491929253" lon="17.795127332361">
        <ele>63.8</ele>
        <time>2018-04-30T09:04:54Z</time>
      </trkpt>
      <trkpt lat="62.631466364458" lon="17.79501593691">
        <ele>64</ele>
        <time>2018-04-30T09:04:55Z</time>
      </trkpt>
      <trkpt lat="62.631442643681" lon="17.794913845368">
        <ele>64.2</ele>
        <time>2018-04-30T09:04:56Z</time>
      </trkpt>
      <trkpt lat="62.631417246524" lon="17.794807059962">
        <ele>64.4</ele>
        <time>2018-04-30T09:04:57Z</time>
      </trkpt>
      <trkpt lat="62.631389502435" lon="17.794696251244">
        <ele>64.6</ele>
        <time>2018-04-30T09:04:58Z</time>
      </trkpt>
      <trkpt lat="62.631364356735" lon="17.794595416987">
        <ele>64.6</ele>
        <time>2018-04-30T09:04:59Z</time>
      </trkpt>
      <trkpt lat="62.631340552139" lon="17.794495504739">
        <ele>64.6</ele>
        <time>2018-04-30T09:05:00Z</time>
      </trkpt>
      <trkpt lat="62.631318172466" lon="17.794402717106">
        <ele>64.8</ele>
        <time>2018-04-30T09:05:01Z</time>
      </trkpt>
      <trkpt lat="62.631293110585" lon="17.794302972496">
        <ele>64.8</ele>
        <time>2018-04-30T09:05:02Z</time>
      </trkpt>
      <trkpt lat="62.631270479455" lon="17.794216387469">
        <ele>64.8</ele>
        <time>2018-04-30T09:05:03Z</time>
      </trkpt>
      <trkpt lat="62.631246926316" lon="17.794119660343">
        <ele>64.8</ele>
        <time>2018-04-30T09:05:04Z</time>
      </trkpt>
      <trkpt lat="62.631226809756" lon="17.794027878538">
        <ele>65</ele>
        <time>2018-04-30T09:05:05Z</time>
      </trkpt>
      <trkpt lat="62.631208118119" lon="17.793941125873">
        <ele>65</ele>
        <time>2018-04-30T09:05:06Z</time>
      </trkpt>
      <trkpt lat="62.631188085378" lon="17.793857139235">
        <ele>65.2</ele>
        <time>2018-04-30T09:05:07Z</time>
      </trkpt>
      <trkpt lat="62.631166543895" lon="17.793767117629">
        <ele>65.2</ele>
        <time>2018-04-30T09:05:08Z</time>
      </trkpt>
      <trkpt lat="62.631148187534" lon="17.793688495407">
        <ele>65.6</ele>
        <time>2018-04-30T09:05:09Z</time>
      </trkpt>
      <trkpt lat="62.631127903336" lon="17.793602413294">
        <ele>65.8</ele>
        <time>2018-04-30T09:05:10Z</time>
      </trkpt>
      <trkpt lat="62.631110133708" lon="17.793526138004">
        <ele>66.2</ele>
        <time>2018-04-30T09:05:11Z</time>
      </trkpt>
      <trkpt lat="62.631090436243" lon="17.793445252669">
        <ele>66.4</ele>
        <time>2018-04-30T09:05:12Z</time>
      </trkpt>
      <trkpt lat="62.631071828425" lon="17.7933655408">
        <ele>66.8</ele>
        <time>2018-04-30T09:05:13Z</time>
      </trkpt>
      <trkpt lat="62.631053891159" lon="17.793285326017">
        <ele>67</ele>
        <time>2018-04-30T09:05:14Z</time>
      </trkpt>
      <trkpt lat="62.631037714092" lon="17.793208547813">
        <ele>67.2</ele>
        <time>2018-04-30T09:05:15Z</time>
      </trkpt>
      <trkpt lat="62.631019525369" lon="17.79312162751">
        <ele>67.4</ele>
        <time>2018-04-30T09:05:16Z</time>
      </trkpt>
      <trkpt lat="62.630999744085" lon="17.79303529394">
        <ele>67.4</ele>
        <time>2018-04-30T09:05:17Z</time>
      </trkpt>
      <trkpt lat="62.630981890638" lon="17.792954660062">
        <ele>67.6</ele>
        <time>2018-04-30T09:05:18Z</time>
      </trkpt>
      <trkpt lat="62.630965294476" lon="17.792873607089">
        <ele>67.4</ele>
        <time>2018-04-30T09:05:19Z</time>
      </trkpt>
      <trkpt lat="62.630950207056" lon="17.792793224668">
        <ele>67.4</ele>
        <time>2018-04-30T09:05:20Z</time>
      </trkpt>
      <trkpt lat="62.630936544559" lon="17.792721475604">
        <ele>67.2</ele>
        <time>2018-04-30T09:05:21Z</time>
      </trkpt>
      <trkpt lat="62.630920954225" lon="17.792636064043">
        <ele>67.4</ele>
        <time>2018-04-30T09:05:22Z</time>
      </trkpt>
      <trkpt lat="62.630905699167" lon="17.792546964446">
        <ele>67.4</ele>
        <time>2018-04-30T09:05:23Z</time>
      </trkpt>
      <trkpt lat="62.630891701394" lon="17.792462391075">
        <ele>67.6</ele>
        <time>2018-04-30T09:05:24Z</time>
      </trkpt>
      <trkpt lat="62.630877535983" lon="17.792377482428">
        <ele>67.8</ele>
        <time>2018-04-30T09:05:25Z</time>
      </trkpt>
      <trkpt lat="62.630864041124" lon="17.79229349579">
        <ele>68</ele>
        <time>2018-04-30T09:05:26Z</time>
      </trkpt>
      <trkpt lat="62.630850462446" lon="17.792207665134">
        <ele>68</ele>
        <time>2018-04-30T09:05:27Z</time>
      </trkpt>
      <trkpt lat="62.630836045578" lon="17.792116553881">
        <ele>68.2</ele>
        <time>2018-04-30T09:05:28Z</time>
      </trkpt>
      <trkpt lat="62.63082330509" lon="17.792029214483">
        <ele>68.4</ele>
        <time>2018-04-30T09:05:29Z</time>
      </trkpt>
      <trkpt lat="62.630810816059" lon="17.791943719103">
        <ele>68.4</ele>
        <time>2018-04-30T09:05:30Z</time>
      </trkpt>
      <trkpt lat="62.630796985924" lon="17.79185512242">
        <ele>68.4</ele>
        <time>2018-04-30T09:05:31Z</time>
      </trkpt>
      <trkpt lat="62.630783742522" lon="17.791756216">
        <ele>68.4</ele>
        <time>2018-04-30T09:05:32Z</time>
      </trkpt>
      <trkpt lat="62.630773265147" lon="17.791665942937">
        <ele>68.6</ele>
        <time>2018-04-30T09:05:33Z</time>
      </trkpt>
      <trkpt lat="62.630760692297" lon="17.791567204155">
        <ele>68.6</ele>
        <time>2018-04-30T09:05:34Z</time>
      </trkpt>
      <trkpt lat="62.63074870618" lon="17.791468130097">
        <ele>68.6</ele>
        <time>2018-04-30T09:05:35Z</time>
      </trkpt>
      <trkpt lat="62.630739066995" lon="17.791369056039">
        <ele>68.6</ele>
        <time>2018-04-30T09:05:36Z</time>
      </trkpt>
      <trkpt lat="62.630727919068" lon="17.791267299773">
        <ele>68.6</ele>
        <time>2018-04-30T09:05:37Z</time>
      </trkpt>
      <trkpt lat="62.630714759485" lon="17.791158418892">
        <ele>68.8</ele>
        <time>2018-04-30T09:05:38Z</time>
      </trkpt>
      <trkpt lat="62.630703527739" lon="17.791060937395">
        <ele>68.8</ele>
        <time>2018-04-30T09:05:39Z</time>
      </trkpt>
      <trkpt lat="62.630692463631" lon="17.790949290487">
        <ele>68.8</ele>
        <time>2018-04-30T09:05:40Z</time>
      </trkpt>
      <trkpt lat="62.630684417007" lon="17.790847953316">
        <ele>68.8</ele>
        <time>2018-04-30T09:05:41Z</time>
      </trkpt>
      <trkpt lat="62.630676202745" lon="17.79073697696">
        <ele>68.6</ele>
        <time>2018-04-30T09:05:42Z</time>
      </trkpt>
      <trkpt lat="62.630667737026" lon="17.790629018088">
        <ele>68.6</ele>
        <time>2018-04-30T09:05:43Z</time>
      </trkpt>
      <trkpt lat="62.630659690402" lon="17.79052072394">
        <ele>68.4</ele>
        <time>2018-04-30T09:05:44Z</time>
      </trkpt>
      <trkpt lat="62.630653068701" lon="17.790415363457">
        <ele>68.4</ele>
        <time>2018-04-30T09:05:45Z</time>
      </trkpt>
      <trkpt lat="62.630646279362" lon="17.790303548911">
        <ele>68.4</ele>
        <time>2018-04-30T09:05:46Z</time>
      </trkpt>
      <trkpt lat="62.630641753136" lon="17.790194248935">
        <ele>68.2</ele>
        <time>2018-04-30T09:05:47Z</time>
      </trkpt>
      <trkpt lat="62.630635299073" lon="17.790061982553">
        <ele>68.2</ele>
        <time>2018-04-30T09:05:48Z</time>
      </trkpt>
      <trkpt lat="62.630630689028" lon="17.789949162179">
        <ele>68.2</ele>
        <time>2018-04-30T09:05:49Z</time>
      </trkpt>
      <trkpt lat="62.630625911345" lon="17.78983005538">
        <ele>68.2</ele>
        <time>2018-04-30T09:05:50Z</time>
      </trkpt>
      <trkpt lat="62.630622055671" lon="17.789729053485">
        <ele>68.2</ele>
        <time>2018-04-30T09:05:51Z</time>
      </trkpt>
      <trkpt lat="62.63061711035" lon="17.789606426288">
        <ele>68</ele>
        <time>2018-04-30T09:05:52Z</time>
      </trkpt>
      <trkpt lat="62.630612751762" lon="17.7894847211">
        <ele>67.8</ele>
        <time>2018-04-30T09:05:53Z</time>
      </trkpt>
      <trkpt lat="62.630608057898" lon="17.789369469975">
        <ele>67.8</ele>
        <time>2018-04-30T09:05:54Z</time>
      </trkpt>
      <trkpt lat="62.630602944939" lon="17.789257823067">
        <ele>67.8</ele>
        <time>2018-04-30T09:05:55Z</time>
      </trkpt>
      <trkpt lat="62.630598921627" lon="17.789149696557">
        <ele>67.8</ele>
        <time>2018-04-30T09:05:56Z</time>
      </trkpt>
      <trkpt lat="62.63059364103" lon="17.789036792364">
        <ele>67.6</ele>
        <time>2018-04-30T09:05:57Z</time>
      </trkpt>
      <trkpt lat="62.630588863347" lon="17.788915087176">
        <ele>67.6</ele>
        <time>2018-04-30T09:05:58Z</time>
      </trkpt>
      <trkpt lat="62.630585762044" lon="17.788802685897">
        <ele>67.6</ele>
        <time>2018-04-30T09:05:59Z</time>
      </trkpt>
      <trkpt lat="62.630582912198" lon="17.788688105324">
        <ele>67.4</ele>
        <time>2018-04-30T09:06:00Z</time>
      </trkpt>
      <trkpt lat="62.630579894714" lon="17.788568998525">
        <ele>67.2</ele>
        <time>2018-04-30T09:06:01Z</time>
      </trkpt>
      <trkpt lat="62.630575284669" lon="17.788441509826">
        <ele>67</ele>
        <time>2018-04-30T09:06:02Z</time>
      </trkpt>
      <trkpt lat="62.630571345176" lon="17.788328270357">
        <ele>66.8</ele>
        <time>2018-04-30T09:06:03Z</time>
      </trkpt>
      <trkpt lat="62.630567824778" lon="17.788200949296">
        <ele>66.6</ele>
        <time>2018-04-30T09:06:04Z</time>
      </trkpt>
      <trkpt lat="62.630565394027" lon="17.788081088126">
        <ele>66.6</ele>
        <time>2018-04-30T09:06:05Z</time>
      </trkpt>
      <trkpt lat="62.630562795638" lon="17.787968183933">
        <ele>66.6</ele>
        <time>2018-04-30T09:06:06Z</time>
      </trkpt>
      <trkpt lat="62.630559442878" lon="17.787852346075">
        <ele>66.6</ele>
        <time>2018-04-30T09:06:07Z</time>
      </trkpt>
      <trkpt lat="62.630553575548" lon="17.787727791041">
        <ele>66.4</ele>
        <time>2018-04-30T09:06:08Z</time>
      </trkpt>
      <trkpt lat="62.63054754058" lon="17.787622598196">
        <ele>66.2</ele>
        <time>2018-04-30T09:06:09Z</time>
      </trkpt>
      <trkpt lat="62.630541254155" lon="17.787508017623">
        <ele>66</ele>
        <time>2018-04-30T09:06:10Z</time>
      </trkpt>
      <trkpt lat="62.630538069033" lon="17.787405926081">
        <ele>66</ele>
        <time>2018-04-30T09:06:11Z</time>
      </trkpt>
      <trkpt lat="62.630535973558" lon="17.787300146503">
        <ele>65.8</ele>
        <time>2018-04-30T09:06:12Z</time>
      </trkpt>
      <trkpt lat="62.630535051549" lon="17.787208951431">
        <ele>65.6</ele>
        <time>2018-04-30T09:06:13Z</time>
      </trkpt>
      <trkpt lat="62.630535973558" lon="17.787126641173">
        <ele>65.6</ele>
        <time>2018-04-30T09:06:14Z</time>
      </trkpt>
      <trkpt lat="62.6305374823" lon="17.787054053919">
        <ele>65.6</ele>
        <time>2018-04-30T09:06:15Z</time>
      </trkpt>
      <trkpt lat="62.630538069033" lon="17.786978113905">
        <ele>65.6</ele>
        <time>2018-04-30T09:06:16Z</time>
      </trkpt>
      <trkpt lat="62.630538236671" lon="17.786902090072">
        <ele>65.6</ele>
        <time>2018-04-30T09:06:17Z</time>
      </trkpt>
      <trkpt lat="62.630539493956" lon="17.786842327125">
        <ele>65.8</ele>
        <time>2018-04-30T09:06:18Z</time>
      </trkpt>
      <trkpt lat="62.63054083506" lon="17.786797148684">
        <ele>66</ele>
        <time>2018-04-30T09:06:19Z</time>
      </trkpt>
      <trkpt lat="62.63053915868" lon="17.786768231129">
        <ele>66</ele>
        <time>2018-04-30T09:06:20Z</time>
      </trkpt>
      <trkpt lat="62.630537566119" lon="17.786766051835">
        <ele>66</ele>
        <time>2018-04-30T09:06:21Z</time>
      </trkpt>
      <trkpt lat="62.630538069033" lon="17.786774433735">
        <ele>66.2</ele>
        <time>2018-04-30T09:06:22Z</time>
      </trkpt>
      <trkpt lat="62.630540918879" lon="17.786714922245">
        <ele>66.4</ele>
        <time>2018-04-30T09:06:26Z</time>
      </trkpt>
      <trkpt lat="62.630541757069" lon="17.786712072399">
        <ele>66.6</ele>
        <time>2018-04-30T09:06:27Z</time>
      </trkpt>
      <trkpt lat="62.630542762897" lon="17.786724477611">
        <ele>66.6</ele>
        <time>2018-04-30T09:06:28Z</time>
      </trkpt>
      <trkpt lat="62.630504876709" lon="17.786290881924">
        <ele>65.8</ele>
        <time>2018-04-30T09:09:33Z</time>
      </trkpt>
      <trkpt lat="62.630495405162" lon="17.786205386544">
        <ele>65.6</ele>
        <time>2018-04-30T09:09:34Z</time>
      </trkpt>
      <trkpt lat="62.630487442357" lon="17.786107821228">
        <ele>65.6</ele>
        <time>2018-04-30T09:09:35Z</time>
      </trkpt>
      <trkpt lat="62.630480904475" lon="17.786015536509">
        <ele>65.4</ele>
        <time>2018-04-30T09:09:36Z</time>
      </trkpt>
      <trkpt lat="62.630473444584" lon="17.785909421655">
        <ele>65.4</ele>
        <time>2018-04-30T09:09:37Z</time>
      </trkpt>
      <trkpt lat="62.630464224494" lon="17.785801881878">
        <ele>65.2</ele>
        <time>2018-04-30T09:09:38Z</time>
      </trkpt>
      <trkpt lat="62.630455255861" lon="17.785699538879">
        <ele>65.2</ele>
        <time>2018-04-30T09:09:39Z</time>
      </trkpt>
      <trkpt lat="62.630447293056" lon="17.785585880315">
        <ele>65.2</ele>
        <time>2018-04-30T09:09:40Z</time>
      </trkpt>
      <trkpt lat="62.63044109045" lon="17.785493511777">
        <ele>65.2</ele>
        <time>2018-04-30T09:09:41Z</time>
      </trkpt>
      <trkpt lat="62.63043187036" lon="17.785361413033">
        <ele>65.2</ele>
        <time>2018-04-30T09:09:42Z</time>
      </trkpt>
      <trkpt lat="62.630421895899" lon="17.785248676478">
        <ele>65</ele>
        <time>2018-04-30T09:09:43Z</time>
      </trkpt>
      <trkpt lat="62.630412675809" lon="17.785135688466">
        <ele>65</ele>
        <time>2018-04-30T09:09:44Z</time>
      </trkpt>
      <trkpt lat="62.630403790995" lon="17.785026556128">
        <ele>65</ele>
        <time>2018-04-30T09:09:45Z</time>
      </trkpt>
      <trkpt lat="62.630393984172" lon="17.78491407103">
        <ele>65</ele>
        <time>2018-04-30T09:09:46Z</time>
      </trkpt>
      <trkpt lat="62.630383758254" lon="17.784794628955">
        <ele>65</ele>
        <time>2018-04-30T09:09:47Z</time>
      </trkpt>
      <trkpt lat="62.630374202888" lon="17.7846818924">
        <ele>65</ele>
        <time>2018-04-30T09:09:48Z</time>
      </trkpt>
      <trkpt lat="62.63036565335" lon="17.784579968496">
        <ele>65</ele>
        <time>2018-04-30T09:09:49Z</time>
      </trkpt>
      <trkpt lat="62.630357858183" lon="17.784461699887">
        <ele>65</ele>
        <time>2018-04-30T09:09:50Z</time>
      </trkpt>
      <trkpt lat="62.630350063016" lon="17.784362877286">
        <ele>65</ele>
        <time>2018-04-30T09:09:51Z</time>
      </trkpt>
      <trkpt lat="62.63033799308" lon="17.784243938125">
        <ele>64.8</ele>
        <time>2018-04-30T09:09:52Z</time>
      </trkpt>
      <trkpt lat="62.630328018619" lon="17.784133883778">
        <ele>64.8</ele>
        <time>2018-04-30T09:09:53Z</time>
      </trkpt>
      <trkpt lat="62.630318379434" lon="17.784025924906">
        <ele>64.8</ele>
        <time>2018-04-30T09:09:54Z</time>
      </trkpt>
      <trkpt lat="62.630309243163" lon="17.783920564423">
        <ele>64.8</ele>
        <time>2018-04-30T09:09:55Z</time>
      </trkpt>
      <trkpt lat="62.630301531815" lon="17.783815371578">
        <ele>64.8</ele>
        <time>2018-04-30T09:09:56Z</time>
      </trkpt>
      <trkpt lat="62.630294658657" lon="17.783708250896">
        <ele>65</ele>
        <time>2018-04-30T09:09:57Z</time>
      </trkpt>
      <trkpt lat="62.63028770168" lon="17.783600711119">
        <ele>65</ele>
        <time>2018-04-30T09:09:58Z</time>
      </trkpt>
      <trkpt lat="62.630281079979" lon="17.783491411143">
        <ele>65.2</ele>
        <time>2018-04-30T09:09:59Z</time>
      </trkpt>
      <trkpt lat="62.630272446622" lon="17.783386469755">
        <ele>65.2</ele>
        <time>2018-04-30T09:10:00Z</time>
      </trkpt>
      <trkpt lat="62.630263226532" lon="17.783285132584">
        <ele>65.2</ele>
        <time>2018-04-30T09:10:01Z</time>
      </trkpt>
      <trkpt lat="62.630253671166" lon="17.783175832608">
        <ele>65.4</ele>
        <time>2018-04-30T09:10:02Z</time>
      </trkpt>
      <trkpt lat="62.630245708361" lon="17.783076255636">
        <ele>65.4</ele>
        <time>2018-04-30T09:10:03Z</time>
      </trkpt>
      <trkpt lat="62.630238332289" lon="17.782971565705">
        <ele>65.4</ele>
        <time>2018-04-30T09:10:04Z</time>
      </trkpt>
      <trkpt lat="62.630229615113" lon="17.782858996788">
        <ele>65.6</ele>
        <time>2018-04-30T09:10:05Z</time>
      </trkpt>
      <trkpt lat="62.630220897937" lon="17.782755061228">
        <ele>65.6</ele>
        <time>2018-04-30T09:10:06Z</time>
      </trkpt>
      <trkpt lat="62.630211761666" lon="17.782642240854">
        <ele>65.6</ele>
        <time>2018-04-30T09:10:07Z</time>
      </trkpt>
      <trkpt lat="62.6302022063" lon="17.78253109686">
        <ele>65.6</ele>
        <time>2018-04-30T09:10:08Z</time>
      </trkpt>
      <trkpt lat="62.630193572943" lon="17.782423724721">
        <ele>65.6</ele>
        <time>2018-04-30T09:10:09Z</time>
      </trkpt>
      <trkpt lat="62.630185191043" lon="17.782305875207">
        <ele>65.6</ele>
        <time>2018-04-30T09:10:10Z</time>
      </trkpt>
      <trkpt lat="62.630176306229" lon="17.782196491412">
        <ele>65.6</ele>
        <time>2018-04-30T09:10:11Z</time>
      </trkpt>
      <trkpt lat="62.630166415587" lon="17.782075540595">
        <ele>65.8</ele>
        <time>2018-04-30T09:10:12Z</time>
      </trkpt>
      <trkpt lat="62.630157279316" lon="17.781951572294">
        <ele>65.8</ele>
        <time>2018-04-30T09:10:13Z</time>
      </trkpt>
      <trkpt lat="62.630148897416" lon="17.781827687812">
        <ele>65.8</ele>
        <time>2018-04-30T09:10:14Z</time>
      </trkpt>
      <trkpt lat="62.630139509688" lon="17.781710425031">
        <ele>65.8</ele>
        <time>2018-04-30T09:10:15Z</time>
      </trkpt>
      <trkpt lat="62.630128780856" lon="17.781585953816">
        <ele>65.8</ele>
        <time>2018-04-30T09:10:16Z</time>
      </trkpt>
      <trkpt lat="62.630118052024" lon="17.781451927235">
        <ele>65.8</ele>
        <time>2018-04-30T09:10:17Z</time>
      </trkpt>
      <trkpt lat="62.630110173038" lon="17.781324857631">
        <ele>65.8</ele>
        <time>2018-04-30T09:10:18Z</time>
      </trkpt>
      <trkpt lat="62.630102713147" lon="17.781204074452">
        <ele>65.6</ele>
        <time>2018-04-30T09:10:19Z</time>
      </trkpt>
      <trkpt lat="62.630092822505" lon="17.781064934912">
        <ele>65.6</ele>
        <time>2018-04-30T09:10:20Z</time>
      </trkpt>
      <trkpt lat="62.630083686234" lon="17.780949851425">
        <ele>65.4</ele>
        <time>2018-04-30T09:10:21Z</time>
      </trkpt>
      <trkpt lat="62.630072705945" lon="17.780800485967">
        <ele>65.4</ele>
        <time>2018-04-30T09:10:22Z</time>
      </trkpt>
      <trkpt lat="62.630063402036" lon="17.780664866825">
        <ele>65.2</ele>
        <time>2018-04-30T09:10:23Z</time>
      </trkpt>
      <trkpt lat="62.630052840842" lon="17.780529415321">
        <ele>65.2</ele>
        <time>2018-04-30T09:10:24Z</time>
      </trkpt>
      <trkpt lat="62.630041525277" lon="17.780387509754">
        <ele>65</ele>
        <time>2018-04-30T09:10:25Z</time>
      </trkpt>
      <trkpt lat="62.630031802273" lon="17.780260021055">
        <ele>64.8</ele>
        <time>2018-04-30T09:10:26Z</time>
      </trkpt>
      <trkpt lat="62.630022079269" lon="17.7801305207">
        <ele>64.8</ele>
        <time>2018-04-30T09:10:27Z</time>
      </trkpt>
      <trkpt lat="62.630011601894" lon="17.779976880473">
        <ele>64.6</ele>
        <time>2018-04-30T09:10:28Z</time>
      </trkpt>
      <trkpt lat="62.630002800899" lon="17.779839082037">
        <ele>64.6</ele>
        <time>2018-04-30T09:10:29Z</time>
      </trkpt>
      <trkpt lat="62.629991988248" lon="17.779698936669">
        <ele>64.6</ele>
        <time>2018-04-30T09:10:30Z</time>
      </trkpt>
      <trkpt lat="62.629981091778" lon="17.779559042758">
        <ele>64.4</ele>
        <time>2018-04-30T09:10:31Z</time>
      </trkpt>
      <trkpt lat="62.62997002767" lon="17.779420489951">
        <ele>64.4</ele>
        <time>2018-04-30T09:10:32Z</time>
      </trkpt>
      <trkpt lat="62.62995996939" lon="17.779281769506">
        <ele>64.4</ele>
        <time>2018-04-30T09:10:33Z</time>
      </trkpt>
      <trkpt lat="62.629951000757" lon="17.779148245839">
        <ele>64.2</ele>
        <time>2018-04-30T09:10:34Z</time>
      </trkpt>
      <trkpt lat="62.629941277753" lon="17.77899644963">
        <ele>64</ele>
        <time>2018-04-30T09:10:35Z</time>
      </trkpt>
      <trkpt lat="62.629933482586" lon="17.778862003954">
        <ele>63.8</ele>
        <time>2018-04-30T09:10:36Z</time>
      </trkpt>
      <trkpt lat="62.629925855057" lon="17.778712806134">
        <ele>63.6</ele>
        <time>2018-04-30T09:10:37Z</time>
      </trkpt>
      <trkpt lat="62.629920993555" lon="17.778570565291">
        <ele>63.6</ele>
        <time>2018-04-30T09:10:38Z</time>
      </trkpt>
      <trkpt lat="62.629917640795" lon="17.77843905328">
        <ele>63.6</ele>
        <time>2018-04-30T09:10:39Z</time>
      </trkpt>
      <trkpt lat="62.629913785121" lon="17.778289352546">
        <ele>63.4</ele>
        <time>2018-04-30T09:10:40Z</time>
      </trkpt>
      <trkpt lat="62.629911773465" lon="17.778161947666">
        <ele>63.4</ele>
        <time>2018-04-30T09:10:41Z</time>
      </trkpt>
      <trkpt lat="62.629909929447" lon="17.778013420398">
        <ele>63.6</ele>
        <time>2018-04-30T09:10:42Z</time>
      </trkpt>
      <trkpt lat="62.629909091257" lon="17.777871011917">
        <ele>63.4</ele>
        <time>2018-04-30T09:10:43Z</time>
      </trkpt>
      <trkpt lat="62.629908672162" lon="17.777735560413">
        <ele>63.4</ele>
        <time>2018-04-30T09:10:44Z</time>
      </trkpt>
      <trkpt lat="62.629910013266" lon="17.777604383678">
        <ele>63.2</ele>
        <time>2018-04-30T09:10:45Z</time>
      </trkpt>
      <trkpt lat="62.62991303075" lon="17.777466082328">
        <ele>63.2</ele>
        <time>2018-04-30T09:10:46Z</time>
      </trkpt>
      <trkpt lat="62.629916299691" lon="17.777320321087">
        <ele>63.2</ele>
        <time>2018-04-30T09:10:47Z</time>
      </trkpt>
      <trkpt lat="62.629920406822" lon="17.777187048877">
        <ele>63.2</ele>
        <time>2018-04-30T09:10:48Z</time>
      </trkpt>
      <trkpt lat="62.629924933048" lon="17.777060146911">
        <ele>63.2</ele>
        <time>2018-04-30T09:10:49Z</time>
      </trkpt>
      <trkpt lat="62.629931219473" lon="17.776916397326">
        <ele>63.2</ele>
        <time>2018-04-30T09:10:50Z</time>
      </trkpt>
      <trkpt lat="62.629937422079" lon="17.776795111233">
        <ele>63</ele>
        <time>2018-04-30T09:10:51Z</time>
      </trkpt>
      <trkpt lat="62.629945301065" lon="17.776645075223">
        <ele>63</ele>
        <time>2018-04-30T09:10:52Z</time>
      </trkpt>
      <trkpt lat="62.62995410206" lon="17.776512138289">
        <ele>63</ele>
        <time>2018-04-30T09:10:53Z</time>
      </trkpt>
      <trkpt lat="62.629963154512" lon="17.776381967382">
        <ele>63</ele>
        <time>2018-04-30T09:10:54Z</time>
      </trkpt>
      <trkpt lat="62.629973045154" lon="17.776249868638">
        <ele>62.8</ele>
        <time>2018-04-30T09:10:55Z</time>
      </trkpt>
      <trkpt lat="62.629982684339" lon="17.776127492898">
        <ele>63</ele>
        <time>2018-04-30T09:10:56Z</time>
      </trkpt>
      <trkpt lat="62.629993580809" lon="17.775997238172">
        <ele>63</ele>
        <time>2018-04-30T09:10:57Z</time>
      </trkpt>
      <trkpt lat="62.630006321297" lon="17.775861535211">
        <ele>62.8</ele>
        <time>2018-04-30T09:10:58Z</time>
      </trkpt>
      <trkpt lat="62.630018726509" lon="17.775733878874">
        <ele>62.6</ele>
        <time>2018-04-30T09:10:59Z</time>
      </trkpt>
      <trkpt lat="62.630031802273" lon="17.775605216709">
        <ele>62.6</ele>
        <time>2018-04-30T09:11:00Z</time>
      </trkpt>
      <trkpt lat="62.630045967684" lon="17.775480745494">
        <ele>62.4</ele>
        <time>2018-04-30T09:11:01Z</time>
      </trkpt>
      <trkpt lat="62.630062899122" lon="17.775348898207">
        <ele>62.6</ele>
        <time>2018-04-30T09:11:02Z</time>
      </trkpt>
      <trkpt lat="62.630078824732" lon="17.77522459463">
        <ele>62.6</ele>
        <time>2018-04-30T09:11:03Z</time>
      </trkpt>
      <trkpt lat="62.63009491798" lon="17.775098195578">
        <ele>62.8</ele>
        <time>2018-04-30T09:11:04Z</time>
      </trkpt>
      <trkpt lat="62.630113106703" lon="17.77496140297">
        <ele>62.8</ele>
        <time>2018-04-30T09:11:05Z</time>
      </trkpt>
      <trkpt lat="62.63013096015" lon="17.774844475465">
        <ele>62.8</ele>
        <time>2018-04-30T09:11:06Z</time>
      </trkpt>
      <trkpt lat="62.630150573796" lon="17.774718495508">
        <ele>62.8</ele>
        <time>2018-04-30T09:11:07Z</time>
      </trkpt>
      <trkpt lat="62.630170271261" lon="17.77459762851">
        <ele>62.6</ele>
        <time>2018-04-30T09:11:08Z</time>
      </trkpt>
      <trkpt lat="62.630189214355" lon="17.774477264426">
        <ele>62.6</ele>
        <time>2018-04-30T09:11:09Z</time>
      </trkpt>
      <trkpt lat="62.63021226458" lon="17.774356397428">
        <ele>62.6</ele>
        <time>2018-04-30T09:11:10Z</time>
      </trkpt>
      <trkpt lat="62.630232716416" lon="17.774243409416">
        <ele>62.6</ele>
        <time>2018-04-30T09:11:11Z</time>
      </trkpt>
      <trkpt lat="62.630256437193" lon="17.774112987052">
        <ele>62.4</ele>
        <time>2018-04-30T09:11:12Z</time>
      </trkpt>
      <trkpt lat="62.63028015797" lon="17.773992622968">
        <ele>62.6</ele>
        <time>2018-04-30T09:11:13Z</time>
      </trkpt>
      <trkpt lat="62.630306309498" lon="17.773872175065">
        <ele>62.6</ele>
        <time>2018-04-30T09:11:14Z</time>
      </trkpt>
      <trkpt lat="62.630331203741" lon="17.773756756302">
        <ele>62.6</ele>
        <time>2018-04-30T09:11:15Z</time>
      </trkpt>
      <trkpt lat="62.630355427432" lon="17.773638068598">
        <ele>62.6</ele>
        <time>2018-04-30T09:11:16Z</time>
      </trkpt>
      <trkpt lat="62.630383087702" lon="17.773509909347">
        <ele>62.6</ele>
        <time>2018-04-30T09:11:17Z</time>
      </trkpt>
      <trkpt lat="62.630410747972" lon="17.773388623254">
        <ele>62.6</ele>
        <time>2018-04-30T09:11:18Z</time>
      </trkpt>
      <trkpt lat="62.630437989147" lon="17.773275551423">
        <ele>62.6</ele>
        <time>2018-04-30T09:11:19Z</time>
      </trkpt>
      <trkpt lat="62.630470846195" lon="17.773148984733">
        <ele>62.4</ele>
        <time>2018-04-30T09:11:20Z</time>
      </trkpt>
      <trkpt lat="62.630498757922" lon="17.77304362425">
        <ele>62.6</ele>
        <time>2018-04-30T09:11:21Z</time>
      </trkpt>
      <trkpt lat="62.630533123712" lon="17.77291119023">
        <ele>62.6</ele>
        <time>2018-04-30T09:11:22Z</time>
      </trkpt>
      <trkpt lat="62.630564136742" lon="17.772792837802">
        <ele>62.4</ele>
        <time>2018-04-30T09:11:23Z</time>
      </trkpt>
      <trkpt lat="62.630597161428" lon="17.772678341048">
        <ele>62.6</ele>
        <time>2018-04-30T09:11:24Z</time>
      </trkpt>
      <trkpt lat="62.630631946313" lon="17.772565353036">
        <ele>62.6</ele>
        <time>2018-04-30T09:11:25Z</time>
      </trkpt>
      <trkpt lat="62.630664551904" lon="17.772456220698">
        <ele>62.6</ele>
        <time>2018-04-30T09:11:26Z</time>
      </trkpt>
      <trkpt lat="62.630699001513" lon="17.772344741428">
        <ele>62.4</ele>
        <time>2018-04-30T09:11:27Z</time>
      </trkpt>
      <trkpt lat="62.630737222977" lon="17.772226137543">
        <ele>62.4</ele>
        <time>2018-04-30T09:11:28Z</time>
      </trkpt>
      <trkpt lat="62.630773181328" lon="17.77211658611">
        <ele>62.4</ele>
        <time>2018-04-30T09:11:29Z</time>
      </trkpt>
      <trkpt lat="62.630811318973" lon="17.772008794876">
        <ele>62.4</ele>
        <time>2018-04-30T09:11:30Z</time>
      </trkpt>
      <trkpt lat="62.630847864057" lon="17.77191039137">
        <ele>62.2</ele>
        <time>2018-04-30T09:11:31Z</time>
      </trkpt>
      <trkpt lat="62.630889438281" lon="17.771799834109">
        <ele>62.2</ele>
        <time>2018-04-30T09:11:32Z</time>
      </trkpt>
      <trkpt lat="62.630926486279" lon="17.771701095327">
        <ele>62</ele>
        <time>2018-04-30T09:11:33Z</time>
      </trkpt>
      <trkpt lat="62.630965462114" lon="17.771596740672">
        <ele>62</ele>
        <time>2018-04-30T09:11:34Z</time>
      </trkpt>
      <trkpt lat="62.631007455433" lon="17.771488195067">
        <ele>62</ele>
        <time>2018-04-30T09:11:35Z</time>
      </trkpt>
      <trkpt lat="62.631046179811" lon="17.771393814873">
        <ele>61.8</ele>
        <time>2018-04-30T09:11:36Z</time>
      </trkpt>
      <trkpt lat="62.631089514234" lon="17.771291052779">
        <ele>61.8</ele>
        <time>2018-04-30T09:11:37Z</time>
      </trkpt>
      <trkpt lat="62.631131507553" lon="17.771194828567">
        <ele>61.8</ele>
        <time>2018-04-30T09:11:38Z</time>
      </trkpt>
      <trkpt lat="62.631170734845" lon="17.771105980427">
        <ele>62</ele>
        <time>2018-04-30T09:11:39Z</time>
      </trkpt>
      <trkpt lat="62.631212392888" lon="17.771010259129">
        <ele>62</ele>
        <time>2018-04-30T09:11:40Z</time>
      </trkpt>
      <trkpt lat="62.631249440886" lon="17.770923338826">
        <ele>62</ele>
        <time>2018-04-30T09:11:41Z</time>
      </trkpt>
      <trkpt lat="62.631290093101" lon="17.770828120442">
        <ele>62.2</ele>
        <time>2018-04-30T09:11:42Z</time>
      </trkpt>
      <trkpt lat="62.631328985117" lon="17.770741032501">
        <ele>62.2</ele>
        <time>2018-04-30T09:11:43Z</time>
      </trkpt>
      <trkpt lat="62.631368380047" lon="17.770659476614">
        <ele>62.2</ele>
        <time>2018-04-30T09:11:44Z</time>
      </trkpt>
      <trkpt lat="62.631405428045" lon="17.770584290971">
        <ele>62.4</ele>
        <time>2018-04-30T09:11:45Z</time>
      </trkpt>
      <trkpt lat="62.631444320061" lon="17.770503405636">
        <ele>62.6</ele>
        <time>2018-04-30T09:11:46Z</time>
      </trkpt>
      <trkpt lat="62.631483463534" lon="17.770416904428">
        <ele>62.8</ele>
        <time>2018-04-30T09:11:47Z</time>
      </trkpt>
      <trkpt lat="62.631521182084" lon="17.77033627055">
        <ele>63</ele>
        <time>2018-04-30T09:11:48Z</time>
      </trkpt>
      <trkpt lat="62.631556888978" lon="17.770263012744">
        <ele>63.2</ele>
        <time>2018-04-30T09:11:49Z</time>
      </trkpt>
      <trkpt lat="62.631596535365" lon="17.770179277563">
        <ele>63.2</ele>
        <time>2018-04-30T09:11:50Z</time>
      </trkpt>
      <trkpt lat="62.631628889499" lon="17.77011079744">
        <ele>63.2</ele>
        <time>2018-04-30T09:11:51Z</time>
      </trkpt>
      <trkpt lat="62.631669709352" lon="17.77002278749">
        <ele>63.2</ele>
        <time>2018-04-30T09:11:52Z</time>
      </trkpt>
      <trkpt lat="62.631708098454" lon="17.769943410897">
        <ele>63.4</ele>
        <time>2018-04-30T09:11:53Z</time>
      </trkpt>
      <trkpt lat="62.631746571375" lon="17.769863363752">
        <ele>63.4</ele>
        <time>2018-04-30T09:11:54Z</time>
      </trkpt>
      <trkpt lat="62.631783619373" lon="17.769784490073">
        <ele>63.4</ele>
        <time>2018-04-30T09:11:55Z</time>
      </trkpt>
      <trkpt lat="62.631818571896" lon="17.769709807344">
        <ele>63.8</ele>
        <time>2018-04-30T09:11:56Z</time>
      </trkpt>
      <trkpt lat="62.631855200799" lon="17.769630346932">
        <ele>63.8</ele>
        <time>2018-04-30T09:11:57Z</time>
      </trkpt>
      <trkpt lat="62.631894763367" lon="17.769546863208">
        <ele>63.8</ele>
        <time>2018-04-30T09:11:58Z</time>
      </trkpt>
      <trkpt lat="62.631932733374" lon="17.769468073348">
        <ele>64</ele>
        <time>2018-04-30T09:11:59Z</time>
      </trkpt>
      <trkpt lat="62.631970368105" lon="17.769389786402">
        <ele>64</ele>
        <time>2018-04-30T09:12:00Z</time>
      </trkpt>
      <trkpt lat="62.632004733895" lon="17.76931619332">
        <ele>64</ele>
        <time>2018-04-30T09:12:01Z</time>
      </trkpt>
      <trkpt lat="62.632042620083" lon="17.769234721252">
        <ele>64.2</ele>
        <time>2018-04-30T09:12:02Z</time>
      </trkpt>
      <trkpt lat="62.63207639914" lon="17.769160876713">
        <ele>64.4</ele>
        <time>2018-04-30T09:12:03Z</time>
      </trkpt>
      <trkpt lat="62.632111770758" lon="17.7690831765">
        <ele>64.6</ele>
        <time>2018-04-30T09:12:04Z</time>
      </trkpt>
      <trkpt lat="62.632149489308" lon="17.769002374984">
        <ele>64.8</ele>
        <time>2018-04-30T09:12:05Z</time>
      </trkpt>
      <trkpt lat="62.632181843442" lon="17.768931296472">
        <ele>64.8</ele>
        <time>2018-04-30T09:12:06Z</time>
      </trkpt>
      <trkpt lat="62.632217298879" lon="17.768850327318">
        <ele>64.8</ele>
        <time>2018-04-30T09:12:07Z</time>
      </trkpt>
      <trkpt lat="62.632250575022" lon="17.768773632933">
        <ele>64.8</ele>
        <time>2018-04-30T09:12:08Z</time>
      </trkpt>
      <trkpt lat="62.632282677699" lon="17.768703727887">
        <ele>64.8</ele>
        <time>2018-04-30T09:12:09Z</time>
      </trkpt>
      <trkpt lat="62.632319222783" lon="17.768627452597">
        <ele>65</ele>
        <time>2018-04-30T09:12:10Z</time>
      </trkpt>
      <trkpt lat="62.632351744555" lon="17.768558888655">
        <ele>65</ele>
        <time>2018-04-30T09:12:11Z</time>
      </trkpt>
      <trkpt lat="62.632387786725" lon="17.768484205926">
        <ele>65.2</ele>
        <time>2018-04-30T09:12:12Z</time>
      </trkpt>
      <trkpt lat="62.632423074524" lon="17.768412289224">
        <ele>65.2</ele>
        <time>2018-04-30T09:12:13Z</time>
      </trkpt>
      <trkpt lat="62.632456853581" lon="17.768338277047">
        <ele>65.4</ele>
        <time>2018-04-30T09:12:14Z</time>
      </trkpt>
      <trkpt lat="62.632488369525" lon="17.768267869087">
        <ele>65.4</ele>
        <time>2018-04-30T09:12:15Z</time>
      </trkpt>
      <trkpt lat="62.63252315441" lon="17.768192515806">
        <ele>65.4</ele>
        <time>2018-04-30T09:12:16Z</time>
      </trkpt>
      <trkpt lat="62.632559028942" lon="17.768113809765">
        <ele>65.6</ele>
        <time>2018-04-30T09:12:17Z</time>
      </trkpt>
      <trkpt lat="62.632592137447" lon="17.768036109552">
        <ele>65.6</ele>
        <time>2018-04-30T09:12:18Z</time>
      </trkpt>
      <trkpt lat="62.632623150477" lon="17.767961091547">
        <ele>65.6</ele>
        <time>2018-04-30T09:12:19Z</time>
      </trkpt>
      <trkpt lat="62.632660030837" lon="17.767879954755">
        <ele>65.6</ele>
        <time>2018-04-30T09:12:20Z</time>
      </trkpt>
      <trkpt lat="62.632690960048" lon="17.767810887899">
        <ele>65.8</ele>
        <time>2018-04-30T09:12:21Z</time>
      </trkpt>
      <trkpt lat="62.632729516788" lon="17.76772111775">
        <ele>66.2</ele>
        <time>2018-04-30T09:12:22Z</time>
      </trkpt>
      <trkpt lat="62.632765223682" lon="17.767637885483">
        <ele>66.2</ele>
        <time>2018-04-30T09:12:23Z</time>
      </trkpt>
      <trkpt lat="62.632799086558" lon="17.767558257433">
        <ele>66.4</ele>
        <time>2018-04-30T09:12:24Z</time>
      </trkpt>
      <trkpt lat="62.632833787624" lon="17.767470918035">
        <ele>66.6</ele>
        <time>2018-04-30T09:12:25Z</time>
      </trkpt>
      <trkpt lat="62.632864549197" lon="17.767392882546">
        <ele>66.8</ele>
        <time>2018-04-30T09:12:26Z</time>
      </trkpt>
      <trkpt lat="62.63289782534" lon="17.767308560632">
        <ele>66.8</ele>
        <time>2018-04-30T09:12:27Z</time>
      </trkpt>
      <trkpt lat="62.632933196958" lon="17.767216946465">
        <ele>66.8</ele>
        <time>2018-04-30T09:12:28Z</time>
      </trkpt>
      <trkpt lat="62.632967143653" lon="17.767129271791">
        <ele>66.8</ele>
        <time>2018-04-30T09:12:29Z</time>
      </trkpt>
      <trkpt lat="62.633001341805" lon="17.767042519126">
        <ele>66.8</ele>
        <time>2018-04-30T09:12:30Z</time>
      </trkpt>
      <trkpt lat="62.633034115034" lon="17.766958616307">
        <ele>66.8</ele>
        <time>2018-04-30T09:12:31Z</time>
      </trkpt>
      <trkpt lat="62.63306965429" lon="17.766866331588">
        <ele>66.8</ele>
        <time>2018-04-30T09:12:32Z</time>
      </trkpt>
      <trkpt lat="62.633102092243" lon="17.766782764045">
        <ele>66.8</ele>
        <time>2018-04-30T09:12:33Z</time>
      </trkpt>
      <trkpt lat="62.633135368386" lon="17.766691485154">
        <ele>66.8</ele>
        <time>2018-04-30T09:12:34Z</time>
      </trkpt>
      <trkpt lat="62.633171326737" lon="17.766592159639">
        <ele>66.8</ele>
        <time>2018-04-30T09:12:35Z</time>
      </trkpt>
      <trkpt lat="62.633204435242" lon="17.766503898232">
        <ele>66.6</ele>
        <time>2018-04-30T09:12:36Z</time>
      </trkpt>
      <trkpt lat="62.633241650878" lon="17.76640599764">
        <ele>66.6</ele>
        <time>2018-04-30T09:12:37Z</time>
      </trkpt>
      <trkpt lat="62.633276268125" lon="17.766311533627">
        <ele>66.8</ele>
        <time>2018-04-30T09:12:38Z</time>
      </trkpt>
      <trkpt lat="62.633308286983" lon="17.766220925288">
        <ele>66.6</ele>
        <time>2018-04-30T09:12:39Z</time>
      </trkpt>
      <trkpt lat="62.633343574782" lon="17.766116738271">
        <ele>66.8</ele>
        <time>2018-04-30T09:12:40Z</time>
      </trkpt>
      <trkpt lat="62.63337643183" lon="17.766018083308">
        <ele>66.8</ele>
        <time>2018-04-30T09:12:41Z</time>
      </trkpt>
      <trkpt lat="62.633411132896" lon="17.76592068563">
        <ele>67</ele>
        <time>2018-04-30T09:12:42Z</time>
      </trkpt>
      <trkpt lat="62.633444660496" lon="17.765819599916">
        <ele>67.4</ele>
        <time>2018-04-30T09:12:43Z</time>
      </trkpt>
      <trkpt lat="62.633478355734" lon="17.765719100935">
        <ele>67.4</ele>
        <time>2018-04-30T09:12:44Z</time>
      </trkpt>
      <trkpt lat="62.633511128963" lon="17.765622625266">
        <ele>67.4</ele>
        <time>2018-04-30T09:12:45Z</time>
      </trkpt>
      <trkpt lat="62.633546081486" lon="17.765521455733">
        <ele>67.4</ele>
        <time>2018-04-30T09:12:46Z</time>
      </trkpt>
      <trkpt lat="62.633582878027" lon="17.765413413042">
        <ele>67.2</ele>
        <time>2018-04-30T09:12:47Z</time>
      </trkpt>
      <trkpt lat="62.633616740903" lon="17.765308555473">
        <ele>67</ele>
        <time>2018-04-30T09:12:48Z</time>
      </trkpt>
      <trkpt lat="62.633648256847" lon="17.765206715388">
        <ele>67</ele>
        <time>2018-04-30T09:12:49Z</time>
      </trkpt>
      <trkpt lat="62.63368404756" lon="17.765089704064">
        <ele>66.8</ele>
        <time>2018-04-30T09:12:50Z</time>
      </trkpt>
      <trkpt lat="62.633714306219" lon="17.764992306386">
        <ele>66.6</ele>
        <time>2018-04-30T09:12:51Z</time>
      </trkpt>
      <trkpt lat="62.63375277914" lon="17.76486540442">
        <ele>66.4</ele>
        <time>2018-04-30T09:12:52Z</time>
      </trkpt>
      <trkpt lat="62.633788066939" lon="17.764752164951">
        <ele>66.4</ele>
        <time>2018-04-30T09:12:53Z</time>
      </trkpt>
      <trkpt lat="62.633822935643" lon="17.764637835835">
        <ele>66.2</ele>
        <time>2018-04-30T09:12:54Z</time>
      </trkpt>
      <trkpt lat="62.633857385252" lon="17.764521997977">
        <ele>66.2</ele>
        <time>2018-04-30T09:12:55Z</time>
      </trkpt>
      <trkpt lat="62.63388940411" lon="17.764409261422">
        <ele>66</ele>
        <time>2018-04-30T09:12:56Z</time>
      </trkpt>
      <trkpt lat="62.633923350805" lon="17.764288310605">
        <ele>65.8</ele>
        <time>2018-04-30T09:12:57Z</time>
      </trkpt>
      <trkpt lat="62.633959644432" lon="17.764158558793">
        <ele>65.8</ele>
        <time>2018-04-30T09:12:58Z</time>
      </trkpt>
      <trkpt lat="62.633993758765" lon="17.764032830293">
        <ele>65.6</ele>
        <time>2018-04-30T09:12:59Z</time>
      </trkpt>
      <trkpt lat="62.634028627469" lon="17.763907101793">
        <ele>65.6</ele>
        <time>2018-04-30T09:13:00Z</time>
      </trkpt>
      <trkpt lat="62.634061735974" lon="17.7637858157">
        <ele>65.6</ele>
        <time>2018-04-30T09:13:01Z</time>
      </trkpt>
      <trkpt lat="62.634100711809" lon="17.763643910133">
        <ele>65.6</ele>
        <time>2018-04-30T09:13:02Z</time>
      </trkpt>
      <trkpt lat="62.634134323228" lon="17.763519187461">
        <ele>65.4</ele>
        <time>2018-04-30T09:13:03Z</time>
      </trkpt>
      <trkpt lat="62.634168605199" lon="17.763392536952">
        <ele>65</ele>
        <time>2018-04-30T09:13:04Z</time>
      </trkpt>
      <trkpt lat="62.634208251586" lon="17.763243590589">
        <ele>64.4</ele>
        <time>2018-04-30T09:13:05Z</time>
      </trkpt>
      <trkpt lat="62.6342422821" lon="17.763111743302">
        <ele>64</ele>
        <time>2018-04-30T09:13:06Z</time>
      </trkpt>
      <trkpt lat="62.634281090297" lon="17.76296187493">
        <ele>63.8</ele>
        <time>2018-04-30T09:13:07Z</time>
      </trkpt>
      <trkpt lat="62.634318222114" lon="17.762816532784">
        <ele>63.4</ele>
        <time>2018-04-30T09:13:08Z</time>
      </trkpt>
      <trkpt lat="62.634352671723" lon="17.762679069624">
        <ele>63.2</ele>
        <time>2018-04-30T09:13:09Z</time>
      </trkpt>
      <trkpt lat="62.634392904843" lon="17.762524255931">
        <ele>62.6</ele>
        <time>2018-04-30T09:13:10Z</time>
      </trkpt>
      <trkpt lat="62.63443003666" lon="17.762388469151">
        <ele>62.2</ele>
        <time>2018-04-30T09:13:11Z</time>
      </trkpt>
      <trkpt lat="62.634471024151" lon="17.762235248019">
        <ele>61.8</ele>
        <time>2018-04-30T09:13:12Z</time>
      </trkpt>
      <trkpt lat="62.634509999986" lon="17.762084792914">
        <ele>61.8</ele>
        <time>2018-04-30T09:13:13Z</time>
      </trkpt>
      <trkpt lat="62.63454822145" lon="17.761932996705">
        <ele>61.6</ele>
        <time>2018-04-30T09:13:14Z</time>
      </trkpt>
      <trkpt lat="62.634584515077" lon="17.761786481093">
        <ele>61.6</ele>
        <time>2018-04-30T09:13:15Z</time>
      </trkpt>
      <trkpt lat="62.63462449674" lon="17.761627141174">
        <ele>61.4</ele>
        <time>2018-04-30T09:13:16Z</time>
      </trkpt>
      <trkpt lat="62.634667663525" lon="17.761461095735">
        <ele>61.2</ele>
        <time>2018-04-30T09:13:17Z</time>
      </trkpt>
      <trkpt lat="62.634707812826" lon="17.761305695309">
        <ele>61.2</ele>
        <time>2018-04-30T09:13:18Z</time>
      </trkpt>
      <trkpt lat="62.634744860824" lon="17.761157335679">
        <ele>60.6</ele>
        <time>2018-04-30T09:13:19Z</time>
      </trkpt>
      <trkpt lat="62.634787021781" lon="17.760988608032">
        <ele>60.2</ele>
        <time>2018-04-30T09:13:20Z</time>
      </trkpt>
      <trkpt lat="62.634821974304" lon="17.760849719949">
        <ele>60</ele>
        <time>2018-04-30T09:13:21Z</time>
      </trkpt>
      <trkpt lat="62.634866985107" lon="17.760673951506">
        <ele>59.4</ele>
        <time>2018-04-30T09:13:22Z</time>
      </trkpt>
      <trkpt lat="62.634907050589" lon="17.760518802537">
        <ele>59</ele>
        <time>2018-04-30T09:13:23Z</time>
      </trkpt>
      <trkpt lat="62.6349463617" lon="17.760364072663">
        <ele>58.4</ele>
        <time>2018-04-30T09:13:24Z</time>
      </trkpt>
      <trkpt lat="62.63498491844" lon="17.760212360273">
        <ele>58</ele>
        <time>2018-04-30T09:13:25Z</time>
      </trkpt>
      <trkpt lat="62.635021631162" lon="17.760071125258">
        <ele>57.6</ele>
        <time>2018-04-30T09:13:26Z</time>
      </trkpt>
      <trkpt lat="62.635059768807" lon="17.759928549139">
        <ele>57.4</ele>
        <time>2018-04-30T09:13:27Z</time>
      </trkpt>
      <trkpt lat="62.635099163737" lon="17.759777926396">
        <ele>57.4</ele>
        <time>2018-04-30T09:13:28Z</time>
      </trkpt>
      <trkpt lat="62.635134200079" lon="17.759639457408">
        <ele>57.2</ele>
        <time>2018-04-30T09:13:29Z</time>
      </trkpt>
      <trkpt lat="62.635168314412" lon="17.759502748619">
        <ele>57.2</ele>
        <time>2018-04-30T09:13:30Z</time>
      </trkpt>
      <trkpt lat="62.635200081813" lon="17.75937609811">
        <ele>57</ele>
        <time>2018-04-30T09:13:31Z</time>
      </trkpt>
      <trkpt lat="62.635234950517" lon="17.759237461484">
        <ele>57</ele>
        <time>2018-04-30T09:13:32Z</time>
      </trkpt>
      <trkpt lat="62.635264538624" lon="17.759116343029">
        <ele>56.8</ele>
        <time>2018-04-30T09:13:33Z</time>
      </trkpt>
      <trkpt lat="62.635296389844" lon="17.758988686692">
        <ele>57</ele>
        <time>2018-04-30T09:13:34Z</time>
      </trkpt>
      <trkpt lat="62.635330923272" lon="17.75885474393">
        <ele>57</ele>
        <time>2018-04-30T09:13:35Z</time>
      </trkpt>
      <trkpt lat="62.635362523035" lon="17.758736894416">
        <ele>57</ele>
        <time>2018-04-30T09:13:36Z</time>
      </trkpt>
      <trkpt lat="62.635397810834" lon="17.758604041301">
        <ele>57</ele>
        <time>2018-04-30T09:13:37Z</time>
      </trkpt>
      <trkpt lat="62.635430416425" lon="17.75847923481">
        <ele>56.8</ele>
        <time>2018-04-30T09:13:38Z</time>
      </trkpt>
      <trkpt lat="62.63546101036" lon="17.758363145495">
        <ele>57.2</ele>
        <time>2018-04-30T09:13:39Z</time>
      </trkpt>
      <trkpt lat="62.635495627607" lon="17.758231382027">
        <ele>57.2</ele>
        <time>2018-04-30T09:13:40Z</time>
      </trkpt>
      <trkpt lat="62.635524293705" lon="17.758116801454">
        <ele>57.2</ele>
        <time>2018-04-30T09:13:41Z</time>
      </trkpt>
      <trkpt lat="62.635556312563" lon="17.757987636375">
        <ele>57.4</ele>
        <time>2018-04-30T09:13:42Z</time>
      </trkpt>
      <trkpt lat="62.635587744688" lon="17.75786567973">
        <ele>57.6</ele>
        <time>2018-04-30T09:13:43Z</time>
      </trkpt>
      <trkpt lat="62.635618506261" lon="17.757745567103">
        <ele>57.6</ele>
        <time>2018-04-30T09:13:44Z</time>
      </trkpt>
      <trkpt lat="62.635646920902" lon="17.7576335011">
        <ele>57.4</ele>
        <time>2018-04-30T09:13:45Z</time>
      </trkpt>
      <trkpt lat="62.635676592828" lon="17.757515148672">
        <ele>57.2</ele>
        <time>2018-04-30T09:13:46Z</time>
      </trkpt>
      <trkpt lat="62.63570827641" lon="17.757392521475">
        <ele>57</ele>
        <time>2018-04-30T09:13:47Z</time>
      </trkpt>
      <trkpt lat="62.635738702707" lon="17.757275929246">
        <ele>56.6</ele>
        <time>2018-04-30T09:13:48Z</time>
      </trkpt>
      <trkpt lat="62.635765105692" lon="17.757165036709">
        <ele>56.2</ele>
        <time>2018-04-30T09:13:49Z</time>
      </trkpt>
      <trkpt lat="62.635794861437" lon="17.757036626001">
        <ele>56</ele>
        <time>2018-04-30T09:13:50Z</time>
      </trkpt>
      <trkpt lat="62.635819839499" lon="17.756931600794">
        <ele>55.8</ele>
        <time>2018-04-30T09:13:51Z</time>
      </trkpt>
      <trkpt lat="62.635851187805" lon="17.756798160946">
        <ele>55.6</ele>
        <time>2018-04-30T09:13:52Z</time>
      </trkpt>
      <trkpt lat="62.635877842247" lon="17.756678132138">
        <ele>55.6</ele>
        <time>2018-04-30T09:13:53Z</time>
      </trkpt>
      <trkpt lat="62.635903909956" lon="17.756556846045">
        <ele>55.6</ele>
        <time>2018-04-30T09:13:54Z</time>
      </trkpt>
      <trkpt lat="62.635929474751" lon="17.756436901056">
        <ele>55.4</ele>
        <time>2018-04-30T09:13:55Z</time>
      </trkpt>
      <trkpt lat="62.635953530804" lon="17.756322991035">
        <ele>55.4</ele>
        <time>2018-04-30T09:13:56Z</time>
      </trkpt>
      <trkpt lat="62.635977586857" lon="17.756202459313">
        <ele>55.2</ele>
        <time>2018-04-30T09:13:57Z</time>
      </trkpt>
      <trkpt lat="62.636001978186" lon="17.756074300062">
        <ele>55.4</ele>
        <time>2018-04-30T09:13:58Z</time>
      </trkpt>
      <trkpt lat="62.636025028411" lon="17.755956702005">
        <ele>55.6</ele>
        <time>2018-04-30T09:13:59Z</time>
      </trkpt>
      <trkpt lat="62.636047156627" lon="17.755841702337">
        <ele>55.6</ele>
        <time>2018-04-30T09:14:00Z</time>
      </trkpt>
      <trkpt lat="62.636066602635" lon="17.75573416256">
        <ele>55.4</ele>
        <time>2018-04-30T09:14:01Z</time>
      </trkpt>
      <trkpt lat="62.636089149946" lon="17.755615391037">
        <ele>55.6</ele>
        <time>2018-04-30T09:14:02Z</time>
      </trkpt>
      <trkpt lat="62.636107925402" lon="17.75551036583">
        <ele>55.6</ele>
        <time>2018-04-30T09:14:03Z</time>
      </trkpt>
      <trkpt lat="62.636126197944" lon="17.755397377818">
        <ele>55.6</ele>
        <time>2018-04-30T09:14:04Z</time>
      </trkpt>
      <trkpt lat="62.636144638124" lon="17.755276594639">
        <ele>55.6</ele>
        <time>2018-04-30T09:14:05Z</time>
      </trkpt>
      <trkpt lat="62.636159725544" lon="17.755170395966">
        <ele>56</ele>
        <time>2018-04-30T09:14:06Z</time>
      </trkpt>
      <trkpt lat="62.636176908439" lon="17.755051540624">
        <ele>56.2</ele>
        <time>2018-04-30T09:14:07Z</time>
      </trkpt>
      <trkpt lat="62.636193420782" lon="17.754940731906">
        <ele>56.4</ele>
        <time>2018-04-30T09:14:08Z</time>
      </trkpt>
      <trkpt lat="62.636207753831" lon="17.754837047803">
        <ele>56.6</ele>
        <time>2018-04-30T09:14:09Z</time>
      </trkpt>
      <trkpt lat="62.636222338337" lon="17.754719785022">
        <ele>56.4</ele>
        <time>2018-04-30T09:14:10Z</time>
      </trkpt>
      <trkpt lat="62.636235246463" lon="17.754615011272">
        <ele>56.4</ele>
        <time>2018-04-30T09:14:11Z</time>
      </trkpt>
      <trkpt lat="62.63624974715" lon="17.75449783231">
        <ele>56.2</ele>
        <time>2018-04-30T09:14:12Z</time>
      </trkpt>
      <trkpt lat="62.636262571457" lon="17.754387526506">
        <ele>56.2</ele>
        <time>2018-04-30T09:14:13Z</time>
      </trkpt>
      <trkpt lat="62.636275563402" lon="17.754278813263">
        <ele>56.2</ele>
        <time>2018-04-30T09:14:14Z</time>
      </trkpt>
      <trkpt lat="62.636287884795" lon="17.754177895187">
        <ele>56.2</ele>
        <time>2018-04-30T09:14:15Z</time>
      </trkpt>
      <trkpt lat="62.636300290007" lon="17.754071277419">
        <ele>56.4</ele>
        <time>2018-04-30T09:14:16Z</time>
      </trkpt>
      <trkpt lat="62.636313952504" lon="17.753956864484">
        <ele>56.4</ele>
        <time>2018-04-30T09:14:17Z</time>
      </trkpt>
      <trkpt lat="62.636325854802" lon="17.753852342191">
        <ele>56.2</ele>
        <time>2018-04-30T09:14:18Z</time>
      </trkpt>
      <trkpt lat="62.636336415996" lon="17.753758045816">
        <ele>56.4</ele>
        <time>2018-04-30T09:14:19Z</time>
      </trkpt>
      <trkpt lat="62.63634949176" lon="17.75364204032">
        <ele>56.4</ele>
        <time>2018-04-30T09:14:20Z</time>
      </trkpt>
      <trkpt lat="62.636361813153" lon="17.753534584362">
        <ele>56.4</ele>
        <time>2018-04-30T09:14:21Z</time>
      </trkpt>
      <trkpt lat="62.636376062383" lon="17.75343668377">
        <ele>56.6</ele>
        <time>2018-04-30T09:14:22Z</time>
      </trkpt>
      <trkpt lat="62.636390395432" lon="17.753313805116">
        <ele>56.6</ele>
        <time>2018-04-30T09:14:23Z</time>
      </trkpt>
      <trkpt lat="62.636402968282" lon="17.753202409665">
        <ele>56.6</ele>
        <time>2018-04-30T09:14:24Z</time>
      </trkpt>
      <trkpt lat="62.636415457313" lon="17.753089505472">
        <ele>56.8</ele>
        <time>2018-04-30T09:14:25Z</time>
      </trkpt>
      <trkpt lat="62.636428113982" lon="17.752980792229">
        <ele>57</ele>
        <time>2018-04-30T09:14:26Z</time>
      </trkpt>
      <trkpt lat="62.636441944117" lon="17.752865708742">
        <ele>57</ele>
        <time>2018-04-30T09:14:27Z</time>
      </trkpt>
      <trkpt lat="62.63645594189" lon="17.752750541436">
        <ele>57</ele>
        <time>2018-04-30T09:14:28Z</time>
      </trkpt>
      <trkpt lat="62.636469520568" lon="17.75264375603">
        <ele>57</ele>
        <time>2018-04-30T09:14:29Z</time>
      </trkpt>
      <trkpt lat="62.636483853617" lon="17.752530181285">
        <ele>57</ele>
        <time>2018-04-30T09:14:30Z</time>
      </trkpt>
      <trkpt lat="62.636496091191" lon="17.752424904621">
        <ele>56.8</ele>
        <time>2018-04-30T09:14:31Z</time>
      </trkpt>
      <trkpt lat="62.636509502231" lon="17.752309569677">
        <ele>56.6</ele>
        <time>2018-04-30T09:14:32Z</time>
      </trkpt>
      <trkpt lat="62.636520733977" lon="17.75220538266">
        <ele>56.6</ele>
        <time>2018-04-30T09:14:33Z</time>
      </trkpt>
      <trkpt lat="62.636532384818" lon="17.752096920874">
        <ele>56.8</ele>
        <time>2018-04-30T09:14:34Z</time>
      </trkpt>
      <trkpt lat="62.636544454754" lon="17.751980244826">
        <ele>56.8</ele>
        <time>2018-04-30T09:14:35Z</time>
      </trkpt>
      <trkpt lat="62.636555770319" lon="17.75187765037">
        <ele>57</ele>
        <time>2018-04-30T09:14:36Z</time>
      </trkpt>
      <trkpt lat="62.636569516635" lon="17.751764662358">
        <ele>57.2</ele>
        <time>2018-04-30T09:14:37Z</time>
      </trkpt>
      <trkpt lat="62.636582592399" lon="17.751659553332">
        <ele>57.2</ele>
        <time>2018-04-30T09:14:38Z</time>
      </trkpt>
      <trkpt lat="62.636593991783" lon="17.751561820378">
        <ele>57.2</ele>
        <time>2018-04-30T09:14:39Z</time>
      </trkpt>
      <trkpt lat="62.636607486642" lon="17.751451430755">
        <ele>57.4</ele>
        <time>2018-04-30T09:14:40Z</time>
      </trkpt>
      <trkpt lat="62.636618634569" lon="17.751353111068">
        <ele>57.4</ele>
        <time>2018-04-30T09:14:41Z</time>
      </trkpt>
      <trkpt lat="62.636630872143" lon="17.751246828576">
        <ele>57.4</ele>
        <time>2018-04-30T09:14:42Z</time>
      </trkpt>
      <trkpt lat="62.63664369645" lon="17.751142725378">
        <ele>57.6</ele>
        <time>2018-04-30T09:14:43Z</time>
      </trkpt>
      <trkpt lat="62.636657442766" lon="17.751040550017">
        <ele>57.8</ele>
        <time>2018-04-30T09:14:44Z</time>
      </trkpt>
      <trkpt lat="62.636668674512" lon="17.750945247814">
        <ele>57.8</ele>
        <time>2018-04-30T09:14:45Z</time>
      </trkpt>
      <trkpt lat="62.636679068068" lon="17.750847095765">
        <ele>57.8</ele>
        <time>2018-04-30T09:14:46Z</time>
      </trkpt>
      <trkpt lat="62.636690970366" lon="17.750748356983">
        <ele>58</ele>
        <time>2018-04-30T09:14:47Z</time>
      </trkpt>
      <trkpt lat="62.636702285931" lon="17.750650707848">
        <ele>58.2</ele>
        <time>2018-04-30T09:14:48Z</time>
      </trkpt>
      <trkpt lat="62.636712511849" lon="17.75056336845">
        <ele>58.4</ele>
        <time>2018-04-30T09:14:49Z</time>
      </trkpt>
      <trkpt lat="62.636724833242" lon="17.750465803134">
        <ele>58.6</ele>
        <time>2018-04-30T09:14:50Z</time>
      </trkpt>
      <trkpt lat="62.636734137151" lon="17.750385923627">
        <ele>58.8</ele>
        <time>2018-04-30T09:14:51Z</time>
      </trkpt>
      <trkpt lat="62.636744195431" lon="17.750287268664">
        <ele>59</ele>
        <time>2018-04-30T09:14:52Z</time>
      </trkpt>
      <trkpt lat="62.636753080245" lon="17.750198420524">
        <ele>59.2</ele>
        <time>2018-04-30T09:14:53Z</time>
      </trkpt>
      <trkpt lat="62.636762803249" lon="17.750112003135">
        <ele>59.4</ele>
        <time>2018-04-30T09:14:54Z</time>
      </trkpt>
      <trkpt lat="62.636772945348" lon="17.750023741728">
        <ele>59.6</ele>
        <time>2018-04-30T09:14:55Z</time>
      </trkpt>
      <trkpt lat="62.636782668352" lon="17.749939587452">
        <ele>60.2</ele>
        <time>2018-04-30T09:14:56Z</time>
      </trkpt>
      <trkpt lat="62.636793145727" lon="17.749850152579">
        <ele>60.4</ele>
        <time>2018-04-30T09:14:57Z</time>
      </trkpt>
      <trkpt lat="62.636804964206" lon="17.749754766557">
        <ele>60.4</ele>
        <time>2018-04-30T09:14:58Z</time>
      </trkpt>
      <trkpt lat="62.63681468721" lon="17.749664325856">
        <ele>60.6</ele>
        <time>2018-04-30T09:14:59Z</time>
      </trkpt>
      <trkpt lat="62.636824242576" lon="17.749574136612">
        <ele>60.6</ele>
        <time>2018-04-30T09:15:00Z</time>
      </trkpt>
      <trkpt lat="62.636832624476" lon="17.749488892689">
        <ele>60.4</ele>
        <time>2018-04-30T09:15:01Z</time>
      </trkpt>
      <trkpt lat="62.636841257833" lon="17.749392165563">
        <ele>60.4</ele>
        <time>2018-04-30T09:15:02Z</time>
      </trkpt>
      <trkpt lat="62.636848801543" lon="17.749305915812">
        <ele>60.6</ele>
        <time>2018-04-30T09:15:03Z</time>
      </trkpt>
      <trkpt lat="62.636857015805" lon="17.749213798731">
        <ele>60.6</ele>
        <time>2018-04-30T09:15:04Z</time>
      </trkpt>
      <trkpt lat="62.636866403533" lon="17.749114221759">
        <ele>60.8</ele>
        <time>2018-04-30T09:15:05Z</time>
      </trkpt>
      <trkpt lat="62.636873444329" lon="17.749024116334">
        <ele>60.8</ele>
        <time>2018-04-30T09:15:06Z</time>
      </trkpt>
      <trkpt lat="62.636881155677" lon="17.748922527706">
        <ele>60.8</ele>
        <time>2018-04-30T09:15:07Z</time>
      </trkpt>
      <trkpt lat="62.636887693559" lon="17.7488241242">
        <ele>61.2</ele>
        <time>2018-04-30T09:15:08Z</time>
      </trkpt>
      <trkpt lat="62.636894650536" lon="17.748730582196">
        <ele>61</ele>
        <time>2018-04-30T09:15:09Z</time>
      </trkpt>
      <trkpt lat="62.636902110427" lon="17.748625137894">
        <ele>61</ele>
        <time>2018-04-30T09:15:10Z</time>
      </trkpt>
      <trkpt lat="62.636908648309" lon="17.748530590062">
        <ele>61.2</ele>
        <time>2018-04-30T09:15:11Z</time>
      </trkpt>
      <trkpt lat="62.636915102372" lon="17.748422463552">
        <ele>61.2</ele>
        <time>2018-04-30T09:15:12Z</time>
      </trkpt>
      <trkpt lat="62.636921221159" lon="17.74831953382">
        <ele>61.2</ele>
        <time>2018-04-30T09:15:13Z</time>
      </trkpt>
      <trkpt lat="62.636925915023" lon="17.748215095346">
        <ele>61.2</ele>
        <time>2018-04-30T09:15:14Z</time>
      </trkpt>
      <trkpt lat="62.636929686878" lon="17.748111914157">
        <ele>61.2</ele>
        <time>2018-04-30T09:15:15Z</time>
      </trkpt>
      <trkpt lat="62.636933542552" lon="17.748005464027">
        <ele>61.2</ele>
        <time>2018-04-30T09:15:16Z</time>
      </trkpt>
      <trkpt lat="62.636936560036" lon="17.74789038054">
        <ele>61</ele>
        <time>2018-04-30T09:15:17Z</time>
      </trkpt>
      <trkpt lat="62.636938152597" lon="17.747782421668">
        <ele>61</ele>
        <time>2018-04-30T09:15:18Z</time>
      </trkpt>
      <trkpt lat="62.636939158425" lon="17.747682006506">
        <ele>61</ele>
        <time>2018-04-30T09:15:19Z</time>
      </trkpt>
      <trkpt lat="62.636940080434" lon="17.747568767037">
        <ele>61</ele>
        <time>2018-04-30T09:15:20Z</time>
      </trkpt>
      <trkpt lat="62.636940499529" lon="17.747475141214">
        <ele>61</ele>
        <time>2018-04-30T09:15:21Z</time>
      </trkpt>
      <trkpt lat="62.636941505357" lon="17.747355866777">
        <ele>61</ele>
        <time>2018-04-30T09:15:22Z</time>
      </trkpt>
      <trkpt lat="62.636941421538" lon="17.747246482982">
        <ele>61</ele>
        <time>2018-04-30T09:15:23Z</time>
      </trkpt>
      <trkpt lat="62.636941924452" lon="17.747137183006">
        <ele>60.8</ele>
        <time>2018-04-30T09:15:24Z</time>
      </trkpt>
      <trkpt lat="62.636942259728" lon="17.747025871374">
        <ele>60.8</ele>
        <time>2018-04-30T09:15:25Z</time>
      </trkpt>
      <trkpt lat="62.636940918624" lon="17.746924701841">
        <ele>60.8</ele>
        <time>2018-04-30T09:15:26Z</time>
      </trkpt>
      <trkpt lat="62.63694041571" lon="17.746815569503">
        <ele>61</ele>
        <time>2018-04-30T09:15:27Z</time>
      </trkpt>
      <trkpt lat="62.636941672995" lon="17.746698139084">
        <ele>61</ele>
        <time>2018-04-30T09:15:28Z</time>
      </trkpt>
      <trkpt lat="62.636941421538" lon="17.746590264031">
        <ele>61</ele>
        <time>2018-04-30T09:15:29Z</time>
      </trkpt>
      <trkpt lat="62.63693957752" lon="17.746482556616">
        <ele>61</ele>
        <time>2018-04-30T09:15:30Z</time>
      </trkpt>
      <trkpt lat="62.636936643855" lon="17.74637996216">
        <ele>61</ele>
        <time>2018-04-30T09:15:31Z</time>
      </trkpt>
      <trkpt lat="62.636934464561" lon="17.746262699379">
        <ele>61</ele>
        <time>2018-04-30T09:15:32Z</time>
      </trkpt>
      <trkpt lat="62.636933291095" lon="17.746158428543">
        <ele>61.2</ele>
        <time>2018-04-30T09:15:33Z</time>
      </trkpt>
      <trkpt lat="62.636933291095" lon="17.746048458015">
        <ele>61</ele>
        <time>2018-04-30T09:15:34Z</time>
      </trkpt>
      <trkpt lat="62.636933291095" lon="17.745928680664">
        <ele>61.2</ele>
        <time>2018-04-30T09:15:35Z</time>
      </trkpt>
      <trkpt lat="62.636932536724" lon="17.745823990733">
        <ele>61</ele>
        <time>2018-04-30T09:15:36Z</time>
      </trkpt>
      <trkpt lat="62.636930944163" lon="17.745704800115">
        <ele>61</ele>
        <time>2018-04-30T09:15:37Z</time>
      </trkpt>
      <trkpt lat="62.636930525068" lon="17.74559373994">
        <ele>61</ele>
        <time>2018-04-30T09:15:38Z</time>
      </trkpt>
      <trkpt lat="62.63693035743" lon="17.745486535439">
        <ele>61</ele>
        <time>2018-04-30T09:15:39Z</time>
      </trkpt>
      <trkpt lat="62.636929770697" lon="17.74536742864">
        <ele>60.8</ele>
        <time>2018-04-30T09:15:40Z</time>
      </trkpt>
      <trkpt lat="62.636928848688" lon="17.745261146148">
        <ele>61</ele>
        <time>2018-04-30T09:15:41Z</time>
      </trkpt>
      <trkpt lat="62.636927423765" lon="17.745141704073">
        <ele>61</ele>
        <time>2018-04-30T09:15:42Z</time>
      </trkpt>
      <trkpt lat="62.636927172308" lon="17.745027710233">
        <ele>61</ele>
        <time>2018-04-30T09:15:43Z</time>
      </trkpt>
      <trkpt lat="62.636925831204" lon="17.744915308954">
        <ele>61</ele>
        <time>2018-04-30T09:15:44Z</time>
      </trkpt>
      <trkpt lat="62.6369244901" lon="17.744805338426">
        <ele>61</ele>
        <time>2018-04-30T09:15:45Z</time>
      </trkpt>
      <trkpt lat="62.636924071005" lon="17.744693607699">
        <ele>60.8</ele>
        <time>2018-04-30T09:15:46Z</time>
      </trkpt>
      <trkpt lat="62.636924573919" lon="17.744573327434">
        <ele>60.8</ele>
        <time>2018-04-30T09:15:47Z</time>
      </trkpt>
      <trkpt lat="62.636925244471" lon="17.744461177612">
        <ele>60.8</ele>
        <time>2018-04-30T09:15:48Z</time>
      </trkpt>
      <trkpt lat="62.63692616648" lon="17.744356739138">
        <ele>60.8</ele>
        <time>2018-04-30T09:15:49Z</time>
      </trkpt>
      <trkpt lat="62.636927759041" lon="17.744236794149">
        <ele>60.6</ele>
        <time>2018-04-30T09:15:50Z</time>
      </trkpt>
      <trkpt lat="62.636929267783" lon="17.744137720091">
        <ele>60.6</ele>
        <time>2018-04-30T09:15:51Z</time>
      </trkpt>
      <trkpt lat="62.636932536724" lon="17.744011153401">
        <ele>60.6</ele>
        <time>2018-04-30T09:15:52Z</time>
      </trkpt>
      <trkpt lat="62.636936895312" lon="17.743896153733">
        <ele>60.6</ele>
        <time>2018-04-30T09:15:53Z</time>
      </trkpt>
      <trkpt lat="62.636939912796" lon="17.74378408773">
        <ele>60.8</ele>
        <time>2018-04-30T09:15:54Z</time>
      </trkpt>
      <trkpt lat="62.636944774298" lon="17.743665232388">
        <ele>60.8</ele>
        <time>2018-04-30T09:15:55Z</time>
      </trkpt>
      <trkpt lat="62.636951144542" lon="17.743555848593">
        <ele>60.8</ele>
        <time>2018-04-30T09:15:56Z</time>
      </trkpt>
      <trkpt lat="62.636958772071" lon="17.743438501993">
        <ele>60.8</ele>
        <time>2018-04-30T09:15:57Z</time>
      </trkpt>
      <trkpt lat="62.636967656885" lon="17.743316796805">
        <ele>61</ele>
        <time>2018-04-30T09:15:58Z</time>
      </trkpt>
      <trkpt lat="62.636975284414" lon="17.743200791309">
        <ele>61</ele>
        <time>2018-04-30T09:15:59Z</time>
      </trkpt>
      <trkpt lat="62.636982073753" lon="17.743084450537">
        <ele>61.2</ele>
        <time>2018-04-30T09:16:00Z</time>
      </trkpt>
      <trkpt lat="62.636990623291" lon="17.742974563828">
        <ele>61.6</ele>
        <time>2018-04-30T09:16:01Z</time>
      </trkpt>
      <trkpt lat="62.637002777046" lon="17.742848080957">
        <ele>61.8</ele>
        <time>2018-04-30T09:16:02Z</time>
      </trkpt>
      <trkpt lat="62.637012080955" lon="17.742748420166">
        <ele>61.8</ele>
        <time>2018-04-30T09:16:03Z</time>
      </trkpt>
      <trkpt lat="62.637022139235" lon="17.742629313367">
        <ele>61.8</ele>
        <time>2018-04-30T09:16:04Z</time>
      </trkpt>
      <trkpt lat="62.637034376809" lon="17.742500232107">
        <ele>61.8</ele>
        <time>2018-04-30T09:16:05Z</time>
      </trkpt>
      <trkpt lat="62.637045021822" lon="17.742392021778">
        <ele>61.6</ele>
        <time>2018-04-30T09:16:06Z</time>
      </trkpt>
      <trkpt lat="62.637056756482" lon="17.742266460916">
        <ele>61.4</ele>
        <time>2018-04-30T09:16:07Z</time>
      </trkpt>
      <trkpt lat="62.637070251341" lon="17.742146432108">
        <ele>61.4</ele>
        <time>2018-04-30T09:16:08Z</time>
      </trkpt>
      <trkpt lat="62.637083410924" lon="17.7420347852">
        <ele>61.4</ele>
        <time>2018-04-30T09:16:09Z</time>
      </trkpt>
      <trkpt lat="62.637099755629" lon="17.74191073308">
        <ele>61.4</ele>
        <time>2018-04-30T09:16:10Z</time>
      </trkpt>
      <trkpt lat="62.637114088678" lon="17.741795984869">
        <ele>61.6</ele>
        <time>2018-04-30T09:16:11Z</time>
      </trkpt>
      <trkpt lat="62.637130433383" lon="17.741667490342">
        <ele>61.6</ele>
        <time>2018-04-30T09:16:12Z</time>
      </trkpt>
      <trkpt lat="62.637146107536" lon="17.741542432394">
        <ele>61.8</ele>
        <time>2018-04-30T09:16:13Z</time>
      </trkpt>
      <trkpt lat="62.637162033146" lon="17.741420978663">
        <ele>61.8</ele>
        <time>2018-04-30T09:16:14Z</time>
      </trkpt>
      <trkpt lat="62.637177455842" lon="17.741298770561">
        <ele>61.8</ele>
        <time>2018-04-30T09:16:15Z</time>
      </trkpt>
      <trkpt lat="62.637193297633" lon="17.741174969898">
        <ele>62</ele>
        <time>2018-04-30T09:16:16Z</time>
      </trkpt>
      <trkpt lat="62.637211318718" lon="17.741045721">
        <ele>61.8</ele>
        <time>2018-04-30T09:16:17Z</time>
      </trkpt>
      <trkpt lat="62.637225987043" lon="17.740926614201">
        <ele>61.8</ele>
        <time>2018-04-30T09:16:18Z</time>
      </trkpt>
      <trkpt lat="62.637241828834" lon="17.740803651728">
        <ele>61.8</ele>
        <time>2018-04-30T09:16:19Z</time>
      </trkpt>
      <trkpt lat="62.637257754444" lon="17.740673816097">
        <ele>61.8</ele>
        <time>2018-04-30T09:16:20Z</time>
      </trkpt>
      <trkpt lat="62.637268650914" lon="17.74056208537">
        <ele>61.6</ele>
        <time>2018-04-30T09:16:21Z</time>
      </trkpt>
      <trkpt lat="62.637281810497" lon="17.740423113468">
        <ele>61.8</ele>
        <time>2018-04-30T09:16:22Z</time>
      </trkpt>
      <trkpt lat="62.637297568469" lon="17.740303252298">
        <ele>61.8</ele>
        <time>2018-04-30T09:16:23Z</time>
      </trkpt>
      <trkpt lat="62.63731089569" lon="17.740185151327">
        <ele>61.8</ele>
        <time>2018-04-30T09:16:24Z</time>
      </trkpt>
      <trkpt lat="62.637326402205" lon="17.740064368148">
        <ele>61.6</ele>
        <time>2018-04-30T09:16:25Z</time>
      </trkpt>
      <trkpt lat="62.63734190872" lon="17.739949619937">
        <ele>61.4</ele>
        <time>2018-04-30T09:16:26Z</time>
      </trkpt>
      <trkpt lat="62.63735783433" lon="17.73982531636">
        <ele>61.4</ele>
        <time>2018-04-30T09:16:27Z</time>
      </trkpt>
      <trkpt lat="62.637373508483" lon="17.739691960331">
        <ele>61.2</ele>
        <time>2018-04-30T09:16:28Z</time>
      </trkpt>
      <trkpt lat="62.637387590075" lon="17.73956883022">
        <ele>60.8</ele>
        <time>2018-04-30T09:16:29Z</time>
      </trkpt>
      <trkpt lat="62.637400833477" lon="17.739449974878">
        <ele>60.8</ele>
        <time>2018-04-30T09:16:30Z</time>
      </trkpt>
      <trkpt lat="62.637413741603" lon="17.739326090396">
        <ele>60.8</ele>
        <time>2018-04-30T09:16:31Z</time>
      </trkpt>
      <trkpt lat="62.637427571738" lon="17.739193237281">
        <ele>60.8</ele>
        <time>2018-04-30T09:16:32Z</time>
      </trkpt>
      <trkpt lat="62.637439222579" lon="17.739081925649">
        <ele>60.6</ele>
        <time>2018-04-30T09:16:33Z</time>
      </trkpt>
      <trkpt lat="62.637451879248" lon="17.738954185493">
        <ele>60.8</ele>
        <time>2018-04-30T09:16:34Z</time>
      </trkpt>
      <trkpt lat="62.637464955012" lon="17.738815213591">
        <ele>60.8</ele>
        <time>2018-04-30T09:16:35Z</time>
      </trkpt>
      <trkpt lat="62.637475264749" lon="17.738697699353">
        <ele>61</ele>
        <time>2018-04-30T09:16:36Z</time>
      </trkpt>
      <trkpt lat="62.637484987753" lon="17.738566941713">
        <ele>61</ele>
        <time>2018-04-30T09:16:37Z</time>
      </trkpt>
      <trkpt lat="62.637493704929" lon="17.738446577629">
        <ele>61</ele>
        <time>2018-04-30T09:16:38Z</time>
      </trkpt>
      <trkpt lat="62.637501583915" lon="17.73832747083">
        <ele>60.8</ele>
        <time>2018-04-30T09:16:39Z</time>
      </trkpt>
      <trkpt lat="62.63751038491" lon="17.738199730674">
        <ele>60.8</ele>
        <time>2018-04-30T09:16:40Z</time>
      </trkpt>
      <trkpt lat="62.637518850629" lon="17.738080540056">
        <ele>60.8</ele>
        <time>2018-04-30T09:16:41Z</time>
      </trkpt>
      <trkpt lat="62.637526059063" lon="17.737950536787">
        <ele>61</ele>
        <time>2018-04-30T09:16:42Z</time>
      </trkpt>
      <trkpt lat="62.637531842574" lon="17.737825730296">
        <ele>61.2</ele>
        <time>2018-04-30T09:16:43Z</time>
      </trkpt>
      <trkpt lat="62.637538715732" lon="17.737701426719">
        <ele>61.2</ele>
        <time>2018-04-30T09:16:44Z</time>
      </trkpt>
      <trkpt lat="62.637546007985" lon="17.737585505042">
        <ele>61.4</ele>
        <time>2018-04-30T09:16:45Z</time>
      </trkpt>
      <trkpt lat="62.637552210591" lon="17.737467655528">
        <ele>61.4</ele>
        <time>2018-04-30T09:16:46Z</time>
      </trkpt>
      <trkpt lat="62.637560424853" lon="17.737340753562">
        <ele>61.4</ele>
        <time>2018-04-30T09:16:47Z</time>
      </trkpt>
      <trkpt lat="62.637567800925" lon="17.737222820229">
        <ele>61.4</ele>
        <time>2018-04-30T09:16:48Z</time>
      </trkpt>
      <trkpt lat="62.637573416798" lon="17.737109077846">
        <ele>61.6</ele>
        <time>2018-04-30T09:16:49Z</time>
      </trkpt>
      <trkpt lat="62.637578781214" lon="17.736985780097">
        <ele>61.6</ele>
        <time>2018-04-30T09:16:50Z</time>
      </trkpt>
      <trkpt lat="62.637582888345" lon="17.736878827053">
        <ele>61.6</ele>
        <time>2018-04-30T09:16:51Z</time>
      </trkpt>
      <trkpt lat="62.637588755675" lon="17.736745890119">
        <ele>61.6</ele>
        <time>2018-04-30T09:16:52Z</time>
      </trkpt>
      <trkpt lat="62.637594790643" lon="17.73662678332">
        <ele>61.8</ele>
        <time>2018-04-30T09:16:53Z</time>
      </trkpt>
      <trkpt lat="62.637600490335" lon="17.736509939634">
        <ele>61.8</ele>
        <time>2018-04-30T09:16:54Z</time>
      </trkpt>
      <trkpt lat="62.637604932742" lon="17.736389072636">
        <ele>62</ele>
        <time>2018-04-30T09:16:55Z</time>
      </trkpt>
      <trkpt lat="62.637609458968" lon="17.736275246434">
        <ele>62.2</ele>
        <time>2018-04-30T09:16:56Z</time>
      </trkpt>
      <trkpt lat="62.637615661574" lon="17.736156223454">
        <ele>62.2</ele>
        <time>2018-04-30T09:16:57Z</time>
      </trkpt>
      <trkpt lat="62.63762102599" lon="17.736030997868">
        <ele>62.2</ele>
        <time>2018-04-30T09:16:58Z</time>
      </trkpt>
      <trkpt lat="62.637625133121" lon="17.735909376499">
        <ele>62.2</ele>
        <time>2018-04-30T09:16:59Z</time>
      </trkpt>
      <trkpt lat="62.637631168089" lon="17.735788341863">
        <ele>62.2</ele>
        <time>2018-04-30T09:17:00Z</time>
      </trkpt>
      <trkpt lat="62.637637873609" lon="17.73567543767">
        <ele>62.2</ele>
        <time>2018-04-30T09:17:01Z</time>
      </trkpt>
      <trkpt lat="62.637643992396" lon="17.7355471946">
        <ele>62.2</ele>
        <time>2018-04-30T09:17:02Z</time>
      </trkpt>
      <trkpt lat="62.637646590785" lon="17.73543236257">
        <ele>62.4</ele>
        <time>2018-04-30T09:17:03Z</time>
      </trkpt>
      <trkpt lat="62.637650697916" lon="17.735313004314">
        <ele>62.4</ele>
        <time>2018-04-30T09:17:04Z</time>
      </trkpt>
      <trkpt lat="62.637656816703" lon="17.735183336321">
        <ele>62.4</ele>
        <time>2018-04-30T09:17:05Z</time>
      </trkpt>
      <trkpt lat="62.637661929662" lon="17.735069342481">
        <ele>62.4</ele>
        <time>2018-04-30T09:17:06Z</time>
      </trkpt>
      <trkpt lat="62.637669221915" lon="17.734940177402">
        <ele>62.4</ele>
        <time>2018-04-30T09:17:07Z</time>
      </trkpt>
      <trkpt lat="62.637675759797" lon="17.734820148594">
        <ele>62.4</ele>
        <time>2018-04-30T09:17:08Z</time>
      </trkpt>
      <trkpt lat="62.637681124213" lon="17.734704562193">
        <ele>62.4</ele>
        <time>2018-04-30T09:17:09Z</time>
      </trkpt>
      <trkpt lat="62.637685650439" lon="17.734574391286">
        <ele>62.6</ele>
        <time>2018-04-30T09:17:10Z</time>
      </trkpt>
      <trkpt lat="62.63769059576" lon="17.734461906188">
        <ele>62.6</ele>
        <time>2018-04-30T09:17:11Z</time>
      </trkpt>
      <trkpt lat="62.637698307108" lon="17.7343318191">
        <ele>62.6</ele>
        <time>2018-04-30T09:17:12Z</time>
      </trkpt>
      <trkpt lat="62.637705096447" lon="17.734207347885">
        <ele>62.6</ele>
        <time>2018-04-30T09:17:13Z</time>
      </trkpt>
      <trkpt lat="62.637710544682" lon="17.734084469231">
        <ele>62.6</ele>
        <time>2018-04-30T09:17:14Z</time>
      </trkpt>
      <trkpt lat="62.637717501659" lon="17.733964356604">
        <ele>62.8</ele>
        <time>2018-04-30T09:17:15Z</time>
      </trkpt>
      <trkpt lat="62.637725213007" lon="17.733836951724">
        <ele>62.6</ele>
        <time>2018-04-30T09:17:16Z</time>
      </trkpt>
      <trkpt lat="62.63773082888" lon="17.733702673686">
        <ele>62.6</ele>
        <time>2018-04-30T09:17:17Z</time>
      </trkpt>
      <trkpt lat="62.637737450581" lon="17.733573676245">
        <ele>62.4</ele>
        <time>2018-04-30T09:17:18Z</time>
      </trkpt>
      <trkpt lat="62.637744323739" lon="17.733450462315">
        <ele>62.4</ele>
        <time>2018-04-30T09:17:19Z</time>
      </trkpt>
      <trkpt lat="62.637751532173" lon="17.733312077146">
        <ele>62.2</ele>
        <time>2018-04-30T09:17:20Z</time>
      </trkpt>
      <trkpt lat="62.637757064227" lon="17.733196406926">
        <ele>62.4</ele>
        <time>2018-04-30T09:17:21Z</time>
      </trkpt>
      <trkpt lat="62.637763350652" lon="17.733074785557">
        <ele>62.4</ele>
        <time>2018-04-30T09:17:22Z</time>
      </trkpt>
      <trkpt lat="62.637771816371" lon="17.732915445638">
        <ele>62.2</ele>
        <time>2018-04-30T09:17:23Z</time>
      </trkpt>
      <trkpt lat="62.637777432244" lon="17.732783765989">
        <ele>62.2</ele>
        <time>2018-04-30T09:17:24Z</time>
      </trkpt>
      <trkpt lat="62.637782712841" lon="17.732651751064">
        <ele>62.2</ele>
        <time>2018-04-30T09:17:25Z</time>
      </trkpt>
      <trkpt lat="62.637789334542" lon="17.732529207686">
        <ele>62.2</ele>
        <time>2018-04-30T09:17:26Z</time>
      </trkpt>
      <trkpt lat="62.637796794433" lon="17.732397444218">
        <ele>62</ele>
        <time>2018-04-30T09:17:27Z</time>
      </trkpt>
      <trkpt lat="62.637804170505" lon="17.732257047393">
        <ele>62</ele>
        <time>2018-04-30T09:17:28Z</time>
      </trkpt>
      <trkpt lat="62.637811714215" lon="17.732125283925">
        <ele>61.8</ele>
        <time>2018-04-30T09:17:29Z</time>
      </trkpt>
      <trkpt lat="62.637819425563" lon="17.73199410719">
        <ele>61.6</ele>
        <time>2018-04-30T09:17:30Z</time>
      </trkpt>
      <trkpt lat="62.637827304549" lon="17.731872066726">
        <ele>61.4</ele>
        <time>2018-04-30T09:17:31Z</time>
      </trkpt>
      <trkpt lat="62.63783476444" lon="17.731735274118">
        <ele>61.4</ele>
        <time>2018-04-30T09:17:32Z</time>
      </trkpt>
      <trkpt lat="62.63784230815" lon="17.731610970541">
        <ele>61.4</ele>
        <time>2018-04-30T09:17:33Z</time>
      </trkpt>
      <trkpt lat="62.637853372258" lon="17.731486583145">
        <ele>61.4</ele>
        <time>2018-04-30T09:17:34Z</time>
      </trkpt>
      <trkpt lat="62.637866112746" lon="17.731356915152">
        <ele>61.4</ele>
        <time>2018-04-30T09:17:35Z</time>
      </trkpt>
      <trkpt lat="62.637879104691" lon="17.731233449765">
        <ele>61.2</ele>
        <time>2018-04-30T09:17:36Z</time>
      </trkpt>
      <trkpt lat="62.63789343774" lon="17.731093136759">
        <ele>61.2</ele>
        <time>2018-04-30T09:17:37Z</time>
      </trkpt>
      <trkpt lat="62.637906681142" lon="17.73096900082">
        <ele>61</ele>
        <time>2018-04-30T09:17:38Z</time>
      </trkpt>
      <trkpt lat="62.637919756906" lon="17.730845451614">
        <ele>61</ele>
        <time>2018-04-30T09:17:39Z</time>
      </trkpt>
      <trkpt lat="62.637935179602" lon="17.730718046734">
        <ele>60.8</ele>
        <time>2018-04-30T09:17:40Z</time>
      </trkpt>
      <trkpt lat="62.637950853755" lon="17.730600029582">
        <ele>60.6</ele>
        <time>2018-04-30T09:17:41Z</time>
      </trkpt>
      <trkpt lat="62.637968958659" lon="17.730474803996">
        <ele>60.6</ele>
        <time>2018-04-30T09:17:42Z</time>
      </trkpt>
      <trkpt lat="62.6379889914" lon="17.730348824039">
        <ele>60.6</ele>
        <time>2018-04-30T09:17:43Z</time>
      </trkpt>
      <trkpt lat="62.638008688865" lon="17.730226783575">
        <ele>60.6</ele>
        <time>2018-04-30T09:17:44Z</time>
      </trkpt>
      <trkpt lat="62.638027715778" lon="17.730109269337">
        <ele>60.6</ele>
        <time>2018-04-30T09:17:45Z</time>
      </trkpt>
      <trkpt lat="62.638049173442" lon="17.729987647968">
        <ele>60.6</ele>
        <time>2018-04-30T09:17:46Z</time>
      </trkpt>
      <trkpt lat="62.638074402961" lon="17.729856052138">
        <ele>60.4</ele>
        <time>2018-04-30T09:17:47Z</time>
      </trkpt>
      <trkpt lat="62.638097620824" lon="17.729736442425">
        <ele>60.2</ele>
        <time>2018-04-30T09:17:48Z</time>
      </trkpt>
      <trkpt lat="62.63811974904" lon="17.72962622044">
        <ele>60</ele>
        <time>2018-04-30T09:17:49Z</time>
      </trkpt>
      <trkpt lat="62.638146068206" lon="17.729498480284">
        <ele>59.8</ele>
        <time>2018-04-30T09:17:50Z</time>
      </trkpt>
      <trkpt lat="62.638168531698" lon="17.729400998787">
        <ele>59.6</ele>
        <time>2018-04-30T09:17:51Z</time>
      </trkpt>
      <trkpt lat="62.638200047642" lon="17.729270157328">
        <ele>59.6</ele>
        <time>2018-04-30T09:17:52Z</time>
      </trkpt>
      <trkpt lat="62.638228546102" lon="17.729154654746">
        <ele>59.4</ele>
        <time>2018-04-30T09:17:53Z</time>
      </trkpt>
      <trkpt lat="62.638257715114" lon="17.729039822716">
        <ele>59.2</ele>
        <time>2018-04-30T09:17:54Z</time>
      </trkpt>
      <trkpt lat="62.638288392868" lon="17.728924403953">
        <ele>59</ele>
        <time>2018-04-30T09:17:55Z</time>
      </trkpt>
      <trkpt lat="62.638319657355" lon="17.7288165289">
        <ele>59</ele>
        <time>2018-04-30T09:17:56Z</time>
      </trkpt>
      <trkpt lat="62.638354526059" lon="17.728705217268">
        <ele>59</ele>
        <time>2018-04-30T09:17:57Z</time>
      </trkpt>
      <trkpt lat="62.638392496066" lon="17.728585356098">
        <ele>58.8</ele>
        <time>2018-04-30T09:17:58Z</time>
      </trkpt>
      <trkpt lat="62.638429460245" lon="17.728469099145">
        <ele>59</ele>
        <time>2018-04-30T09:17:59Z</time>
      </trkpt>
      <trkpt lat="62.638465670053" lon="17.728354434753">
        <ele>59</ele>
        <time>2018-04-30T09:18:00Z</time>
      </trkpt>
      <trkpt lat="62.638499365291" lon="17.728246056786">
        <ele>59</ele>
        <time>2018-04-30T09:18:01Z</time>
      </trkpt>
      <trkpt lat="62.638537000022" lon="17.728130638023">
        <ele>59</ele>
        <time>2018-04-30T09:18:02Z</time>
      </trkpt>
      <trkpt lat="62.638573042192" lon="17.728025864273">
        <ele>58.8</ele>
        <time>2018-04-30T09:18:03Z</time>
      </trkpt>
      <trkpt lat="62.638611515113" lon="17.727913295356">
        <ele>58.8</ele>
        <time>2018-04-30T09:18:04Z</time>
      </trkpt>
      <trkpt lat="62.638648227835" lon="17.727803576285">
        <ele>58.8</ele>
        <time>2018-04-30T09:18:05Z</time>
      </trkpt>
      <trkpt lat="62.638683934729" lon="17.727699053992">
        <ele>58.6</ele>
        <time>2018-04-30T09:18:06Z</time>
      </trkpt>
      <trkpt lat="62.638723832573" lon="17.727584641057">
        <ele>58.6</ele>
        <time>2018-04-30T09:18:07Z</time>
      </trkpt>
      <trkpt lat="62.638760293838" lon="17.727474167615">
        <ele>58.6</ele>
        <time>2018-04-30T09:18:08Z</time>
      </trkpt>
      <trkpt lat="62.6387936538" lon="17.727369645322">
        <ele>58.6</ele>
        <time>2018-04-30T09:18:09Z</time>
      </trkpt>
      <trkpt lat="62.638833467825" lon="17.727248778324">
        <ele>58.4</ele>
        <time>2018-04-30T09:18:10Z</time>
      </trkpt>
      <trkpt lat="62.638868001253" lon="17.727141573823">
        <ele>58.4</ele>
        <time>2018-04-30T09:18:11Z</time>
      </trkpt>
      <trkpt lat="62.638906390355" lon="17.727020120092">
        <ele>58.4</ele>
        <time>2018-04-30T09:18:12Z</time>
      </trkpt>
      <trkpt lat="62.638943019258" lon="17.726905958614">
        <ele>58.4</ele>
        <time>2018-04-30T09:18:13Z</time>
      </trkpt>
      <trkpt lat="62.638978390876" lon="17.726792132412">
        <ele>58.2</ele>
        <time>2018-04-30T09:18:14Z</time>
      </trkpt>
      <trkpt lat="62.639010912648" lon="17.726682413341">
        <ele>58.2</ele>
        <time>2018-04-30T09:18:15Z</time>
      </trkpt>
      <trkpt lat="62.639043099144" lon="17.726571436985">
        <ele>58.2</ele>
        <time>2018-04-30T09:18:16Z</time>
      </trkpt>
      <trkpt lat="62.639078219305" lon="17.726451575815">
        <ele>58</ele>
        <time>2018-04-30T09:18:17Z</time>
      </trkpt>
      <trkpt lat="62.639110405801" lon="17.726340180364">
        <ele>58</ele>
        <time>2018-04-30T09:18:18Z</time>
      </trkpt>
      <trkpt lat="62.639139910089" lon="17.726234149329">
        <ele>58</ele>
        <time>2018-04-30T09:18:19Z</time>
      </trkpt>
      <trkpt lat="62.639171928947" lon="17.726112863236">
        <ele>57.8</ele>
        <time>2018-04-30T09:18:20Z</time>
      </trkpt>
      <trkpt lat="62.63919849957" lon="17.726009179133">
        <ele>57.8</ele>
        <time>2018-04-30T09:18:21Z</time>
      </trkpt>
      <trkpt lat="62.639230266971" lon="17.725888982687">
        <ele>57.8</ele>
        <time>2018-04-30T09:18:22Z</time>
      </trkpt>
      <trkpt lat="62.639261531458" lon="17.725773731562">
        <ele>57.6</ele>
        <time>2018-04-30T09:18:23Z</time>
      </trkpt>
      <trkpt lat="62.639291203384" lon="17.725656049686">
        <ele>57.6</ele>
        <time>2018-04-30T09:18:24Z</time>
      </trkpt>
      <trkpt lat="62.639317941645" lon="17.725538200172">
        <ele>57.6</ele>
        <time>2018-04-30T09:18:25Z</time>
      </trkpt>
      <trkpt lat="62.639344512268" lon="17.725422194676">
        <ele>57.6</ele>
        <time>2018-04-30T09:18:26Z</time>
      </trkpt>
      <trkpt lat="62.639371837262" lon="17.72530116004">
        <ele>57.4</ele>
        <time>2018-04-30T09:18:27Z</time>
      </trkpt>
      <trkpt lat="62.639401090093" lon="17.725169480391">
        <ele>57.4</ele>
        <time>2018-04-30T09:18:28Z</time>
      </trkpt>
      <trkpt lat="62.639428498906" lon="17.725048194298">
        <ele>57.4</ele>
        <time>2018-04-30T09:18:29Z</time>
      </trkpt>
      <trkpt lat="62.639455237167" lon="17.724924225997">
        <ele>57.4</ele>
        <time>2018-04-30T09:18:30Z</time>
      </trkpt>
      <trkpt lat="62.639478790306" lon="17.72481165708">
        <ele>57.4</ele>
        <time>2018-04-30T09:18:31Z</time>
      </trkpt>
      <trkpt lat="62.63950360073" lon="17.724689365159">
        <ele>57.4</ele>
        <time>2018-04-30T09:18:32Z</time>
      </trkpt>
      <trkpt lat="62.639523801109" lon="17.724583837038">
        <ele>57.4</ele>
        <time>2018-04-30T09:18:33Z</time>
      </trkpt>
      <trkpt lat="62.639544923497" lon="17.724474620881">
        <ele>57.2</ele>
        <time>2018-04-30T09:18:34Z</time>
      </trkpt>
      <trkpt lat="62.639566967894" lon="17.724362554878">
        <ele>57.2</ele>
        <time>2018-04-30T09:18:35Z</time>
      </trkpt>
      <trkpt lat="62.639584486065" lon="17.72427018634">
        <ele>57</ele>
        <time>2018-04-30T09:18:36Z</time>
      </trkpt>
      <trkpt lat="62.639603512978" lon="17.724170357911">
        <ele>56.8</ele>
        <time>2018-04-30T09:18:37Z</time>
      </trkpt>
      <trkpt lat="62.639620863511" lon="17.724082599418">
        <ele>57</ele>
        <time>2018-04-30T09:18:38Z</time>
      </trkpt>
      <trkpt lat="62.639634190732" lon="17.724005402119">
        <ele>57</ele>
        <time>2018-04-30T09:18:39Z</time>
      </trkpt>
      <trkpt lat="62.639647517953" lon="17.723921834576">
        <ele>57.4</ele>
        <time>2018-04-30T09:18:40Z</time>
      </trkpt>
      <trkpt lat="62.639660258441" lon="17.723861065801">
        <ele>57.6</ele>
        <time>2018-04-30T09:18:41Z</time>
      </trkpt>
      <trkpt lat="62.639674256214" lon="17.723797028085">
        <ele>57.8</ele>
        <time>2018-04-30T09:18:42Z</time>
      </trkpt>
      <trkpt lat="62.639686912883" lon="17.723740114984">
        <ele>57.8</ele>
        <time>2018-04-30T09:18:43Z</time>
      </trkpt>
      <trkpt lat="62.639699401914" lon="17.723696193828">
        <ele>57.8</ele>
        <time>2018-04-30T09:18:44Z</time>
      </trkpt>
      <trkpt lat="62.639710717479" lon="17.723656715079">
        <ele>57.8</ele>
        <time>2018-04-30T09:18:45Z</time>
      </trkpt>
      <trkpt lat="62.63971817737" lon="17.72362310366">
        <ele>57.8</ele>
        <time>2018-04-30T09:18:46Z</time>
      </trkpt>
      <trkpt lat="62.639722284501" lon="17.723600975444">
        <ele>57.8</ele>
        <time>2018-04-30T09:18:47Z</time>
      </trkpt>
      <trkpt lat="62.639720105207" lon="17.723600137254">
        <ele>57.8</ele>
        <time>2018-04-30T09:18:48Z</time>
      </trkpt>
      <trkpt lat="62.639722452139" lon="17.723603657652">
        <ele>57.8</ele>
        <time>2018-04-30T09:18:49Z</time>
      </trkpt>
      <trkpt lat="62.639593622336" lon="17.723921331662">
        <ele>57.6</ele>
        <time>2018-04-30T09:20:00Z</time>
      </trkpt>
      <trkpt lat="62.639577026174" lon="17.724004228653">
        <ele>57.6</ele>
        <time>2018-04-30T09:20:01Z</time>
      </trkpt>
      <trkpt lat="62.639559172727" lon="17.724095172268">
        <ele>57.8</ele>
        <time>2018-04-30T09:20:02Z</time>
      </trkpt>
      <trkpt lat="62.639533356475" lon="17.724231881057">
        <ele>57.8</ele>
        <time>2018-04-30T09:20:03Z</time>
      </trkpt>
      <trkpt lat="62.639515754485" lon="17.724339085558">
        <ele>57.6</ele>
        <time>2018-04-30T09:20:04Z</time>
      </trkpt>
      <trkpt lat="62.63949270426" lon="17.724472022492">
        <ele>57.6</ele>
        <time>2018-04-30T09:20:05Z</time>
      </trkpt>
      <trkpt lat="62.63947174951" lon="17.724578053527">
        <ele>57.4</ele>
        <time>2018-04-30T09:20:06Z</time>
      </trkpt>
      <trkpt lat="62.639447525819" lon="17.724701686552">
        <ele>57.4</ele>
        <time>2018-04-30T09:20:07Z</time>
      </trkpt>
      <trkpt lat="62.639421122834" lon="17.724834372029">
        <ele>57.6</ele>
        <time>2018-04-30T09:20:08Z</time>
      </trkpt>
      <trkpt lat="62.639396563867" lon="17.724962866556">
        <ele>57.6</ele>
        <time>2018-04-30T09:20:09Z</time>
      </trkpt>
      <trkpt lat="62.639373010728" lon="17.725083901192">
        <ele>57.6</ele>
        <time>2018-04-30T09:20:10Z</time>
      </trkpt>
      <trkpt lat="62.639345099001" lon="17.725216419031">
        <ele>57.4</ele>
        <time>2018-04-30T09:20:11Z</time>
      </trkpt>
      <trkpt lat="62.639318276921" lon="17.725334436183">
        <ele>57.4</ele>
        <time>2018-04-30T09:20:12Z</time>
      </trkpt>
      <trkpt lat="62.639287180072" lon="17.725465361461">
        <ele>57.2</ele>
        <time>2018-04-30T09:20:13Z</time>
      </trkpt>
      <trkpt lat="62.639257927241" lon="17.725594191264">
        <ele>57</ele>
        <time>2018-04-30T09:20:14Z</time>
      </trkpt>
      <trkpt lat="62.639229261143" lon="17.72572193142">
        <ele>57.2</ele>
        <time>2018-04-30T09:20:15Z</time>
      </trkpt>
      <trkpt lat="62.639202187606" lon="17.725840200029">
        <ele>57.2</ele>
        <time>2018-04-30T09:20:16Z</time>
      </trkpt>
      <trkpt lat="62.639171258395" lon="17.725966179986">
        <ele>57.2</ele>
        <time>2018-04-30T09:20:17Z</time>
      </trkpt>
      <trkpt lat="62.63913479713" lon="17.726104900431">
        <ele>57.2</ele>
        <time>2018-04-30T09:20:18Z</time>
      </trkpt>
      <trkpt lat="62.639101520987" lon="17.726226102705">
        <ele>57.2</ele>
        <time>2018-04-30T09:20:19Z</time>
      </trkpt>
      <trkpt lat="62.639063467161" lon="17.726355770698">
        <ele>57.2</ele>
        <time>2018-04-30T09:20:20Z</time>
      </trkpt>
      <trkpt lat="62.639030442475" lon="17.726471105642">
        <ele>57.4</ele>
        <time>2018-04-30T09:20:21Z</time>
      </trkpt>
      <trkpt lat="62.639000519092" lon="17.726587697871">
        <ele>57.2</ele>
        <time>2018-04-30T09:20:22Z</time>
      </trkpt>
      <trkpt lat="62.638959280144" lon="17.726725915402">
        <ele>57.4</ele>
        <time>2018-04-30T09:20:23Z</time>
      </trkpt>
      <trkpt lat="62.63892105868" lon="17.726848961694">
        <ele>57.6</ele>
        <time>2018-04-30T09:20:24Z</time>
      </trkpt>
      <trkpt lat="62.638884848872" lon="17.726971253615">
        <ele>57.6</ele>
        <time>2018-04-30T09:20:25Z</time>
      </trkpt>
      <trkpt lat="62.638848303788" lon="17.727094299907">
        <ele>57.6</ele>
        <time>2018-04-30T09:20:26Z</time>
      </trkpt>
      <trkpt lat="62.638812596894" lon="17.727203264607">
        <ele>57.6</ele>
        <time>2018-04-30T09:20:27Z</time>
      </trkpt>
      <trkpt lat="62.638774459249" lon="17.727319605379">
        <ele>57.4</ele>
        <time>2018-04-30T09:20:28Z</time>
      </trkpt>
      <trkpt lat="62.6387349805" lon="17.727443238404">
        <ele>57.6</ele>
        <time>2018-04-30T09:20:29Z</time>
      </trkpt>
      <trkpt lat="62.638698854511" lon="17.727559914452">
        <ele>57.8</ele>
        <time>2018-04-30T09:20:30Z</time>
      </trkpt>
      <trkpt lat="62.638663985807" lon="17.727675500853">
        <ele>58.2</ele>
        <time>2018-04-30T09:20:31Z</time>
      </trkpt>
      <trkpt lat="62.638625009972" lon="17.727784046458">
        <ele>58.4</ele>
        <time>2018-04-30T09:20:32Z</time>
      </trkpt>
      <trkpt lat="62.638583687205" lon="17.727904326723">
        <ele>58.6</ele>
        <time>2018-04-30T09:20:33Z</time>
      </trkpt>
      <trkpt lat="62.638549991967" lon="17.728013207604">
        <ele>58.8</ele>
        <time>2018-04-30T09:20:34Z</time>
      </trkpt>
      <trkpt lat="62.638510513218" lon="17.728144887253">
        <ele>59</ele>
        <time>2018-04-30T09:20:35Z</time>
      </trkpt>
      <trkpt lat="62.638473716677" lon="17.728242620207">
        <ele>59.2</ele>
        <time>2018-04-30T09:20:36Z</time>
      </trkpt>
      <trkpt lat="62.638435243756" lon="17.728361140273">
        <ele>59</ele>
        <time>2018-04-30T09:20:37Z</time>
      </trkpt>
      <trkpt lat="62.638399536862" lon="17.728485360031">
        <ele>59.2</ele>
        <time>2018-04-30T09:20:38Z</time>
      </trkpt>
      <trkpt lat="62.63836366233" lon="17.728602455174">
        <ele>59.2</ele>
        <time>2018-04-30T09:20:39Z</time>
      </trkpt>
      <trkpt lat="62.638331643472" lon="17.728717957756">
        <ele>59.2</ele>
        <time>2018-04-30T09:20:40Z</time>
      </trkpt>
      <trkpt lat="62.638294679293" lon="17.728844272989">
        <ele>59.2</ele>
        <time>2018-04-30T09:20:41Z</time>
      </trkpt>
      <trkpt lat="62.638264252996" lon="17.728958518286">
        <ele>59.2</ele>
        <time>2018-04-30T09:20:42Z</time>
      </trkpt>
      <trkpt lat="62.638228546102" lon="17.72908894065">
        <ele>59.2</ele>
        <time>2018-04-30T09:20:43Z</time>
      </trkpt>
      <trkpt lat="62.63819686252" lon="17.729208131268">
        <ele>59.2</ele>
        <time>2018-04-30T09:20:44Z</time>
      </trkpt>
      <trkpt lat="62.638170459535" lon="17.729334949415">
        <ele>59.2</ele>
        <time>2018-04-30T09:20:45Z</time>
      </trkpt>
      <trkpt lat="62.638143721274" lon="17.729452798929">
        <ele>59.4</ele>
        <time>2018-04-30T09:20:46Z</time>
      </trkpt>
      <trkpt lat="62.638116312461" lon="17.729576515773">
        <ele>59.2</ele>
        <time>2018-04-30T09:20:47Z</time>
      </trkpt>
      <trkpt lat="62.638090496209" lon="17.729712051096">
        <ele>59.2</ele>
        <time>2018-04-30T09:20:48Z</time>
      </trkpt>
      <trkpt lat="62.638062919758" lon="17.72984834079">
        <ele>59.2</ele>
        <time>2018-04-30T09:20:49Z</time>
      </trkpt>
      <trkpt lat="62.638038863705" lon="17.72997574567">
        <ele>59.4</ele>
        <time>2018-04-30T09:20:50Z</time>
      </trkpt>
      <trkpt lat="62.638016316394" lon="17.730105246025">
        <ele>59.4</ele>
        <time>2018-04-30T09:20:51Z</time>
      </trkpt>
      <trkpt lat="62.637992176522" lon="17.730228795231">
        <ele>59.4</ele>
        <time>2018-04-30T09:20:52Z</time>
      </trkpt>
      <trkpt lat="62.63796636027" lon="17.730380926716">
        <ele>59.6</ele>
        <time>2018-04-30T09:20:53Z</time>
      </trkpt>
      <trkpt lat="62.637947333357" lon="17.730519898618">
        <ele>59.8</ele>
        <time>2018-04-30T09:20:54Z</time>
      </trkpt>
      <trkpt lat="62.637927216797" lon="17.730659960167">
        <ele>59.8</ele>
        <time>2018-04-30T09:20:55Z</time>
      </trkpt>
      <trkpt lat="62.637909195712" lon="17.730799351164">
        <ele>59.8</ele>
        <time>2018-04-30T09:20:56Z</time>
      </trkpt>
      <trkpt lat="62.637890001161" lon="17.730932791012">
        <ele>59.8</ele>
        <time>2018-04-30T09:20:57Z</time>
      </trkpt>
      <trkpt lat="62.637874075551" lon="17.731075031855">
        <ele>59.8</ele>
        <time>2018-04-30T09:20:58Z</time>
      </trkpt>
      <trkpt lat="62.637859239588" lon="17.731223559123">
        <ele>59.8</ele>
        <time>2018-04-30T09:20:59Z</time>
      </trkpt>
      <trkpt lat="62.63784398453" lon="17.73136714107">
        <ele>59.8</ele>
        <time>2018-04-30T09:21:00Z</time>
      </trkpt>
      <trkpt lat="62.63783057349" lon="17.731513572863">
        <ele>60</ele>
        <time>2018-04-30T09:21:01Z</time>
      </trkpt>
      <trkpt lat="62.637818755011" lon="17.731646342159">
        <ele>60</ele>
        <time>2018-04-30T09:21:02Z</time>
      </trkpt>
      <trkpt lat="62.637808026179" lon="17.731795791436">
        <ele>60.2</ele>
        <time>2018-04-30T09:21:03Z</time>
      </trkpt>
      <trkpt lat="62.637799728098" lon="17.731932500225">
        <ele>60.4</ele>
        <time>2018-04-30T09:21:04Z</time>
      </trkpt>
      <trkpt lat="62.637793106397" lon="17.732084715529">
        <ele>60.4</ele>
        <time>2018-04-30T09:21:05Z</time>
      </trkpt>
      <trkpt lat="62.63778866399" lon="17.73222125668">
        <ele>60.6</ele>
        <time>2018-04-30T09:21:06Z</time>
      </trkpt>
      <trkpt lat="62.637781874651" lon="17.732368359025">
        <ele>60.6</ele>
        <time>2018-04-30T09:21:07Z</time>
      </trkpt>
      <trkpt lat="62.637767876878" lon="17.732521999252">
        <ele>60.6</ele>
        <time>2018-04-30T09:21:08Z</time>
      </trkpt>
      <trkpt lat="62.637761506634" lon="17.732667257579">
        <ele>60.8</ele>
        <time>2018-04-30T09:21:09Z</time>
      </trkpt>
      <trkpt lat="62.637756226037" lon="17.732811929173">
        <ele>60.8</ele>
        <time>2018-04-30T09:21:10Z</time>
      </trkpt>
      <trkpt lat="62.637747173585" lon="17.732967078142">
        <ele>60.8</ele>
        <time>2018-04-30T09:21:11Z</time>
      </trkpt>
      <trkpt lat="62.637739629875" lon="17.733105798587">
        <ele>60.8</ele>
        <time>2018-04-30T09:21:12Z</time>
      </trkpt>
      <trkpt lat="62.637733091993" lon="17.733265976696">
        <ele>60.8</ele>
        <time>2018-04-30T09:21:13Z</time>
      </trkpt>
      <trkpt lat="62.637726051197" lon="17.733411737937">
        <ele>60.8</ele>
        <time>2018-04-30T09:21:14Z</time>
      </trkpt>
      <trkpt lat="62.637718339849" lon="17.733556158074">
        <ele>60.8</ele>
        <time>2018-04-30T09:21:15Z</time>
      </trkpt>
      <trkpt lat="62.637706605189" lon="17.733690184655">
        <ele>61</ele>
        <time>2018-04-30T09:21:16Z</time>
      </trkpt>
      <trkpt lat="62.637697888013" lon="17.733848099651">
        <ele>61</ele>
        <time>2018-04-30T09:21:17Z</time>
      </trkpt>
      <trkpt lat="62.63769143395" lon="17.73399235215">
        <ele>61</ele>
        <time>2018-04-30T09:21:18Z</time>
      </trkpt>
      <trkpt lat="62.637681794765" lon="17.734135934097">
        <ele>61.2</ele>
        <time>2018-04-30T09:21:19Z</time>
      </trkpt>
      <trkpt lat="62.637671987942" lon="17.734285551012">
        <ele>61.2</ele>
        <time>2018-04-30T09:21:20Z</time>
      </trkpt>
      <trkpt lat="62.637664947146" lon="17.734426786027">
        <ele>61.2</ele>
        <time>2018-04-30T09:21:21Z</time>
      </trkpt>
      <trkpt lat="62.637656397608" lon="17.734572211992">
        <ele>61.4</ele>
        <time>2018-04-30T09:21:22Z</time>
      </trkpt>
      <trkpt lat="62.637646255509" lon="17.734745717322">
        <ele>61.4</ele>
        <time>2018-04-30T09:21:23Z</time>
      </trkpt>
      <trkpt lat="62.637642148378" lon="17.734903799956">
        <ele>61.4</ele>
        <time>2018-04-30T09:21:24Z</time>
      </trkpt>
      <trkpt lat="62.637634185573" lon="17.735064648617">
        <ele>61.4</ele>
        <time>2018-04-30T09:21:25Z</time>
      </trkpt>
      <trkpt lat="62.637626809501" lon="17.735223234165">
        <ele>61.6</ele>
        <time>2018-04-30T09:21:26Z</time>
      </trkpt>
      <trkpt lat="62.637618259963" lon="17.735371426157">
        <ele>61.4</ele>
        <time>2018-04-30T09:21:27Z</time>
      </trkpt>
      <trkpt lat="62.637612141176" lon="17.735549792989">
        <ele>61.4</ele>
        <time>2018-04-30T09:21:28Z</time>
      </trkpt>
      <trkpt lat="62.637605854751" lon="17.735711312202">
        <ele>61.4</ele>
        <time>2018-04-30T09:21:29Z</time>
      </trkpt>
      <trkpt lat="62.637599065412" lon="17.735876267994">
        <ele>61.4</ele>
        <time>2018-04-30T09:21:30Z</time>
      </trkpt>
      <trkpt lat="62.637591521702" lon="17.736038793035">
        <ele>61.4</ele>
        <time>2018-04-30T09:21:31Z</time>
      </trkpt>
      <trkpt lat="62.637583223621" lon="17.736206179578">
        <ele>61.2</ele>
        <time>2018-04-30T09:21:32Z</time>
      </trkpt>
      <trkpt lat="62.637572327151" lon="17.7363686208">
        <ele>61.2</ele>
        <time>2018-04-30T09:21:33Z</time>
      </trkpt>
      <trkpt lat="62.637562017414" lon="17.736532738402">
        <ele>61.2</ele>
        <time>2018-04-30T09:21:34Z</time>
      </trkpt>
      <trkpt lat="62.637550534211" lon="17.736693251787">
        <ele>61</ele>
        <time>2018-04-30T09:21:35Z</time>
      </trkpt>
      <trkpt lat="62.637543828691" lon="17.736842868702">
        <ele>61</ele>
        <time>2018-04-30T09:21:36Z</time>
      </trkpt>
      <trkpt lat="62.637536284981" lon="17.737022744276">
        <ele>60.8</ele>
        <time>2018-04-30T09:21:37Z</time>
      </trkpt>
      <trkpt lat="62.637527819262" lon="17.737187029516">
        <ele>60.4</ele>
        <time>2018-04-30T09:21:38Z</time>
      </trkpt>
      <trkpt lat="62.637519353543" lon="17.737350644204">
        <ele>60.4</ele>
        <time>2018-04-30T09:21:39Z</time>
      </trkpt>
      <trkpt lat="62.637510636367" lon="17.737518282204">
        <ele>60.2</ele>
        <time>2018-04-30T09:21:40Z</time>
      </trkpt>
      <trkpt lat="62.637501248639" lon="17.737683154177">
        <ele>60.2</ele>
        <time>2018-04-30T09:21:41Z</time>
      </trkpt>
      <trkpt lat="62.637490855083" lon="17.737844924847">
        <ele>60</ele>
        <time>2018-04-30T09:21:42Z</time>
      </trkpt>
      <trkpt lat="62.637480964441" lon="17.738010467372">
        <ele>60</ele>
        <time>2018-04-30T09:21:43Z</time>
      </trkpt>
      <trkpt lat="62.637470235609" lon="17.738173914422">
        <ele>59.8</ele>
        <time>2018-04-30T09:21:44Z</time>
      </trkpt>
      <trkpt lat="62.637458584768" lon="17.738334679264">
        <ele>59.8</ele>
        <time>2018-04-30T09:21:45Z</time>
      </trkpt>
      <trkpt lat="62.63745338799" lon="17.738386898501">
        <ele>59.8</ele>
        <time>2018-04-30T09:21:46Z</time>
      </trkpt>
      <trkpt lat="62.637428326109" lon="17.738637265854">
        <ele>59.6</ele>
        <time>2018-04-30T09:21:47Z</time>
      </trkpt>
      <trkpt lat="62.637420782399" lon="17.738727958012">
        <ele>59.6</ele>
        <time>2018-04-30T09:21:48Z</time>
      </trkpt>
      <trkpt lat="62.63740728754" lon="17.738889393406">
        <ele>59.8</ele>
        <time>2018-04-30T09:21:49Z</time>
      </trkpt>
      <trkpt lat="62.637393792681" lon="17.739050577343">
        <ele>60</ele>
        <time>2018-04-30T09:21:50Z</time>
      </trkpt>
      <trkpt lat="62.637379208175" lon="17.739207737968">
        <ele>60</ele>
        <time>2018-04-30T09:21:51Z</time>
      </trkpt>
      <trkpt lat="62.637355822674" lon="17.73944896905">
        <ele>60.2</ele>
        <time>2018-04-30T09:21:52Z</time>
      </trkpt>
      <trkpt lat="62.637338975055" lon="17.739602944553">
        <ele>60.2</ele>
        <time>2018-04-30T09:21:53Z</time>
      </trkpt>
      <trkpt lat="62.637321708341" lon="17.739756081866">
        <ele>60</ele>
        <time>2018-04-30T09:21:54Z</time>
      </trkpt>
      <trkpt lat="62.637304776903" lon="17.739908213351">
        <ele>60.2</ele>
        <time>2018-04-30T09:21:55Z</time>
      </trkpt>
      <trkpt lat="62.63728742637" lon="17.740059758103">
        <ele>60.4</ele>
        <time>2018-04-30T09:21:56Z</time>
      </trkpt>
      <trkpt lat="62.637271668398" lon="17.740200993118">
        <ele>60.6</ele>
        <time>2018-04-30T09:21:57Z</time>
      </trkpt>
      <trkpt lat="62.637252390028" lon="17.740359578666">
        <ele>61</ele>
        <time>2018-04-30T09:21:58Z</time>
      </trkpt>
      <trkpt lat="62.637234285124" lon="17.740508105934">
        <ele>61.2</ele>
        <time>2018-04-30T09:21:59Z</time>
      </trkpt>
      <trkpt lat="62.637215761125" lon="17.740656381745">
        <ele>61</ele>
        <time>2018-04-30T09:22:00Z</time>
      </trkpt>
      <trkpt lat="62.637196231298" lon="17.740802059167">
        <ele>60.8</ele>
        <time>2018-04-30T09:22:01Z</time>
      </trkpt>
      <trkpt lat="62.637176450014" lon="17.740938265042">
        <ele>60.6</ele>
        <time>2018-04-30T09:22:02Z</time>
      </trkpt>
      <trkpt lat="62.637156081997" lon="17.741098694608">
        <ele>60.4</ele>
        <time>2018-04-30T09:22:03Z</time>
      </trkpt>
      <trkpt lat="62.637136216894" lon="17.741236493044">
        <ele>60</ele>
        <time>2018-04-30T09:22:04Z</time>
      </trkpt>
      <trkpt lat="62.637119285456" lon="17.741363311191">
        <ele>59.8</ele>
        <time>2018-04-30T09:22:05Z</time>
      </trkpt>
      <trkpt lat="62.63709799543" lon="17.741531200648">
        <ele>59.8</ele>
        <time>2018-04-30T09:22:06Z</time>
      </trkpt>
      <trkpt lat="62.637078633241" lon="17.741679057364">
        <ele>59.8</ele>
        <time>2018-04-30T09:22:07Z</time>
      </trkpt>
      <trkpt lat="62.637058349043" lon="17.741839403111">
        <ele>59.8</ele>
        <time>2018-04-30T09:22:08Z</time>
      </trkpt>
      <trkpt lat="62.637039070673" lon="17.741985834904">
        <ele>60</ele>
        <time>2018-04-30T09:22:09Z</time>
      </trkpt>
      <trkpt lat="62.637019876122" lon="17.74212111877">
        <ele>60</ele>
        <time>2018-04-30T09:22:10Z</time>
      </trkpt>
      <trkpt lat="62.636999172829" lon="17.742273501712">
        <ele>60</ele>
        <time>2018-04-30T09:22:11Z</time>
      </trkpt>
      <trkpt lat="62.636985342694" lon="17.742406773922">
        <ele>60</ele>
        <time>2018-04-30T09:22:12Z</time>
      </trkpt>
      <trkpt lat="62.636970171455" lon="17.742561419977">
        <ele>60.2</ele>
        <time>2018-04-30T09:22:13Z</time>
      </trkpt>
      <trkpt lat="62.636955419311" lon="17.742709695788">
        <ele>60</ele>
        <time>2018-04-30T09:22:14Z</time>
      </trkpt>
      <trkpt lat="62.636943181737" lon="17.742846320758">
        <ele>60.2</ele>
        <time>2018-04-30T09:22:15Z</time>
      </trkpt>
      <trkpt lat="62.636933374914" lon="17.742989651248">
        <ele>60</ele>
        <time>2018-04-30T09:22:16Z</time>
      </trkpt>
      <trkpt lat="62.636923316634" lon="17.743139854896">
        <ele>60</ele>
        <time>2018-04-30T09:22:17Z</time>
      </trkpt>
      <trkpt lat="62.636913090716" lon="17.743298356625">
        <ele>60</ele>
        <time>2018-04-30T09:22:18Z</time>
      </trkpt>
      <trkpt lat="62.636904541178" lon="17.743448727911">
        <ele>60</ele>
        <time>2018-04-30T09:22:19Z</time>
      </trkpt>
      <trkpt lat="62.636894650536" lon="17.743598512464">
        <ele>60.2</ele>
        <time>2018-04-30T09:22:20Z</time>
      </trkpt>
      <trkpt lat="62.636886352455" lon="17.743735975624">
        <ele>60.4</ele>
        <time>2018-04-30T09:22:21Z</time>
      </trkpt>
      <trkpt lat="62.63688090422" lon="17.743879725209">
        <ele>60.6</ele>
        <time>2018-04-30T09:22:22Z</time>
      </trkpt>
      <trkpt lat="62.636876294175" lon="17.744047866123">
        <ele>60.8</ele>
        <time>2018-04-30T09:22:23Z</time>
      </trkpt>
      <trkpt lat="62.636871767949" lon="17.744198237409">
        <ele>60.8</ele>
        <time>2018-04-30T09:22:24Z</time>
      </trkpt>
      <trkpt lat="62.63686749318" lon="17.744349614523">
        <ele>60.8</ele>
        <time>2018-04-30T09:22:25Z</time>
      </trkpt>
      <trkpt lat="62.636866403533" lon="17.744502751836">
        <ele>61</ele>
        <time>2018-04-30T09:22:26Z</time>
      </trkpt>
      <trkpt lat="62.636866068257" lon="17.744647842525">
        <ele>61</ele>
        <time>2018-04-30T09:22:27Z</time>
      </trkpt>
      <trkpt lat="62.636869672474" lon="17.744803578227">
        <ele>61</ele>
        <time>2018-04-30T09:22:28Z</time>
      </trkpt>
      <trkpt lat="62.636871013578" lon="17.744969204571">
        <ele>61</ele>
        <time>2018-04-30T09:22:29Z</time>
      </trkpt>
      <trkpt lat="62.636871348854" lon="17.74513022087">
        <ele>61</ele>
        <time>2018-04-30T09:22:30Z</time>
      </trkpt>
      <trkpt lat="62.636873192872" lon="17.745287046219">
        <ele>61.2</ele>
        <time>2018-04-30T09:22:31Z</time>
      </trkpt>
      <trkpt lat="62.636872438501" lon="17.745439261523">
        <ele>61.2</ele>
        <time>2018-04-30T09:22:32Z</time>
      </trkpt>
      <trkpt lat="62.636871348854" lon="17.745613688862">
        <ele>61.2</ele>
        <time>2018-04-30T09:22:33Z</time>
      </trkpt>
      <trkpt lat="62.636873025234" lon="17.745767580546">
        <ele>61.2</ele>
        <time>2018-04-30T09:22:34Z</time>
      </trkpt>
      <trkpt lat="62.636875372166" lon="17.74594326517">
        <ele>61.2</ele>
        <time>2018-04-30T09:22:35Z</time>
      </trkpt>
      <trkpt lat="62.636876210356" lon="17.746100509614">
        <ele>61.4</ele>
        <time>2018-04-30T09:22:36Z</time>
      </trkpt>
      <trkpt lat="62.636877635279" lon="17.746269404899">
        <ele>61.2</ele>
        <time>2018-04-30T09:22:37Z</time>
      </trkpt>
      <trkpt lat="62.636877970555" lon="17.746448526102">
        <ele>61.2</ele>
        <time>2018-04-30T09:22:38Z</time>
      </trkpt>
      <trkpt lat="62.636880568944" lon="17.746618762491">
        <ele>61.2</ele>
        <time>2018-04-30T09:22:39Z</time>
      </trkpt>
      <trkpt lat="62.636882664419" lon="17.746779275876">
        <ele>61</ele>
        <time>2018-04-30T09:22:40Z</time>
      </trkpt>
      <trkpt lat="62.636885011351" lon="17.746962420391">
        <ele>60.8</ele>
        <time>2018-04-30T09:22:41Z</time>
      </trkpt>
      <trkpt lat="62.636885598084" lon="17.747126454174">
        <ele>61</ele>
        <time>2018-04-30T09:22:42Z</time>
      </trkpt>
      <trkpt lat="62.636884340799" lon="17.747307419395">
        <ele>60.8</ele>
        <time>2018-04-30T09:22:43Z</time>
      </trkpt>
      <trkpt lat="62.636884508437" lon="17.747481679096">
        <ele>60.8</ele>
        <time>2018-04-30T09:22:44Z</time>
      </trkpt>
      <trkpt lat="62.636882915876" lon="17.747651244933">
        <ele>60.6</ele>
        <time>2018-04-30T09:22:45Z</time>
      </trkpt>
      <trkpt lat="62.636881071858" lon="17.747806142445">
        <ele>60.6</ele>
        <time>2018-04-30T09:22:46Z</time>
      </trkpt>
      <trkpt lat="62.636877970555" lon="17.747974702454">
        <ele>60.6</ele>
        <time>2018-04-30T09:22:47Z</time>
      </trkpt>
      <trkpt lat="62.636874366338" lon="17.74815441039">
        <ele>60.4</ele>
        <time>2018-04-30T09:22:48Z</time>
      </trkpt>
      <trkpt lat="62.636868415189" lon="17.748322383666">
        <ele>60.6</ele>
        <time>2018-04-30T09:22:49Z</time>
      </trkpt>
      <trkpt lat="62.636859278918" lon="17.748490943675">
        <ele>60.6</ele>
        <time>2018-04-30T09:22:50Z</time>
      </trkpt>
      <trkpt lat="62.636851316113" lon="17.748644500083">
        <ele>60.6</ele>
        <time>2018-04-30T09:22:51Z</time>
      </trkpt>
      <trkpt lat="62.636840335824" lon="17.748798224129">
        <ele>60.6</ele>
        <time>2018-04-30T09:22:52Z</time>
      </trkpt>
      <trkpt lat="62.636825918956" lon="17.748980698092">
        <ele>60.6</ele>
        <time>2018-04-30T09:22:53Z</time>
      </trkpt>
      <trkpt lat="62.636812507916" lon="17.749145570065">
        <ele>60.6</ele>
        <time>2018-04-30T09:22:54Z</time>
      </trkpt>
      <trkpt lat="62.636797252858" lon="17.749312286056">
        <ele>60.6</ele>
        <time>2018-04-30T09:22:55Z</time>
      </trkpt>
      <trkpt lat="62.636783003628" lon="17.749479002047">
        <ele>60.6</ele>
        <time>2018-04-30T09:22:56Z</time>
      </trkpt>
      <trkpt lat="62.63676858676" lon="17.74963884488">
        <ele>60.6</ele>
        <time>2018-04-30T09:22:57Z</time>
      </trkpt>
      <trkpt lat="62.636750817132" lon="17.749810338554">
        <ele>60.8</ele>
        <time>2018-04-30T09:22:58Z</time>
      </trkpt>
      <trkpt lat="62.636732125495" lon="17.749994488897">
        <ele>60.8</ele>
        <time>2018-04-30T09:22:59Z</time>
      </trkpt>
      <trkpt lat="62.63671075165" lon="17.750170173521">
        <ele>60.6</ele>
        <time>2018-04-30T09:23:00Z</time>
      </trkpt>
      <trkpt lat="62.636690383633" lon="17.75035298276">
        <ele>60.6</ele>
        <time>2018-04-30T09:23:01Z</time>
      </trkpt>
      <trkpt lat="62.636672781643" lon="17.750528248289">
        <ele>60.6</ele>
        <time>2018-04-30T09:23:02Z</time>
      </trkpt>
      <trkpt lat="62.636650737246" lon="17.750731257907">
        <ele>60.2</ele>
        <time>2018-04-30T09:23:03Z</time>
      </trkpt>
      <trkpt lat="62.636629363401" lon="17.750914905336">
        <ele>60</ele>
        <time>2018-04-30T09:23:04Z</time>
      </trkpt>
      <trkpt lat="62.636605474986" lon="17.751120597162">
        <ele>60</ele>
        <time>2018-04-30T09:23:05Z</time>
      </trkpt>
      <trkpt lat="62.636584687874" lon="17.751304747505">
        <ele>59.8</ele>
        <time>2018-04-30T09:23:06Z</time>
      </trkpt>
      <trkpt lat="62.636561637649" lon="17.751500213413">
        <ele>59.6</ele>
        <time>2018-04-30T09:23:07Z</time>
      </trkpt>
      <trkpt lat="62.636536827225" lon="17.751713448949">
        <ele>59</ele>
        <time>2018-04-30T09:23:08Z</time>
      </trkpt>
      <trkpt lat="62.636513693181" lon="17.751915285101">
        <ele>58.8</ele>
        <time>2018-04-30T09:23:09Z</time>
      </trkpt>
      <trkpt lat="62.636492319336" lon="17.752098764892">
        <ele>58.6</ele>
        <time>2018-04-30T09:23:10Z</time>
      </trkpt>
      <trkpt lat="62.63646683836" lon="17.752306971288">
        <ele>58.4</ele>
        <time>2018-04-30T09:23:11Z</time>
      </trkpt>
      <trkpt lat="62.63644336904" lon="17.752490031984">
        <ele>58.2</ele>
        <time>2018-04-30T09:23:12Z</time>
      </trkpt>
      <trkpt lat="62.636417720426" lon="17.752700501493">
        <ele>58</ele>
        <time>2018-04-30T09:23:13Z</time>
      </trkpt>
      <trkpt lat="62.636395508391" lon="17.752898398152">
        <ele>58</ele>
        <time>2018-04-30T09:23:14Z</time>
      </trkpt>
      <trkpt lat="62.636372290528" lon="17.75309721682">
        <ele>58</ele>
        <time>2018-04-30T09:23:15Z</time>
      </trkpt>
      <trkpt lat="62.636348485932" lon="17.753279858421">
        <ele>57.8</ele>
        <time>2018-04-30T09:23:16Z</time>
      </trkpt>
      <trkpt lat="62.636323675508" lon="17.753474653777">
        <ele>57.8</ele>
        <time>2018-04-30T09:23:17Z</time>
      </trkpt>
      <trkpt lat="62.636299787093" lon="17.753682692535">
        <ele>57.4</ele>
        <time>2018-04-30T09:23:18Z</time>
      </trkpt>
      <trkpt lat="62.636277239782" lon="17.753879499547">
        <ele>57.2</ele>
        <time>2018-04-30T09:23:19Z</time>
      </trkpt>
      <trkpt lat="62.636253519005" lon="17.754079994595">
        <ele>56.8</ele>
        <time>2018-04-30T09:23:20Z</time>
      </trkpt>
      <trkpt lat="62.636233234807" lon="17.754264564033">
        <ele>56.6</ele>
        <time>2018-04-30T09:23:21Z</time>
      </trkpt>
      <trkpt lat="62.636210268401" lon="17.754449971661">
        <ele>56.4</ele>
        <time>2018-04-30T09:23:22Z</time>
      </trkpt>
      <trkpt lat="62.636180847932" lon="17.754669325984">
        <ele>56.2</ele>
        <time>2018-04-30T09:23:23Z</time>
      </trkpt>
      <trkpt lat="62.636155450775" lon="17.754864205159">
        <ele>56.2</ele>
        <time>2018-04-30T09:23:24Z</time>
      </trkpt>
      <trkpt lat="62.636127874324" lon="17.755055563936">
        <ele>56.2</ele>
        <time>2018-04-30T09:23:25Z</time>
      </trkpt>
      <trkpt lat="62.636101471339" lon="17.755248096179">
        <ele>56.2</ele>
        <time>2018-04-30T09:23:26Z</time>
      </trkpt>
      <trkpt lat="62.636076577096" lon="17.755425121907">
        <ele>56.2</ele>
        <time>2018-04-30T09:23:27Z</time>
      </trkpt>
      <trkpt lat="62.636048078636" lon="17.755609942802">
        <ele>56.2</ele>
        <time>2018-04-30T09:23:28Z</time>
      </trkpt>
      <trkpt lat="62.636014131941" lon="17.755805911624">
        <ele>56.2</ele>
        <time>2018-04-30T09:23:29Z</time>
      </trkpt>
      <trkpt lat="62.635981861626" lon="17.755990397243">
        <ele>56.2</ele>
        <time>2018-04-30T09:23:30Z</time>
      </trkpt>
      <trkpt lat="62.635948585483" lon="17.756171446283">
        <ele>56.4</ele>
        <time>2018-04-30T09:23:31Z</time>
      </trkpt>
      <trkpt lat="62.635914890245" lon="17.756337743179">
        <ele>56.4</ele>
        <time>2018-04-30T09:23:32Z</time>
      </trkpt>
      <trkpt lat="62.635875746772" lon="17.756520468599">
        <ele>56.4</ele>
        <time>2018-04-30T09:23:33Z</time>
      </trkpt>
      <trkpt lat="62.635862922465" lon="17.756581069736">
        <ele>56.4</ele>
        <time>2018-04-30T09:23:34Z</time>
      </trkpt>
      <trkpt lat="62.635807350468" lon="17.756838645523">
        <ele>56.4</ele>
        <time>2018-04-30T09:23:35Z</time>
      </trkpt>
      <trkpt lat="62.635769380461" lon="17.7570048586">
        <ele>56.2</ele>
        <time>2018-04-30T09:23:36Z</time>
      </trkpt>
      <trkpt lat="62.635732500101" lon="17.757163863243">
        <ele>56.2</ele>
        <time>2018-04-30T09:23:37Z</time>
      </trkpt>
      <trkpt lat="62.635695368284" lon="17.75732001804">
        <ele>56.4</ele>
        <time>2018-04-30T09:23:38Z</time>
      </trkpt>
      <trkpt lat="62.635655721897" lon="17.757477765398">
        <ele>56.4</ele>
        <time>2018-04-30T09:23:39Z</time>
      </trkpt>
      <trkpt lat="62.635620182641" lon="17.757617659309">
        <ele>56.4</ele>
        <time>2018-04-30T09:23:40Z</time>
      </trkpt>
      <trkpt lat="62.635578105503" lon="17.757777921237">
        <ele>56.8</ele>
        <time>2018-04-30T09:23:41Z</time>
      </trkpt>
      <trkpt lat="62.635541141324" lon="17.757920413537">
        <ele>57</ele>
        <time>2018-04-30T09:23:42Z</time>
      </trkpt>
      <trkpt lat="62.635498896548" lon="17.758074891954">
        <ele>56.8</ele>
        <time>2018-04-30T09:23:43Z</time>
      </trkpt>
      <trkpt lat="62.635462519102" lon="17.758219563548">
        <ele>56.8</ele>
        <time>2018-04-30T09:23:44Z</time>
      </trkpt>
      <trkpt lat="62.635425135828" lon="17.758364235142">
        <ele>56.6</ele>
        <time>2018-04-30T09:23:45Z</time>
      </trkpt>
      <trkpt lat="62.635390267124" lon="17.758497758809">
        <ele>56.6</ele>
        <time>2018-04-30T09:23:46Z</time>
      </trkpt>
      <trkpt lat="62.635354392592" lon="17.758636898349">
        <ele>56.4</ele>
        <time>2018-04-30T09:23:47Z</time>
      </trkpt>
      <trkpt lat="62.635316422585" lon="17.758788191644">
        <ele>56.2</ele>
        <time>2018-04-30T09:23:48Z</time>
      </trkpt>
      <trkpt lat="62.635282308252" lon="17.758928253193">
        <ele>56</ele>
        <time>2018-04-30T09:23:49Z</time>
      </trkpt>
      <trkpt lat="62.635248696833" lon="17.759062112136">
        <ele>56</ele>
        <time>2018-04-30T09:23:50Z</time>
      </trkpt>
      <trkpt lat="62.635216761794" lon="17.759182727677">
        <ele>56</ele>
        <time>2018-04-30T09:23:51Z</time>
      </trkpt>
      <trkpt lat="62.635183150375" lon="17.759312814765">
        <ele>56</ele>
        <time>2018-04-30T09:23:52Z</time>
      </trkpt>
      <trkpt lat="62.635141157056" lon="17.759465365345">
        <ele>56</ele>
        <time>2018-04-30T09:23:53Z</time>
      </trkpt>
      <trkpt lat="62.635105869257" lon="17.759598889012">
        <ele>56</ele>
        <time>2018-04-30T09:23:54Z</time>
      </trkpt>
      <trkpt lat="62.635070665277" lon="17.75973400524">
        <ele>56.2</ele>
        <time>2018-04-30T09:23:55Z</time>
      </trkpt>
      <trkpt lat="62.635034958383" lon="17.759864343785">
        <ele>56.2</ele>
        <time>2018-04-30T09:23:56Z</time>
      </trkpt>
      <trkpt lat="62.635002017516" lon="17.75998546224">
        <ele>56.2</ele>
        <time>2018-04-30T09:23:57Z</time>
      </trkpt>
      <trkpt lat="62.634970082477" lon="17.760115549328">
        <ele>56.2</ele>
        <time>2018-04-30T09:23:58Z</time>
      </trkpt>
      <trkpt lat="62.634935297592" lon="17.760256365248">
        <ele>56.2</ele>
        <time>2018-04-30T09:23:59Z</time>
      </trkpt>
      <trkpt lat="62.634903781648" lon="17.760385865603">
        <ele>56.2</ele>
        <time>2018-04-30T09:24:00Z</time>
      </trkpt>
      <trkpt lat="62.634870337867" lon="17.760513689578">
        <ele>56.2</ele>
        <time>2018-04-30T09:24:01Z</time>
      </trkpt>
      <trkpt lat="62.634838905742" lon="17.760633969843">
        <ele>56.2</ele>
        <time>2018-04-30T09:24:02Z</time>
      </trkpt>
      <trkpt lat="62.634804959047" lon="17.76076665532">
        <ele>56.4</ele>
        <time>2018-04-30T09:24:03Z</time>
      </trkpt>
      <trkpt lat="62.634773946017" lon="17.760884253377">
        <ele>56.4</ele>
        <time>2018-04-30T09:24:04Z</time>
      </trkpt>
      <trkpt lat="62.634739831684" lon="17.761011322981">
        <ele>56.4</ele>
        <time>2018-04-30T09:24:05Z</time>
      </trkpt>
      <trkpt lat="62.634710075939" lon="17.761125149183">
        <ele>56.6</ele>
        <time>2018-04-30T09:24:06Z</time>
      </trkpt>
      <trkpt lat="62.634681074565" lon="17.761240987041">
        <ele>56.8</ele>
        <time>2018-04-30T09:24:07Z</time>
      </trkpt>
      <trkpt lat="62.634650732087" lon="17.761367469912">
        <ele>57</ele>
        <time>2018-04-30T09:24:08Z</time>
      </trkpt>
      <trkpt lat="62.63462449674" lon="17.76147995501">
        <ele>57</ele>
        <time>2018-04-30T09:24:09Z</time>
      </trkpt>
      <trkpt lat="62.634596165918" lon="17.761583136199">
        <ele>57.2</ele>
        <time>2018-04-30T09:24:10Z</time>
      </trkpt>
      <trkpt lat="62.634562638318" lon="17.76169369346">
        <ele>57.2</ele>
        <time>2018-04-30T09:24:11Z</time>
      </trkpt>
      <trkpt lat="62.634537576437" lon="17.761791594052">
        <ele>57.4</ele>
        <time>2018-04-30T09:24:12Z</time>
      </trkpt>
      <trkpt lat="62.634509748529" lon="17.761905168797">
        <ele>57.6</ele>
        <time>2018-04-30T09:24:13Z</time>
      </trkpt>
      <trkpt lat="62.634484267553" lon="17.762000554819">
        <ele>57.8</ele>
        <time>2018-04-30T09:24:14Z</time>
      </trkpt>
      <trkpt lat="62.634458954215" lon="17.762096192298">
        <ele>58</ele>
        <time>2018-04-30T09:24:15Z</time>
      </trkpt>
      <trkpt lat="62.634435820171" lon="17.762187303551">
        <ele>58.4</ele>
        <time>2018-04-30T09:24:16Z</time>
      </trkpt>
      <trkpt lat="62.634413021403" lon="17.762283276306">
        <ele>58.6</ele>
        <time>2018-04-30T09:24:17Z</time>
      </trkpt>
      <trkpt lat="62.634389635902" lon="17.762386373676">
        <ele>59</ele>
        <time>2018-04-30T09:24:18Z</time>
      </trkpt>
      <trkpt lat="62.634369938437" lon="17.762481759698">
        <ele>59.4</ele>
        <time>2018-04-30T09:24:19Z</time>
      </trkpt>
      <trkpt lat="62.634348229316" lon="17.762571446028">
        <ele>59.6</ele>
        <time>2018-04-30T09:24:20Z</time>
      </trkpt>
      <trkpt lat="62.63432777748" lon="17.762661383815">
        <ele>60</ele>
        <time>2018-04-30T09:24:21Z</time>
      </trkpt>
      <trkpt lat="62.634307241825" lon="17.762746795376">
        <ele>60.2</ele>
        <time>2018-04-30T09:24:22Z</time>
      </trkpt>
      <trkpt lat="62.634278491908" lon="17.762844695968">
        <ele>60.4</ele>
        <time>2018-04-30T09:24:23Z</time>
      </trkpt>
      <trkpt lat="62.634255106407" lon="17.762934633755">
        <ele>60.8</ele>
        <time>2018-04-30T09:24:24Z</time>
      </trkpt>
      <trkpt lat="62.634234319295" lon="17.763025325913">
        <ele>61.2</ele>
        <time>2018-04-30T09:24:25Z</time>
      </trkpt>
      <trkpt lat="62.634209173595" lon="17.763110066922">
        <ele>61.4</ele>
        <time>2018-04-30T09:24:26Z</time>
      </trkpt>
      <trkpt lat="62.63418779975" lon="17.763188018592">
        <ele>62</ele>
        <time>2018-04-30T09:24:27Z</time>
      </trkpt>
      <trkpt lat="62.634164414249" lon="17.763272927239">
        <ele>62.4</ele>
        <time>2018-04-30T09:24:28Z</time>
      </trkpt>
      <trkpt lat="62.634140944929" lon="17.7633667207">
        <ele>62.6</ele>
        <time>2018-04-30T09:24:29Z</time>
      </trkpt>
      <trkpt lat="62.634117559428" lon="17.763456574668">
        <ele>63</ele>
        <time>2018-04-30T09:24:30Z</time>
      </trkpt>
      <trkpt lat="62.63409308428" lon="17.763544165523">
        <ele>63.2</ele>
        <time>2018-04-30T09:24:31Z</time>
      </trkpt>
      <trkpt lat="62.63407129134" lon="17.763628152161">
        <ele>63.2</ele>
        <time>2018-04-30T09:24:32Z</time>
      </trkpt>
      <trkpt lat="62.634045475088" lon="17.76372127507">
        <ele>63.4</ele>
        <time>2018-04-30T09:24:33Z</time>
      </trkpt>
      <trkpt lat="62.634023933605" lon="17.763807189545">
        <ele>63.4</ele>
        <time>2018-04-30T09:24:34Z</time>
      </trkpt>
      <trkpt lat="62.633997865896" lon="17.763905928327">
        <ele>63.4</ele>
        <time>2018-04-30T09:24:35Z</time>
      </trkpt>
      <trkpt lat="62.633972804015" lon="17.763992680992">
        <ele>63.6</ele>
        <time>2018-04-30T09:24:36Z</time>
      </trkpt>
      <trkpt lat="62.633946652487" lon="17.764081361494">
        <ele>63.4</ele>
        <time>2018-04-30T09:24:37Z</time>
      </trkpt>
      <trkpt lat="62.633918321665" lon="17.76418144138">
        <ele>63.6</ele>
        <time>2018-04-30T09:24:38Z</time>
      </trkpt>
      <trkpt lat="62.633892086318" lon="17.764271211529">
        <ele>63.8</ele>
        <time>2018-04-30T09:24:39Z</time>
      </trkpt>
      <trkpt lat="62.633868197903" lon="17.764360311126">
        <ele>63.8</ele>
        <time>2018-04-30T09:24:40Z</time>
      </trkpt>
      <trkpt lat="62.633842130194" lon="17.764459636641">
        <ele>64</ele>
        <time>2018-04-30T09:24:41Z</time>
      </trkpt>
      <trkpt lat="62.63381564339" lon="17.764547311315">
        <ele>64.2</ele>
        <time>2018-04-30T09:24:42Z</time>
      </trkpt>
      <trkpt lat="62.633787480206" lon="17.764646888287">
        <ele>64.6</ele>
        <time>2018-04-30T09:24:43Z</time>
      </trkpt>
      <trkpt lat="62.633760406669" lon="17.76474302868">
        <ele>64.6</ele>
        <time>2018-04-30T09:24:44Z</time>
      </trkpt>
      <trkpt lat="62.633732075847" lon="17.764840761634">
        <ele>65</ele>
        <time>2018-04-30T09:24:45Z</time>
      </trkpt>
      <trkpt lat="62.633703493568" lon="17.76492826867">
        <ele>65</ele>
        <time>2018-04-30T09:24:46Z</time>
      </trkpt>
      <trkpt lat="62.633672396719" lon="17.765021643036">
        <ele>65.2</ele>
        <time>2018-04-30T09:24:47Z</time>
      </trkpt>
      <trkpt lat="62.633640042585" lon="17.765124572768">
        <ele>65.2</ele>
        <time>2018-04-30T09:24:48Z</time>
      </trkpt>
      <trkpt lat="62.633609951564" lon="17.765221048437">
        <ele>65.4</ele>
        <time>2018-04-30T09:24:49Z</time>
      </trkpt>
      <trkpt lat="62.633579525267" lon="17.765317524106">
        <ele>65.6</ele>
        <time>2018-04-30T09:24:50Z</time>
      </trkpt>
      <trkpt lat="62.633548931332" lon="17.765406372246">
        <ele>65.8</ele>
        <time>2018-04-30T09:24:51Z</time>
      </trkpt>
      <trkpt lat="62.63351892413" lon="17.765496477671">
        <ele>65.8</ele>
        <time>2018-04-30T09:24:52Z</time>
      </trkpt>
      <trkpt lat="62.633481540856" lon="17.765603682172">
        <ele>66</ele>
        <time>2018-04-30T09:24:53Z</time>
      </trkpt>
      <trkpt lat="62.633446923609" lon="17.765703007687">
        <ele>66</ele>
        <time>2018-04-30T09:24:54Z</time>
      </trkpt>
      <trkpt lat="62.633415323846" lon="17.765804009582">
        <ele>66.2</ele>
        <time>2018-04-30T09:24:55Z</time>
      </trkpt>
      <trkpt lat="62.633384143178" lon="17.765902496907">
        <ele>66.2</ele>
        <time>2018-04-30T09:24:56Z</time>
      </trkpt>
      <trkpt lat="62.633350950854" lon="17.766000481318">
        <ele>66.2</ele>
        <time>2018-04-30T09:24:57Z</time>
      </trkpt>
      <trkpt lat="62.633317423254" lon="17.766091089657">
        <ele>66.2</ele>
        <time>2018-04-30T09:24:58Z</time>
      </trkpt>
      <trkpt lat="62.633274256469" lon="17.766211872836">
        <ele>66.2</ele>
        <time>2018-04-30T09:24:59Z</time>
      </trkpt>
      <trkpt lat="62.633237376109" lon="17.766314970206">
        <ele>66.2</ele>
        <time>2018-04-30T09:25:00Z</time>
      </trkpt>
      <trkpt lat="62.633198232636" lon="17.766416642653">
        <ele>66.4</ele>
        <time>2018-04-30T09:25:01Z</time>
      </trkpt>
      <trkpt lat="62.63316185519" lon="17.766515213797">
        <ele>66.4</ele>
        <time>2018-04-30T09:25:02Z</time>
      </trkpt>
      <trkpt lat="62.633121119156" lon="17.766629542913">
        <ele>66.6</ele>
        <time>2018-04-30T09:25:03Z</time>
      </trkpt>
      <trkpt lat="62.633083652063" lon="17.766729706618">
        <ele>67</ele>
        <time>2018-04-30T09:25:04Z</time>
      </trkpt>
      <trkpt lat="62.633042664572" lon="17.766845293019">
        <ele>67</ele>
        <time>2018-04-30T09:25:05Z</time>
      </trkpt>
      <trkpt lat="62.633003772556" lon="17.766949647674">
        <ele>66.8</ele>
        <time>2018-04-30T09:25:06Z</time>
      </trkpt>
      <trkpt lat="62.632960857228" lon="17.767055762528">
        <ele>66.8</ele>
        <time>2018-04-30T09:25:07Z</time>
      </trkpt>
      <trkpt lat="62.632914421502" lon="17.767171516567">
        <ele>66.6</ele>
        <time>2018-04-30T09:25:08Z</time>
      </trkpt>
      <trkpt lat="62.632870667984" lon="17.767282828199">
        <ele>66.4</ele>
        <time>2018-04-30T09:25:09Z</time>
      </trkpt>
      <trkpt lat="62.632827585018" lon="17.767386428483">
        <ele>66.4</ele>
        <time>2018-04-30T09:25:10Z</time>
      </trkpt>
      <trkpt lat="62.632780143464" lon="17.767508720404">
        <ele>66.4</ele>
        <time>2018-04-30T09:25:11Z</time>
      </trkpt>
      <trkpt lat="62.632735719394" lon="17.767619193846">
        <ele>66.4</ele>
        <time>2018-04-30T09:25:12Z</time>
      </trkpt>
      <trkpt lat="62.632684505985" lon="17.767739390292">
        <ele>66.4</ele>
        <time>2018-04-30T09:25:13Z</time>
      </trkpt>
      <trkpt lat="62.632636058603" lon="17.767853216494">
        <ele>66.6</ele>
        <time>2018-04-30T09:25:14Z</time>
      </trkpt>
      <trkpt lat="62.63258937142" lon="17.767964360488">
        <ele>66.6</ele>
        <time>2018-04-30T09:25:15Z</time>
      </trkpt>
      <trkpt lat="62.632540169667" lon="17.768079946889">
        <ele>66.6</ele>
        <time>2018-04-30T09:25:16Z</time>
      </trkpt>
      <trkpt lat="62.632488369525" lon="17.768201149163">
        <ele>66.6</ele>
        <time>2018-04-30T09:25:17Z</time>
      </trkpt>
      <trkpt lat="62.632430450596" lon="17.768333247907">
        <ele>66.6</ele>
        <time>2018-04-30T09:25:18Z</time>
      </trkpt>
      <trkpt lat="62.632375884427" lon="17.76845285762">
        <ele>66.4</ele>
        <time>2018-04-30T09:25:19Z</time>
      </trkpt>
      <trkpt lat="62.632321569715" lon="17.768569449849">
        <ele>66.2</ele>
        <time>2018-04-30T09:25:20Z</time>
      </trkpt>
      <trkpt lat="62.632269769573" lon="17.768685622983">
        <ele>66.2</ele>
        <time>2018-04-30T09:25:21Z</time>
      </trkpt>
      <trkpt lat="62.632216795965" lon="17.768797688986">
        <ele>66</ele>
        <time>2018-04-30T09:25:22Z</time>
      </trkpt>
      <trkpt lat="62.632151500964" lon="17.768935990336">
        <ele>65.8</ele>
        <time>2018-04-30T09:25:23Z</time>
      </trkpt>
      <trkpt lat="62.632094252587" lon="17.769056270601">
        <ele>65.8</ele>
        <time>2018-04-30T09:25:24Z</time>
      </trkpt>
      <trkpt lat="62.632035663106" lon="17.769181496187">
        <ele>65.8</ele>
        <time>2018-04-30T09:25:25Z</time>
      </trkpt>
      <trkpt lat="62.631979672014" lon="17.76930781142">
        <ele>66</ele>
        <time>2018-04-30T09:25:26Z</time>
      </trkpt>
      <trkpt lat="62.631925105845" lon="17.769429516608">
        <ele>65.8</ele>
        <time>2018-04-30T09:25:27Z</time>
      </trkpt>
      <trkpt lat="62.631867354554" lon="17.769552311443">
        <ele>65.8</ele>
        <time>2018-04-30T09:25:28Z</time>
      </trkpt>
      <trkpt lat="62.631803233019" lon="17.769690361336">
        <ele>65.6</ele>
        <time>2018-04-30T09:25:29Z</time>
      </trkpt>
      <trkpt lat="62.631743386253" lon="17.769815838379">
        <ele>65.2</ele>
        <time>2018-04-30T09:25:30Z</time>
      </trkpt>
      <trkpt lat="62.63168412622" lon="17.76994567401">
        <ele>64.6</ele>
        <time>2018-04-30T09:25:31Z</time>
      </trkpt>
      <trkpt lat="62.631625117644" lon="17.770066205732">
        <ele>64.2</ele>
        <time>2018-04-30T09:25:32Z</time>
      </trkpt>
      <trkpt lat="62.631560493195" lon="17.770203920349">
        <ele>64</ele>
        <time>2018-04-30T09:25:33Z</time>
      </trkpt>
      <trkpt lat="62.631506178483" lon="17.770325709356">
        <ele>64</ele>
        <time>2018-04-30T09:25:34Z</time>
      </trkpt>
      <trkpt lat="62.631442056948" lon="17.770465603267">
        <ele>64</ele>
        <time>2018-04-30T09:25:35Z</time>
      </trkpt>
      <trkpt lat="62.631386317313" lon="17.770585632075">
        <ele>64</ele>
        <time>2018-04-30T09:25:36Z</time>
      </trkpt>
      <trkpt lat="62.631328314565" lon="17.770712701679">
        <ele>64.2</ele>
        <time>2018-04-30T09:25:37Z</time>
      </trkpt>
      <trkpt lat="62.631266372324" lon="17.770854942522">
        <ele>64</ele>
        <time>2018-04-30T09:25:38Z</time>
      </trkpt>
      <trkpt lat="62.631204513902" lon="17.77098251504">
        <ele>63.8</ele>
        <time>2018-04-30T09:25:39Z</time>
      </trkpt>
      <trkpt lat="62.631146930249" lon="17.771108411178">
        <ele>63.6</ele>
        <time>2018-04-30T09:25:40Z</time>
      </trkpt>
      <trkpt lat="62.631086077655" lon="17.771250987297">
        <ele>63.4</ele>
        <time>2018-04-30T09:25:41Z</time>
      </trkpt>
      <trkpt lat="62.631031260029" lon="17.771382834584">
        <ele>63</ele>
        <time>2018-04-30T09:25:42Z</time>
      </trkpt>
      <trkpt lat="62.630973005824" lon="17.771526332712">
        <ele>62.8</ele>
        <time>2018-04-30T09:25:43Z</time>
      </trkpt>
      <trkpt lat="62.630918355836" lon="17.77166731627">
        <ele>62.2</ele>
        <time>2018-04-30T09:25:44Z</time>
      </trkpt>
      <trkpt lat="62.630863789667" lon="17.771806791086">
        <ele>61.8</ele>
        <time>2018-04-30T09:25:45Z</time>
      </trkpt>
      <trkpt lat="62.630815174647" lon="17.771941488219">
        <ele>61.8</ele>
        <time>2018-04-30T09:25:46Z</time>
      </trkpt>
      <trkpt lat="62.630765302342" lon="17.772086495089">
        <ele>61.6</ele>
        <time>2018-04-30T09:25:47Z</time>
      </trkpt>
      <trkpt lat="62.630714172752" lon="17.772242482248">
        <ele>61.6</ele>
        <time>2018-04-30T09:25:48Z</time>
      </trkpt>
      <trkpt lat="62.630667820845" lon="17.772387237661">
        <ele>61.6</ele>
        <time>2018-04-30T09:25:49Z</time>
      </trkpt>
      <trkpt lat="62.630622558585" lon="17.772538447137">
        <ele>61.6</ele>
        <time>2018-04-30T09:25:50Z</time>
      </trkpt>
      <trkpt lat="62.630581822551" lon="17.772682448179">
        <ele>61.4</ele>
        <time>2018-04-30T09:25:51Z</time>
      </trkpt>
      <trkpt lat="62.630540332146" lon="17.772823347918">
        <ele>61.2</ele>
        <time>2018-04-30T09:25:52Z</time>
      </trkpt>
      <trkpt lat="62.630494315515" lon="17.772986208235">
        <ele>61.4</ele>
        <time>2018-04-30T09:25:53Z</time>
      </trkpt>
      <trkpt lat="62.630455507318" lon="17.773139764643">
        <ele>61.4</ele>
        <time>2018-04-30T09:25:54Z</time>
      </trkpt>
      <trkpt lat="62.630417285854" lon="17.773291225576">
        <ele>61.2</ele>
        <time>2018-04-30T09:25:55Z</time>
      </trkpt>
      <trkpt lat="62.630381495141" lon="17.773438244102">
        <ele>61.4</ele>
        <time>2018-04-30T09:25:56Z</time>
      </trkpt>
      <trkpt lat="62.630347967541" lon="17.773581323135">
        <ele>61.2</ele>
        <time>2018-04-30T09:25:57Z</time>
      </trkpt>
      <trkpt lat="62.630315194312" lon="17.773727084376">
        <ele>61.2</ele>
        <time>2018-04-30T09:25:58Z</time>
      </trkpt>
      <trkpt lat="62.630281666712" lon="17.773888184494">
        <ele>61.4</ele>
        <time>2018-04-30T09:25:59Z</time>
      </trkpt>
      <trkpt lat="62.630253838804" lon="17.774041154169">
        <ele>61.4</ele>
        <time>2018-04-30T09:26:00Z</time>
      </trkpt>
      <trkpt lat="62.630225088887" lon="17.774194878215">
        <ele>61.4</ele>
        <time>2018-04-30T09:26:01Z</time>
      </trkpt>
      <trkpt lat="62.630198350626" lon="17.774338376343">
        <ele>61.6</ele>
        <time>2018-04-30T09:26:02Z</time>
      </trkpt>
      <trkpt lat="62.630170522718" lon="17.774500566108">
        <ele>61.6</ele>
        <time>2018-04-30T09:26:03Z</time>
      </trkpt>
      <trkpt lat="62.630146215208" lon="17.774645740616">
        <ele>61.6</ele>
        <time>2018-04-30T09:26:04Z</time>
      </trkpt>
      <trkpt lat="62.630119057852" lon="17.774806254001">
        <ele>61.8</ele>
        <time>2018-04-30T09:26:05Z</time>
      </trkpt>
      <trkpt lat="62.630098438378" lon="17.774955787097">
        <ele>61.8</ele>
        <time>2018-04-30T09:26:06Z</time>
      </trkpt>
      <trkpt lat="62.630076729257" lon="17.775106326021">
        <ele>62</ele>
        <time>2018-04-30T09:26:07Z</time>
      </trkpt>
      <trkpt lat="62.630054517222" lon="17.775272455279">
        <ele>62</ele>
        <time>2018-04-30T09:26:08Z</time>
      </trkpt>
      <trkpt lat="62.630036496137" lon="17.775430454094">
        <ele>62.2</ele>
        <time>2018-04-30T09:26:09Z</time>
      </trkpt>
      <trkpt lat="62.630016714853" lon="17.775581160656">
        <ele>62.4</ele>
        <time>2018-04-30T09:26:10Z</time>
      </trkpt>
      <trkpt lat="62.629996598293" lon="17.775747457552">
        <ele>62.4</ele>
        <time>2018-04-30T09:26:11Z</time>
      </trkpt>
      <trkpt lat="62.629981929968" lon="17.775898164114">
        <ele>62.4</ele>
        <time>2018-04-30T09:26:12Z</time>
      </trkpt>
      <trkpt lat="62.629968686566" lon="17.776067143218">
        <ele>62.4</ele>
        <time>2018-04-30T09:26:13Z</time>
      </trkpt>
      <trkpt lat="62.629956281354" lon="17.776228494793">
        <ele>62.2</ele>
        <time>2018-04-30T09:26:14Z</time>
      </trkpt>
      <trkpt lat="62.629945971617" lon="17.776386242151">
        <ele>62.2</ele>
        <time>2018-04-30T09:26:15Z</time>
      </trkpt>
      <trkpt lat="62.629934572233" lon="17.776542061672">
        <ele>62.2</ele>
        <time>2018-04-30T09:26:16Z</time>
      </trkpt>
      <trkpt lat="62.629922837573" lon="17.776703245609">
        <ele>62.2</ele>
        <time>2018-04-30T09:26:17Z</time>
      </trkpt>
      <trkpt lat="62.62991470713" lon="17.776875912749">
        <ele>62.2</ele>
        <time>2018-04-30T09:26:18Z</time>
      </trkpt>
      <trkpt lat="62.629910097085" lon="17.777041874369">
        <ele>62.4</ele>
        <time>2018-04-30T09:26:19Z</time>
      </trkpt>
      <trkpt lat="62.629904313574" lon="17.777207165437">
        <ele>62.4</ele>
        <time>2018-04-30T09:26:20Z</time>
      </trkpt>
      <trkpt lat="62.629897021321" lon="17.777364828976">
        <ele>62.6</ele>
        <time>2018-04-30T09:26:21Z</time>
      </trkpt>
      <trkpt lat="62.629892830371" lon="17.777515535538">
        <ele>62.6</ele>
        <time>2018-04-30T09:26:22Z</time>
      </trkpt>
      <trkpt lat="62.629886963041" lon="17.777692477447">
        <ele>62.6</ele>
        <time>2018-04-30T09:26:23Z</time>
      </trkpt>
      <trkpt lat="62.629883191186" lon="17.777860283085">
        <ele>62.6</ele>
        <time>2018-04-30T09:26:24Z</time>
      </trkpt>
      <trkpt lat="62.629881598625" lon="17.77802247285">
        <ele>62.6</ele>
        <time>2018-04-30T09:26:25Z</time>
      </trkpt>
      <trkpt lat="62.62988285591" lon="17.778186087538">
        <ele>62.6</ele>
        <time>2018-04-30T09:26:26Z</time>
      </trkpt>
      <trkpt lat="62.629884783747" lon="17.778340565955">
        <ele>62.6</ele>
        <time>2018-04-30T09:26:27Z</time>
      </trkpt>
      <trkpt lat="62.629889393792" lon="17.778487584481">
        <ele>62.8</ele>
        <time>2018-04-30T09:26:28Z</time>
      </trkpt>
      <trkpt lat="62.629895764036" lon="17.778672237738">
        <ele>63</ele>
        <time>2018-04-30T09:26:29Z</time>
      </trkpt>
      <trkpt lat="62.629902888651" lon="17.778835600969">
        <ele>63.2</ele>
        <time>2018-04-30T09:26:30Z</time>
      </trkpt>
      <trkpt lat="62.629912360198" lon="17.778999383295">
        <ele>63.2</ele>
        <time>2018-04-30T09:26:31Z</time>
      </trkpt>
      <trkpt lat="62.629922418478" lon="17.779147910563">
        <ele>63.4</ele>
        <time>2018-04-30T09:26:32Z</time>
      </trkpt>
      <trkpt lat="62.629933231129" lon="17.779322756997">
        <ele>63.4</ele>
        <time>2018-04-30T09:26:33Z</time>
      </trkpt>
      <trkpt lat="62.62994152921" lon="17.779441444701">
        <ele>63.4</ele>
        <time>2018-04-30T09:26:34Z</time>
      </trkpt>
      <trkpt lat="62.629954856431" lon="17.779635318048">
        <ele>63.2</ele>
        <time>2018-04-30T09:26:35Z</time>
      </trkpt>
      <trkpt lat="62.629965166168" lon="17.779788371542">
        <ele>63</ele>
        <time>2018-04-30T09:26:36Z</time>
      </trkpt>
      <trkpt lat="62.629975895" lon="17.779936479715">
        <ele>63</ele>
        <time>2018-04-30T09:26:37Z</time>
      </trkpt>
      <trkpt lat="62.629990479506" lon="17.780092299236">
        <ele>63</ele>
        <time>2018-04-30T09:26:38Z</time>
      </trkpt>
      <trkpt lat="62.630000705424" lon="17.780243089617">
        <ele>63.2</ele>
        <time>2018-04-30T09:26:39Z</time>
      </trkpt>
      <trkpt lat="62.630012440084" lon="17.78038784503">
        <ele>63.4</ele>
        <time>2018-04-30T09:26:40Z</time>
      </trkpt>
      <trkpt lat="62.630024007106" lon="17.780540311791">
        <ele>63.6</ele>
        <time>2018-04-30T09:26:41Z</time>
      </trkpt>
      <trkpt lat="62.630037669603" lon="17.780676936761">
        <ele>64</ele>
        <time>2018-04-30T09:26:42Z</time>
      </trkpt>
      <trkpt lat="62.630049823358" lon="17.780822698002">
        <ele>64.2</ele>
        <time>2018-04-30T09:26:43Z</time>
      </trkpt>
      <trkpt lat="62.630058540534" lon="17.780970135623">
        <ele>64.2</ele>
        <time>2018-04-30T09:26:44Z</time>
      </trkpt>
      <trkpt lat="62.630067341529" lon="17.781113130837">
        <ele>64.4</ele>
        <time>2018-04-30T09:26:45Z</time>
      </trkpt>
      <trkpt lat="62.630077483628" lon="17.781248582341">
        <ele>64.4</ele>
        <time>2018-04-30T09:26:46Z</time>
      </trkpt>
      <trkpt lat="62.63008737427" lon="17.781387554243">
        <ele>64.4</ele>
        <time>2018-04-30T09:26:47Z</time>
      </trkpt>
      <trkpt lat="62.630098773654" lon="17.78153365076">
        <ele>64.4</ele>
        <time>2018-04-30T09:26:48Z</time>
      </trkpt>
      <trkpt lat="62.630111597961" lon="17.781672287386">
        <ele>64.4</ele>
        <time>2018-04-30T09:26:49Z</time>
      </trkpt>
      <trkpt lat="62.630122494431" lon="17.781808325623">
        <ele>64.4</ele>
        <time>2018-04-30T09:26:50Z</time>
      </trkpt>
      <trkpt lat="62.63012928377" lon="17.781935395227">
        <ele>64.4</ele>
        <time>2018-04-30T09:26:51Z</time>
      </trkpt>
      <trkpt lat="62.630140431697" lon="17.782048383239">
        <ele>64.6</ele>
        <time>2018-04-30T09:26:52Z</time>
      </trkpt>
      <trkpt lat="62.630151160529" lon="17.782203113113">
        <ele>64.6</ele>
        <time>2018-04-30T09:26:53Z</time>
      </trkpt>
      <trkpt lat="62.630160380619" lon="17.78233579859">
        <ele>64.8</ele>
        <time>2018-04-30T09:26:54Z</time>
      </trkpt>
      <trkpt lat="62.630171109451" lon="17.782472926474">
        <ele>64.8</ele>
        <time>2018-04-30T09:26:55Z</time>
      </trkpt>
      <trkpt lat="62.630184185215" lon="17.782610305815">
        <ele>65.2</ele>
        <time>2018-04-30T09:26:56Z</time>
      </trkpt>
      <trkpt lat="62.630197260979" lon="17.782741147274">
        <ele>65.2</ele>
        <time>2018-04-30T09:26:57Z</time>
      </trkpt>
      <trkpt lat="62.630211091114" lon="17.78287056381">
        <ele>65.2</ele>
        <time>2018-04-30T09:26:58Z</time>
      </trkpt>
      <trkpt lat="62.630223077231" lon="17.783029903729">
        <ele>65.4</ele>
        <time>2018-04-30T09:26:59Z</time>
      </trkpt>
      <trkpt lat="62.630232297321" lon="17.783174491504">
        <ele>65.4</ele>
        <time>2018-04-30T09:27:00Z</time>
      </trkpt>
      <trkpt lat="62.630242774696" lon="17.783321929125">
        <ele>65.4</ele>
        <time>2018-04-30T09:27:01Z</time>
      </trkpt>
      <trkpt lat="62.630254509356" lon="17.783466433081">
        <ele>65.4</ele>
        <time>2018-04-30T09:27:02Z</time>
      </trkpt>
      <trkpt lat="62.630267836577" lon="17.783622923154">
        <ele>65.6</ele>
        <time>2018-04-30T09:27:03Z</time>
      </trkpt>
      <trkpt lat="62.630281247617" lon="17.783764493445">
        <ele>65.6</ele>
        <time>2018-04-30T09:27:04Z</time>
      </trkpt>
      <trkpt lat="62.63029859815" lon="17.783939926612">
        <ele>65.6</ele>
        <time>2018-04-30T09:27:05Z</time>
      </trkpt>
      <trkpt lat="62.630311757733" lon="17.784096332866">
        <ele>65.6</ele>
        <time>2018-04-30T09:27:06Z</time>
      </trkpt>
      <trkpt lat="62.630324498221" lon="17.784264138504">
        <ele>65.6</ele>
        <time>2018-04-30T09:27:07Z</time>
      </trkpt>
      <trkpt lat="62.630337825442" lon="17.784441164232">
        <ele>65.4</ele>
        <time>2018-04-30T09:27:08Z</time>
      </trkpt>
      <trkpt lat="62.630352912862" lon="17.784599917418">
        <ele>65.4</ele>
        <time>2018-04-30T09:27:09Z</time>
      </trkpt>
      <trkpt lat="62.630368335558" lon="17.784760346984">
        <ele>64.8</ele>
        <time>2018-04-30T09:27:10Z</time>
      </trkpt>
      <trkpt lat="62.630383925892" lon="17.784942485671">
        <ele>64.8</ele>
        <time>2018-04-30T09:27:11Z</time>
      </trkpt>
      <trkpt lat="62.630394570905" lon="17.785100903581">
        <ele>64.4</ele>
        <time>2018-04-30T09:27:12Z</time>
      </trkpt>
      <trkpt lat="62.630407227574" lon="17.785279354232">
        <ele>64.4</ele>
        <time>2018-04-30T09:27:13Z</time>
      </trkpt>
      <trkpt lat="62.630418794596" lon="17.785449506802">
        <ele>64.2</ele>
        <time>2018-04-30T09:27:14Z</time>
      </trkpt>
      <trkpt lat="62.630429104333" lon="17.785621754847">
        <ele>64.4</ele>
        <time>2018-04-30T09:27:15Z</time>
      </trkpt>
      <trkpt lat="62.630440503717" lon="17.785782771146">
        <ele>64.4</ele>
        <time>2018-04-30T09:27:16Z</time>
      </trkpt>
      <trkpt lat="62.630454082395" lon="17.785954600096">
        <ele>64.4</ele>
        <time>2018-04-30T09:27:17Z</time>
      </trkpt>
      <trkpt lat="62.630467158159" lon="17.786127602512">
        <ele>64.4</ele>
        <time>2018-04-30T09:27:18Z</time>
      </trkpt>
      <trkpt lat="62.630477467896" lon="17.78629205539">
        <ele>64.4</ele>
        <time>2018-04-30T09:27:19Z</time>
      </trkpt>
      <trkpt lat="62.630485179244" lon="17.786451646766">
        <ele>64.4</ele>
        <time>2018-04-30T09:27:20Z</time>
      </trkpt>
      <trkpt lat="62.630491968583" lon="17.786609310305">
        <ele>64.4</ele>
        <time>2018-04-30T09:27:21Z</time>
      </trkpt>
      <trkpt lat="62.630498506465" lon="17.786746270551">
        <ele>64.6</ele>
        <time>2018-04-30T09:27:22Z</time>
      </trkpt>
      <trkpt lat="62.630501943044" lon="17.786919943519">
        <ele>64.6</ele>
        <time>2018-04-30T09:27:23Z</time>
      </trkpt>
      <trkpt lat="62.630507978012" lon="17.787071488271">
        <ele>64.8</ele>
        <time>2018-04-30T09:27:24Z</time>
      </trkpt>
      <trkpt lat="62.630516359912" lon="17.787220350815">
        <ele>65</ele>
        <time>2018-04-30T09:27:25Z</time>
      </trkpt>
      <trkpt lat="62.6305207185" lon="17.78736912954">
        <ele>65</ele>
        <time>2018-04-30T09:27:26Z</time>
      </trkpt>
      <trkpt lat="62.630522478699" lon="17.787509694003">
        <ele>65</ele>
        <time>2018-04-30T09:27:27Z</time>
      </trkpt>
      <trkpt lat="62.630525915278" lon="17.787637601797">
        <ele>65</ele>
        <time>2018-04-30T09:27:28Z</time>
      </trkpt>
      <trkpt lat="62.630531447332" lon="17.787803395779">
        <ele>65</ele>
        <time>2018-04-30T09:27:29Z</time>
      </trkpt>
      <trkpt lat="62.630535554463" lon="17.787946055717">
        <ele>65</ele>
        <time>2018-04-30T09:27:30Z</time>
      </trkpt>
      <trkpt lat="62.630540080689" lon="17.788089050931">
        <ele>65</ele>
        <time>2018-04-30T09:27:31Z</time>
      </trkpt>
      <trkpt lat="62.630543936363" lon="17.788219221838">
        <ele>65.2</ele>
        <time>2018-04-30T09:27:32Z</time>
      </trkpt>
      <trkpt lat="62.63054837877" lon="17.78836825202">
        <ele>65.4</ele>
        <time>2018-04-30T09:27:33Z</time>
      </trkpt>
      <trkpt lat="62.630553575548" lon="17.788498758203">
        <ele>65.6</ele>
        <time>2018-04-30T09:27:34Z</time>
      </trkpt>
      <trkpt lat="62.630557095946" lon="17.788647285471">
        <ele>65.8</ele>
        <time>2018-04-30T09:27:35Z</time>
      </trkpt>
      <trkpt lat="62.63055927524" lon="17.788789274857">
        <ele>66</ele>
        <time>2018-04-30T09:27:36Z</time>
      </trkpt>
      <trkpt lat="62.630563130914" lon="17.78892397199">
        <ele>66.2</ele>
        <time>2018-04-30T09:27:37Z</time>
      </trkpt>
      <trkpt lat="62.630570339348" lon="17.789075432923">
        <ele>66.4</ele>
        <time>2018-04-30T09:27:38Z</time>
      </trkpt>
      <trkpt lat="62.630574949393" lon="17.789214153368">
        <ele>66.4</ele>
        <time>2018-04-30T09:27:39Z</time>
      </trkpt>
      <trkpt lat="62.630579307981" lon="17.789349521053">
        <ele>66.6</ele>
        <time>2018-04-30T09:27:40Z</time>
      </trkpt>
      <trkpt lat="62.630586767872" lon="17.789498215959">
        <ele>66.6</ele>
        <time>2018-04-30T09:27:41Z</time>
      </trkpt>
      <trkpt lat="62.63059112646" lon="17.789638193689">
        <ele>66.8</ele>
        <time>2018-04-30T09:27:42Z</time>
      </trkpt>
      <trkpt lat="62.630594730677" lon="17.789772639365">
        <ele>67</ele>
        <time>2018-04-30T09:27:43Z</time>
      </trkpt>
      <trkpt lat="62.630599173084" lon="17.789918735882">
        <ele>67.2</ele>
        <time>2018-04-30T09:27:44Z</time>
      </trkpt>
      <trkpt lat="62.630606046242" lon="17.790058210698">
        <ele>67.4</ele>
        <time>2018-04-30T09:27:45Z</time>
      </trkpt>
      <trkpt lat="62.630613170857" lon="17.790188884519">
        <ele>67.6</ele>
        <time>2018-04-30T09:27:46Z</time>
      </trkpt>
      <trkpt lat="62.630621385119" lon="17.790329365163">
        <ele>67.6</ele>
        <time>2018-04-30T09:27:47Z</time>
      </trkpt>
      <trkpt lat="62.630628761191" lon="17.790479736449">
        <ele>67.8</ele>
        <time>2018-04-30T09:27:48Z</time>
      </trkpt>
      <trkpt lat="62.630635885806" lon="17.790621055283">
        <ele>67.8</ele>
        <time>2018-04-30T09:27:49Z</time>
      </trkpt>
      <trkpt lat="62.630641501679" lon="17.790763128488">
        <ele>68</ele>
        <time>2018-04-30T09:27:50Z</time>
      </trkpt>
      <trkpt lat="62.630651224683" lon="17.790906458978">
        <ele>68</ele>
        <time>2018-04-30T09:27:51Z</time>
      </trkpt>
      <trkpt lat="62.630664216628" lon="17.791029756727">
        <ele>68.2</ele>
        <time>2018-04-30T09:27:52Z</time>
      </trkpt>
      <trkpt lat="62.630681567161" lon="17.791192700863">
        <ele>68.4</ele>
        <time>2018-04-30T09:27:53Z</time>
      </trkpt>
      <trkpt lat="62.630696235486" lon="17.791337875371">
        <ele>68.6</ele>
        <time>2018-04-30T09:27:54Z</time>
      </trkpt>
      <trkpt lat="62.630710652354" lon="17.791478607472">
        <ele>68.6</ele>
        <time>2018-04-30T09:27:55Z</time>
      </trkpt>
      <trkpt lat="62.630727164697" lon="17.791627553835">
        <ele>68.6</ele>
        <time>2018-04-30T09:27:56Z</time>
      </trkpt>
      <trkpt lat="62.630746275429" lon="17.791773566533">
        <ele>68.6</ele>
        <time>2018-04-30T09:27:57Z</time>
      </trkpt>
      <trkpt lat="62.63076630817" lon="17.791904407992">
        <ele>68.6</ele>
        <time>2018-04-30T09:27:58Z</time>
      </trkpt>
      <trkpt lat="62.630790950956" lon="17.792072884182">
        <ele>68.8</ele>
        <time>2018-04-30T09:27:59Z</time>
      </trkpt>
      <trkpt lat="62.630812911534" lon="17.792227530237">
        <ele>68.8</ele>
        <time>2018-04-30T09:28:00Z</time>
      </trkpt>
      <trkpt lat="62.630835458845" lon="17.792384690862">
        <ele>68.8</ele>
        <time>2018-04-30T09:28:01Z</time>
      </trkpt>
      <trkpt lat="62.630861442735" lon="17.792535984157">
        <ele>68.8</ele>
        <time>2018-04-30T09:28:02Z</time>
      </trkpt>
      <trkpt lat="62.630892288127" lon="17.792705298537">
        <ele>69</ele>
        <time>2018-04-30T09:28:03Z</time>
      </trkpt>
      <trkpt lat="62.630921960053" lon="17.792862459162">
        <ele>68.8</ele>
        <time>2018-04-30T09:28:04Z</time>
      </trkpt>
      <trkpt lat="62.630956409662" lon="17.793033366103">
        <ele>68.6</ele>
        <time>2018-04-30T09:28:05Z</time>
      </trkpt>
      <trkpt lat="62.630992116556" lon="17.79320712289">
        <ele>68.6</ele>
        <time>2018-04-30T09:28:06Z</time>
      </trkpt>
      <trkpt lat="62.631030840934" lon="17.79338146641">
        <ele>68.2</ele>
        <time>2018-04-30T09:28:07Z</time>
      </trkpt>
      <trkpt lat="62.631068140389" lon="17.793552289532">
        <ele>68</ele>
        <time>2018-04-30T09:28:08Z</time>
      </trkpt>
      <trkpt lat="62.631106697129" lon="17.793717832057">
        <ele>67.8</ele>
        <time>2018-04-30T09:28:09Z</time>
      </trkpt>
      <trkpt lat="62.631142487842" lon="17.79387767489">
        <ele>67.6</ele>
        <time>2018-04-30T09:28:10Z</time>
      </trkpt>
      <trkpt lat="62.631189929396" lon="17.794077415567">
        <ele>67.6</ele>
        <time>2018-04-30T09:28:11Z</time>
      </trkpt>
      <trkpt lat="62.63123485638" lon="17.794256620589">
        <ele>67.4</ele>
        <time>2018-04-30T09:28:12Z</time>
      </trkpt>
      <trkpt lat="62.631284058133" lon="17.794455355438">
        <ele>67</ele>
        <time>2018-04-30T09:28:13Z</time>
      </trkpt>
      <trkpt lat="62.631329907126" lon="17.794641768894">
        <ele>66.8</ele>
        <time>2018-04-30T09:28:14Z</time>
      </trkpt>
      <trkpt lat="62.631376175214" lon="17.794816866785">
        <ele>66.4</ele>
        <time>2018-04-30T09:28:15Z</time>
      </trkpt>
      <trkpt lat="62.631423197673" lon="17.795000178938">
        <ele>66</ele>
        <time>2018-04-30T09:28:16Z</time>
      </trkpt>
      <trkpt lat="62.631474494901" lon="17.795217521605">
        <ele>65.6</ele>
        <time>2018-04-30T09:28:17Z</time>
      </trkpt>
      <trkpt lat="62.63152067917" lon="17.795410053848">
        <ele>65.4</ele>
        <time>2018-04-30T09:28:18Z</time>
      </trkpt>
      <trkpt lat="62.631564684145" lon="17.795594707105">
        <ele>65</ele>
        <time>2018-04-30T09:28:19Z</time>
      </trkpt>
      <trkpt lat="62.631611538966" lon="17.79580299732">
        <ele>64.8</ele>
        <time>2018-04-30T09:28:20Z</time>
      </trkpt>
      <trkpt lat="62.631655041027" lon="17.795997625038">
        <ele>64.8</ele>
        <time>2018-04-30T09:28:21Z</time>
      </trkpt>
      <trkpt lat="62.631694938871" lon="17.79619107929">
        <ele>64</ele>
        <time>2018-04-30T09:28:22Z</time>
      </trkpt>
      <trkpt lat="62.631736764552" lon="17.796387886302">
        <ele>63.8</ele>
        <time>2018-04-30T09:28:23Z</time>
      </trkpt>
      <trkpt lat="62.631777249129" lon="17.796579664174">
        <ele>63.6</ele>
        <time>2018-04-30T09:28:24Z</time>
      </trkpt>
      <trkpt lat="62.631810273815" lon="17.796756689902">
        <ele>63.4</ele>
        <time>2018-04-30T09:28:25Z</time>
      </trkpt>
      <trkpt lat="62.631844388148" lon="17.796952491086">
        <ele>63.2</ele>
        <time>2018-04-30T09:28:26Z</time>
      </trkpt>
      <trkpt lat="62.631874227712" lon="17.79714326313">
        <ele>63</ele>
        <time>2018-04-30T09:28:27Z</time>
      </trkpt>
      <trkpt lat="62.631902558534" lon="17.797309727664">
        <ele>63</ele>
        <time>2018-04-30T09:28:28Z</time>
      </trkpt>
      <trkpt lat="62.631935080306" lon="17.797526232141">
        <ele>62.8</ele>
        <time>2018-04-30T09:28:29Z</time>
      </trkpt>
      <trkpt lat="62.631959303997" lon="17.797713064692">
        <ele>62.8</ele>
        <time>2018-04-30T09:28:30Z</time>
      </trkpt>
      <trkpt lat="62.631981851308" lon="17.797896628302">
        <ele>63</ele>
        <time>2018-04-30T09:28:31Z</time>
      </trkpt>
      <trkpt lat="62.631998950384" lon="17.798054710936">
        <ele>63.2</ele>
        <time>2018-04-30T09:28:32Z</time>
      </trkpt>
      <trkpt lat="62.63201521127" lon="17.798242214039">
        <ele>63.2</ele>
        <time>2018-04-30T09:28:33Z</time>
      </trkpt>
      <trkpt lat="62.632032394165" lon="17.798410690229">
        <ele>63.2</ele>
        <time>2018-04-30T09:28:34Z</time>
      </trkpt>
      <trkpt lat="62.632045972843" lon="17.798590901079">
        <ele>63.6</ele>
        <time>2018-04-30T09:28:35Z</time>
      </trkpt>
      <trkpt lat="62.632056114942" lon="17.798760299278">
        <ele>64</ele>
        <time>2018-04-30T09:28:36Z</time>
      </trkpt>
      <trkpt lat="62.632066843774" lon="17.798919136283">
        <ele>64.2</ele>
        <time>2018-04-30T09:28:37Z</time>
      </trkpt>
      <trkpt lat="62.632077656425" lon="17.799094820907">
        <ele>64.6</ele>
        <time>2018-04-30T09:28:38Z</time>
      </trkpt>
      <trkpt lat="62.632084697221" lon="17.799259525242">
        <ele>65</ele>
        <time>2018-04-30T09:28:39Z</time>
      </trkpt>
      <trkpt lat="62.63209064837" lon="17.799411321451">
        <ele>65</ele>
        <time>2018-04-30T09:28:40Z</time>
      </trkpt>
      <trkpt lat="62.632098359718" lon="17.799584240048">
        <ele>65.2</ele>
        <time>2018-04-30T09:28:41Z</time>
      </trkpt>
      <trkpt lat="62.632102299211" lon="17.799744753433">
        <ele>65.4</ele>
        <time>2018-04-30T09:28:42Z</time>
      </trkpt>
      <trkpt lat="62.632107076894" lon="17.799899064212">
        <ele>65.6</ele>
        <time>2018-04-30T09:28:43Z</time>
      </trkpt>
      <trkpt lat="62.632114872061" lon="17.800072820999">
        <ele>65.8</ele>
        <time>2018-04-30T09:28:44Z</time>
      </trkpt>
      <trkpt lat="62.632123086323" lon="17.800234088755">
        <ele>65.8</ele>
        <time>2018-04-30T09:28:45Z</time>
      </trkpt>
      <trkpt lat="62.632126355264" lon="17.800389321543">
        <ele>66</ele>
        <time>2018-04-30T09:28:46Z</time>
      </trkpt>
      <trkpt lat="62.632130630033" lon="17.800554528792">
        <ele>66.2</ele>
        <time>2018-04-30T09:28:47Z</time>
      </trkpt>
      <trkpt lat="62.632138676657" lon="17.800729375226">
        <ele>66.2</ele>
        <time>2018-04-30T09:28:48Z</time>
      </trkpt>
      <trkpt lat="62.632143538159" lon="17.800897767597">
        <ele>66.2</ele>
        <time>2018-04-30T09:28:49Z</time>
      </trkpt>
      <trkpt lat="62.632150411317" lon="17.80105593405">
        <ele>66.2</ele>
        <time>2018-04-30T09:28:50Z</time>
      </trkpt>
      <trkpt lat="62.632159044674" lon="17.801226673353">
        <ele>66.2</ele>
        <time>2018-04-30T09:28:51Z</time>
      </trkpt>
      <trkpt lat="62.632168432402" lon="17.801374781526">
        <ele>66</ele>
        <time>2018-04-30T09:28:52Z</time>
      </trkpt>
      <trkpt lat="62.632177987768" lon="17.801565302113">
        <ele>65.8</ele>
        <time>2018-04-30T09:28:53Z</time>
      </trkpt>
      <trkpt lat="62.632189135695" lon="17.801735957597">
        <ele>65.8</ele>
        <time>2018-04-30T09:28:54Z</time>
      </trkpt>
      <trkpt lat="62.632201960002" lon="17.801909462927">
        <ele>65.4</ele>
        <time>2018-04-30T09:28:55Z</time>
      </trkpt>
      <trkpt lat="62.632216460689" lon="17.802085985741">
        <ele>65.2</ele>
        <time>2018-04-30T09:28:56Z</time>
      </trkpt>
      <trkpt lat="62.632234062679" lon="17.802265358401">
        <ele>65.2</ele>
        <time>2018-04-30T09:28:57Z</time>
      </trkpt>
      <trkpt lat="62.632249988289" lon="17.802424782139">
        <ele>65</ele>
        <time>2018-04-30T09:28:58Z</time>
      </trkpt>
      <trkpt lat="62.632271445953" lon="17.802623516988">
        <ele>64.8</ele>
        <time>2018-04-30T09:28:59Z</time>
      </trkpt>
      <trkpt lat="62.632292819798" lon="17.802814624308">
        <ele>64.6</ele>
        <time>2018-04-30T09:29:00Z</time>
      </trkpt>
      <trkpt lat="62.632318468412" lon="17.803003217058">
        <ele>64.4</ele>
        <time>2018-04-30T09:29:01Z</time>
      </trkpt>
      <trkpt lat="62.632344452302" lon="17.803181919166">
        <ele>64.2</ele>
        <time>2018-04-30T09:29:02Z</time>
      </trkpt>
      <trkpt lat="62.632375130056" lon="17.803386856621">
        <ele>64</ele>
        <time>2018-04-30T09:29:03Z</time>
      </trkpt>
      <trkpt lat="62.632404801982" lon="17.803572515706">
        <ele>63.6</ele>
        <time>2018-04-30T09:29:04Z</time>
      </trkpt>
      <trkpt lat="62.632439503048" lon="17.80378256612">
        <ele>63</ele>
        <time>2018-04-30T09:29:05Z</time>
      </trkpt>
      <trkpt lat="62.632474707028" lon="17.80398456991">
        <ele>62.6</ele>
        <time>2018-04-30T09:29:06Z</time>
      </trkpt>
      <trkpt lat="62.632509072818" lon="17.804170480452">
        <ele>62.4</ele>
        <time>2018-04-30T09:29:07Z</time>
      </trkpt>
      <trkpt lat="62.632553915983" lon="17.804379525038">
        <ele>61.6</ele>
        <time>2018-04-30T09:29:08Z</time>
      </trkpt>
      <trkpt lat="62.632597837139" lon="17.804578092249">
        <ele>61.4</ele>
        <time>2018-04-30T09:29:09Z</time>
      </trkpt>
      <trkpt lat="62.632639076087" lon="17.804767187913">
        <ele>61</ele>
        <time>2018-04-30T09:29:10Z</time>
      </trkpt>
      <trkpt lat="62.632684254528" lon="17.804982770381">
        <ele>60.6</ele>
        <time>2018-04-30T09:29:11Z</time>
      </trkpt>
      <trkpt lat="62.632727253675" lon="17.805183013972">
        <ele>60.2</ele>
        <time>2018-04-30T09:29:12Z</time>
      </trkpt>
      <trkpt lat="62.632769917546" lon="17.80536758341">
        <ele>59.8</ele>
        <time>2018-04-30T09:29:13Z</time>
      </trkpt>
      <trkpt lat="62.632819706032" lon="17.805576795634">
        <ele>59.6</ele>
        <time>2018-04-30T09:29:14Z</time>
      </trkpt>
      <trkpt lat="62.632864465378" lon="17.8057707528">
        <ele>59</ele>
        <time>2018-04-30T09:29:15Z</time>
      </trkpt>
      <trkpt lat="62.632905452869" lon="17.805947275614">
        <ele>58.6</ele>
        <time>2018-04-30T09:29:16Z</time>
      </trkpt>
      <trkpt lat="62.632950128396" lon="17.806127486464">
        <ele>58.4</ele>
        <time>2018-04-30T09:29:17Z</time>
      </trkpt>
      <trkpt lat="62.632997067036" lon="17.806314486653">
        <ele>58</ele>
        <time>2018-04-30T09:29:18Z</time>
      </trkpt>
      <trkpt lat="62.633039395631" lon="17.80648740525">
        <ele>57.6</ele>
        <time>2018-04-30T09:29:19Z</time>
      </trkpt>
      <trkpt lat="62.633081053674" lon="17.806657054906">
        <ele>57.6</ele>
        <time>2018-04-30T09:29:20Z</time>
      </trkpt>
      <trkpt lat="62.633119694233" lon="17.80681429935">
        <ele>57.6</ele>
        <time>2018-04-30T09:29:21Z</time>
      </trkpt>
      <trkpt lat="62.633148192693" lon="17.806925610982">
        <ele>57.6</ele>
        <time>2018-04-30T09:29:22Z</time>
      </trkpt>
      <trkpt lat="62.633195550428" lon="17.807114706646">
        <ele>57.6</ele>
        <time>2018-04-30T09:29:23Z</time>
      </trkpt>
      <trkpt lat="62.633231844055" lon="17.807259210602">
        <ele>57.8</ele>
        <time>2018-04-30T09:29:24Z</time>
      </trkpt>
      <trkpt lat="62.633267886225" lon="17.807396589943">
        <ele>58</ele>
        <time>2018-04-30T09:29:25Z</time>
      </trkpt>
      <trkpt lat="62.633306107689" lon="17.807529023963">
        <ele>58.2</ele>
        <time>2018-04-30T09:29:26Z</time>
      </trkpt>
      <trkpt lat="62.633338210366" lon="17.807661122707">
        <ele>58.4</ele>
        <time>2018-04-30T09:29:27Z</time>
      </trkpt>
      <trkpt lat="62.633347681913" lon="17.807691465185">
        <ele>58.6</ele>
        <time>2018-04-30T09:29:28Z</time>
      </trkpt>
      <trkpt lat="62.63340241572" lon="17.807882907781">
        <ele>58.8</ele>
        <time>2018-04-30T09:29:29Z</time>
      </trkpt>
      <trkpt lat="62.633445917781" lon="17.808027076461">
        <ele>59.2</ele>
        <time>2018-04-30T09:29:30Z</time>
      </trkpt>
      <trkpt lat="62.633480451209" lon="17.808147189088">
        <ele>59.4</ele>
        <time>2018-04-30T09:29:31Z</time>
      </trkpt>
      <trkpt lat="62.633516325741" lon="17.808254980322">
        <ele>59.8</ele>
        <time>2018-04-30T09:29:32Z</time>
      </trkpt>
      <trkpt lat="62.633555050119" lon="17.808376098777">
        <ele>60.2</ele>
        <time>2018-04-30T09:29:33Z</time>
      </trkpt>
      <trkpt lat="62.633588745357" lon="17.808487494228">
        <ele>60.4</ele>
        <time>2018-04-30T09:29:34Z</time>
      </trkpt>
      <trkpt lat="62.633629649029" lon="17.808614899108">
        <ele>60.8</ele>
        <time>2018-04-30T09:29:35Z</time>
      </trkpt>
      <trkpt lat="62.633671390891" lon="17.808728892948">
        <ele>61.2</ele>
        <time>2018-04-30T09:29:36Z</time>
      </trkpt>
      <trkpt lat="62.633709360898" lon="17.808833331422">
        <ele>61.4</ele>
        <time>2018-04-30T09:29:37Z</time>
      </trkpt>
      <trkpt lat="62.633754287882" lon="17.808952689678">
        <ele>61.6</ele>
        <time>2018-04-30T09:29:38Z</time>
      </trkpt>
      <trkpt lat="62.633800388332" lon="17.809065090957">
        <ele>61.6</ele>
        <time>2018-04-30T09:29:39Z</time>
      </trkpt>
      <trkpt lat="62.633847075515" lon="17.809171457268">
        <ele>61.8</ele>
        <time>2018-04-30T09:29:40Z</time>
      </trkpt>
      <trkpt lat="62.633896864001" lon="17.809289809696">
        <ele>62</ele>
        <time>2018-04-30T09:29:41Z</time>
      </trkpt>
      <trkpt lat="62.633946065754" lon="17.809395505455">
        <ele>62</ele>
        <time>2018-04-30T09:29:42Z</time>
      </trkpt>
      <trkpt lat="62.633993842584" lon="17.809503045232">
        <ele>61.8</ele>
        <time>2018-04-30T09:29:43Z</time>
      </trkpt>
      <trkpt lat="62.634046229459" lon="17.809628689913">
        <ele>61.8</ele>
        <time>2018-04-30T09:29:44Z</time>
      </trkpt>
      <trkpt lat="62.634094676841" lon="17.809746371789">
        <ele>61.8</ele>
        <time>2018-04-30T09:29:45Z</time>
      </trkpt>
      <trkpt lat="62.634142621309" lon="17.809848714788">
        <ele>61.6</ele>
        <time>2018-04-30T09:29:46Z</time>
      </trkpt>
      <trkpt lat="62.634196768383" lon="17.809956589841">
        <ele>61.6</ele>
        <time>2018-04-30T09:29:47Z</time>
      </trkpt>
      <trkpt lat="62.634258040072" lon="17.810068739663">
        <ele>61.6</ele>
        <time>2018-04-30T09:29:48Z</time>
      </trkpt>
      <trkpt lat="62.634313695888" lon="17.810159934735">
        <ele>61.4</ele>
        <time>2018-04-30T09:29:49Z</time>
      </trkpt>
      <trkpt lat="62.634371447179" lon="17.810253895834">
        <ele>61.4</ele>
        <time>2018-04-30T09:29:50Z</time>
      </trkpt>
      <trkpt lat="62.63443003666" lon="17.810367638217">
        <ele>61.4</ele>
        <time>2018-04-30T09:29:51Z</time>
      </trkpt>
      <trkpt lat="62.634481836802" lon="17.810457408366">
        <ele>61.4</ele>
        <time>2018-04-30T09:29:52Z</time>
      </trkpt>
      <trkpt lat="62.634549478735" lon="17.810580370839">
        <ele>61.2</ele>
        <time>2018-04-30T09:29:53Z</time>
      </trkpt>
      <trkpt lat="62.634607565302" lon="17.810690760462">
        <ele>61</ele>
        <time>2018-04-30T09:29:54Z</time>
      </trkpt>
      <trkpt lat="62.63466892081" lon="17.810794779841">
        <ele>61</ele>
        <time>2018-04-30T09:29:55Z</time>
      </trkpt>
      <trkpt lat="62.634730695413" lon="17.810897877211">
        <ele>61</ele>
        <time>2018-04-30T09:29:56Z</time>
      </trkpt>
      <trkpt lat="62.63479213474" lon="17.81099770564">
        <ele>60.8</ele>
        <time>2018-04-30T09:29:57Z</time>
      </trkpt>
      <trkpt lat="62.634847790556" lon="17.811088984531">
        <ele>60.8</ele>
        <time>2018-04-30T09:29:58Z</time>
      </trkpt>
      <trkpt lat="62.63491953962" lon="17.81120809133">
        <ele>60.8</ele>
        <time>2018-04-30T09:29:59Z</time>
      </trkpt>
      <trkpt lat="62.634981062766" lon="17.811314457641">
        <ele>60.6</ele>
        <time>2018-04-30T09:30:00Z</time>
      </trkpt>
      <trkpt lat="62.635041244808" lon="17.811421913599">
        <ele>60.4</ele>
        <time>2018-04-30T09:30:01Z</time>
      </trkpt>
      <trkpt lat="62.635097571176" lon="17.811521658209">
        <ele>60.2</ele>
        <time>2018-04-30T09:30:02Z</time>
      </trkpt>
      <trkpt lat="62.635163704367" lon="17.81163892099">
        <ele>60</ele>
        <time>2018-04-30T09:30:03Z</time>
      </trkpt>
      <trkpt lat="62.635218270536" lon="17.811738497962">
        <ele>59.8</ele>
        <time>2018-04-30T09:30:04Z</time>
      </trkpt>
      <trkpt lat="62.63528331408" lon="17.811851234517">
        <ele>60</ele>
        <time>2018-04-30T09:30:05Z</time>
      </trkpt>
      <trkpt lat="62.635347519434" lon="17.811963719615">
        <ele>59.8</ele>
        <time>2018-04-30T09:30:06Z</time>
      </trkpt>
      <trkpt lat="62.635399487214" lon="17.812062961311">
        <ele>59.8</ele>
        <time>2018-04-30T09:30:07Z</time>
      </trkpt>
      <trkpt lat="62.635461764731" lon="17.812183241576">
        <ele>59.6</ele>
        <time>2018-04-30T09:30:08Z</time>
      </trkpt>
      <trkpt lat="62.635525718628" lon="17.812301342547">
        <ele>59.6</ele>
        <time>2018-04-30T09:30:09Z</time>
      </trkpt>
      <trkpt lat="62.635576596761" lon="17.812396309474">
        <ele>59.8</ele>
        <time>2018-04-30T09:30:10Z</time>
      </trkpt>
      <trkpt lat="62.635637449355" lon="17.812519271947">
        <ele>59.6</ele>
        <time>2018-04-30T09:30:11Z</time>
      </trkpt>
      <trkpt lat="62.63568899804" lon="17.812635947995">
        <ele>59.6</ele>
        <time>2018-04-30T09:30:12Z</time>
      </trkpt>
      <trkpt lat="62.635738199793" lon="17.812750696206">
        <ele>59.8</ele>
        <time>2018-04-30T09:30:13Z</time>
      </trkpt>
      <trkpt lat="62.635795112894" lon="17.812877346715">
        <ele>59.8</ele>
        <time>2018-04-30T09:30:14Z</time>
      </trkpt>
      <trkpt lat="62.635845991027" lon="17.81299427422">
        <ele>59.8</ele>
        <time>2018-04-30T09:30:15Z</time>
      </trkpt>
      <trkpt lat="62.635891672382" lon="17.813109273888">
        <ele>60</ele>
        <time>2018-04-30T09:30:16Z</time>
      </trkpt>
      <trkpt lat="62.635941544687" lon="17.813241372632">
        <ele>59.8</ele>
        <time>2018-04-30T09:30:17Z</time>
      </trkpt>
      <trkpt lat="62.635989656793" lon="17.813372046453">
        <ele>60</ele>
        <time>2018-04-30T09:30:18Z</time>
      </trkpt>
      <trkpt lat="62.636030225189" lon="17.813491488528">
        <ele>60</ele>
        <time>2018-04-30T09:30:19Z</time>
      </trkpt>
      <trkpt lat="62.636074481621" lon="17.813620905064">
        <ele>60.4</ele>
        <time>2018-04-30T09:30:20Z</time>
      </trkpt>
      <trkpt lat="62.636118067501" lon="17.813746801202">
        <ele>60.4</ele>
        <time>2018-04-30T09:30:21Z</time>
      </trkpt>
      <trkpt lat="62.636157881526" lon="17.813857693739">
        <ele>60.4</ele>
        <time>2018-04-30T09:30:22Z</time>
      </trkpt>
      <trkpt lat="62.636201048311" lon="17.813991385044">
        <ele>60.4</ele>
        <time>2018-04-30T09:30:23Z</time>
      </trkpt>
      <trkpt lat="62.636238180128" lon="17.81411744882">
        <ele>60.6</ele>
        <time>2018-04-30T09:30:24Z</time>
      </trkpt>
      <trkpt lat="62.636273048832" lon="17.814244686062">
        <ele>60.6</ele>
        <time>2018-04-30T09:30:25Z</time>
      </trkpt>
      <trkpt lat="62.63630925864" lon="17.814371504209">
        <ele>60.8</ele>
        <time>2018-04-30T09:30:26Z</time>
      </trkpt>
      <trkpt lat="62.63634194805" lon="17.814487844981">
        <ele>61</ele>
        <time>2018-04-30T09:30:27Z</time>
      </trkpt>
      <trkpt lat="62.636370027415" lon="17.814600078622">
        <ele>61.4</ele>
        <time>2018-04-30T09:30:28Z</time>
      </trkpt>
      <trkpt lat="62.636406740137" lon="17.814739637257">
        <ele>61.6</ele>
        <time>2018-04-30T09:30:29Z</time>
      </trkpt>
      <trkpt lat="62.63644001628" lon="17.81486762887">
        <ele>61.8</ele>
        <time>2018-04-30T09:30:30Z</time>
      </trkpt>
      <trkpt lat="62.636469939663" lon="17.814995620483">
        <ele>62</ele>
        <time>2018-04-30T09:30:31Z</time>
      </trkpt>
      <trkpt lat="62.636494163354" lon="17.815104752821">
        <ele>62</ele>
        <time>2018-04-30T09:30:32Z</time>
      </trkpt>
      <trkpt lat="62.636526852764" lon="17.815242886533">
        <ele>62</ele>
        <time>2018-04-30T09:30:33Z</time>
      </trkpt>
      <trkpt lat="62.636552669016" lon="17.815361574237">
        <ele>62</ele>
        <time>2018-04-30T09:30:34Z</time>
      </trkpt>
      <trkpt lat="62.636579658734" lon="17.815493840619">
        <ele>61.8</ele>
        <time>2018-04-30T09:30:35Z</time>
      </trkpt>
      <trkpt lat="62.636604972072" lon="17.815619736757">
        <ele>61.8</ele>
        <time>2018-04-30T09:30:36Z</time>
      </trkpt>
      <trkpt lat="62.636624753356" lon="17.815729791104">
        <ele>61.8</ele>
        <time>2018-04-30T09:30:37Z</time>
      </trkpt>
      <trkpt lat="62.636652413626" lon="17.815861135477">
        <ele>61.6</ele>
        <time>2018-04-30T09:30:38Z</time>
      </trkpt>
      <trkpt lat="62.636674374204" lon="17.815983008303">
        <ele>61.6</ele>
        <time>2018-04-30T09:30:39Z</time>
      </trkpt>
      <trkpt lat="62.636698094981" lon="17.816100773998">
        <ele>62</ele>
        <time>2018-04-30T09:30:40Z</time>
      </trkpt>
      <trkpt lat="62.636719385007" lon="17.816235052036">
        <ele>62</ele>
        <time>2018-04-30T09:30:41Z</time>
      </trkpt>
      <trkpt lat="62.636742267594" lon="17.81634954879">
        <ele>62.2</ele>
        <time>2018-04-30T09:30:42Z</time>
      </trkpt>
      <trkpt lat="62.636767078018" lon="17.816470751064">
        <ele>62.4</ele>
        <time>2018-04-30T09:30:43Z</time>
      </trkpt>
      <trkpt lat="62.636791050252" lon="17.816597736849">
        <ele>62.4</ele>
        <time>2018-04-30T09:30:44Z</time>
      </trkpt>
      <trkpt lat="62.636812088821" lon="17.816729667955">
        <ele>62.6</ele>
        <time>2018-04-30T09:30:45Z</time>
      </trkpt>
      <trkpt lat="62.636833295028" lon="17.81684659546">
        <ele>62.6</ele>
        <time>2018-04-30T09:30:46Z</time>
      </trkpt>
      <trkpt lat="62.636858524547" lon="17.816969055019">
        <ele>62.8</ele>
        <time>2018-04-30T09:30:47Z</time>
      </trkpt>
      <trkpt lat="62.636882245324" lon="17.817103668333">
        <ele>62.8</ele>
        <time>2018-04-30T09:30:48Z</time>
      </trkpt>
      <trkpt lat="62.636904457359" lon="17.817230570299">
        <ele>63</ele>
        <time>2018-04-30T09:30:49Z</time>
      </trkpt>
      <trkpt lat="62.63692700467" lon="17.81736208231">
        <ele>62.8</ele>
        <time>2018-04-30T09:30:50Z</time>
      </trkpt>
      <trkpt lat="62.636947037411" lon="17.817488816638">
        <ele>63</ele>
        <time>2018-04-30T09:30:51Z</time>
      </trkpt>
      <trkpt lat="62.636968578894" lon="17.817599122442">
        <ele>63</ele>
        <time>2018-04-30T09:30:52Z</time>
      </trkpt>
      <trkpt lat="62.636995652431" lon="17.81774178238">
        <ele>63</ele>
        <time>2018-04-30T09:30:53Z</time>
      </trkpt>
      <trkpt lat="62.637016020448" lon="17.817877233884">
        <ele>63.2</ele>
        <time>2018-04-30T09:30:54Z</time>
      </trkpt>
      <trkpt lat="62.637038819216" lon="17.818006231325">
        <ele>63.4</ele>
        <time>2018-04-30T09:30:55Z</time>
      </trkpt>
      <trkpt lat="62.637062037079" lon="17.818139335897">
        <ele>63.4</ele>
        <time>2018-04-30T09:30:56Z</time>
      </trkpt>
      <trkpt lat="62.637082237458" lon="17.818263890931">
        <ele>63.4</ele>
        <time>2018-04-30T09:30:57Z</time>
      </trkpt>
      <trkpt lat="62.637101767285" lon="17.818384087377">
        <ele>63.6</ele>
        <time>2018-04-30T09:30:58Z</time>
      </trkpt>
      <trkpt lat="62.637128673184" lon="17.818531692636">
        <ele>63.6</ele>
        <time>2018-04-30T09:30:59Z</time>
      </trkpt>
      <trkpt lat="62.637149711753" lon="17.818663623742">
        <ele>63.6</ele>
        <time>2018-04-30T09:31:00Z</time>
      </trkpt>
      <trkpt lat="62.637170834141" lon="17.818800751626">
        <ele>63.6</ele>
        <time>2018-04-30T09:31:01Z</time>
      </trkpt>
      <trkpt lat="62.63719187271" lon="17.818922624452">
        <ele>63.8</ele>
        <time>2018-04-30T09:31:02Z</time>
      </trkpt>
      <trkpt lat="62.63721534203" lon="17.819062602182">
        <ele>63.6</ele>
        <time>2018-04-30T09:31:03Z</time>
      </trkpt>
      <trkpt lat="62.637236715875" lon="17.819182463352">
        <ele>63.6</ele>
        <time>2018-04-30T09:31:04Z</time>
      </trkpt>
      <trkpt lat="62.637261610118" lon="17.819321183797">
        <ele>63.4</ele>
        <time>2018-04-30T09:31:05Z</time>
      </trkpt>
      <trkpt lat="62.637281810497" lon="17.819447750487">
        <ele>63.2</ele>
        <time>2018-04-30T09:31:06Z</time>
      </trkpt>
      <trkpt lat="62.637299077211" lon="17.819574568634">
        <ele>63.2</ele>
        <time>2018-04-30T09:31:07Z</time>
      </trkpt>
      <trkpt lat="62.637320199599" lon="17.819714294907">
        <ele>63</ele>
        <time>2018-04-30T09:31:08Z</time>
      </trkpt>
      <trkpt lat="62.637343668919" lon="17.819844968728">
        <ele>63</ele>
        <time>2018-04-30T09:31:09Z</time>
      </trkpt>
      <trkpt lat="62.637364875126" lon="17.819973379436">
        <ele>63</ele>
        <time>2018-04-30T09:31:10Z</time>
      </trkpt>
      <trkpt lat="62.63738717098" lon="17.820117045202">
        <ele>63</ele>
        <time>2018-04-30T09:31:11Z</time>
      </trkpt>
      <trkpt lat="62.637409718291" lon="17.820244366263">
        <ele>63</ele>
        <time>2018-04-30T09:31:12Z</time>
      </trkpt>
      <trkpt lat="62.637431846507" lon="17.82037621355">
        <ele>63.2</ele>
        <time>2018-04-30T09:31:13Z</time>
      </trkpt>
      <trkpt lat="62.637454729094" lon="17.820521807153">
        <ele>63</ele>
        <time>2018-04-30T09:31:14Z</time>
      </trkpt>
      <trkpt lat="62.637474678016" lon="17.820654576449">
        <ele>63</ele>
        <time>2018-04-30T09:31:15Z</time>
      </trkpt>
      <trkpt lat="62.637494794576" lon="17.820777287465">
        <ele>63</ele>
        <time>2018-04-30T09:31:16Z</time>
      </trkpt>
      <trkpt lat="62.637516838973" lon="17.820910308218">
        <ele>63</ele>
        <time>2018-04-30T09:31:17Z</time>
      </trkpt>
      <trkpt lat="62.637538296637" lon="17.821055901821">
        <ele>62.8</ele>
        <time>2018-04-30T09:31:18Z</time>
      </trkpt>
      <trkpt lat="62.637557575007" lon="17.821190263678">
        <ele>62.8</ele>
        <time>2018-04-30T09:31:19Z</time>
      </trkpt>
      <trkpt lat="62.637576099006" lon="17.821321775689">
        <ele>62.8</ele>
        <time>2018-04-30T09:31:20Z</time>
      </trkpt>
      <trkpt lat="62.637595125919" lon="17.821451778958">
        <ele>62.6</ele>
        <time>2018-04-30T09:31:21Z</time>
      </trkpt>
      <trkpt lat="62.637611889719" lon="17.821565437522">
        <ele>62.4</ele>
        <time>2018-04-30T09:31:22Z</time>
      </trkpt>
      <trkpt lat="62.637632593012" lon="17.821711366401">
        <ele>62.4</ele>
        <time>2018-04-30T09:31:23Z</time>
      </trkpt>
      <trkpt lat="62.637650697916" lon="17.821837765453">
        <ele>62.2</ele>
        <time>2018-04-30T09:31:24Z</time>
      </trkpt>
      <trkpt lat="62.6376704792" lon="17.821965002695">
        <ele>62</ele>
        <time>2018-04-30T09:31:25Z</time>
      </trkpt>
      <trkpt lat="62.637688332647" lon="17.822091317928">
        <ele>62</ele>
        <time>2018-04-30T09:31:26Z</time>
      </trkpt>
      <trkpt lat="62.637706689008" lon="17.822213777487">
        <ele>62</ele>
        <time>2018-04-30T09:31:27Z</time>
      </trkpt>
      <trkpt lat="62.637724207179" lon="17.822330956449">
        <ele>62.2</ele>
        <time>2018-04-30T09:31:28Z</time>
      </trkpt>
      <trkpt lat="62.637746419214" lon="17.822473784025">
        <ele>62.4</ele>
        <time>2018-04-30T09:31:29Z</time>
      </trkpt>
      <trkpt lat="62.637767290145" lon="17.822605631312">
        <ele>62.8</ele>
        <time>2018-04-30T09:31:30Z</time>
      </trkpt>
      <trkpt lat="62.637788580171" lon="17.822739322617">
        <ele>63</ele>
        <time>2018-04-30T09:31:31Z</time>
      </trkpt>
      <trkpt lat="62.637806601256" lon="17.822866978954">
        <ele>63.2</ele>
        <time>2018-04-30T09:31:32Z</time>
      </trkpt>
      <trkpt lat="62.637825628169" lon="17.823014332756">
        <ele>63.2</ele>
        <time>2018-04-30T09:31:33Z</time>
      </trkpt>
      <trkpt lat="62.637842643426" lon="17.823147353509">
        <ele>63.4</ele>
        <time>2018-04-30T09:31:34Z</time>
      </trkpt>
      <trkpt lat="62.637862257072" lon="17.823302251021">
        <ele>63.4</ele>
        <time>2018-04-30T09:31:35Z</time>
      </trkpt>
      <trkpt lat="62.637880194338" lon="17.823437534887">
        <ele>63.6</ele>
        <time>2018-04-30T09:31:36Z</time>
      </trkpt>
      <trkpt lat="62.637899137432" lon="17.823575165685">
        <ele>63.6</ele>
        <time>2018-04-30T09:31:37Z</time>
      </trkpt>
      <trkpt lat="62.637919337811" lon="17.823730398473">
        <ele>63.6</ele>
        <time>2018-04-30T09:31:38Z</time>
      </trkpt>
      <trkpt lat="62.637933251765" lon="17.823876243533">
        <ele>63.6</ele>
        <time>2018-04-30T09:31:39Z</time>
      </trkpt>
      <trkpt lat="62.6379470819" lon="17.824017478548">
        <ele>63.6</ele>
        <time>2018-04-30T09:31:40Z</time>
      </trkpt>
      <trkpt lat="62.637963678062" lon="17.824176902286">
        <ele>63.6</ele>
        <time>2018-04-30T09:31:41Z</time>
      </trkpt>
      <trkpt lat="62.637978178749" lon="17.824320651871">
        <ele>63.4</ele>
        <time>2018-04-30T09:31:42Z</time>
      </trkpt>
      <trkpt lat="62.637992176522" lon="17.824469430596">
        <ele>63.4</ele>
        <time>2018-04-30T09:31:43Z</time>
      </trkpt>
      <trkpt lat="62.63800910796" lon="17.824630949809">
        <ele>63.4</ele>
        <time>2018-04-30T09:31:44Z</time>
      </trkpt>
      <trkpt lat="62.638023021914" lon="17.82478174019">
        <ele>63.2</ele>
        <time>2018-04-30T09:31:45Z</time>
      </trkpt>
      <trkpt lat="62.638035678583" lon="17.82492255611">
        <ele>63.2</ele>
        <time>2018-04-30T09:31:46Z</time>
      </trkpt>
      <trkpt lat="62.638049173442" lon="17.82507594488">
        <ele>63</ele>
        <time>2018-04-30T09:31:47Z</time>
      </trkpt>
      <trkpt lat="62.638062584482" lon="17.825239811025">
        <ele>62.8</ele>
        <time>2018-04-30T09:31:48Z</time>
      </trkpt>
      <trkpt lat="62.638074067685" lon="17.825395546727">
        <ele>62.6</ele>
        <time>2018-04-30T09:31:49Z</time>
      </trkpt>
      <trkpt lat="62.638083790689" lon="17.825555557198">
        <ele>62.4</ele>
        <time>2018-04-30T09:31:50Z</time>
      </trkpt>
      <trkpt lat="62.638097453186" lon="17.825709281244">
        <ele>62.4</ele>
        <time>2018-04-30T09:31:51Z</time>
      </trkpt>
      <trkpt lat="62.638110445131" lon="17.825846912042">
        <ele>62.4</ele>
        <time>2018-04-30T09:31:52Z</time>
      </trkpt>
      <trkpt lat="62.638122766524" lon="17.826022764304">
        <ele>62.4</ele>
        <time>2018-04-30T09:31:53Z</time>
      </trkpt>
      <trkpt lat="62.638132070433" lon="17.826180930757">
        <ele>62.4</ele>
        <time>2018-04-30T09:31:54Z</time>
      </trkpt>
      <trkpt lat="62.638141374342" lon="17.826336750278">
        <ele>62.4</ele>
        <time>2018-04-30T09:31:55Z</time>
      </trkpt>
      <trkpt lat="62.638148666595" lon="17.826497096025">
        <ele>62.4</ele>
        <time>2018-04-30T09:31:56Z</time>
      </trkpt>
      <trkpt lat="62.638153109002" lon="17.826645539474">
        <ele>62.4</ele>
        <time>2018-04-30T09:31:57Z</time>
      </trkpt>
      <trkpt lat="62.638159479246" lon="17.826791468353">
        <ele>62.2</ele>
        <time>2018-04-30T09:31:58Z</time>
      </trkpt>
      <trkpt lat="62.638165933309" lon="17.826969835185">
        <ele>62.2</ele>
        <time>2018-04-30T09:31:59Z</time>
      </trkpt>
      <trkpt lat="62.638172806467" lon="17.827130683846">
        <ele>62.2</ele>
        <time>2018-04-30T09:32:00Z</time>
      </trkpt>
      <trkpt lat="62.63817590777" lon="17.82728792829">
        <ele>62</ele>
        <time>2018-04-30T09:32:01Z</time>
      </trkpt>
      <trkpt lat="62.638179092892" lon="17.827435365911">
        <ele>62</ele>
        <time>2018-04-30T09:32:02Z</time>
      </trkpt>
      <trkpt lat="62.638182780928" lon="17.827603674463">
        <ele>61.8</ele>
        <time>2018-04-30T09:32:03Z</time>
      </trkpt>
      <trkpt lat="62.638184792584" lon="17.827755135396">
        <ele>61.8</ele>
        <time>2018-04-30T09:32:04Z</time>
      </trkpt>
      <trkpt lat="62.638179176711" lon="17.827922270482">
        <ele>61.8</ele>
        <time>2018-04-30T09:32:05Z</time>
      </trkpt>
      <trkpt lat="62.638181188367" lon="17.828081526582">
        <ele>61.8</ele>
        <time>2018-04-30T09:32:06Z</time>
      </trkpt>
      <trkpt lat="62.638179763444" lon="17.828226784909">
        <ele>61.8</ele>
        <time>2018-04-30T09:32:07Z</time>
      </trkpt>
      <trkpt lat="62.638180601634" lon="17.828394842004">
        <ele>62</ele>
        <time>2018-04-30T09:32:08Z</time>
      </trkpt>
      <trkpt lat="62.638179009073" lon="17.828551332077">
        <ele>61.8</ele>
        <time>2018-04-30T09:32:09Z</time>
      </trkpt>
      <trkpt lat="62.638178338521" lon="17.828697847689">
        <ele>61.6</ele>
        <time>2018-04-30T09:32:10Z</time>
      </trkpt>
      <trkpt lat="62.638177248874" lon="17.828864060766">
        <ele>61.4</ele>
        <time>2018-04-30T09:32:11Z</time>
      </trkpt>
      <trkpt lat="62.638172219734" lon="17.829012168939">
        <ele>61.4</ele>
        <time>2018-04-30T09:32:12Z</time>
      </trkpt>
      <trkpt lat="62.638168950793" lon="17.82917134122">
        <ele>61.4</ele>
        <time>2018-04-30T09:32:13Z</time>
      </trkpt>
      <trkpt lat="62.638166520042" lon="17.829340907057">
        <ele>61.4</ele>
        <time>2018-04-30T09:32:14Z</time>
      </trkpt>
      <trkpt lat="62.638167693508" lon="17.829505862849">
        <ele>61.6</ele>
        <time>2018-04-30T09:32:15Z</time>
      </trkpt>
      <trkpt lat="62.638161490902" lon="17.829656401773">
        <ele>61.6</ele>
        <time>2018-04-30T09:32:16Z</time>
      </trkpt>
      <trkpt lat="62.638152186993" lon="17.829816998977">
        <ele>61.4</ele>
        <time>2018-04-30T09:32:17Z</time>
      </trkpt>
      <trkpt lat="62.638141206704" lon="17.82998438552">
        <ele>61.4</ele>
        <time>2018-04-30T09:32:18Z</time>
      </trkpt>
      <trkpt lat="62.638136680478" lon="17.830144395991">
        <ele>61.4</ele>
        <time>2018-04-30T09:32:19Z</time>
      </trkpt>
      <trkpt lat="62.638132908623" lon="17.830304993195">
        <ele>61.6</ele>
        <time>2018-04-30T09:32:20Z</time>
      </trkpt>
      <trkpt lat="62.638128466216" lon="17.830468691702">
        <ele>61.6</ele>
        <time>2018-04-30T09:32:21Z</time>
      </trkpt>
      <trkpt lat="62.638118743212" lon="17.830602047731">
        <ele>61.6</ele>
        <time>2018-04-30T09:32:22Z</time>
      </trkpt>
      <trkpt lat="62.638106757095" lon="17.830769937188">
        <ele>61.4</ele>
        <time>2018-04-30T09:32:23Z</time>
      </trkpt>
      <trkpt lat="62.63809460334" lon="17.83093154022">
        <ele>61.2</ele>
        <time>2018-04-30T09:32:24Z</time>
      </trkpt>
      <trkpt lat="62.638088568372" lon="17.83109079632">
        <ele>61.2</ele>
        <time>2018-04-30T09:32:25Z</time>
      </trkpt>
      <trkpt lat="62.638076330798" lon="17.83124837604">
        <ele>61</ele>
        <time>2018-04-30T09:32:26Z</time>
      </trkpt>
      <trkpt lat="62.638065015233" lon="17.831402519181">
        <ele>61</ele>
        <time>2018-04-30T09:32:27Z</time>
      </trkpt>
      <trkpt lat="62.638057220066" lon="17.831510980967">
        <ele>61</ele>
        <time>2018-04-30T09:32:28Z</time>
      </trkpt>
      <trkpt lat="62.638038109334" lon="17.831735029154">
        <ele>61</ele>
        <time>2018-04-30T09:32:29Z</time>
      </trkpt>
      <trkpt lat="62.638024614475" lon="17.831903086249">
        <ele>61.2</ele>
        <time>2018-04-30T09:32:30Z</time>
      </trkpt>
      <trkpt lat="62.638011119616" lon="17.832077178312">
        <ele>61.4</ele>
        <time>2018-04-30T09:32:31Z</time>
      </trkpt>
      <trkpt lat="62.637997792395" lon="17.83222486739">
        <ele>61.4</ele>
        <time>2018-04-30T09:32:32Z</time>
      </trkpt>
      <trkpt lat="62.637981363871" lon="17.832401474023">
        <ele>61.4</ele>
        <time>2018-04-30T09:32:33Z</time>
      </trkpt>
      <trkpt lat="62.637970802677" lon="17.832561065399">
        <ele>61.4</ele>
        <time>2018-04-30T09:32:34Z</time>
      </trkpt>
      <trkpt lat="62.637951691945" lon="17.832739348412">
        <ele>61.2</ele>
        <time>2018-04-30T09:32:35Z</time>
      </trkpt>
      <trkpt lat="62.637933419403" lon="17.832906567317">
        <ele>61</ele>
        <time>2018-04-30T09:32:36Z</time>
      </trkpt>
      <trkpt lat="62.637914643947" lon="17.833064985227">
        <ele>60.6</ele>
        <time>2018-04-30T09:32:37Z</time>
      </trkpt>
      <trkpt lat="62.63789259955" lon="17.83325165014">
        <ele>60.2</ele>
        <time>2018-04-30T09:32:38Z</time>
      </trkpt>
      <trkpt lat="62.637875500474" lon="17.83342431728">
        <ele>59.8</ele>
        <time>2018-04-30T09:32:39Z</time>
      </trkpt>
      <trkpt lat="62.637855803009" lon="17.833598912257">
        <ele>59.4</ele>
        <time>2018-04-30T09:32:40Z</time>
      </trkpt>
      <trkpt lat="62.637835770268" lon="17.833780883306">
        <ele>58.8</ele>
        <time>2018-04-30T09:32:41Z</time>
      </trkpt>
      <trkpt lat="62.637814396423" lon="17.833948269849">
        <ele>58.6</ele>
        <time>2018-04-30T09:32:42Z</time>
      </trkpt>
      <trkpt lat="62.637793525492" lon="17.834120517894">
        <ele>58.4</ele>
        <time>2018-04-30T09:32:43Z</time>
      </trkpt>
      <trkpt lat="62.637771564914" lon="17.834321348218">
        <ele>58</ele>
        <time>2018-04-30T09:32:44Z</time>
      </trkpt>
      <trkpt lat="62.637752538001" lon="17.834507510217">
        <ele>58.2</ele>
        <time>2018-04-30T09:32:45Z</time>
      </trkpt>
      <trkpt lat="62.637730325966" lon="17.834687385791">
        <ele>58.2</ele>
        <time>2018-04-30T09:32:46Z</time>
      </trkpt>
      <trkpt lat="62.63770819775" lon="17.834876732912">
        <ele>58</ele>
        <time>2018-04-30T09:32:47Z</time>
      </trkpt>
      <trkpt lat="62.637683303507" lon="17.835081083634">
        <ele>57.8</ele>
        <time>2018-04-30T09:32:48Z</time>
      </trkpt>
      <trkpt lat="62.637662767852" lon="17.835278896474">
        <ele>57.6</ele>
        <time>2018-04-30T09:32:49Z</time>
      </trkpt>
      <trkpt lat="62.637640891093" lon="17.835479307703">
        <ele>57.4</ele>
        <time>2018-04-30T09:32:50Z</time>
      </trkpt>
      <trkpt lat="62.637619098153" lon="17.835677455819">
        <ele>57</ele>
        <time>2018-04-30T09:32:51Z</time>
      </trkpt>
      <trkpt lat="62.637598897774" lon="17.835850206778">
        <ele>56.2</ele>
        <time>2018-04-30T09:32:52Z</time>
      </trkpt>
      <trkpt lat="62.63757492554" lon="17.836074590241">
        <ele>55.6</ele>
        <time>2018-04-30T09:32:53Z</time>
      </trkpt>
      <trkpt lat="62.637551540039" lon="17.836270894339">
        <ele>55</ele>
        <time>2018-04-30T09:32:54Z</time>
      </trkpt>
      <trkpt lat="62.637526394339" lon="17.836466611704">
        <ele>54.4</ele>
        <time>2018-04-30T09:32:55Z</time>
      </trkpt>
      <trkpt lat="62.637504601399" lon="17.836670208055">
        <ele>53.8</ele>
        <time>2018-04-30T09:32:56Z</time>
      </trkpt>
      <trkpt lat="62.63748523921" lon="17.836863075574">
        <ele>53.4</ele>
        <time>2018-04-30T09:32:57Z</time>
      </trkpt>
      <trkpt lat="62.637464787374" lon="17.837046052451">
        <ele>53.2</ele>
        <time>2018-04-30T09:32:58Z</time>
      </trkpt>
      <trkpt lat="62.637439306398" lon="17.837279739823">
        <ele>53</ele>
        <time>2018-04-30T09:32:59Z</time>
      </trkpt>
      <trkpt lat="62.637415417983" lon="17.837488449133">
        <ele>52.8</ele>
        <time>2018-04-30T09:33:00Z</time>
      </trkpt>
      <trkpt lat="62.637393373586" lon="17.837695817339">
        <ele>52.8</ele>
        <time>2018-04-30T09:33:01Z</time>
      </trkpt>
      <trkpt lat="62.637373089388" lon="17.837894300731">
        <ele>52.6</ele>
        <time>2018-04-30T09:33:02Z</time>
      </trkpt>
      <trkpt lat="62.637346854041" lon="17.838120276755">
        <ele>52.4</ele>
        <time>2018-04-30T09:33:03Z</time>
      </trkpt>
      <trkpt lat="62.637324222911" lon="17.838327980237">
        <ele>52.2</ele>
        <time>2018-04-30T09:33:04Z</time>
      </trkpt>
      <trkpt lat="62.637298825754" lon="17.838551190234">
        <ele>52.2</ele>
        <time>2018-04-30T09:33:05Z</time>
      </trkpt>
      <trkpt lat="62.637276446081" lon="17.838765347779">
        <ele>51.8</ele>
        <time>2018-04-30T09:33:06Z</time>
      </trkpt>
      <trkpt lat="62.637254904598" lon="17.838967100112">
        <ele>51.6</ele>
        <time>2018-04-30T09:33:07Z</time>
      </trkpt>
      <trkpt lat="62.63723378221" lon="17.839187376444">
        <ele>51.4</ele>
        <time>2018-04-30T09:33:08Z</time>
      </trkpt>
      <trkpt lat="62.637212576003" lon="17.839408742423">
        <ele>51</ele>
        <time>2018-04-30T09:33:09Z</time>
      </trkpt>
      <trkpt lat="62.637194722556" lon="17.839632371515">
        <ele>50.2</ele>
        <time>2018-04-30T09:33:10Z</time>
      </trkpt>
      <trkpt lat="62.637177958756" lon="17.839844265947">
        <ele>49.8</ele>
        <time>2018-04-30T09:33:11Z</time>
      </trkpt>
      <trkpt lat="62.637162284603" lon="17.840036127638">
        <ele>49.2</ele>
        <time>2018-04-30T09:33:12Z</time>
      </trkpt>
      <trkpt lat="62.637147029545" lon="17.840234275754">
        <ele>48.8</ele>
        <time>2018-04-30T09:33:13Z</time>
      </trkpt>
      <trkpt lat="62.637130098107" lon="17.840459748864">
        <ele>48.4</ele>
        <time>2018-04-30T09:33:14Z</time>
      </trkpt>
      <trkpt lat="62.637117106162" lon="17.840662842301">
        <ele>48.6</ele>
        <time>2018-04-30T09:33:15Z</time>
      </trkpt>
      <trkpt lat="62.637106293511" lon="17.840859565494">
        <ele>48.4</ele>
        <time>2018-04-30T09:33:16Z</time>
      </trkpt>
      <trkpt lat="62.637096570507" lon="17.841068358623">
        <ele>48.4</ele>
        <time>2018-04-30T09:33:17Z</time>
      </trkpt>
      <trkpt lat="62.637088859159" lon="17.8412848631">
        <ele>48.6</ele>
        <time>2018-04-30T09:33:18Z</time>
      </trkpt>
      <trkpt lat="62.637076370128" lon="17.841487118347">
        <ele>48.2</ele>
        <time>2018-04-30T09:33:19Z</time>
      </trkpt>
      <trkpt lat="62.637069413151" lon="17.841681243151">
        <ele>48</ele>
        <time>2018-04-30T09:33:20Z</time>
      </trkpt>
      <trkpt lat="62.637065138382" lon="17.841886515882">
        <ele>47.8</ele>
        <time>2018-04-30T09:33:21Z</time>
      </trkpt>
      <trkpt lat="62.637059606328" lon="17.842067062008">
        <ele>47.6</ele>
        <time>2018-04-30T09:33:22Z</time>
      </trkpt>
      <trkpt lat="62.637055583016" lon="17.84229152929">
        <ele>47.2</ele>
        <time>2018-04-30T09:33:23Z</time>
      </trkpt>
      <trkpt lat="62.637051727342" lon="17.842489425949">
        <ele>47</ele>
        <time>2018-04-30T09:33:24Z</time>
      </trkpt>
      <trkpt lat="62.637048877496" lon="17.842683466934">
        <ele>46.6</ele>
        <time>2018-04-30T09:33:25Z</time>
      </trkpt>
      <trkpt lat="62.637045524736" lon="17.842861833766">
        <ele>46.4</ele>
        <time>2018-04-30T09:33:26Z</time>
      </trkpt>
      <trkpt lat="62.63704351308" lon="17.843041625521">
        <ele>46.2</ele>
        <time>2018-04-30T09:33:27Z</time>
      </trkpt>
      <trkpt lat="62.637041669062" lon="17.843218483611">
        <ele>46.2</ele>
        <time>2018-04-30T09:33:28Z</time>
      </trkpt>
      <trkpt lat="62.637041585243" lon="17.843426522369">
        <ele>46</ele>
        <time>2018-04-30T09:33:29Z</time>
      </trkpt>
      <trkpt lat="62.637042004338" lon="17.84360748759">
        <ele>45.8</ele>
        <time>2018-04-30T09:33:30Z</time>
      </trkpt>
      <trkpt lat="62.637043345442" lon="17.843795912702">
        <ele>45.8</ele>
        <time>2018-04-30T09:33:31Z</time>
      </trkpt>
      <trkpt lat="62.637047117297" lon="17.843964305073">
        <ele>45.8</ele>
        <time>2018-04-30T09:33:32Z</time>
      </trkpt>
      <trkpt lat="62.637052397894" lon="17.844155412393">
        <ele>45.8</ele>
        <time>2018-04-30T09:33:33Z</time>
      </trkpt>
      <trkpt lat="62.637059941604" lon="17.84432414004">
        <ele>45.8</ele>
        <time>2018-04-30T09:33:34Z</time>
      </trkpt>
      <trkpt lat="62.637065725115" lon="17.844506949279">
        <ele>45.8</ele>
        <time>2018-04-30T09:33:35Z</time>
      </trkpt>
      <trkpt lat="62.637070502798" lon="17.844691434898">
        <ele>46</ele>
        <time>2018-04-30T09:33:36Z</time>
      </trkpt>
      <trkpt lat="62.637079806707" lon="17.844863599124">
        <ele>45.8</ele>
        <time>2018-04-30T09:33:37Z</time>
      </trkpt>
      <trkpt lat="62.637091206091" lon="17.845049593485">
        <ele>45.4</ele>
        <time>2018-04-30T09:33:38Z</time>
      </trkpt>
      <trkpt lat="62.637101096733" lon="17.845225529566">
        <ele>45</ele>
        <time>2018-04-30T09:33:39Z</time>
      </trkpt>
      <trkpt lat="62.637108305167" lon="17.845392916109">
        <ele>44.4</ele>
        <time>2018-04-30T09:33:40Z</time>
      </trkpt>
      <trkpt lat="62.637116100334" lon="17.845585280714">
        <ele>43.8</ele>
        <time>2018-04-30T09:33:41Z</time>
      </trkpt>
      <trkpt lat="62.63712230294" lon="17.84575576856">
        <ele>43.4</ele>
        <time>2018-04-30T09:33:42Z</time>
      </trkpt>
      <trkpt lat="62.637128254089" lon="17.845942265835">
        <ele>43.4</ele>
        <time>2018-04-30T09:33:43Z</time>
      </trkpt>
      <trkpt lat="62.637135630161" lon="17.846145862186">
        <ele>43.4</ele>
        <time>2018-04-30T09:33:44Z</time>
      </trkpt>
      <trkpt lat="62.637147113364" lon="17.846334203479">
        <ele>43.6</ele>
        <time>2018-04-30T09:33:45Z</time>
      </trkpt>
      <trkpt lat="62.63715583054" lon="17.846511564483">
        <ele>43.8</ele>
        <time>2018-04-30T09:33:46Z</time>
      </trkpt>
      <trkpt lat="62.637162871336" lon="17.846700157233">
        <ele>43.6</ele>
        <time>2018-04-30T09:33:47Z</time>
      </trkpt>
      <trkpt lat="62.637167481381" lon="17.846902747756">
        <ele>43.6</ele>
        <time>2018-04-30T09:33:48Z</time>
      </trkpt>
      <trkpt lat="62.637175276548" lon="17.847092765429">
        <ele>43.2</ele>
        <time>2018-04-30T09:33:49Z</time>
      </trkpt>
      <trkpt lat="62.63718097624" lon="17.847279849437">
        <ele>43</ele>
        <time>2018-04-30T09:33:50Z</time>
      </trkpt>
      <trkpt lat="62.637187849398" lon="17.847468023092">
        <ele>42.6</ele>
        <time>2018-04-30T09:33:51Z</time>
      </trkpt>
      <trkpt lat="62.637193046176" lon="17.847626860097">
        <ele>42.4</ele>
        <time>2018-04-30T09:33:52Z</time>
      </trkpt>
      <trkpt lat="62.637200170791" lon="17.847835988502">
        <ele>42.2</ele>
        <time>2018-04-30T09:33:53Z</time>
      </trkpt>
      <trkpt lat="62.637208804148" lon="17.848027598736">
        <ele>42</ele>
        <time>2018-04-30T09:33:54Z</time>
      </trkpt>
      <trkpt lat="62.637214755297" lon="17.848206217025">
        <ele>41.6</ele>
        <time>2018-04-30T09:33:55Z</time>
      </trkpt>
      <trkpt lat="62.63722204755" lon="17.848395061232">
        <ele>41.6</ele>
        <time>2018-04-30T09:33:56Z</time>
      </trkpt>
      <trkpt lat="62.637229507441" lon="17.84857208696">
        <ele>41.6</ele>
        <time>2018-04-30T09:33:57Z</time>
      </trkpt>
      <trkpt lat="62.637234452762" lon="17.848747771584">
        <ele>41.4</ele>
        <time>2018-04-30T09:33:58Z</time>
      </trkpt>
      <trkpt lat="62.637238895169" lon="17.848959498378">
        <ele>41.4</ele>
        <time>2018-04-30T09:33:59Z</time>
      </trkpt>
      <trkpt lat="62.637245433051" lon="17.849151611526">
        <ele>41.2</ele>
        <time>2018-04-30T09:34:00Z</time>
      </trkpt>
      <trkpt lat="62.637250797467" lon="17.849342467389">
        <ele>41</ele>
        <time>2018-04-30T09:34:01Z</time>
      </trkpt>
      <trkpt lat="62.63725641334" lon="17.849525276628">
        <ele>40.6</ele>
        <time>2018-04-30T09:34:02Z</time>
      </trkpt>
      <trkpt lat="62.637262951222" lon="17.849737590155">
        <ele>40.4</ele>
        <time>2018-04-30T09:34:03Z</time>
      </trkpt>
      <trkpt lat="62.637266974534" lon="17.849926769638">
        <ele>40.2</ele>
        <time>2018-04-30T09:34:04Z</time>
      </trkpt>
      <trkpt lat="62.637274434425" lon="17.850141597735">
        <ele>40.2</ele>
        <time>2018-04-30T09:34:05Z</time>
      </trkpt>
      <trkpt lat="62.637281978135" lon="17.850348379208">
        <ele>40.2</ele>
        <time>2018-04-30T09:34:06Z</time>
      </trkpt>
      <trkpt lat="62.637288432198" lon="17.850546359686">
        <ele>40</ele>
        <time>2018-04-30T09:34:07Z</time>
      </trkpt>
      <trkpt lat="62.637295892089" lon="17.850770407873">
        <ele>39.6</ele>
        <time>2018-04-30T09:34:08Z</time>
      </trkpt>
      <trkpt lat="62.637302849066" lon="17.850984900694">
        <ele>39</ele>
        <time>2018-04-30T09:34:09Z</time>
      </trkpt>
      <trkpt lat="62.637309889862" lon="17.851181037154">
        <ele>38.6</ele>
        <time>2018-04-30T09:34:10Z</time>
      </trkpt>
      <trkpt lat="62.637316679201" lon="17.851408019006">
        <ele>38.2</ele>
        <time>2018-04-30T09:34:11Z</time>
      </trkpt>
      <trkpt lat="62.637323887635" lon="17.851610693348">
        <ele>37.8</ele>
        <time>2018-04-30T09:34:12Z</time>
      </trkpt>
      <trkpt lat="62.637331682802" lon="17.851819570296">
        <ele>37.2</ele>
        <time>2018-04-30T09:34:13Z</time>
      </trkpt>
      <trkpt lat="62.637338891236" lon="17.852048731442">
        <ele>36.8</ele>
        <time>2018-04-30T09:34:14Z</time>
      </trkpt>
      <trkpt lat="62.637346770222" lon="17.852266660842">
        <ele>35.8</ele>
        <time>2018-04-30T09:34:15Z</time>
      </trkpt>
      <trkpt lat="62.63735448157" lon="17.852472268849">
        <ele>35.4</ele>
        <time>2018-04-30T09:34:16Z</time>
      </trkpt>
      <trkpt lat="62.637360851814" lon="17.852688605688">
        <ele>34.8</ele>
        <time>2018-04-30T09:34:17Z</time>
      </trkpt>
      <trkpt lat="62.637369485171" lon="17.852924639992">
        <ele>34.2</ele>
        <time>2018-04-30T09:34:18Z</time>
      </trkpt>
      <trkpt lat="62.637378537623" lon="17.853146173609">
        <ele>33.8</ele>
        <time>2018-04-30T09:34:19Z</time>
      </trkpt>
      <trkpt lat="62.63738633279" lon="17.853372820185">
        <ele>33.6</ele>
        <time>2018-04-30T09:34:20Z</time>
      </trkpt>
      <trkpt lat="62.637397480717" lon="17.853601143141">
        <ele>33.4</ele>
        <time>2018-04-30T09:34:21Z</time>
      </trkpt>
      <trkpt lat="62.637406197893" lon="17.853798788343">
        <ele>33.2</ele>
        <time>2018-04-30T09:34:22Z</time>
      </trkpt>
      <trkpt lat="62.637419273657" lon="17.854052592275">
        <ele>32.8</ele>
        <time>2018-04-30T09:34:23Z</time>
      </trkpt>
      <trkpt lat="62.637430253946" lon="17.854273371521">
        <ele>32.4</ele>
        <time>2018-04-30T09:34:24Z</time>
      </trkpt>
      <trkpt lat="62.637447101565" lon="17.854513764413">
        <ele>31.8</ele>
        <time>2018-04-30T09:34:25Z</time>
      </trkpt>
      <trkpt lat="62.637467050487" lon="17.854733034917">
        <ele>31.4</ele>
        <time>2018-04-30T09:34:26Z</time>
      </trkpt>
      <trkpt lat="62.6374860774" lon="17.854939732571">
        <ele>31</ele>
        <time>2018-04-30T09:34:27Z</time>
      </trkpt>
      <trkpt lat="62.637506864512" lon="17.855153722478">
        <ele>30.6</ele>
        <time>2018-04-30T09:34:28Z</time>
      </trkpt>
      <trkpt lat="62.637530920565" lon="17.855406939677">
        <ele>30.4</ele>
        <time>2018-04-30T09:34:29Z</time>
      </trkpt>
      <trkpt lat="62.637553048781" lon="17.855628724751">
        <ele>30.2</ele>
        <time>2018-04-30T09:34:30Z</time>
      </trkpt>
      <trkpt lat="62.637579032671" lon="17.855847827617">
        <ele>30</ele>
        <time>2018-04-30T09:34:31Z</time>
      </trkpt>
      <trkpt lat="62.637602753448" lon="17.856043461163">
        <ele>30</ele>
        <time>2018-04-30T09:34:32Z</time>
      </trkpt>
      <trkpt lat="62.637629994623" lon="17.856271616481">
        <ele>29.8</ele>
        <time>2018-04-30T09:34:33Z</time>
      </trkpt>
      <trkpt lat="62.637656649065" lon="17.856472698262">
        <ele>29.6</ele>
        <time>2018-04-30T09:34:34Z</time>
      </trkpt>
      <trkpt lat="62.637685147525" lon="17.856691214395">
        <ele>29.6</ele>
        <time>2018-04-30T09:34:35Z</time>
      </trkpt>
      <trkpt lat="62.637707778655" lon="17.856884081914">
        <ele>29.4</ele>
        <time>2018-04-30T09:34:36Z</time>
      </trkpt>
      <trkpt lat="62.637728901043" lon="17.857057251968">
        <ele>29.2</ele>
        <time>2018-04-30T09:34:37Z</time>
      </trkpt>
      <trkpt lat="62.637757064227" lon="17.857257914654">
        <ele>29</ele>
        <time>2018-04-30T09:34:38Z</time>
      </trkpt>
      <trkpt lat="62.63778112028" lon="17.857434688925">
        <ele>28.6</ele>
        <time>2018-04-30T09:34:39Z</time>
      </trkpt>
      <trkpt lat="62.637802242668" lon="17.857598806527">
        <ele>28.4</ele>
        <time>2018-04-30T09:34:40Z</time>
      </trkpt>
      <trkpt lat="62.637826214902" lon="17.857779939386">
        <ele>28.2</ele>
        <time>2018-04-30T09:34:41Z</time>
      </trkpt>
      <trkpt lat="62.637845744729" lon="17.857938524934">
        <ele>28.2</ele>
        <time>2018-04-30T09:34:42Z</time>
      </trkpt>
      <trkpt lat="62.637865945108" lon="17.8581073364">
        <ele>28.2</ele>
        <time>2018-04-30T09:34:43Z</time>
      </trkpt>
      <trkpt lat="62.637886564582" lon="17.858283943033">
        <ele>28.6</ele>
        <time>2018-04-30T09:34:44Z</time>
      </trkpt>
      <trkpt lat="62.637907938427" lon="17.858456274897">
        <ele>28.8</ele>
        <time>2018-04-30T09:34:45Z</time>
      </trkpt>
      <trkpt lat="62.637928390263" lon="17.858613854617">
        <ele>28.8</ele>
        <time>2018-04-30T09:34:46Z</time>
      </trkpt>
      <trkpt lat="62.6379470819" lon="17.858776044382">
        <ele>29</ele>
        <time>2018-04-30T09:34:47Z</time>
      </trkpt>
      <trkpt lat="62.637965438261" lon="17.858946867504">
        <ele>29</ele>
        <time>2018-04-30T09:34:48Z</time>
      </trkpt>
      <trkpt lat="62.637982202061" lon="17.859105453052">
        <ele>28.8</ele>
        <time>2018-04-30T09:34:49Z</time>
      </trkpt>
      <trkpt lat="62.638000306965" lon="17.859269403016">
        <ele>28.8</ele>
        <time>2018-04-30T09:34:50Z</time>
      </trkpt>
      <trkpt lat="62.638015729661" lon="17.859434358808">
        <ele>28.8</ele>
        <time>2018-04-30T09:34:51Z</time>
      </trkpt>
      <trkpt lat="62.638028805425" lon="17.859571402873">
        <ele>28.8</ele>
        <time>2018-04-30T09:34:52Z</time>
      </trkpt>
      <trkpt lat="62.638043557569" lon="17.859758151605">
        <ele>28.8</ele>
        <time>2018-04-30T09:34:53Z</time>
      </trkpt>
      <trkpt lat="62.638055292229" lon="17.859922353026">
        <ele>28.8</ele>
        <time>2018-04-30T09:34:54Z</time>
      </trkpt>
      <trkpt lat="62.638063422672" lon="17.860084878067">
        <ele>29</ele>
        <time>2018-04-30T09:34:55Z</time>
      </trkpt>
      <trkpt lat="62.638073564771" lon="17.860247319289">
        <ele>29.6</ele>
        <time>2018-04-30T09:34:56Z</time>
      </trkpt>
      <trkpt lat="62.638080521748" lon="17.860400121326">
        <ele>29.6</ele>
        <time>2018-04-30T09:34:57Z</time>
      </trkpt>
      <trkpt lat="62.638089322743" lon="17.860549151508">
        <ele>29.6</ele>
        <time>2018-04-30T09:34:58Z</time>
      </trkpt>
      <trkpt lat="62.638097537005" lon="17.860729110901">
        <ele>29.8</ele>
        <time>2018-04-30T09:34:59Z</time>
      </trkpt>
      <trkpt lat="62.63810214705" lon="17.86088677444">
        <ele>29.6</ele>
        <time>2018-04-30T09:35:00Z</time>
      </trkpt>
      <trkpt lat="62.638106673276" lon="17.861042091047">
        <ele>29.2</ele>
        <time>2018-04-30T09:35:01Z</time>
      </trkpt>
      <trkpt lat="62.638110277493" lon="17.861186762641">
        <ele>29</ele>
        <time>2018-04-30T09:35:02Z</time>
      </trkpt>
      <trkpt lat="62.638115390452" lon="17.861346354017">
        <ele>29.2</ele>
        <time>2018-04-30T09:35:03Z</time>
      </trkpt>
      <trkpt lat="62.638117485927" lon="17.861489684507">
        <ele>29.4</ele>
        <time>2018-04-30T09:35:04Z</time>
      </trkpt>
      <trkpt lat="62.638119078488" lon="17.86165371829">
        <ele>29.4</ele>
        <time>2018-04-30T09:35:05Z</time>
      </trkpt>
      <trkpt lat="62.638120168135" lon="17.861806436508">
        <ele>29.4</ele>
        <time>2018-04-30T09:35:06Z</time>
      </trkpt>
      <trkpt lat="62.638119162307" lon="17.861952030111">
        <ele>29.6</ele>
        <time>2018-04-30T09:35:07Z</time>
      </trkpt>
      <trkpt lat="62.638118491755" lon="17.862108520184">
        <ele>29.6</ele>
        <time>2018-04-30T09:35:08Z</time>
      </trkpt>
      <trkpt lat="62.638120168135" lon="17.862256209262">
        <ele>29.8</ele>
        <time>2018-04-30T09:35:09Z</time>
      </trkpt>
      <trkpt lat="62.638118827031" lon="17.862396941363">
        <ele>29.6</ele>
        <time>2018-04-30T09:35:10Z</time>
      </trkpt>
      <trkpt lat="62.638112708244" lon="17.862555359273">
        <ele>29.8</ele>
        <time>2018-04-30T09:35:11Z</time>
      </trkpt>
      <trkpt lat="62.638107595285" lon="17.862693241528">
        <ele>29.8</ele>
        <time>2018-04-30T09:35:12Z</time>
      </trkpt>
      <trkpt lat="62.638101141222" lon="17.862835063276">
        <ele>29.8</ele>
        <time>2018-04-30T09:35:13Z</time>
      </trkpt>
      <trkpt lat="62.63809544153" lon="17.862998510326">
        <ele>29.8</ele>
        <time>2018-04-30T09:35:14Z</time>
      </trkpt>
      <trkpt lat="62.638090747666" lon="17.863143517196">
        <ele>29.8</ele>
        <time>2018-04-30T09:35:15Z</time>
      </trkpt>
      <trkpt lat="62.638087143449" lon="17.863284249297">
        <ele>29.8</ele>
        <time>2018-04-30T09:35:16Z</time>
      </trkpt>
      <trkpt lat="62.638080186472" lon="17.863432525108">
        <ele>30</ele>
        <time>2018-04-30T09:35:17Z</time>
      </trkpt>
      <trkpt lat="62.638073732409" lon="17.863590021009">
        <ele>30</ele>
        <time>2018-04-30T09:35:18Z</time>
      </trkpt>
      <trkpt lat="62.638067362165" lon="17.863734441146">
        <ele>30.2</ele>
        <time>2018-04-30T09:35:19Z</time>
      </trkpt>
      <trkpt lat="62.638059734636" lon="17.863883722785">
        <ele>30.4</ele>
        <time>2018-04-30T09:35:20Z</time>
      </trkpt>
      <trkpt lat="62.638050849822" lon="17.864030573673">
        <ele>30.4</ele>
        <time>2018-04-30T09:35:21Z</time>
      </trkpt>
      <trkpt lat="62.638043222293" lon="17.864161331313">
        <ele>30.6</ele>
        <time>2018-04-30T09:35:22Z</time>
      </trkpt>
      <trkpt lat="62.638032409642" lon="17.864330478055">
        <ele>30.6</ele>
        <time>2018-04-30T09:35:23Z</time>
      </trkpt>
      <trkpt lat="62.638025117389" lon="17.864483028635">
        <ele>30.8</ele>
        <time>2018-04-30T09:35:24Z</time>
      </trkpt>
      <trkpt lat="62.638018411869" lon="17.864635914491">
        <ele>31</ele>
        <time>2018-04-30T09:35:25Z</time>
      </trkpt>
      <trkpt lat="62.638009778512" lon="17.864788297433">
        <ele>31.2</ele>
        <time>2018-04-30T09:35:26Z</time>
      </trkpt>
      <trkpt lat="62.638002150983" lon="17.864930035362">
        <ele>31.4</ele>
        <time>2018-04-30T09:35:27Z</time>
      </trkpt>
      <trkpt lat="62.637995529282" lon="17.865072024748">
        <ele>31.4</ele>
        <time>2018-04-30T09:35:28Z</time>
      </trkpt>
      <trkpt lat="62.637987566477" lon="17.865205548415">
        <ele>31.4</ele>
        <time>2018-04-30T09:35:29Z</time>
      </trkpt>
      <trkpt lat="62.637976586188" lon="17.865398248296">
        <ele>31.4</ele>
        <time>2018-04-30T09:35:30Z</time>
      </trkpt>
      <trkpt lat="62.637970215944" lon="17.865548619582">
        <ele>31.4</ele>
        <time>2018-04-30T09:35:31Z</time>
      </trkpt>
      <trkpt lat="62.637964013338" lon="17.865690525149">
        <ele>31.4</ele>
        <time>2018-04-30T09:35:32Z</time>
      </trkpt>
      <trkpt lat="62.63795630199" lon="17.86585388838">
        <ele>31.4</ele>
        <time>2018-04-30T09:35:33Z</time>
      </trkpt>
      <trkpt lat="62.637948423004" lon="17.865993782291">
        <ele>31.4</ele>
        <time>2018-04-30T09:35:34Z</time>
      </trkpt>
      <trkpt lat="62.637938113267" lon="17.866151529649">
        <ele>31.6</ele>
        <time>2018-04-30T09:35:35Z</time>
      </trkpt>
      <trkpt lat="62.637929647548" lon="17.866298045261">
        <ele>31.6</ele>
        <time>2018-04-30T09:35:36Z</time>
      </trkpt>
      <trkpt lat="62.637923864037" lon="17.866432910032">
        <ele>31.6</ele>
        <time>2018-04-30T09:35:37Z</time>
      </trkpt>
      <trkpt lat="62.637915649775" lon="17.866588226639">
        <ele>31.8</ele>
        <time>2018-04-30T09:35:38Z</time>
      </trkpt>
      <trkpt lat="62.637908106065" lon="17.866729377835">
        <ele>32.2</ele>
        <time>2018-04-30T09:35:39Z</time>
      </trkpt>
      <trkpt lat="62.637901316726" lon="17.866861308941">
        <ele>32.2</ele>
        <time>2018-04-30T09:35:40Z</time>
      </trkpt>
      <trkpt lat="62.637891342265" lon="17.867002627775">
        <ele>32.4</ele>
        <time>2018-04-30T09:35:41Z</time>
      </trkpt>
      <trkpt lat="62.637884133831" lon="17.867130535569">
        <ele>32.8</ele>
        <time>2018-04-30T09:35:42Z</time>
      </trkpt>
      <trkpt lat="62.63787667394" lon="17.867263388684">
        <ele>33</ele>
        <time>2018-04-30T09:35:43Z</time>
      </trkpt>
      <trkpt lat="62.637868878773" lon="17.867400851844">
        <ele>33</ele>
        <time>2018-04-30T09:35:44Z</time>
      </trkpt>
      <trkpt lat="62.637860161597" lon="17.867527586172">
        <ele>33.4</ele>
        <time>2018-04-30T09:35:45Z</time>
      </trkpt>
      <trkpt lat="62.637852450249" lon="17.867641077098">
        <ele>33.6</ele>
        <time>2018-04-30T09:35:46Z</time>
      </trkpt>
      <trkpt lat="62.637846918195" lon="17.867763788114">
        <ele>33.8</ele>
        <time>2018-04-30T09:35:47Z</time>
      </trkpt>
      <trkpt lat="62.637837446648" lon="17.86789236646">
        <ele>34</ele>
        <time>2018-04-30T09:35:48Z</time>
      </trkpt>
      <trkpt lat="62.637833423336" lon="17.868010802707">
        <ele>34.2</ele>
        <time>2018-04-30T09:35:49Z</time>
      </trkpt>
      <trkpt lat="62.637831244042" lon="17.868126724384">
        <ele>34.6</ele>
        <time>2018-04-30T09:35:50Z</time>
      </trkpt>
      <trkpt lat="62.637826298721" lon="17.868240718224">
        <ele>34.8</ele>
        <time>2018-04-30T09:35:51Z</time>
      </trkpt>
      <trkpt lat="62.637822694504" lon="17.868330907468">
        <ele>35</ele>
        <time>2018-04-30T09:35:52Z</time>
      </trkpt>
      <trkpt lat="62.637815905165" lon="17.868464431135">
        <ele>35.4</ele>
        <time>2018-04-30T09:35:53Z</time>
      </trkpt>
      <trkpt lat="62.637809534921" lon="17.868565097754">
        <ele>35.6</ele>
        <time>2018-04-30T09:35:54Z</time>
      </trkpt>
      <trkpt lat="62.637806517437" lon="17.8686685304">
        <ele>36</ele>
        <time>2018-04-30T09:35:55Z</time>
      </trkpt>
      <trkpt lat="62.637804338143" lon="17.868772046865">
        <ele>36.2</ele>
        <time>2018-04-30T09:35:56Z</time>
      </trkpt>
      <trkpt lat="62.637803332315" lon="17.868868271077">
        <ele>36.2</ele>
        <time>2018-04-30T09:35:57Z</time>
      </trkpt>
      <trkpt lat="62.637797632623" lon="17.868963489461">
        <ele>36.2</ele>
        <time>2018-04-30T09:35:58Z</time>
      </trkpt>
      <trkpt lat="62.637790256551" lon="17.869076142197">
        <ele>36.2</ele>
        <time>2018-04-30T09:35:59Z</time>
      </trkpt>
      <trkpt lat="62.637787909619" lon="17.869171109124">
        <ele>36.4</ele>
        <time>2018-04-30T09:36:00Z</time>
      </trkpt>
      <trkpt lat="62.637787071429" lon="17.869264315852">
        <ele>36.4</ele>
        <time>2018-04-30T09:36:01Z</time>
      </trkpt>
      <trkpt lat="62.637782209927" lon="17.869346207015">
        <ele>36.6</ele>
        <time>2018-04-30T09:36:02Z</time>
      </trkpt>
      <trkpt lat="62.637779611538" lon="17.869440922485">
        <ele>36.8</ele>
        <time>2018-04-30T09:36:03Z</time>
      </trkpt>
      <trkpt lat="62.63778112028" lon="17.869525244399">
        <ele>37</ele>
        <time>2018-04-30T09:36:04Z</time>
      </trkpt>
      <trkpt lat="62.637782293746" lon="17.869619121679">
        <ele>37.4</ele>
        <time>2018-04-30T09:36:05Z</time>
      </trkpt>
      <trkpt lat="62.637783718669" lon="17.869704197964">
        <ele>37.8</ele>
        <time>2018-04-30T09:36:06Z</time>
      </trkpt>
      <trkpt lat="62.637782461384" lon="17.869781730539">
        <ele>38</ele>
        <time>2018-04-30T09:36:07Z</time>
      </trkpt>
      <trkpt lat="62.637781455556" lon="17.869867477376">
        <ele>38.4</ele>
        <time>2018-04-30T09:36:08Z</time>
      </trkpt>
      <trkpt lat="62.637782126108" lon="17.869948195073">
        <ele>38.8</ele>
        <time>2018-04-30T09:36:09Z</time>
      </trkpt>
      <trkpt lat="62.637783802488" lon="17.870022458707">
        <ele>39</ele>
        <time>2018-04-30T09:36:10Z</time>
      </trkpt>
      <trkpt lat="62.637782964298" lon="17.870105355698">
        <ele>39.2</ele>
        <time>2018-04-30T09:36:11Z</time>
      </trkpt>
      <trkpt lat="62.637781371737" lon="17.870178278228">
        <ele>39.4</ele>
        <time>2018-04-30T09:36:12Z</time>
      </trkpt>
      <trkpt lat="62.637781539375" lon="17.870257235726">
        <ele>39.6</ele>
        <time>2018-04-30T09:36:13Z</time>
      </trkpt>
      <trkpt lat="62.637782964298" lon="17.870339629803">
        <ele>39.8</ele>
        <time>2018-04-30T09:36:14Z</time>
      </trkpt>
      <trkpt lat="62.637786233239" lon="17.87041615655">
        <ele>40</ele>
        <time>2018-04-30T09:36:15Z</time>
      </trkpt>
      <trkpt lat="62.637788496352" lon="17.870487821795">
        <ele>40</ele>
        <time>2018-04-30T09:36:16Z</time>
      </trkpt>
      <trkpt lat="62.637792603483" lon="17.870565019094">
        <ele>40.2</ele>
        <time>2018-04-30T09:36:17Z</time>
      </trkpt>
      <trkpt lat="62.637796040062" lon="17.870646910257">
        <ele>40.4</ele>
        <time>2018-04-30T09:36:18Z</time>
      </trkpt>
      <trkpt lat="62.637799895736" lon="17.870724778108">
        <ele>40.6</ele>
        <time>2018-04-30T09:36:19Z</time>
      </trkpt>
      <trkpt lat="62.637806098342" lon="17.870800550484">
        <ele>40.6</ele>
        <time>2018-04-30T09:36:20Z</time>
      </trkpt>
      <trkpt lat="62.637811211301" lon="17.870875652308">
        <ele>40.8</ele>
        <time>2018-04-30T09:36:21Z</time>
      </trkpt>
      <trkpt lat="62.637815402251" lon="17.870942288413">
        <ele>41</ele>
        <time>2018-04-30T09:36:22Z</time>
      </trkpt>
      <trkpt lat="62.637821940133" lon="17.871025855956">
        <ele>41.2</ele>
        <time>2018-04-30T09:36:23Z</time>
      </trkpt>
      <trkpt lat="62.63782722073" lon="17.871100287228">
        <ele>41.4</ele>
        <time>2018-04-30T09:36:24Z</time>
      </trkpt>
      <trkpt lat="62.637830489671" lon="17.871173964129">
        <ele>41.4</ele>
        <time>2018-04-30T09:36:25Z</time>
      </trkpt>
      <trkpt lat="62.637835434992" lon="17.871247221935">
        <ele>41.6</ele>
        <time>2018-04-30T09:36:26Z</time>
      </trkpt>
      <trkpt lat="62.63784230815" lon="17.871314612411">
        <ele>41.8</ele>
        <time>2018-04-30T09:36:27Z</time>
      </trkpt>
      <trkpt lat="62.637844906539" lon="17.871386948208">
        <ele>41.8</ele>
        <time>2018-04-30T09:36:28Z</time>
      </trkpt>
      <trkpt lat="62.637848091661" lon="17.871470431932">
        <ele>42</ele>
        <time>2018-04-30T09:36:29Z</time>
      </trkpt>
      <trkpt lat="62.637852785525" lon="17.871541929539">
        <ele>42.4</ele>
        <time>2018-04-30T09:36:30Z</time>
      </trkpt>
      <trkpt lat="62.637859323407" lon="17.871616696087">
        <ele>42.6</ele>
        <time>2018-04-30T09:36:31Z</time>
      </trkpt>
      <trkpt lat="62.637866196565" lon="17.871685762943">
        <ele>42.8</ele>
        <time>2018-04-30T09:36:32Z</time>
      </trkpt>
      <trkpt lat="62.63787332118" lon="17.871763295518">
        <ele>43</ele>
        <time>2018-04-30T09:36:33Z</time>
      </trkpt>
      <trkpt lat="62.637879859062" lon="17.87183185946">
        <ele>43.2</ele>
        <time>2018-04-30T09:36:34Z</time>
      </trkpt>
      <trkpt lat="62.637894611206" lon="17.871907967112">
        <ele>43.2</ele>
        <time>2018-04-30T09:36:35Z</time>
      </trkpt>
      <trkpt lat="62.637905340038" lon="17.871980889642">
        <ele>43.4</ele>
        <time>2018-04-30T09:36:36Z</time>
      </trkpt>
      <trkpt lat="62.637913805757" lon="17.87204811248">
        <ele>43.4</ele>
        <time>2018-04-30T09:36:37Z</time>
      </trkpt>
      <trkpt lat="62.637923277304" lon="17.872129500729">
        <ele>43.4</ele>
        <time>2018-04-30T09:36:38Z</time>
      </trkpt>
      <trkpt lat="62.637933503222" lon="17.872201249793">
        <ele>43.4</ele>
        <time>2018-04-30T09:36:39Z</time>
      </trkpt>
      <trkpt lat="62.637944818787" lon="17.87227190921">
        <ele>43.6</ele>
        <time>2018-04-30T09:36:40Z</time>
      </trkpt>
      <trkpt lat="62.637958565103" lon="17.872350782889">
        <ele>43.6</ele>
        <time>2018-04-30T09:36:41Z</time>
      </trkpt>
      <trkpt lat="62.637970635039" lon="17.872414652967">
        <ele>43.6</ele>
        <time>2018-04-30T09:36:42Z</time>
      </trkpt>
      <trkpt lat="62.637985387183" lon="17.872485060927">
        <ele>43.6</ele>
        <time>2018-04-30T09:36:43Z</time>
      </trkpt>
      <trkpt lat="62.63799653511" lon="17.872559073104">
        <ele>43.8</ele>
        <time>2018-04-30T09:36:44Z</time>
      </trkpt>
      <trkpt lat="62.638007599218" lon="17.872629229607">
        <ele>44</ele>
        <time>2018-04-30T09:36:45Z</time>
      </trkpt>
      <trkpt lat="62.63802084262" lon="17.872692261495">
        <ele>44.4</ele>
        <time>2018-04-30T09:36:46Z</time>
      </trkpt>
      <trkpt lat="62.638035510945" lon="17.872763423826">
        <ele>44.6</ele>
        <time>2018-04-30T09:36:47Z</time>
      </trkpt>
      <trkpt lat="62.638046491234" lon="17.872841207858">
        <ele>44.8</ele>
        <time>2018-04-30T09:36:48Z</time>
      </trkpt>
      <trkpt lat="62.638060321369" lon="17.872917231691">
        <ele>45</ele>
        <time>2018-04-30T09:36:49Z</time>
      </trkpt>
      <trkpt lat="62.638073229495" lon="17.872992082058">
        <ele>45.2</ele>
        <time>2018-04-30T09:36:50Z</time>
      </trkpt>
      <trkpt lat="62.638088233096" lon="17.87306567514">
        <ele>45.2</ele>
        <time>2018-04-30T09:36:51Z</time>
      </trkpt>
      <trkpt lat="62.638099129566" lon="17.873131556874">
        <ele>45.2</ele>
        <time>2018-04-30T09:36:52Z</time>
      </trkpt>
      <trkpt lat="62.638115306633" lon="17.873216297883">
        <ele>45.4</ele>
        <time>2018-04-30T09:36:53Z</time>
      </trkpt>
      <trkpt lat="62.638130394053" lon="17.873290896793">
        <ele>45.4</ele>
        <time>2018-04-30T09:36:54Z</time>
      </trkpt>
      <trkpt lat="62.638146906396" lon="17.873367339721">
        <ele>45.6</ele>
        <time>2018-04-30T09:36:55Z</time>
      </trkpt>
      <trkpt lat="62.638164592205" lon="17.873445542848">
        <ele>45.8</ele>
        <time>2018-04-30T09:36:56Z</time>
      </trkpt>
      <trkpt lat="62.638176159227" lon="17.873520225577">
        <ele>46</ele>
        <time>2018-04-30T09:36:57Z</time>
      </trkpt>
      <trkpt lat="62.638191246647" lon="17.873593148107">
        <ele>46.2</ele>
        <time>2018-04-30T09:36:58Z</time>
      </trkpt>
      <trkpt lat="62.638208010447" lon="17.873682750618">
        <ele>46.4</ele>
        <time>2018-04-30T09:36:59Z</time>
      </trkpt>
      <trkpt lat="62.63822284641" lon="17.873766066704">
        <ele>46.6</ele>
        <time>2018-04-30T09:37:00Z</time>
      </trkpt>
      <trkpt lat="62.638239358753" lon="17.873845443297">
        <ele>46.6</ele>
        <time>2018-04-30T09:37:01Z</time>
      </trkpt>
      <trkpt lat="62.638257966571" lon="17.873919874569">
        <ele>46.8</ele>
        <time>2018-04-30T09:37:02Z</time>
      </trkpt>
      <trkpt lat="62.638276909665" lon="17.87401031527">
        <ele>46.8</ele>
        <time>2018-04-30T09:37:03Z</time>
      </trkpt>
      <trkpt lat="62.638293338189" lon="17.874088769854">
        <ele>47</ele>
        <time>2018-04-30T09:37:04Z</time>
      </trkpt>
      <trkpt lat="62.638311526912" lon="17.874178288546">
        <ele>47</ele>
        <time>2018-04-30T09:37:05Z</time>
      </trkpt>
      <trkpt lat="62.638330050911" lon="17.874258168053">
        <ele>47</ele>
        <time>2018-04-30T09:37:06Z</time>
      </trkpt>
      <trkpt lat="62.638348071996" lon="17.874335784447">
        <ele>47.2</ele>
        <time>2018-04-30T09:37:07Z</time>
      </trkpt>
      <trkpt lat="62.638370703126" lon="17.874421279827">
        <ele>47.4</ele>
        <time>2018-04-30T09:37:08Z</time>
      </trkpt>
      <trkpt lat="62.638391406419" lon="17.874504763551">
        <ele>47.6</ele>
        <time>2018-04-30T09:37:09Z</time>
      </trkpt>
      <trkpt lat="62.638406745296" lon="17.874584223963">
        <ele>48</ele>
        <time>2018-04-30T09:37:10Z</time>
      </trkpt>
      <trkpt lat="62.638423676734" lon="17.87467583813">
        <ele>48.4</ele>
        <time>2018-04-30T09:37:11Z</time>
      </trkpt>
      <trkpt lat="62.638442200733" lon="17.874748509203">
        <ele>48.8</ele>
        <time>2018-04-30T09:37:12Z</time>
      </trkpt>
      <trkpt lat="62.638462065836" lon="17.874831992927">
        <ele>49</ele>
        <time>2018-04-30T09:37:13Z</time>
      </trkpt>
      <trkpt lat="62.638480506016" lon="17.874920002877">
        <ele>49.2</ele>
        <time>2018-04-30T09:37:14Z</time>
      </trkpt>
      <trkpt lat="62.638496515445" lon="17.874998625099">
        <ele>49.4</ele>
        <time>2018-04-30T09:37:15Z</time>
      </trkpt>
      <trkpt lat="62.638515542358" lon="17.875072804914">
        <ele>49.6</ele>
        <time>2018-04-30T09:37:16Z</time>
      </trkpt>
      <trkpt lat="62.638536664746" lon="17.875152181507">
        <ele>49.6</ele>
        <time>2018-04-30T09:37:17Z</time>
      </trkpt>
      <trkpt lat="62.638557954772" lon="17.875238431258">
        <ele>49.4</ele>
        <time>2018-04-30T09:37:18Z</time>
      </trkpt>
      <trkpt lat="62.638577233142" lon="17.875319316593">
        <ele>49.2</ele>
        <time>2018-04-30T09:37:19Z</time>
      </trkpt>
      <trkpt lat="62.638594835132" lon="17.875400788661">
        <ele>49.2</ele>
        <time>2018-04-30T09:37:20Z</time>
      </trkpt>
      <trkpt lat="62.638613359131" lon="17.875478069779">
        <ele>49</ele>
        <time>2018-04-30T09:37:21Z</time>
      </trkpt>
      <trkpt lat="62.638628698008" lon="17.875543029504">
        <ele>48.8</ele>
        <time>2018-04-30T09:37:22Z</time>
      </trkpt>
      <trkpt lat="62.638649568939" lon="17.875627938151">
        <ele>48.8</ele>
        <time>2018-04-30T09:37:23Z</time>
      </trkpt>
      <trkpt lat="62.638666165101" lon="17.875703626708">
        <ele>48.8</ele>
        <time>2018-04-30T09:37:24Z</time>
      </trkpt>
      <trkpt lat="62.638684856738" lon="17.87578224893">
        <ele>48.8</ele>
        <time>2018-04-30T09:37:25Z</time>
      </trkpt>
      <trkpt lat="62.638702207271" lon="17.875860871152">
        <ele>48.8</ele>
        <time>2018-04-30T09:37:26Z</time>
      </trkpt>
      <trkpt lat="62.638721485641" lon="17.875935972976">
        <ele>48.8</ele>
        <time>2018-04-30T09:37:27Z</time>
      </trkpt>
      <trkpt lat="62.638740764011" lon="17.876009649877">
        <ele>49</ele>
        <time>2018-04-30T09:37:28Z</time>
      </trkpt>
      <trkpt lat="62.6387601262" lon="17.876102940424">
        <ele>49.2</ele>
        <time>2018-04-30T09:37:29Z</time>
      </trkpt>
      <trkpt lat="62.638779823665" lon="17.876188268166">
        <ele>49.4</ele>
        <time>2018-04-30T09:37:30Z</time>
      </trkpt>
      <trkpt lat="62.638800443139" lon="17.876273344451">
        <ele>49.6</ele>
        <time>2018-04-30T09:37:31Z</time>
      </trkpt>
      <trkpt lat="62.6388187995" lon="17.87635557089">
        <ele>49.8</ele>
        <time>2018-04-30T09:37:32Z</time>
      </trkpt>
      <trkpt lat="62.638841514449" lon="17.876447687971">
        <ele>50</ele>
        <time>2018-04-30T09:37:33Z</time>
      </trkpt>
      <trkpt lat="62.638859786991" lon="17.876529830591">
        <ele>50.2</ele>
        <time>2018-04-30T09:37:34Z</time>
      </trkpt>
      <trkpt lat="62.638880909379" lon="17.876622785862">
        <ele>50.2</ele>
        <time>2018-04-30T09:37:35Z</time>
      </trkpt>
      <trkpt lat="62.638897924636" lon="17.876712807468">
        <ele>50.4</ele>
        <time>2018-04-30T09:37:36Z</time>
      </trkpt>
      <trkpt lat="62.638911670952" lon="17.876793692803">
        <ele>50.4</ele>
        <time>2018-04-30T09:37:37Z</time>
      </trkpt>
      <trkpt lat="62.638930111132" lon="17.876890922843">
        <ele>50.4</ele>
        <time>2018-04-30T09:37:38Z</time>
      </trkpt>
      <trkpt lat="62.638945533828" lon="17.876980525354">
        <ele>50.4</ele>
        <time>2018-04-30T09:37:39Z</time>
      </trkpt>
      <trkpt lat="62.638960202153" lon="17.877066858924">
        <ele>50.4</ele>
        <time>2018-04-30T09:37:40Z</time>
      </trkpt>
      <trkpt lat="62.638980067256" lon="17.877161574394">
        <ele>50.6</ele>
        <time>2018-04-30T09:37:41Z</time>
      </trkpt>
      <trkpt lat="62.638994065029" lon="17.877244974299">
        <ele>50.4</ele>
        <time>2018-04-30T09:37:42Z</time>
      </trkpt>
      <trkpt lat="62.639012169933" lon="17.877334912086">
        <ele>50.4</ele>
        <time>2018-04-30T09:37:43Z</time>
      </trkpt>
      <trkpt lat="62.639030526294" lon="17.87743096866">
        <ele>50.6</ele>
        <time>2018-04-30T09:37:44Z</time>
      </trkpt>
      <trkpt lat="62.639045781352" lon="17.877519565343">
        <ele>50.6</ele>
        <time>2018-04-30T09:37:45Z</time>
      </trkpt>
      <trkpt lat="62.639059862944" lon="17.877604390171">
        <ele>50.6</ele>
        <time>2018-04-30T09:37:46Z</time>
      </trkpt>
      <trkpt lat="62.639074698907" lon="17.877693992682">
        <ele>50.6</ele>
        <time>2018-04-30T09:37:47Z</time>
      </trkpt>
      <trkpt lat="62.639092384716" lon="17.877792647645">
        <ele>50.8</ele>
        <time>2018-04-30T09:37:48Z</time>
      </trkpt>
      <trkpt lat="62.639105544299" lon="17.8778886204">
        <ele>51</ele>
        <time>2018-04-30T09:37:49Z</time>
      </trkpt>
      <trkpt lat="62.639117865692" lon="17.877981910947">
        <ele>51</ele>
        <time>2018-04-30T09:37:50Z</time>
      </trkpt>
      <trkpt lat="62.639131695827" lon="17.878077296969">
        <ele>51.4</ele>
        <time>2018-04-30T09:37:51Z</time>
      </trkpt>
      <trkpt lat="62.639143095211" lon="17.878163462901">
        <ele>51.6</ele>
        <time>2018-04-30T09:37:52Z</time>
      </trkpt>
      <trkpt lat="62.639157009165" lon="17.878273517248">
        <ele>51.6</ele>
        <time>2018-04-30T09:37:53Z</time>
      </trkpt>
      <trkpt lat="62.63917167749" lon="17.878370663469">
        <ele>51.8</ele>
        <time>2018-04-30T09:37:54Z</time>
      </trkpt>
      <trkpt lat="62.639185004711" lon="17.878470072803">
        <ele>51.8</ele>
        <time>2018-04-30T09:37:55Z</time>
      </trkpt>
      <trkpt lat="62.639194224801" lon="17.878569398318">
        <ele>51.8</ele>
        <time>2018-04-30T09:37:56Z</time>
      </trkpt>
      <trkpt lat="62.639205791823" lon="17.878659503743">
        <ele>52</ele>
        <time>2018-04-30T09:37:57Z</time>
      </trkpt>
      <trkpt lat="62.639216436836" lon="17.87875530886">
        <ele>52</ele>
        <time>2018-04-30T09:37:58Z</time>
      </trkpt>
      <trkpt lat="62.639227668582" lon="17.87887517003">
        <ele>52.2</ele>
        <time>2018-04-30T09:37:59Z</time>
      </trkpt>
      <trkpt lat="62.639240576708" lon="17.878979273228">
        <ele>52.2</ele>
        <time>2018-04-30T09:38:00Z</time>
      </trkpt>
      <trkpt lat="62.639250970264" lon="17.879084466073">
        <ele>52.4</ele>
        <time>2018-04-30T09:38:01Z</time>
      </trkpt>
      <trkpt lat="62.639260190354" lon="17.879179097724">
        <ele>52.6</ele>
        <time>2018-04-30T09:38:02Z</time>
      </trkpt>
      <trkpt lat="62.639269326625" lon="17.879289487347">
        <ele>52.8</ele>
        <time>2018-04-30T09:38:03Z</time>
      </trkpt>
      <trkpt lat="62.639277708525" lon="17.879384957188">
        <ele>52.8</ele>
        <time>2018-04-30T09:38:04Z</time>
      </trkpt>
      <trkpt lat="62.639284916959" lon="17.879493335155">
        <ele>53</ele>
        <time>2018-04-30T09:38:05Z</time>
      </trkpt>
      <trkpt lat="62.639294807601" lon="17.879593750317">
        <ele>53</ele>
        <time>2018-04-30T09:38:06Z</time>
      </trkpt>
      <trkpt lat="62.639302099854" lon="17.879689639253">
        <ele>53</ele>
        <time>2018-04-30T09:38:07Z</time>
      </trkpt>
      <trkpt lat="62.639307883365" lon="17.87979885541">
        <ele>53.2</ele>
        <time>2018-04-30T09:38:08Z</time>
      </trkpt>
      <trkpt lat="62.639315259437" lon="17.879903210065">
        <ele>53.4</ele>
        <time>2018-04-30T09:38:09Z</time>
      </trkpt>
      <trkpt lat="62.639322216414" lon="17.879998512268">
        <ele>53.6</ele>
        <time>2018-04-30T09:38:10Z</time>
      </trkpt>
      <trkpt lat="62.63933344816" lon="17.880108650434">
        <ele>54</ele>
        <time>2018-04-30T09:38:11Z</time>
      </trkpt>
      <trkpt lat="62.639342165336" lon="17.880202611533">
        <ele>54.2</ele>
        <time>2018-04-30T09:38:12Z</time>
      </trkpt>
      <trkpt lat="62.639348619399" lon="17.880303697247">
        <ele>54.6</ele>
        <time>2018-04-30T09:38:13Z</time>
      </trkpt>
      <trkpt lat="62.639353229444" lon="17.880413416318">
        <ele>54.8</ele>
        <time>2018-04-30T09:38:14Z</time>
      </trkpt>
      <trkpt lat="62.639359180593" lon="17.880513412385">
        <ele>55</ele>
        <time>2018-04-30T09:38:15Z</time>
      </trkpt>
      <trkpt lat="62.639367897769" lon="17.880607457303">
        <ele>55</ele>
        <time>2018-04-30T09:38:16Z</time>
      </trkpt>
      <trkpt lat="62.639375860574" lon="17.88070326242">
        <ele>55.2</ele>
        <time>2018-04-30T09:38:17Z</time>
      </trkpt>
      <trkpt lat="62.639383152827" lon="17.880807449437">
        <ele>55.2</ele>
        <time>2018-04-30T09:38:18Z</time>
      </trkpt>
      <trkpt lat="62.639395222763" lon="17.880903841287">
        <ele>55.4</ele>
        <time>2018-04-30T09:38:19Z</time>
      </trkpt>
      <trkpt lat="62.639400922455" lon="17.88100584901">
        <ele>55.4</ele>
        <time>2018-04-30T09:38:20Z</time>
      </trkpt>
      <trkpt lat="62.639406705966" lon="17.881107186181">
        <ele>55.6</ele>
        <time>2018-04-30T09:38:21Z</time>
      </trkpt>
      <trkpt lat="62.639413411486" lon="17.881194860855">
        <ele>55.8</ele>
        <time>2018-04-30T09:38:22Z</time>
      </trkpt>
      <trkpt lat="62.639428331268" lon="17.881305501935">
        <ele>55.8</ele>
        <time>2018-04-30T09:38:23Z</time>
      </trkpt>
      <trkpt lat="62.639442077584" lon="17.881409940409">
        <ele>55.8</ele>
        <time>2018-04-30T09:38:24Z</time>
      </trkpt>
      <trkpt lat="62.63945330933" lon="17.881514295064">
        <ele>56</ele>
        <time>2018-04-30T09:38:25Z</time>
      </trkpt>
      <trkpt lat="62.639466133637" lon="17.881616470425">
        <ele>56</ele>
        <time>2018-04-30T09:38:26Z</time>
      </trkpt>
      <trkpt lat="62.639479544677" lon="17.881709760972">
        <ele>56.2</ele>
        <time>2018-04-30T09:38:27Z</time>
      </trkpt>
      <trkpt lat="62.639495051192" lon="17.881803470614">
        <ele>56.2</ele>
        <time>2018-04-30T09:38:28Z</time>
      </trkpt>
      <trkpt lat="62.639513407553" lon="17.881915117522">
        <ele>56.4</ele>
        <time>2018-04-30T09:38:29Z</time>
      </trkpt>
      <trkpt lat="62.639525226032" lon="17.881988375328">
        <ele>56.4</ele>
        <time>2018-04-30T09:38:30Z</time>
      </trkpt>
      <trkpt lat="62.639550707008" lon="17.882112930362">
        <ele>56.6</ele>
        <time>2018-04-30T09:38:31Z</time>
      </trkpt>
      <trkpt lat="62.639567135532" lon="17.882207562013">
        <ele>56.6</ele>
        <time>2018-04-30T09:38:32Z</time>
      </trkpt>
      <trkpt lat="62.63958741973" lon="17.882313928324">
        <ele>56.8</ele>
        <time>2018-04-30T09:38:33Z</time>
      </trkpt>
      <trkpt lat="62.639608542118" lon="17.882404620482">
        <ele>56.8</ele>
        <time>2018-04-30T09:38:34Z</time>
      </trkpt>
      <trkpt lat="62.639635699474" lon="17.882506292929">
        <ele>57</ele>
        <time>2018-04-30T09:38:35Z</time>
      </trkpt>
      <trkpt lat="62.639660761355" lon="17.882608384471">
        <ele>57.2</ele>
        <time>2018-04-30T09:38:36Z</time>
      </trkpt>
      <trkpt lat="62.639684398313" lon="17.882702848484">
        <ele>57.4</ele>
        <time>2018-04-30T09:38:37Z</time>
      </trkpt>
      <trkpt lat="62.639713818782" lon="17.882811226451">
        <ele>57.6</ele>
        <time>2018-04-30T09:38:38Z</time>
      </trkpt>
      <trkpt lat="62.639741981966" lon="17.882913653269">
        <ele>57.6</ele>
        <time>2018-04-30T09:38:39Z</time>
      </trkpt>
      <trkpt lat="62.639766121838" lon="17.883012643508">
        <ele>57.8</ele>
        <time>2018-04-30T09:38:40Z</time>
      </trkpt>
      <trkpt lat="62.63979780542" lon="17.883121105294">
        <ele>57.8</ele>
        <time>2018-04-30T09:38:41Z</time>
      </trkpt>
      <trkpt lat="62.639828231717" lon="17.883215234031">
        <ele>57.8</ele>
        <time>2018-04-30T09:38:42Z</time>
      </trkpt>
      <trkpt lat="62.639860334394" lon="17.883314978641">
        <ele>57.8</ele>
        <time>2018-04-30T09:38:43Z</time>
      </trkpt>
      <trkpt lat="62.639895370736" lon="17.883423356608">
        <ele>57.8</ele>
        <time>2018-04-30T09:38:44Z</time>
      </trkpt>
      <trkpt lat="62.639928395422" lon="17.883518407354">
        <ele>58</ele>
        <time>2018-04-30T09:38:45Z</time>
      </trkpt>
      <trkpt lat="62.639963515583" lon="17.88360675258">
        <ele>58</ele>
        <time>2018-04-30T09:38:46Z</time>
      </trkpt>
      <trkpt lat="62.639999893029" lon="17.883701300412">
        <ele>58</ele>
        <time>2018-04-30T09:38:47Z</time>
      </trkpt>
      <trkpt lat="62.640037360122" lon="17.883805822705">
        <ele>58</ele>
        <time>2018-04-30T09:38:48Z</time>
      </trkpt>
      <trkpt lat="62.640074491939" lon="17.883902466012">
        <ele>57.8</ele>
        <time>2018-04-30T09:38:49Z</time>
      </trkpt>
      <trkpt lat="62.64011464124" lon="17.883990056867">
        <ele>57.6</ele>
        <time>2018-04-30T09:38:50Z</time>
      </trkpt>
      <trkpt lat="62.640155628731" lon="17.884077647722">
        <ele>57.4</ele>
        <time>2018-04-30T09:38:51Z</time>
      </trkpt>
      <trkpt lat="62.640192676729" lon="17.88415157608">
        <ele>57.2</ele>
        <time>2018-04-30T09:38:52Z</time>
      </trkpt>
      <trkpt lat="62.640241794663" lon="17.884249309034">
        <ele>57</ele>
        <time>2018-04-30T09:38:53Z</time>
      </trkpt>
      <trkpt lat="62.640286386371" lon="17.884336564613">
        <ele>57</ele>
        <time>2018-04-30T09:38:54Z</time>
      </trkpt>
      <trkpt lat="62.640333325011" lon="17.884423401097">
        <ele>56.8</ele>
        <time>2018-04-30T09:38:55Z</time>
      </trkpt>
      <trkpt lat="62.64038034747" lon="17.884506717183">
        <ele>56.6</ele>
        <time>2018-04-30T09:38:56Z</time>
      </trkpt>
      <trkpt lat="62.640426615558" lon="17.884581986645">
        <ele>56.6</ele>
        <time>2018-04-30T09:38:57Z</time>
      </trkpt>
      <trkpt lat="62.640473218922" lon="17.884658597211">
        <ele>56.4</ele>
        <time>2018-04-30T09:38:58Z</time>
      </trkpt>
      <trkpt lat="62.640530215842" lon="17.884750714292">
        <ele>56.4</ele>
        <time>2018-04-30T09:38:59Z</time>
      </trkpt>
      <trkpt lat="62.640582770355" lon="17.88482631903">
        <ele>56</ele>
        <time>2018-04-30T09:39:00Z</time>
      </trkpt>
      <trkpt lat="62.640635660144" lon="17.884898990103">
        <ele>55.8</ele>
        <time>2018-04-30T09:39:01Z</time>
      </trkpt>
      <trkpt lat="62.64068628682" lon="17.884965793846">
        <ele>55.4</ele>
        <time>2018-04-30T09:39:02Z</time>
      </trkpt>
      <trkpt lat="62.640743535197" lon="17.885045002801">
        <ele>55.4</ele>
        <time>2018-04-30T09:39:03Z</time>
      </trkpt>
      <trkpt lat="62.640794916244" lon="17.885111890363">
        <ele>55.2</ele>
        <time>2018-04-30T09:39:04Z</time>
      </trkpt>
      <trkpt lat="62.640853421906" lon="17.885189087662">
        <ele>54.8</ele>
        <time>2018-04-30T09:39:05Z</time>
      </trkpt>
      <trkpt lat="62.640909496817" lon="17.885262094011">
        <ele>54.6</ele>
        <time>2018-04-30T09:39:06Z</time>
      </trkpt>
      <trkpt lat="62.640963476253" lon="17.885333004885">
        <ele>54.4</ele>
        <time>2018-04-30T09:39:07Z</time>
      </trkpt>
      <trkpt lat="62.641026089046" lon="17.885407603795">
        <ele>54.2</ele>
        <time>2018-04-30T09:39:08Z</time>
      </trkpt>
      <trkpt lat="62.641085600536" lon="17.885481532153">
        <ele>53.8</ele>
        <time>2018-04-30T09:39:09Z</time>
      </trkpt>
      <trkpt lat="62.641142094542" lon="17.885553113579">
        <ele>53.4</ele>
        <time>2018-04-30T09:39:10Z</time>
      </trkpt>
      <trkpt lat="62.64120261186" lon="17.885637519312">
        <ele>53.2</ele>
        <time>2018-04-30T09:39:11Z</time>
      </trkpt>
      <trkpt lat="62.641256675115" lon="17.885713878421">
        <ele>53</ele>
        <time>2018-04-30T09:39:12Z</time>
      </trkpt>
      <trkpt lat="62.6413166057" lon="17.885801301638">
        <ele>52.6</ele>
        <time>2018-04-30T09:39:13Z</time>
      </trkpt>
      <trkpt lat="62.641380978692" lon="17.885896352384">
        <ele>52.2</ele>
        <time>2018-04-30T09:39:14Z</time>
      </trkpt>
      <trkpt lat="62.641441328372" lon="17.88598805037">
        <ele>52</ele>
        <time>2018-04-30T09:39:15Z</time>
      </trkpt>
      <trkpt lat="62.641498744387" lon="17.886083268754">
        <ele>51.4</ele>
        <time>2018-04-30T09:39:16Z</time>
      </trkpt>
      <trkpt lat="62.641557417687" lon="17.886188293961">
        <ele>51.2</ele>
        <time>2018-04-30T09:39:17Z</time>
      </trkpt>
      <trkpt lat="62.641621203946" lon="17.886304634733">
        <ele>51</ele>
        <time>2018-04-30T09:39:18Z</time>
      </trkpt>
      <trkpt lat="62.64167954197" lon="17.886419215306">
        <ele>50.8</ele>
        <time>2018-04-30T09:39:19Z</time>
      </trkpt>
      <trkpt lat="62.641737125623" lon="17.886537651553">
        <ele>50.6</ele>
        <time>2018-04-30T09:39:20Z</time>
      </trkpt>
      <trkpt lat="62.641794457819" lon="17.88666614608">
        <ele>50.6</ele>
        <time>2018-04-30T09:39:21Z</time>
      </trkpt>
      <trkpt lat="62.641842067011" lon="17.886780307558">
        <ele>50.6</ele>
        <time>2018-04-30T09:39:22Z</time>
      </trkpt>
      <trkpt lat="62.641900991768" lon="17.886929253921">
        <ele>50.2</ele>
        <time>2018-04-30T09:39:23Z</time>
      </trkpt>
      <trkpt lat="62.641952708091" lon="17.887063280502">
        <ele>50</ele>
        <time>2018-04-30T09:39:24Z</time>
      </trkpt>
      <trkpt lat="62.641998557084" lon="17.887195798341">
        <ele>49.8</ele>
        <time>2018-04-30T09:39:25Z</time>
      </trkpt>
      <trkpt lat="62.642044741353" lon="17.887340134659">
        <ele>49.4</ele>
        <time>2018-04-30T09:39:26Z</time>
      </trkpt>
      <trkpt lat="62.642084974473" lon="17.887484051882">
        <ele>49.2</ele>
        <time>2018-04-30T09:39:27Z</time>
      </trkpt>
      <trkpt lat="62.642122357747" lon="17.887615731531">
        <ele>49.2</ele>
        <time>2018-04-30T09:39:28Z</time>
      </trkpt>
      <trkpt lat="62.642165440713" lon="17.887769623215">
        <ele>49</ele>
        <time>2018-04-30T09:39:29Z</time>
      </trkpt>
      <trkpt lat="62.642199722684" lon="17.887902141054">
        <ele>48.8</ele>
        <time>2018-04-30T09:39:30Z</time>
      </trkpt>
      <trkpt lat="62.642232998827" lon="17.888045303906">
        <ele>48.6</ele>
        <time>2018-04-30T09:39:31Z</time>
      </trkpt>
      <trkpt lat="62.642260491459" lon="17.88817907903">
        <ele>48.4</ele>
        <time>2018-04-30T09:39:32Z</time>
      </trkpt>
      <trkpt lat="62.642288738462" lon="17.888326432832">
        <ele>48.4</ele>
        <time>2018-04-30T09:39:33Z</time>
      </trkpt>
      <trkpt lat="62.642313465067" lon="17.888454927359">
        <ele>48.4</ele>
        <time>2018-04-30T09:39:34Z</time>
      </trkpt>
      <trkpt lat="62.642339616595" lon="17.888599263677">
        <ele>48.4</ele>
        <time>2018-04-30T09:39:35Z</time>
      </trkpt>
      <trkpt lat="62.642365349028" lon="17.888725998005">
        <ele>48.4</ele>
        <time>2018-04-30T09:39:36Z</time>
      </trkpt>
      <trkpt lat="62.642385884683" lon="17.888845020985">
        <ele>48.6</ele>
        <time>2018-04-30T09:39:37Z</time>
      </trkpt>
      <trkpt lat="62.6424062527" lon="17.888978544652">
        <ele>48.8</ele>
        <time>2018-04-30T09:39:38Z</time>
      </trkpt>
      <trkpt lat="62.642423938509" lon="17.889098741098">
        <ele>48.8</ele>
        <time>2018-04-30T09:39:39Z</time>
      </trkpt>
      <trkpt lat="62.642441708137" lon="17.88920502359">
        <ele>49</ele>
        <time>2018-04-30T09:39:40Z</time>
      </trkpt>
      <trkpt lat="62.642459645403" lon="17.889324549484">
        <ele>49.2</ele>
        <time>2018-04-30T09:39:41Z</time>
      </trkpt>
      <trkpt lat="62.642473475538" lon="17.889425299922">
        <ele>49.4</ele>
        <time>2018-04-30T09:39:42Z</time>
      </trkpt>
      <trkpt lat="62.642488479139" lon="17.88952856493">
        <ele>49.6</ele>
        <time>2018-04-30T09:39:43Z</time>
      </trkpt>
      <trkpt lat="62.64250515912" lon="17.889635769431">
        <ele>49.8</ele>
        <time>2018-04-30T09:39:44Z</time>
      </trkpt>
      <trkpt lat="62.642521587644" lon="17.889733250928">
        <ele>50</ele>
        <time>2018-04-30T09:39:45Z</time>
      </trkpt>
      <trkpt lat="62.642534831046" lon="17.889830564787">
        <ele>50</ele>
        <time>2018-04-30T09:39:46Z</time>
      </trkpt>
      <trkpt lat="62.642549164095" lon="17.889933745976">
        <ele>50.2</ele>
        <time>2018-04-30T09:39:47Z</time>
      </trkpt>
      <trkpt lat="62.642564083877" lon="17.89004405178">
        <ele>50.2</ele>
        <time>2018-04-30T09:39:48Z</time>
      </trkpt>
      <trkpt lat="62.642576824365" lon="17.890143377295">
        <ele>50.4</ele>
        <time>2018-04-30T09:39:49Z</time>
      </trkpt>
      <trkpt lat="62.642590822138" lon="17.890247312855">
        <ele>50.4</ele>
        <time>2018-04-30T09:39:50Z</time>
      </trkpt>
      <trkpt lat="62.642608340309" lon="17.890347141284">
        <ele>50.8</ele>
        <time>2018-04-30T09:39:51Z</time>
      </trkpt>
      <trkpt lat="62.642617308942" lon="17.890441521478">
        <ele>51</ele>
        <time>2018-04-30T09:39:52Z</time>
      </trkpt>
      <trkpt lat="62.64263004943" lon="17.89056289139">
        <ele>51.2</ele>
        <time>2018-04-30T09:39:53Z</time>
      </trkpt>
      <trkpt lat="62.642643628108" lon="17.890671604633">
        <ele>51.6</ele>
        <time>2018-04-30T09:39:54Z</time>
      </trkpt>
      <trkpt lat="62.642656117139" lon="17.890779731143">
        <ele>51.8</ele>
        <time>2018-04-30T09:39:55Z</time>
      </trkpt>
      <trkpt lat="62.642670114912" lon="17.890887522377">
        <ele>51.8</ele>
        <time>2018-04-30T09:39:56Z</time>
      </trkpt>
      <trkpt lat="62.642684112685" lon="17.890991960851">
        <ele>52</ele>
        <time>2018-04-30T09:39:57Z</time>
      </trkpt>
      <trkpt lat="62.642697439906" lon="17.891100925551">
        <ele>52.2</ele>
        <time>2018-04-30T09:39:58Z</time>
      </trkpt>
      <trkpt lat="62.642711186222" lon="17.891228665707">
        <ele>52.2</ele>
        <time>2018-04-30T09:39:59Z</time>
      </trkpt>
      <trkpt lat="62.642725351633" lon="17.891348191601">
        <ele>52.4</ele>
        <time>2018-04-30T09:40:00Z</time>
      </trkpt>
      <trkpt lat="62.64273901413" lon="17.891464700011">
        <ele>52.4</ele>
        <time>2018-04-30T09:40:01Z</time>
      </trkpt>
      <trkpt lat="62.642753347179" lon="17.891578610032">
        <ele>52.6</ele>
        <time>2018-04-30T09:40:02Z</time>
      </trkpt>
      <trkpt lat="62.642768099323" lon="17.891706014912">
        <ele>52.6</ele>
        <time>2018-04-30T09:40:03Z</time>
      </trkpt>
      <trkpt lat="62.642781007449" lon="17.891818416191">
        <ele>52.6</ele>
        <time>2018-04-30T09:40:04Z</time>
      </trkpt>
      <trkpt lat="62.642795508136" lon="17.891946240166">
        <ele>52.8</ele>
        <time>2018-04-30T09:40:05Z</time>
      </trkpt>
      <trkpt lat="62.642810511737" lon="17.892069035001">
        <ele>52.6</ele>
        <time>2018-04-30T09:40:06Z</time>
      </trkpt>
      <trkpt lat="62.642823587501" lon="17.89218646542">
        <ele>52.6</ele>
        <time>2018-04-30T09:40:07Z</time>
      </trkpt>
      <trkpt lat="62.642840183663" lon="17.892317306879">
        <ele>52.6</ele>
        <time>2018-04-30T09:40:08Z</time>
      </trkpt>
      <trkpt lat="62.642856193092" lon="17.892444544121">
        <ele>52.6</ele>
        <time>2018-04-30T09:40:09Z</time>
      </trkpt>
      <trkpt lat="62.642869101218" lon="17.892565243481">
        <ele>52.6</ele>
        <time>2018-04-30T09:40:10Z</time>
      </trkpt>
      <trkpt lat="62.642885445923" lon="17.892702371365">
        <ele>52.4</ele>
        <time>2018-04-30T09:40:11Z</time>
      </trkpt>
      <trkpt lat="62.642899276058" lon="17.892826172028">
        <ele>52.4</ele>
        <time>2018-04-30T09:40:12Z</time>
      </trkpt>
      <trkpt lat="62.642911262175" lon="17.892960617704">
        <ele>52.4</ele>
        <time>2018-04-30T09:40:13Z</time>
      </trkpt>
      <trkpt lat="62.642926181957" lon="17.893104115832">
        <ele>52.2</ele>
        <time>2018-04-30T09:40:14Z</time>
      </trkpt>
      <trkpt lat="62.642941101739" lon="17.893237807137">
        <ele>52.2</ele>
        <time>2018-04-30T09:40:15Z</time>
      </trkpt>
      <trkpt lat="62.642954764236" lon="17.893361859257">
        <ele>52</ele>
        <time>2018-04-30T09:40:16Z</time>
      </trkpt>
      <trkpt lat="62.642969935475" lon="17.893495466743">
        <ele>52</ele>
        <time>2018-04-30T09:40:17Z</time>
      </trkpt>
      <trkpt lat="62.642983178877" lon="17.893639635423">
        <ele>51.8</ele>
        <time>2018-04-30T09:40:18Z</time>
      </trkpt>
      <trkpt lat="62.642994578261" lon="17.893774919289">
        <ele>51.8</ele>
        <time>2018-04-30T09:40:19Z</time>
      </trkpt>
      <trkpt lat="62.643008492215" lon="17.893908526775">
        <ele>51.6</ele>
        <time>2018-04-30T09:40:20Z</time>
      </trkpt>
      <trkpt lat="62.643020394513" lon="17.894044145917">
        <ele>51.6</ele>
        <time>2018-04-30T09:40:21Z</time>
      </trkpt>
      <trkpt lat="62.643029446965" lon="17.894165348191">
        <ele>51.4</ele>
        <time>2018-04-30T09:40:22Z</time>
      </trkpt>
      <trkpt lat="62.643041935996" lon="17.894317312038">
        <ele>51.2</ele>
        <time>2018-04-30T09:40:23Z</time>
      </trkpt>
      <trkpt lat="62.643054760303" lon="17.894457457406">
        <ele>50.8</ele>
        <time>2018-04-30T09:40:24Z</time>
      </trkpt>
      <trkpt lat="62.643068171343" lon="17.894598357145">
        <ele>50.6</ele>
        <time>2018-04-30T09:40:25Z</time>
      </trkpt>
      <trkpt lat="62.643078732537" lon="17.894743028739">
        <ele>50.4</ele>
        <time>2018-04-30T09:40:26Z</time>
      </trkpt>
      <trkpt lat="62.643087198256" lon="17.894877642053">
        <ele>50.2</ele>
        <time>2018-04-30T09:40:27Z</time>
      </trkpt>
      <trkpt lat="62.643097172717" lon="17.895014769937">
        <ele>50.2</ele>
        <time>2018-04-30T09:40:28Z</time>
      </trkpt>
      <trkpt lat="62.643107063359" lon="17.895185257783">
        <ele>50.2</ele>
        <time>2018-04-30T09:40:29Z</time>
      </trkpt>
      <trkpt lat="62.643116786363" lon="17.895334539422">
        <ele>50.4</ele>
        <time>2018-04-30T09:40:30Z</time>
      </trkpt>
      <trkpt lat="62.643125168263" lon="17.895487928192">
        <ele>50.4</ele>
        <time>2018-04-30T09:40:31Z</time>
      </trkpt>
      <trkpt lat="62.643132376697" lon="17.895631342501">
        <ele>50.4</ele>
        <time>2018-04-30T09:40:32Z</time>
      </trkpt>
      <trkpt lat="62.643139501312" lon="17.895795041008">
        <ele>50.4</ele>
        <time>2018-04-30T09:40:33Z</time>
      </trkpt>
      <trkpt lat="62.643145620099" lon="17.895929319046">
        <ele>50.4</ele>
        <time>2018-04-30T09:40:34Z</time>
      </trkpt>
      <trkpt lat="62.643153331447" lon="17.89609997453">
        <ele>50.2</ele>
        <time>2018-04-30T09:40:35Z</time>
      </trkpt>
      <trkpt lat="62.643156684207" lon="17.896259146811">
        <ele>50.2</ele>
        <time>2018-04-30T09:40:36Z</time>
      </trkpt>
      <trkpt lat="62.64315727094" lon="17.896403315491">
        <ele>50.2</ele>
        <time>2018-04-30T09:40:37Z</time>
      </trkpt>
      <trkpt lat="62.643157522397" lon="17.896570618215">
        <ele>50.2</ele>
        <time>2018-04-30T09:40:38Z</time>
      </trkpt>
      <trkpt lat="62.643159534053" lon="17.896728533211">
        <ele>50.2</ele>
        <time>2018-04-30T09:40:39Z</time>
      </trkpt>
      <trkpt lat="62.643160204605" lon="17.896878736859">
        <ele>50.2</ele>
        <time>2018-04-30T09:40:40Z</time>
      </trkpt>
      <trkpt lat="62.643157857673" lon="17.897045704307">
        <ele>50.2</ele>
        <time>2018-04-30T09:40:41Z</time>
      </trkpt>
      <trkpt lat="62.643156684207" lon="17.897193225747">
        <ele>50</ele>
        <time>2018-04-30T09:40:42Z</time>
      </trkpt>
      <trkpt lat="62.643154504913" lon="17.897344016128">
        <ele>50.2</ele>
        <time>2018-04-30T09:40:43Z</time>
      </trkpt>
      <trkpt lat="62.643148386126" lon="17.897506122074">
        <ele>50.2</ele>
        <time>2018-04-30T09:40:44Z</time>
      </trkpt>
      <trkpt lat="62.643144195176" lon="17.897660516672">
        <ele>50.4</ele>
        <time>2018-04-30T09:40:45Z</time>
      </trkpt>
      <trkpt lat="62.643141429149" lon="17.897806194094">
        <ele>50.4</ele>
        <time>2018-04-30T09:40:46Z</time>
      </trkpt>
      <trkpt lat="62.64313631619" lon="17.897959834321">
        <ele>50.4</ele>
        <time>2018-04-30T09:40:47Z</time>
      </trkpt>
      <trkpt lat="62.643128353385" lon="17.898123784285">
        <ele>50.4</ele>
        <time>2018-04-30T09:40:48Z</time>
      </trkpt>
      <trkpt lat="62.643121144951" lon="17.898276334865">
        <ele>50.6</ele>
        <time>2018-04-30T09:40:49Z</time>
      </trkpt>
      <trkpt lat="62.643115864354" lon="17.898429555997">
        <ele>50.6</ele>
        <time>2018-04-30T09:40:50Z</time>
      </trkpt>
      <trkpt lat="62.64311117049" lon="17.898577747989">
        <ele>50.8</ele>
        <time>2018-04-30T09:40:51Z</time>
      </trkpt>
      <trkpt lat="62.643105722255" lon="17.898707332163">
        <ele>50.6</ele>
        <time>2018-04-30T09:40:52Z</time>
      </trkpt>
      <trkpt lat="62.643098932916" lon="17.898877065638">
        <ele>50.6</ele>
        <time>2018-04-30T09:40:53Z</time>
      </trkpt>
      <trkpt lat="62.643090299559" lon="17.899023832707">
        <ele>50.4</ele>
        <time>2018-04-30T09:40:54Z</time>
      </trkpt>
      <trkpt lat="62.643086611523" lon="17.899169845405">
        <ele>50.4</ele>
        <time>2018-04-30T09:40:55Z</time>
      </trkpt>
      <trkpt lat="62.64308351022" lon="17.899314181723">
        <ele>50.2</ele>
        <time>2018-04-30T09:40:56Z</time>
      </trkpt>
      <trkpt lat="62.643076469424" lon="17.899446112829">
        <ele>50</ele>
        <time>2018-04-30T09:40:57Z</time>
      </trkpt>
      <trkpt lat="62.64307177556" lon="17.899577708659">
        <ele>50</ele>
        <time>2018-04-30T09:40:58Z</time>
      </trkpt>
      <trkpt lat="62.643065237678" lon="17.899737216216">
        <ele>50.2</ele>
        <time>2018-04-30T09:40:59Z</time>
      </trkpt>
      <trkpt lat="62.643056939597" lon="17.899876523394">
        <ele>50.2</ele>
        <time>2018-04-30T09:41:00Z</time>
      </trkpt>
      <trkpt lat="62.64305082081" lon="17.900015662934">
        <ele>50.4</ele>
        <time>2018-04-30T09:41:01Z</time>
      </trkpt>
      <trkpt lat="62.643048222421" lon="17.900149354239">
        <ele>50.6</ele>
        <time>2018-04-30T09:41:02Z</time>
      </trkpt>
      <trkpt lat="62.643042858005" lon="17.900299390249">
        <ele>50.8</ele>
        <time>2018-04-30T09:41:03Z</time>
      </trkpt>
      <trkpt lat="62.643038667055" lon="17.900434003563">
        <ele>50.8</ele>
        <time>2018-04-30T09:41:04Z</time>
      </trkpt>
      <trkpt lat="62.643032548268" lon="17.900582279374">
        <ele>50.8</ele>
        <time>2018-04-30T09:41:05Z</time>
      </trkpt>
      <trkpt lat="62.643026848576" lon="17.900723598208">
        <ele>50.8</ele>
        <time>2018-04-30T09:41:06Z</time>
      </trkpt>
      <trkpt lat="62.643023747273" lon="17.900854942581">
        <ele>50.8</ele>
        <time>2018-04-30T09:41:07Z</time>
      </trkpt>
      <trkpt lat="62.643020143056" lon="17.901004978591">
        <ele>50.6</ele>
        <time>2018-04-30T09:41:08Z</time>
      </trkpt>
      <trkpt lat="62.643016035925" lon="17.901145207778">
        <ele>50.4</ele>
        <time>2018-04-30T09:41:09Z</time>
      </trkpt>
      <trkpt lat="62.643011761156" lon="17.901278396169">
        <ele>50.2</ele>
        <time>2018-04-30T09:41:10Z</time>
      </trkpt>
      <trkpt lat="62.643005474731" lon="17.901431365844">
        <ele>50.2</ele>
        <time>2018-04-30T09:41:11Z</time>
      </trkpt>
      <trkpt lat="62.642999104487" lon="17.901562291122">
        <ele>50</ele>
        <time>2018-04-30T09:41:12Z</time>
      </trkpt>
      <trkpt lat="62.642994159166" lon="17.901702604128">
        <ele>50</ele>
        <time>2018-04-30T09:41:13Z</time>
      </trkpt>
      <trkpt lat="62.642989716759" lon="17.90185750164">
        <ele>50</ele>
        <time>2018-04-30T09:41:14Z</time>
      </trkpt>
      <trkpt lat="62.642986028723" lon="17.902002089415">
        <ele>49.8</ele>
        <time>2018-04-30T09:41:15Z</time>
      </trkpt>
      <trkpt lat="62.642983681791" lon="17.902135193987">
        <ele>49.8</ele>
        <time>2018-04-30T09:41:16Z</time>
      </trkpt>
      <trkpt lat="62.642979490841" lon="17.902276261364">
        <ele>50</ele>
        <time>2018-04-30T09:41:17Z</time>
      </trkpt>
      <trkpt lat="62.642973623511" lon="17.902430739781">
        <ele>50</ele>
        <time>2018-04-30T09:41:18Z</time>
      </trkpt>
      <trkpt lat="62.642971444217" lon="17.902571974796">
        <ele>50</ele>
        <time>2018-04-30T09:41:19Z</time>
      </trkpt>
      <trkpt lat="62.642969348742" lon="17.90271329363">
        <ele>49.8</ele>
        <time>2018-04-30T09:41:20Z</time>
      </trkpt>
      <trkpt lat="62.642968594371" lon="17.90285327136">
        <ele>49.8</ele>
        <time>2018-04-30T09:41:21Z</time>
      </trkpt>
      <trkpt lat="62.642969097285" lon="17.90298151443">
        <ele>50</ele>
        <time>2018-04-30T09:41:22Z</time>
      </trkpt>
      <trkpt lat="62.642967756181" lon="17.903142363091">
        <ele>50</ele>
        <time>2018-04-30T09:41:23Z</time>
      </trkpt>
      <trkpt lat="62.642970270751" lon="17.903280161527">
        <ele>50</ele>
        <time>2018-04-30T09:41:24Z</time>
      </trkpt>
      <trkpt lat="62.642977227728" lon="17.903421396542">
        <ele>50</ele>
        <time>2018-04-30T09:41:25Z</time>
      </trkpt>
      <trkpt lat="62.642984687619" lon="17.903553579105">
        <ele>49.8</ele>
        <time>2018-04-30T09:41:26Z</time>
      </trkpt>
      <trkpt lat="62.642995584089" lon="17.903688527695">
        <ele>50</ele>
        <time>2018-04-30T09:41:27Z</time>
      </trkpt>
      <trkpt lat="62.643009414224" lon="17.903821632267">
        <ele>50</ele>
        <time>2018-04-30T09:41:28Z</time>
      </trkpt>
      <trkpt lat="62.643026764757" lon="17.903980888367">
        <ele>50</ele>
        <time>2018-04-30T09:41:29Z</time>
      </trkpt>
      <trkpt lat="62.643046546041" lon="17.904121704287">
        <ele>50</ele>
        <time>2018-04-30T09:41:30Z</time>
      </trkpt>
      <trkpt lat="62.643063226022" lon="17.90422371201">
        <ele>50.2</ele>
        <time>2018-04-30T09:41:31Z</time>
      </trkpt>
      <trkpt lat="62.643091556844" lon="17.904387578155">
        <ele>50.2</ele>
        <time>2018-04-30T09:41:32Z</time>
      </trkpt>
      <trkpt lat="62.643119887666" lon="17.904531579197">
        <ele>50.2</ele>
        <time>2018-04-30T09:41:33Z</time>
      </trkpt>
      <trkpt lat="62.643147715574" lon="17.904659403172">
        <ele>50.2</ele>
        <time>2018-04-30T09:41:34Z</time>
      </trkpt>
      <trkpt lat="62.643180404984" lon="17.904802649843">
        <ele>50.4</ele>
        <time>2018-04-30T09:41:35Z</time>
      </trkpt>
      <trkpt lat="62.643213681127" lon="17.904933826578">
        <ele>50.4</ele>
        <time>2018-04-30T09:41:36Z</time>
      </trkpt>
      <trkpt lat="62.643249052745" lon="17.905052514282">
        <ele>50.4</ele>
        <time>2018-04-30T09:41:37Z</time>
      </trkpt>
      <trkpt lat="62.643290291693" lon="17.905189977442">
        <ele>50.4</ele>
        <time>2018-04-30T09:41:38Z</time>
      </trkpt>
      <trkpt lat="62.643330860089" lon="17.905317047046">
        <ele>50.6</ele>
        <time>2018-04-30T09:41:39Z</time>
      </trkpt>
      <trkpt lat="62.643371177028" lon="17.905430454153">
        <ele>50.8</ele>
        <time>2018-04-30T09:41:40Z</time>
      </trkpt>
      <trkpt lat="62.643415852555" lon="17.905562217621">
        <ele>50.8</ele>
        <time>2018-04-30T09:41:41Z</time>
      </trkpt>
      <trkpt lat="62.643455331304" lon="17.905676379099">
        <ele>50.6</ele>
        <time>2018-04-30T09:41:42Z</time>
      </trkpt>
      <trkpt lat="62.643500174469" lon="17.905799006296">
        <ele>50.6</ele>
        <time>2018-04-30T09:41:43Z</time>
      </trkpt>
      <trkpt lat="62.643547699842" lon="17.905927836099">
        <ele>50.6</ele>
        <time>2018-04-30T09:41:44Z</time>
      </trkpt>
      <trkpt lat="62.643590698989" lon="17.906049038373">
        <ele>50.4</ele>
        <time>2018-04-30T09:41:45Z</time>
      </trkpt>
      <trkpt lat="62.643632189394" lon="17.906164624774">
        <ele>50.2</ele>
        <time>2018-04-30T09:41:46Z</time>
      </trkpt>
      <trkpt lat="62.643676864921" lon="17.906286749057">
        <ele>50.2</ele>
        <time>2018-04-30T09:41:47Z</time>
      </trkpt>
      <trkpt lat="62.643726821045" lon="17.906417925792">
        <ele>50.2</ele>
        <time>2018-04-30T09:41:48Z</time>
      </trkpt>
      <trkpt lat="62.643774262599" lon="17.906543151378">
        <ele>50</ele>
        <time>2018-04-30T09:41:49Z</time>
      </trkpt>
      <trkpt lat="62.643818770488" lon="17.906669718068">
        <ele>49.8</ele>
        <time>2018-04-30T09:41:50Z</time>
      </trkpt>
      <trkpt lat="62.643863110739" lon="17.906802655002">
        <ele>49.8</ele>
        <time>2018-04-30T09:41:51Z</time>
      </trkpt>
      <trkpt lat="62.643902254212" lon="17.906914972462">
        <ele>49.6</ele>
        <time>2018-04-30T09:41:52Z</time>
      </trkpt>
      <trkpt lat="62.643956149829" lon="17.907059392599">
        <ele>49.4</ele>
        <time>2018-04-30T09:41:53Z</time>
      </trkpt>
      <trkpt lat="62.644002082641" lon="17.907183779995">
        <ele>49.2</ele>
        <time>2018-04-30T09:41:54Z</time>
      </trkpt>
      <trkpt lat="62.644052122584" lon="17.907322584259">
        <ele>49.2</ele>
        <time>2018-04-30T09:41:55Z</time>
      </trkpt>
      <trkpt lat="62.644103671269" lon="17.907471446803">
        <ele>49</ele>
        <time>2018-04-30T09:41:56Z</time>
      </trkpt>
      <trkpt lat="62.644147592425" lon="17.907600947158">
        <ele>49</ele>
        <time>2018-04-30T09:41:57Z</time>
      </trkpt>
      <trkpt lat="62.64419411197" lon="17.90773237535">
        <ele>48.8</ele>
        <time>2018-04-30T09:41:58Z</time>
      </trkpt>
      <trkpt lat="62.64424943251" lon="17.907896828228">
        <ele>48.6</ele>
        <time>2018-04-30T09:41:59Z</time>
      </trkpt>
      <trkpt lat="62.64429301839" lon="17.908046612781">
        <ele>48</ele>
        <time>2018-04-30T09:42:00Z</time>
      </trkpt>
      <trkpt lat="62.644327551818" lon="17.908205701243">
        <ele>47.8</ele>
        <time>2018-04-30T09:42:01Z</time>
      </trkpt>
      <trkpt lat="62.644351440233" lon="17.908368645379">
        <ele>47.6</ele>
        <time>2018-04-30T09:42:02Z</time>
      </trkpt>
      <trkpt lat="62.644368120214" lon="17.90853619956">
        <ele>47.6</ele>
        <time>2018-04-30T09:42:03Z</time>
      </trkpt>
      <trkpt lat="62.644381195978" lon="17.908673411263">
        <ele>47.8</ele>
        <time>2018-04-30T09:42:04Z</time>
      </trkpt>
      <trkpt lat="62.644392846819" lon="17.908840546349">
        <ele>48</ele>
        <time>2018-04-30T09:42:05Z</time>
      </trkpt>
      <trkpt lat="62.644393265914" lon="17.908985217943">
        <ele>48.2</ele>
        <time>2018-04-30T09:42:06Z</time>
      </trkpt>
      <trkpt lat="62.644389494059" lon="17.909111700814">
        <ele>48.6</ele>
        <time>2018-04-30T09:42:07Z</time>
      </trkpt>
      <trkpt lat="62.644381950349" lon="17.909249918345">
        <ele>49</ele>
        <time>2018-04-30T09:42:08Z</time>
      </trkpt>
      <trkpt lat="62.644371892069" lon="17.909373299913">
        <ele>49.4</ele>
        <time>2018-04-30T09:42:09Z</time>
      </trkpt>
      <trkpt lat="62.644355379726" lon="17.909478911853">
        <ele>49.8</ele>
        <time>2018-04-30T09:42:10Z</time>
      </trkpt>
      <trkpt lat="62.644336185175" lon="17.909586619268">
        <ele>50.2</ele>
        <time>2018-04-30T09:42:11Z</time>
      </trkpt>
      <trkpt lat="62.644316236253" lon="17.909684184584">
        <ele>50.2</ele>
        <time>2018-04-30T09:42:12Z</time>
      </trkpt>
      <trkpt lat="62.64429469477" lon="17.909783174823">
        <ele>50.2</ele>
        <time>2018-04-30T09:42:13Z</time>
      </trkpt>
      <trkpt lat="62.644263849378" lon="17.909882751795">
        <ele>50.6</ele>
        <time>2018-04-30T09:42:14Z</time>
      </trkpt>
      <trkpt lat="62.64423685966" lon="17.909978473093">
        <ele>50.6</ele>
        <time>2018-04-30T09:42:15Z</time>
      </trkpt>
      <trkpt lat="62.644208109743" lon="17.910064639025">
        <ele>50.8</ele>
        <time>2018-04-30T09:42:16Z</time>
      </trkpt>
      <trkpt lat="62.644174582143" lon="17.910152648975">
        <ele>51</ele>
        <time>2018-04-30T09:42:17Z</time>
      </trkpt>
      <trkpt lat="62.644136444498" lon="17.910254991974">
        <ele>51</ele>
        <time>2018-04-30T09:42:18Z</time>
      </trkpt>
      <trkpt lat="62.644101659613" lon="17.910348198702">
        <ele>51.2</ele>
        <time>2018-04-30T09:42:19Z</time>
      </trkpt>
      <trkpt lat="62.644062935235" lon="17.91043972905">
        <ele>51.4</ele>
        <time>2018-04-30T09:42:20Z</time>
      </trkpt>
      <trkpt lat="62.644020355183" lon="17.910530588846">
        <ele>51.6</ele>
        <time>2018-04-30T09:42:21Z</time>
      </trkpt>
      <trkpt lat="62.643983307185" lon="17.910615078398">
        <ele>51.8</ele>
        <time>2018-04-30T09:42:22Z</time>
      </trkpt>
      <trkpt lat="62.643935446536" lon="17.91072471365">
        <ele>52</ele>
        <time>2018-04-30T09:42:23Z</time>
      </trkpt>
      <trkpt lat="62.643894207588" lon="17.910828481572">
        <ele>52</ele>
        <time>2018-04-30T09:42:24Z</time>
      </trkpt>
      <trkpt lat="62.643847855681" lon="17.910933674417">
        <ele>52</ele>
        <time>2018-04-30T09:42:25Z</time>
      </trkpt>
      <trkpt lat="62.643800246489" lon="17.911036436511">
        <ele>52</ele>
        <time>2018-04-30T09:42:26Z</time>
      </trkpt>
      <trkpt lat="62.643752218202" lon="17.911140288252">
        <ele>51.8</ele>
        <time>2018-04-30T09:42:27Z</time>
      </trkpt>
      <trkpt lat="62.643698825499" lon="17.911245397278">
        <ele>51.6</ele>
        <time>2018-04-30T09:42:28Z</time>
      </trkpt>
      <trkpt lat="62.643635625973" lon="17.911366599552">
        <ele>51.4</ele>
        <time>2018-04-30T09:42:29Z</time>
      </trkpt>
      <trkpt lat="62.643579048148" lon="17.911478078822">
        <ele>51</ele>
        <time>2018-04-30T09:42:30Z</time>
      </trkpt>
      <trkpt lat="62.64352272178" lon="17.91158888754">
        <ele>50.8</ele>
        <time>2018-04-30T09:42:31Z</time>
      </trkpt>
      <trkpt lat="62.643474861131" lon="17.91169198491">
        <ele>50.4</ele>
        <time>2018-04-30T09:42:32Z</time>
      </trkpt>
      <trkpt lat="62.643415014365" lon="17.911807236035">
        <ele>50</ele>
        <time>2018-04-30T09:42:33Z</time>
      </trkpt>
      <trkpt lat="62.643363214223" lon="17.911900945677">
        <ele>49.8</ele>
        <time>2018-04-30T09:42:34Z</time>
      </trkpt>
      <trkpt lat="62.643304708561" lon="17.912006054703">
        <ele>49.6</ele>
        <time>2018-04-30T09:42:35Z</time>
      </trkpt>
      <trkpt lat="62.643248130736" lon="17.912102111277">
        <ele>49.6</ele>
        <time>2018-04-30T09:42:36Z</time>
      </trkpt>
      <trkpt lat="62.643193061653" lon="17.912195066548">
        <ele>49.4</ele>
        <time>2018-04-30T09:42:37Z</time>
      </trkpt>
      <trkpt lat="62.643128604842" lon="17.91230386361">
        <ele>49.4</ele>
        <time>2018-04-30T09:42:38Z</time>
      </trkpt>
      <trkpt lat="62.643067500791" lon="17.912404530229">
        <ele>49.4</ele>
        <time>2018-04-30T09:42:39Z</time>
      </trkpt>
      <trkpt lat="62.643007989301" lon="17.912500251527">
        <ele>49.2</ele>
        <time>2018-04-30T09:42:40Z</time>
      </trkpt>
      <trkpt lat="62.642940598825" lon="17.912606366381">
        <ele>49</ele>
        <time>2018-04-30T09:42:41Z</time>
      </trkpt>
      <trkpt lat="62.642877483118" lon="17.912698902557">
        <ele>48.8</ele>
        <time>2018-04-30T09:42:42Z</time>
      </trkpt>
      <trkpt lat="62.642808416262" lon="17.912802921936">
        <ele>48.4</ele>
        <time>2018-04-30T09:42:43Z</time>
      </trkpt>
      <trkpt lat="62.642736667198" lon="17.912918424518">
        <ele>48.2</ele>
        <time>2018-04-30T09:42:44Z</time>
      </trkpt>
      <trkpt lat="62.642666594514" lon="17.913028395046">
        <ele>47.8</ele>
        <time>2018-04-30T09:42:45Z</time>
      </trkpt>
      <trkpt lat="62.642601048056" lon="17.913126882371">
        <ele>47.4</ele>
        <time>2018-04-30T09:42:46Z</time>
      </trkpt>
      <trkpt lat="62.642531394467" lon="17.91323928365">
        <ele>47</ele>
        <time>2018-04-30T09:42:47Z</time>
      </trkpt>
      <trkpt lat="62.642459813041" lon="17.913357636078">
        <ele>46.4</ele>
        <time>2018-04-30T09:42:48Z</time>
      </trkpt>
      <trkpt lat="62.642392087289" lon="17.913467858063">
        <ele>46</ele>
        <time>2018-04-30T09:42:49Z</time>
      </trkpt>
      <trkpt lat="62.642327379021" lon="17.913573553822">
        <ele>45.6</ele>
        <time>2018-04-30T09:42:50Z</time>
      </trkpt>
      <trkpt lat="62.642258228346" lon="17.913677740839">
        <ele>45</ele>
        <time>2018-04-30T09:42:51Z</time>
      </trkpt>
      <trkpt lat="62.642200309417" lon="17.913763739133">
        <ele>44.6</ele>
        <time>2018-04-30T09:42:52Z</time>
      </trkpt>
      <trkpt lat="62.642124034127" lon="17.913875972774">
        <ele>44.2</ele>
        <time>2018-04-30T09:42:53Z</time>
      </trkpt>
      <trkpt lat="62.642060499325" lon="17.913978148135">
        <ele>43.6</ele>
        <time>2018-04-30T09:42:54Z</time>
      </trkpt>
      <trkpt lat="62.64199302503" lon="17.914086358464">
        <ele>43.2</ele>
        <time>2018-04-30T09:42:55Z</time>
      </trkpt>
      <trkpt lat="62.641926137468" lon="17.914191802766">
        <ele>43</ele>
        <time>2018-04-30T09:42:56Z</time>
      </trkpt>
      <trkpt lat="62.641862770304" lon="17.91429205029">
        <ele>42.8</ele>
        <time>2018-04-30T09:42:57Z</time>
      </trkpt>
      <trkpt lat="62.641840055355" lon="17.914328427736">
        <ele>42.6</ele>
        <time>2018-04-30T09:42:58Z</time>
      </trkpt>
      <trkpt lat="62.641741232754" lon="17.914490282225">
        <ele>42.6</ele>
        <time>2018-04-30T09:42:59Z</time>
      </trkpt>
      <trkpt lat="62.641664119274" lon="17.914607880282">
        <ele>42.6</ele>
        <time>2018-04-30T09:43:00Z</time>
      </trkpt>
      <trkpt lat="62.641598069902" lon="17.914706199969">
        <ele>42.4</ele>
        <time>2018-04-30T09:43:01Z</time>
      </trkpt>
      <trkpt lat="62.641539396602" lon="17.914816086678">
        <ele>42.2</ele>
        <time>2018-04-30T09:43:02Z</time>
      </trkpt>
      <trkpt lat="62.641476364714" lon="17.914941228445">
        <ele>42</ele>
        <time>2018-04-30T09:43:03Z</time>
      </trkpt>
      <trkpt lat="62.641438562345" lon="17.915035943915">
        <ele>41.8</ele>
        <time>2018-04-30T09:43:04Z</time>
      </trkpt>
      <trkpt lat="62.641389276773" lon="17.915162342967">
        <ele>41.6</ele>
        <time>2018-04-30T09:43:05Z</time>
      </trkpt>
      <trkpt lat="62.64132331122" lon="17.915291256589">
        <ele>41.2</ele>
        <time>2018-04-30T09:43:06Z</time>
      </trkpt>
      <trkpt lat="62.641270086155" lon="17.915419583478">
        <ele>40.8</ele>
        <time>2018-04-30T09:43:07Z</time>
      </trkpt>
      <trkpt lat="62.641212753959" lon="17.915558220104">
        <ele>40.8</ele>
        <time>2018-04-30T09:43:08Z</time>
      </trkpt>
      <trkpt lat="62.64115651141" lon="17.915696689092">
        <ele>40.4</ele>
        <time>2018-04-30T09:43:09Z</time>
      </trkpt>
      <trkpt lat="62.641102112879" lon="17.915836247727">
        <ele>40</ele>
        <time>2018-04-30T09:43:10Z</time>
      </trkpt>
      <trkpt lat="62.641047211434" lon="17.915977985656">
        <ele>39.8</ele>
        <time>2018-04-30T09:43:11Z</time>
      </trkpt>
      <trkpt lat="62.640998261138" lon="17.916109162391">
        <ele>39.2</ele>
        <time>2018-04-30T09:43:12Z</time>
      </trkpt>
      <trkpt lat="62.640944616978" lon="17.916246122637">
        <ele>39</ele>
        <time>2018-04-30T09:43:13Z</time>
      </trkpt>
      <trkpt lat="62.640890972818" lon="17.916390626593">
        <ele>38.6</ele>
        <time>2018-04-30T09:43:14Z</time>
      </trkpt>
      <trkpt lat="62.640844117997" lon="17.916516187455">
        <ele>38.2</ele>
        <time>2018-04-30T09:43:15Z</time>
      </trkpt>
      <trkpt lat="62.640792988407" lon="17.916639149928">
        <ele>38</ele>
        <time>2018-04-30T09:43:16Z</time>
      </trkpt>
      <trkpt lat="62.64073993098" lon="17.916772003043">
        <ele>37.8</ele>
        <time>2018-04-30T09:43:17Z</time>
      </trkpt>
      <trkpt lat="62.640688130838" lon="17.916892786222">
        <ele>37.6</ele>
        <time>2018-04-30T09:43:18Z</time>
      </trkpt>
      <trkpt lat="62.640641946569" lon="17.916993788117">
        <ele>37.4</ele>
        <time>2018-04-30T09:43:19Z</time>
      </trkpt>
      <trkpt lat="62.640595343205" lon="17.917104345378">
        <ele>37.2</ele>
        <time>2018-04-30T09:43:20Z</time>
      </trkpt>
      <trkpt lat="62.640552427877" lon="17.917209119128">
        <ele>37.2</ele>
        <time>2018-04-30T09:43:21Z</time>
      </trkpt>
      <trkpt lat="62.640518816458" lon="17.917284723866">
        <ele>37</ele>
        <time>2018-04-30T09:43:22Z</time>
      </trkpt>
      <trkpt lat="62.640463076823" lon="17.9173589875">
        <ele>36.8</ele>
        <time>2018-04-30T09:43:23Z</time>
      </trkpt>
      <trkpt lat="62.640413120699" lon="17.917393185652">
        <ele>36.8</ele>
        <time>2018-04-30T09:43:24Z</time>
      </trkpt>
      <trkpt lat="62.640363835127" lon="17.917388910883">
        <ele>36.6</ele>
        <time>2018-04-30T09:43:25Z</time>
      </trkpt>
      <trkpt lat="62.640320333066" lon="17.917351779066">
        <ele>36.4</ele>
        <time>2018-04-30T09:43:26Z</time>
      </trkpt>
      <trkpt lat="62.640285380543" lon="17.917301655304">
        <ele>36.6</ele>
        <time>2018-04-30T09:43:27Z</time>
      </trkpt>
      <trkpt lat="62.640249841287" lon="17.917251363904">
        <ele>37</ele>
        <time>2018-04-30T09:43:28Z</time>
      </trkpt>
      <trkpt lat="62.640208937615" lon="17.917200318133">
        <ele>37.6</ele>
        <time>2018-04-30T09:43:29Z</time>
      </trkpt>
      <trkpt lat="62.640174655644" lon="17.917147344525">
        <ele>38</ele>
        <time>2018-04-30T09:43:30Z</time>
      </trkpt>
      <trkpt lat="62.640142804424" lon="17.917086994845">
        <ele>38.6</ele>
        <time>2018-04-30T09:43:31Z</time>
      </trkpt>
      <trkpt lat="62.640112294308" lon="17.917031925762">
        <ele>38.8</ele>
        <time>2018-04-30T09:43:32Z</time>
      </trkpt>
      <trkpt lat="62.640077341785" lon="17.916970486435">
        <ele>39</ele>
        <time>2018-04-30T09:43:33Z</time>
      </trkpt>
      <trkpt lat="62.640047166945" lon="17.916917177551">
        <ele>39.2</ele>
        <time>2018-04-30T09:43:34Z</time>
      </trkpt>
      <trkpt lat="62.640012801155" lon="17.916853642749">
        <ele>39.6</ele>
        <time>2018-04-30T09:43:35Z</time>
      </trkpt>
      <trkpt lat="62.639980447021" lon="17.916785162626">
        <ele>39.8</ele>
        <time>2018-04-30T09:43:36Z</time>
      </trkpt>
      <trkpt lat="62.639948344344" lon="17.916723890937">
        <ele>40</ele>
        <time>2018-04-30T09:43:37Z</time>
      </trkpt>
      <trkpt lat="62.63991096107" lon="17.91665574609">
        <ele>40.2</ele>
        <time>2018-04-30T09:43:38Z</time>
      </trkpt>
      <trkpt lat="62.639874248348" lon="17.916588858528">
        <ele>40.2</ele>
        <time>2018-04-30T09:43:39Z</time>
      </trkpt>
      <trkpt lat="62.639841558938" lon="17.916524066441">
        <ele>40.2</ele>
        <time>2018-04-30T09:43:40Z</time>
      </trkpt>
      <trkpt lat="62.639806857872" lon="17.916450557178">
        <ele>40.4</ele>
        <time>2018-04-30T09:43:41Z</time>
      </trkpt>
      <trkpt lat="62.639774000824" lon="17.916391129507">
        <ele>40.4</ele>
        <time>2018-04-30T09:43:42Z</time>
      </trkpt>
      <trkpt lat="62.639743239251" lon="17.916324828678">
        <ele>40.6</ele>
        <time>2018-04-30T09:43:43Z</time>
      </trkpt>
      <trkpt lat="62.639713315868" lon="17.916252995795">
        <ele>40.6</ele>
        <time>2018-04-30T09:43:44Z</time>
      </trkpt>
      <trkpt lat="62.639691774385" lon="17.916185186224">
        <ele>40.8</ele>
        <time>2018-04-30T09:43:45Z</time>
      </trkpt>
      <trkpt lat="62.639676184051" lon="17.916126680562">
        <ele>40.8</ele>
        <time>2018-04-30T09:43:46Z</time>
      </trkpt>
      <trkpt lat="62.639660426079" lon="17.91606230757">
        <ele>41</ele>
        <time>2018-04-30T09:43:47Z</time>
      </trkpt>
      <trkpt lat="62.639647685591" lon="17.915991815791">
        <ele>41.2</ele>
        <time>2018-04-30T09:43:48Z</time>
      </trkpt>
      <trkpt lat="62.639648439962" lon="17.915915205225">
        <ele>41.2</ele>
        <time>2018-04-30T09:43:49Z</time>
      </trkpt>
      <trkpt lat="62.639667215418" lon="17.915858375943">
        <ele>41.4</ele>
        <time>2018-04-30T09:43:50Z</time>
      </trkpt>
      <trkpt lat="62.639690181824" lon="17.915814119511">
        <ele>41.4</ele>
        <time>2018-04-30T09:43:51Z</time>
      </trkpt>
      <trkpt lat="62.639713232049" lon="17.915782855024">
        <ele>41.4</ele>
        <time>2018-04-30T09:43:52Z</time>
      </trkpt>
      <trkpt lat="62.639745418545" lon="17.915745555569">
        <ele>41.2</ele>
        <time>2018-04-30T09:43:53Z</time>
      </trkpt>
      <trkpt lat="62.639774419919" lon="17.915709010485">
        <ele>41.2</ele>
        <time>2018-04-30T09:43:54Z</time>
      </trkpt>
      <trkpt lat="62.639803337474" lon="17.915676572532">
        <ele>41</ele>
        <time>2018-04-30T09:43:55Z</time>
      </trkpt>
      <trkpt lat="62.639833596133" lon="17.915642039104">
        <ele>41</ele>
        <time>2018-04-30T09:43:56Z</time>
      </trkpt>
      <trkpt lat="62.639864190068" lon="17.915609936427">
        <ele>41.2</ele>
        <time>2018-04-30T09:43:57Z</time>
      </trkpt>
      <trkpt lat="62.639896292745" lon="17.915567272556">
        <ele>41.2</ele>
        <time>2018-04-30T09:43:58Z</time>
      </trkpt>
      <trkpt lat="62.639933089286" lon="17.915522094115">
        <ele>41</ele>
        <time>2018-04-30T09:43:59Z</time>
      </trkpt>
      <trkpt lat="62.639966113972" lon="17.915476831855">
        <ele>41</ele>
        <time>2018-04-30T09:44:00Z</time>
      </trkpt>
      <trkpt lat="62.640000228305" lon="17.915432072509">
        <ele>41</ele>
        <time>2018-04-30T09:44:01Z</time>
      </trkpt>
      <trkpt lat="62.640032163344" lon="17.915387732258">
        <ele>41</ele>
        <time>2018-04-30T09:44:02Z</time>
      </trkpt>
      <trkpt lat="62.640070552446" lon="17.915339703971">
        <ele>40.8</ele>
        <time>2018-04-30T09:44:03Z</time>
      </trkpt>
      <trkpt lat="62.640102571304" lon="17.915295615177">
        <ele>40.6</ele>
        <time>2018-04-30T09:44:04Z</time>
      </trkpt>
      <trkpt lat="62.640138278198" lon="17.915242976845">
        <ele>40.4</ele>
        <time>2018-04-30T09:44:05Z</time>
      </trkpt>
      <trkpt lat="62.640175745291" lon="17.915185812287">
        <ele>40.4</ele>
        <time>2018-04-30T09:44:06Z</time>
      </trkpt>
      <trkpt lat="62.640208099425" lon="17.915140885303">
        <ele>40.4</ele>
        <time>2018-04-30T09:44:07Z</time>
      </trkpt>
      <trkpt lat="62.640245147423" lon="17.915088079333">
        <ele>40.4</ele>
        <time>2018-04-30T09:44:08Z</time>
      </trkpt>
      <trkpt lat="62.640275489901" lon="17.915033094069">
        <ele>40.4</ele>
        <time>2018-04-30T09:44:09Z</time>
      </trkpt>
      <trkpt lat="62.64029569028" lon="17.914968972534">
        <ele>40.4</ele>
        <time>2018-04-30T09:44:10Z</time>
      </trkpt>
      <trkpt lat="62.640312370261" lon="17.914891942873">
        <ele>40.6</ele>
        <time>2018-04-30T09:44:11Z</time>
      </trkpt>
      <trkpt lat="62.640327290043" lon="17.914829078623">
        <ele>40.8</ele>
        <time>2018-04-30T09:44:12Z</time>
      </trkpt>
      <trkpt lat="62.640337180685" lon="17.914760933776">
        <ele>40.8</ele>
        <time>2018-04-30T09:44:13Z</time>
      </trkpt>
      <trkpt lat="62.640345394947" lon="17.914696141689">
        <ele>41</ele>
        <time>2018-04-30T09:44:14Z</time>
      </trkpt>
      <trkpt lat="62.640343215653" lon="17.914648448678">
        <ele>41</ele>
        <time>2018-04-30T09:44:15Z</time>
      </trkpt>
      <trkpt lat="62.64033927616" lon="17.914611484499">
        <ele>41.2</ele>
        <time>2018-04-30T09:44:16Z</time>
      </trkpt>
      <trkpt lat="62.640329553156" lon="17.914574017406">
        <ele>41.2</ele>
        <time>2018-04-30T09:44:17Z</time>
      </trkpt>
      <trkpt lat="62.640314046641" lon="17.914554655217">
        <ele>41.2</ele>
        <time>2018-04-30T09:44:18Z</time>
      </trkpt>
      <trkpt lat="62.640296612289" lon="17.914577286347">
        <ele>41.4</ele>
        <time>2018-04-30T09:44:19Z</time>
      </trkpt>
      <trkpt lat="62.640294768271" lon="17.91463989914">
        <ele>41.2</ele>
        <time>2018-04-30T09:44:20Z</time>
      </trkpt>
      <trkpt lat="62.640289990588" lon="17.914730926574">
        <ele>41.2</ele>
        <time>2018-04-30T09:44:21Z</time>
      </trkpt>
      <trkpt lat="62.640279094118" lon="17.914813655927">
        <ele>41</ele>
        <time>2018-04-30T09:44:22Z</time>
      </trkpt>
      <trkpt lat="62.640249757468" lon="17.91491566365">
        <ele>40.8</ele>
        <time>2018-04-30T09:44:23Z</time>
      </trkpt>
      <trkpt lat="62.640212122737" lon="17.915003505962">
        <ele>40.8</ele>
        <time>2018-04-30T09:44:24Z</time>
      </trkpt>
      <trkpt lat="62.640166776658" lon="17.915079194519">
        <ele>40.6</ele>
        <time>2018-04-30T09:44:25Z</time>
      </trkpt>
      <trkpt lat="62.640109444462" lon="17.915136191439">
        <ele>40.6</ele>
        <time>2018-04-30T09:44:26Z</time>
      </trkpt>
      <trkpt lat="62.640055548845" lon="17.915193523635">
        <ele>40.4</ele>
        <time>2018-04-30T09:44:27Z</time>
      </trkpt>
      <trkpt lat="62.639999473934" lon="17.915260914111">
        <ele>40.4</ele>
        <time>2018-04-30T09:44:28Z</time>
      </trkpt>
      <trkpt lat="62.63993610677" lon="17.915330483881">
        <ele>40.4</ele>
        <time>2018-04-30T09:44:29Z</time>
      </trkpt>
      <trkpt lat="62.639878858393" lon="17.915402400583">
        <ele>40.2</ele>
        <time>2018-04-30T09:44:30Z</time>
      </trkpt>
      <trkpt lat="62.639821442378" lon="17.915471886534">
        <ele>40.2</ele>
        <time>2018-04-30T09:44:31Z</time>
      </trkpt>
      <trkpt lat="62.639768720227" lon="17.915532236214">
        <ele>40</ele>
        <time>2018-04-30T09:44:32Z</time>
      </trkpt>
      <trkpt lat="62.639709544013" lon="17.915597782672">
        <ele>40.2</ele>
        <time>2018-04-30T09:44:33Z</time>
      </trkpt>
      <trkpt lat="62.639653217645" lon="17.915651091556">
        <ele>40.2</ele>
        <time>2018-04-30T09:44:34Z</time>
      </trkpt>
      <trkpt lat="62.639595382535" lon="17.915706328277">
        <ele>40.2</ele>
        <time>2018-04-30T09:44:35Z</time>
      </trkpt>
      <trkpt lat="62.639530003715" lon="17.915767013233">
        <ele>40</ele>
        <time>2018-04-30T09:44:36Z</time>
      </trkpt>
      <trkpt lat="62.639474096442" lon="17.915824764524">
        <ele>40</ele>
        <time>2018-04-30T09:44:37Z</time>
      </trkpt>
      <trkpt lat="62.639408466165" lon="17.915884946566">
        <ele>39.8</ele>
        <time>2018-04-30T09:44:38Z</time>
      </trkpt>
      <trkpt lat="62.639349625227" lon="17.91593825545">
        <ele>39.8</ele>
        <time>2018-04-30T09:44:39Z</time>
      </trkpt>
      <trkpt lat="62.639292795945" lon="17.915987038108">
        <ele>39.6</ele>
        <time>2018-04-30T09:44:40Z</time>
      </trkpt>
      <trkpt lat="62.639225824564" lon="17.916040933725">
        <ele>39.6</ele>
        <time>2018-04-30T09:44:41Z</time>
      </trkpt>
      <trkpt lat="62.639170587843" lon="17.916086028347">
        <ele>39.6</ele>
        <time>2018-04-30T09:44:42Z</time>
      </trkpt>
      <trkpt lat="62.639106717765" lon="17.916134475729">
        <ele>39.6</ele>
        <time>2018-04-30T09:44:43Z</time>
      </trkpt>
      <trkpt lat="62.639043099144" lon="17.916182504016">
        <ele>39.6</ele>
        <time>2018-04-30T09:44:44Z</time>
      </trkpt>
      <trkpt lat="62.638978390876" lon="17.916230364665">
        <ele>39.6</ele>
        <time>2018-04-30T09:44:45Z</time>
      </trkpt>
      <trkpt lat="62.638917119187" lon="17.916276213658">
        <ele>39.4</ele>
        <time>2018-04-30T09:44:46Z</time>
      </trkpt>
      <trkpt lat="62.638850483082" lon="17.9163196319">
        <ele>39.4</ele>
        <time>2018-04-30T09:44:47Z</time>
      </trkpt>
      <trkpt lat="62.638777476733" lon="17.916361457581">
        <ele>39.6</ele>
        <time>2018-04-30T09:44:48Z</time>
      </trkpt>
      <trkpt lat="62.638708326058" lon="17.91639925995">
        <ele>39.4</ele>
        <time>2018-04-30T09:44:49Z</time>
      </trkpt>
      <trkpt lat="62.638643533971" lon="17.916433374283">
        <ele>39.4</ele>
        <time>2018-04-30T09:44:50Z</time>
      </trkpt>
      <trkpt lat="62.638570443803" lon="17.916474026498">
        <ele>39.4</ele>
        <time>2018-04-30T09:44:51Z</time>
      </trkpt>
      <trkpt lat="62.638511770503" lon="17.91650487189">
        <ele>39.4</ele>
        <time>2018-04-30T09:44:52Z</time>
      </trkpt>
      <trkpt lat="62.63843155572" lon="17.916543763906">
        <ele>39.2</ele>
        <time>2018-04-30T09:44:53Z</time>
      </trkpt>
      <trkpt lat="62.638360058113" lon="17.916577710601">
        <ele>39.2</ele>
        <time>2018-04-30T09:44:54Z</time>
      </trkpt>
      <trkpt lat="62.638289482515" lon="17.916608975088">
        <ele>39.2</ele>
        <time>2018-04-30T09:44:55Z</time>
      </trkpt>
      <trkpt lat="62.638221421487" lon="17.916639652842">
        <ele>39.2</ele>
        <time>2018-04-30T09:44:56Z</time>
      </trkpt>
      <trkpt lat="62.638165514214" lon="17.916657003375">
        <ele>39.2</ele>
        <time>2018-04-30T09:44:57Z</time>
      </trkpt>
      <trkpt lat="62.638097620824" lon="17.916688351681">
        <ele>39.2</ele>
        <time>2018-04-30T09:44:58Z</time>
      </trkpt>
      <trkpt lat="62.638023524828" lon="17.916731602285">
        <ele>39.2</ele>
        <time>2018-04-30T09:44:59Z</time>
      </trkpt>
      <trkpt lat="62.637955379981" lon="17.916764040238">
        <ele>39.2</ele>
        <time>2018-04-30T09:45:00Z</time>
      </trkpt>
      <trkpt lat="62.637881954537" lon="17.916793293069">
        <ele>39</ele>
        <time>2018-04-30T09:45:01Z</time>
      </trkpt>
      <trkpt lat="62.637816910993" lon="17.916820282787">
        <ele>39</ele>
        <time>2018-04-30T09:45:02Z</time>
      </trkpt>
      <trkpt lat="62.637742395902" lon="17.916858923346">
        <ele>38.8</ele>
        <time>2018-04-30T09:45:03Z</time>
      </trkpt>
      <trkpt lat="62.637676849444" lon="17.916888846729">
        <ele>38.6</ele>
        <time>2018-04-30T09:45:04Z</time>
      </trkpt>
      <trkpt lat="62.637602753448" lon="17.916912735144">
        <ele>38.2</ele>
        <time>2018-04-30T09:45:05Z</time>
      </trkpt>
      <trkpt lat="62.637523041579" lon="17.916933354618">
        <ele>38</ele>
        <time>2018-04-30T09:45:06Z</time>
      </trkpt>
      <trkpt lat="62.637452968895" lon="17.91695330354">
        <ele>37.8</ele>
        <time>2018-04-30T09:45:07Z</time>
      </trkpt>
      <trkpt lat="62.637378202347" lon="17.9169650382">
        <ele>37.8</ele>
        <time>2018-04-30T09:45:08Z</time>
      </trkpt>
      <trkpt lat="62.637298239021" lon="17.916990351538">
        <ele>37.4</ele>
        <time>2018-04-30T09:45:09Z</time>
      </trkpt>
      <trkpt lat="62.637223472473" lon="17.917023627681">
        <ele>37.2</ele>
        <time>2018-04-30T09:45:10Z</time>
      </trkpt>
      <trkpt lat="62.637138899102" lon="17.917055227444">
        <ele>37</ele>
        <time>2018-04-30T09:45:11Z</time>
      </trkpt>
      <trkpt lat="62.637063545821" lon="17.917086072836">
        <ele>36.4</ele>
        <time>2018-04-30T09:45:12Z</time>
      </trkpt>
      <trkpt lat="62.636985258875" lon="17.917117756418">
        <ele>35.6</ele>
        <time>2018-04-30T09:45:13Z</time>
      </trkpt>
      <trkpt lat="62.636904122083" lon="17.917143069756">
        <ele>34.8</ele>
        <time>2018-04-30T09:45:14Z</time>
      </trkpt>
      <trkpt lat="62.636824326395" lon="17.917174837157">
        <ele>34</ele>
        <time>2018-04-30T09:45:15Z</time>
      </trkpt>
      <trkpt lat="62.636749056933" lon="17.917218842132">
        <ele>33.2</ele>
        <time>2018-04-30T09:45:16Z</time>
      </trkpt>
      <trkpt lat="62.636675296213" lon="17.917260751632">
        <ele>32.6</ele>
        <time>2018-04-30T09:45:17Z</time>
      </trkpt>
      <trkpt lat="62.636590806661" lon="17.917316742724">
        <ele>32.2</ele>
        <time>2018-04-30T09:45:18Z</time>
      </trkpt>
      <trkpt lat="62.636519979606" lon="17.917384552295">
        <ele>31.8</ele>
        <time>2018-04-30T09:45:19Z</time>
      </trkpt>
      <trkpt lat="62.636455606614" lon="17.917455463169">
        <ele>31.2</ele>
        <time>2018-04-30T09:45:20Z</time>
      </trkpt>
      <trkpt lat="62.636399112608" lon="17.917526290224">
        <ele>30.8</ele>
        <time>2018-04-30T09:45:21Z</time>
      </trkpt>
      <trkpt lat="62.636358292755" lon="17.917589322112">
        <ele>30.6</ele>
        <time>2018-04-30T09:45:22Z</time>
      </trkpt>
      <trkpt lat="62.63630842045" lon="17.917675320406">
        <ele>30.4</ele>
        <time>2018-04-30T09:45:23Z</time>
      </trkpt>
      <trkpt lat="62.636271372452" lon="17.91775042223">
        <ele>30.4</ele>
        <time>2018-04-30T09:45:24Z</time>
      </trkpt>
      <trkpt lat="62.636234072997" lon="17.917808676435">
        <ele>30.2</ele>
        <time>2018-04-30T09:45:25Z</time>
      </trkpt>
      <trkpt lat="62.636201551225" lon="17.917845724433">
        <ele>30.2</ele>
        <time>2018-04-30T09:45:26Z</time>
      </trkpt>
      <trkpt lat="62.636168945634" lon="17.917884784087">
        <ele>30.4</ele>
        <time>2018-04-30T09:45:27Z</time>
      </trkpt>
      <trkpt lat="62.636128125781" lon="17.917903391905">
        <ele>30.4</ele>
        <time>2018-04-30T09:45:28Z</time>
      </trkpt>
      <trkpt lat="62.636085713367" lon="17.917889477951">
        <ele>30.4</ele>
        <time>2018-04-30T09:45:29Z</time>
      </trkpt>
      <trkpt lat="62.636050006473" lon="17.917857291455">
        <ele>30.4</ele>
        <time>2018-04-30T09:45:30Z</time>
      </trkpt>
      <trkpt lat="62.636020250728" lon="17.917817728887">
        <ele>30.6</ele>
        <time>2018-04-30T09:45:31Z</time>
      </trkpt>
      <trkpt lat="62.635996278494" lon="17.917775148835">
        <ele>30.6</ele>
        <time>2018-04-30T09:45:32Z</time>
      </trkpt>
      <trkpt lat="62.635965181645" lon="17.917726869091">
        <ele>30.8</ele>
        <time>2018-04-30T09:45:33Z</time>
      </trkpt>
      <trkpt lat="62.635941125592" lon="17.917685211048">
        <ele>31.2</ele>
        <time>2018-04-30T09:45:34Z</time>
      </trkpt>
      <trkpt lat="62.635913297684" lon="17.91763978115">
        <ele>31.4</ele>
        <time>2018-04-30T09:45:35Z</time>
      </trkpt>
      <trkpt lat="62.635882368473" lon="17.917592507234">
        <ele>31.8</ele>
        <time>2018-04-30T09:45:36Z</time>
      </trkpt>
      <trkpt lat="62.635856133126" lon="17.917547244974">
        <ele>32.2</ele>
        <time>2018-04-30T09:45:37Z</time>
      </trkpt>
      <trkpt lat="62.635823862811" lon="17.91749477428">
        <ele>32.6</ele>
        <time>2018-04-30T09:45:38Z</time>
      </trkpt>
      <trkpt lat="62.635792430686" lon="17.917448925287">
        <ele>33</ele>
        <time>2018-04-30T09:45:39Z</time>
      </trkpt>
      <trkpt lat="62.635763932226" lon="17.917408692167">
        <ele>33.2</ele>
        <time>2018-04-30T09:45:40Z</time>
      </trkpt>
      <trkpt lat="62.635729398798" lon="17.917362172622">
        <ele>33.4</ele>
        <time>2018-04-30T09:45:41Z</time>
      </trkpt>
      <trkpt lat="62.635700900338" lon="17.917320849855">
        <ele>33.6</ele>
        <time>2018-04-30T09:45:42Z</time>
      </trkpt>
      <trkpt lat="62.635669635851" lon="17.917275503776">
        <ele>33.8</ele>
        <time>2018-04-30T09:45:43Z</time>
      </trkpt>
      <trkpt lat="62.635638371364" lon="17.917221775797">
        <ele>34</ele>
        <time>2018-04-30T09:45:44Z</time>
      </trkpt>
      <trkpt lat="62.635608950895" lon="17.91717793846">
        <ele>34.2</ele>
        <time>2018-04-30T09:45:45Z</time>
      </trkpt>
      <trkpt lat="62.635579698064" lon="17.917133765847">
        <ele>34.4</ele>
        <time>2018-04-30T09:45:46Z</time>
      </trkpt>
      <trkpt lat="62.635546673378" lon="17.91708992851">
        <ele>34.4</ele>
        <time>2018-04-30T09:45:47Z</time>
      </trkpt>
      <trkpt lat="62.635514403063" lon="17.917039218015">
        <ele>34.6</ele>
        <time>2018-04-30T09:45:48Z</time>
      </trkpt>
      <trkpt lat="62.635488922087" lon="17.916985406217">
        <ele>34.8</ele>
        <time>2018-04-30T09:45:49Z</time>
      </trkpt>
      <trkpt lat="62.635472828839" lon="17.916920697949">
        <ele>35</ele>
        <time>2018-04-30T09:45:50Z</time>
      </trkpt>
      <trkpt lat="62.635464111663" lon="17.916844757935">
        <ele>35.4</ele>
        <time>2018-04-30T09:45:51Z</time>
      </trkpt>
      <trkpt lat="62.635470481907" lon="17.916783402427">
        <ele>35.8</ele>
        <time>2018-04-30T09:45:52Z</time>
      </trkpt>
      <trkpt lat="62.635489927915" lon="17.916718777978">
        <ele>36.4</ele>
        <time>2018-04-30T09:45:53Z</time>
      </trkpt>
      <trkpt lat="62.635514738339" lon="17.916667229293">
        <ele>37</ele>
        <time>2018-04-30T09:45:54Z</time>
      </trkpt>
      <trkpt lat="62.635537118012" lon="17.916612830762">
        <ele>37.4</ele>
        <time>2018-04-30T09:45:55Z</time>
      </trkpt>
      <trkpt lat="62.635556228744" lon="17.916553235453">
        <ele>37.8</ele>
        <time>2018-04-30T09:45:56Z</time>
      </trkpt>
      <trkpt lat="62.635573914553" lon="17.916494394515">
        <ele>37.8</ele>
        <time>2018-04-30T09:45:57Z</time>
      </trkpt>
      <trkpt lat="62.635585984489" lon="17.916448796979">
        <ele>37.8</ele>
        <time>2018-04-30T09:45:58Z</time>
      </trkpt>
      <trkpt lat="62.635605430497" lon="17.91636321778">
        <ele>37.8</ele>
        <time>2018-04-30T09:45:59Z</time>
      </trkpt>
      <trkpt lat="62.63561607551" lon="17.916294318562">
        <ele>37.8</ele>
        <time>2018-04-30T09:46:00Z</time>
      </trkpt>
      <trkpt lat="62.635635521518" lon="17.916232795416">
        <ele>37.8</ele>
        <time>2018-04-30T09:46:01Z</time>
      </trkpt>
      <trkpt lat="62.635654045517" lon="17.916177642514">
        <ele>38</ele>
        <time>2018-04-30T09:46:02Z</time>
      </trkpt>
      <trkpt lat="62.635672820973" lon="17.916107988925">
        <ele>38.2</ele>
        <time>2018-04-30T09:46:03Z</time>
      </trkpt>
      <trkpt lat="62.63568815985" lon="17.916047890702">
        <ele>38.6</ele>
        <time>2018-04-30T09:46:04Z</time>
      </trkpt>
      <trkpt lat="62.635706097116" lon="17.915987876298">
        <ele>38.8</ele>
        <time>2018-04-30T09:46:05Z</time>
      </trkpt>
      <trkpt lat="62.635723782925" lon="17.915923670944">
        <ele>39</ele>
        <time>2018-04-30T09:46:06Z</time>
      </trkpt>
      <trkpt lat="62.635738367431" lon="17.915866003472">
        <ele>39.4</ele>
        <time>2018-04-30T09:46:07Z</time>
      </trkpt>
      <trkpt lat="62.63575437686" lon="17.915798445358">
        <ele>39.6</ele>
        <time>2018-04-30T09:46:08Z</time>
      </trkpt>
      <trkpt lat="62.635771056841" lon="17.91573876623">
        <ele>39.6</ele>
        <time>2018-04-30T09:46:09Z</time>
      </trkpt>
      <trkpt lat="62.635784970795" lon="17.915680679663">
        <ele>39.8</ele>
        <time>2018-04-30T09:46:10Z</time>
      </trkpt>
      <trkpt lat="62.635800561129" lon="17.915622760734">
        <ele>40</ele>
        <time>2018-04-30T09:46:11Z</time>
      </trkpt>
      <trkpt lat="62.635808440115" lon="17.915572301696">
        <ele>40.2</ele>
        <time>2018-04-30T09:46:12Z</time>
      </trkpt>
      <trkpt lat="62.635810200314" lon="17.915533493499">
        <ele>40.4</ele>
        <time>2018-04-30T09:46:13Z</time>
      </trkpt>
      <trkpt lat="62.63580802102" lon="17.915525111599">
        <ele>40.6</ele>
        <time>2018-04-30T09:46:14Z</time>
      </trkpt>
      <trkpt lat="62.635806847554" lon="17.915540618114">
        <ele>40.8</ele>
        <time>2018-04-30T09:46:15Z</time>
      </trkpt>
      <trkpt lat="62.635799806758" lon="17.915504324487">
        <ele>41</ele>
        <time>2018-04-30T09:46:19Z</time>
      </trkpt>
      <trkpt lat="62.635799052387" lon="17.915494769121">
        <ele>41</ele>
        <time>2018-04-30T09:46:20Z</time>
      </trkpt>
      <trkpt lat="62.635796873093" lon="17.915474149647">
        <ele>41</ele>
        <time>2018-04-30T09:46:21Z</time>
      </trkpt>
      <trkpt lat="62.635798298016" lon="17.915458307856">
        <ele>41</ele>
        <time>2018-04-30T09:46:22Z</time>
      </trkpt>
      <trkpt lat="62.635801566957" lon="17.915440202952">
        <ele>41</ele>
        <time>2018-04-30T09:46:23Z</time>
      </trkpt>
      <trkpt lat="62.635807937201" lon="17.915428971206">
        <ele>41</ele>
        <time>2018-04-30T09:46:24Z</time>
      </trkpt>
      <trkpt lat="62.635812379608" lon="17.91541187213">
        <ele>41.2</ele>
        <time>2018-04-30T09:46:25Z</time>
      </trkpt>
      <trkpt lat="62.635813804531" lon="17.915404831334">
        <ele>41.2</ele>
        <time>2018-04-30T09:46:26Z</time>
      </trkpt>
      <trkpt lat="62.635809781219" lon="17.915397119986">
        <ele>41.2</ele>
        <time>2018-04-30T09:46:27Z</time>
      </trkpt>
    </trkseg>
  </trk>
</gpx>